<?xml version='1.0' encoding='UTF-8'?><gpx version="1.1" creator="JPX - https://github.com/jenetics/jpx" xmlns="http://www.topografix.com/GPX/1/1"><trk><trkseg><trkpt lat="45.92896116986859" lon="9.240766869647024"><ele>983.0</ele><time>2026-04-03T12:37:21.999Z</time></trkpt><trkpt lat="45.9289375791779" lon="9.240916997856537"><ele>983.0</ele><time>2026-04-03T12:37:25.999Z</time></trkpt><trkpt lat="45.92893695307278" lon="9.241078086349752"><ele>983.0</ele><time>2026-04-03T12:37:27.999Z</time></trkpt><trkpt lat="45.928952816790385" lon="9.241256126060899"><ele>983.0</ele><time>2026-04-03T12:37:29.999Z</time></trkpt><trkpt lat="45.92895635295929" lon="9.241433281927925"><ele>982.8571428571427</ele><time>2026-04-03T12:37:31.999Z</time></trkpt><trkpt lat="45.92895979142911" lon="9.241527180189392"><ele>982.7142857142857</ele><time>2026-04-03T12:37:32.999Z</time></trkpt><trkpt lat="45.92895676146554" lon="9.241621577727509"><ele>982.5714285714284</ele><time>2026-04-03T12:37:33.999Z</time></trkpt><trkpt lat="45.92895727050413" lon="9.241726016604547"><ele>982.4285714285713</ele><time>2026-04-03T12:37:34.999Z</time></trkpt><trkpt lat="45.92895742381636" lon="9.241840518083372"><ele>982.2857142857142</ele><time>2026-04-03T12:37:35.999Z</time></trkpt><trkpt lat="45.928957870733385" lon="9.241952798516865"><ele>982.1428571428571</ele><time>2026-04-03T12:37:36.999Z</time></trkpt><trkpt lat="45.928962035255125" lon="9.242069457755033"><ele>982.0</ele><time>2026-04-03T12:37:37.999Z</time></trkpt><trkpt lat="45.92896700489755" lon="9.242185111780703"><ele>981.7142857142857</ele><time>2026-04-03T12:37:38.999Z</time></trkpt><trkpt lat="45.928978253153595" lon="9.242309558831568"><ele>981.4285714285713</ele><time>2026-04-03T12:37:39.999Z</time></trkpt><trkpt lat="45.92899349795571" lon="9.242415985674173"><ele>981.1428571428571</ele><time>2026-04-03T12:37:40.999Z</time></trkpt><trkpt lat="45.929006576984435" lon="9.242514144150162"><ele>980.8571428571429</ele><time>2026-04-03T12:37:41.999Z</time></trkpt><trkpt lat="45.929015610099746" lon="9.242614785031328"><ele>980.5714285714286</ele><time>2026-04-03T12:37:42.998Z</time></trkpt><trkpt lat="45.92902441832042" lon="9.242708631256917"><ele>980.2857142857142</ele><time>2026-04-03T12:37:43.998Z</time></trkpt><trkpt lat="45.9290343020195" lon="9.24281069016475"><ele>980.0</ele><time>2026-04-03T12:37:44.998Z</time></trkpt><trkpt lat="45.92904626327118" lon="9.24290328953472"><ele>980.0000000000001</ele><time>2026-04-03T12:37:45.998Z</time></trkpt><trkpt lat="45.9290605237711" lon="9.243035411611926"><ele>980.0</ele><time>2026-04-03T12:37:47.998Z</time></trkpt><trkpt lat="45.92905565027699" lon="9.243143962925782"><ele>980.0</ele><time>2026-04-03T12:37:49.998Z</time></trkpt><trkpt lat="45.929002217017846" lon="9.243290806291638"><ele>980.0</ele><time>2026-04-03T12:37:51.998Z</time></trkpt><trkpt lat="45.928951453317744" lon="9.243368459817452"><ele>980.0000000000001</ele><time>2026-04-03T12:37:52.998Z</time></trkpt><trkpt lat="45.92889465041487" lon="9.243448801760922"><ele>980.0</ele><time>2026-04-03T12:37:53.998Z</time></trkpt><trkpt lat="45.9288565670743" lon="9.243547763264754"><ele>979.4</ele><time>2026-04-03T12:37:54.998Z</time></trkpt><trkpt lat="45.92883904181444" lon="9.24367755107398"><ele>978.8</ele><time>2026-04-03T12:37:55.998Z</time></trkpt><trkpt lat="45.928825944092544" lon="9.243814984543032"><ele>978.2</ele><time>2026-04-03T12:37:56.998Z</time></trkpt><trkpt lat="45.92880985070855" lon="9.243947423853204"><ele>977.6</ele><time>2026-04-03T12:37:57.998Z</time></trkpt><trkpt lat="45.92877895844261" lon="9.244100097877787"><ele>977.0</ele><time>2026-04-03T12:37:58.998Z</time></trkpt><trkpt lat="45.92875110600467" lon="9.244245919938791"><ele>976.8</ele><time>2026-04-03T12:37:59.998Z</time></trkpt><trkpt lat="45.92872398826369" lon="9.2443882661018"><ele>976.6</ele><time>2026-04-03T12:38:00.998Z</time></trkpt><trkpt lat="45.92869566089739" lon="9.24453534809026"><ele>976.3999999999999</ele><time>2026-04-03T12:38:01.998Z</time></trkpt><trkpt lat="45.9286712785011" lon="9.244685757912936"><ele>976.1999999999999</ele><time>2026-04-03T12:38:02.998Z</time></trkpt><trkpt lat="45.92864904357361" lon="9.24482295301933"><ele>976.0</ele><time>2026-04-03T12:38:03.998Z</time></trkpt><trkpt lat="45.92862251348491" lon="9.244969857070506"><ele>975.8333333333333</ele><time>2026-04-03T12:38:04.998Z</time></trkpt><trkpt lat="45.92859356769157" lon="9.245118965352082"><ele>975.6666666666666</ele><time>2026-04-03T12:38:05.998Z</time></trkpt><trkpt lat="45.92856899769106" lon="9.245255971336459"><ele>975.5</ele><time>2026-04-03T12:38:06.998Z</time></trkpt><trkpt lat="45.928544837131305" lon="9.245370969577888"><ele>975.3333333333333</ele><time>2026-04-03T12:38:08.001Z</time></trkpt><trkpt lat="45.928520432138725" lon="9.245479367029763"><ele>975.1666666666666</ele><time>2026-04-03T12:38:09.001Z</time></trkpt><trkpt lat="45.92849104297417" lon="9.245585066723825"><ele>975.0</ele><time>2026-04-03T12:38:10.001Z</time></trkpt><trkpt lat="45.92846943174378" lon="9.245683354171845"><ele>975.0</ele><time>2026-04-03T12:38:11.001Z</time></trkpt><trkpt lat="45.928445812619564" lon="9.245794826613512"><ele>975.0</ele><time>2026-04-03T12:38:12.001Z</time></trkpt><trkpt lat="45.92841217825465" lon="9.245920293447302"><ele>975.0</ele><time>2026-04-03T12:38:13.001Z</time></trkpt><trkpt lat="45.928375134256406" lon="9.246065194320673"><ele>975.0</ele><time>2026-04-03T12:38:14.001Z</time></trkpt><trkpt lat="45.928331558966704" lon="9.246229252232824"><ele>975.0</ele><time>2026-04-03T12:38:15.001Z</time></trkpt><trkpt lat="45.92828173451386" lon="9.24640971204424"><ele>973.5</ele><time>2026-04-03T12:38:16.001Z</time></trkpt><trkpt lat="45.92822543356289" lon="9.246599123270943"><ele>972.0</ele><time>2026-04-03T12:38:17.001Z</time></trkpt><trkpt lat="45.92817167969961" lon="9.246793467450443"><ele>970.5</ele><time>2026-04-03T12:38:18.001Z</time></trkpt><trkpt lat="45.92812550228593" lon="9.24696125129585"><ele>969.0</ele><time>2026-04-03T12:38:19.001Z</time></trkpt><trkpt lat="45.92808239263461" lon="9.247104208021575"><ele>969.0</ele><time>2026-04-03T12:38:20.001Z</time></trkpt><trkpt lat="45.92803577871089" lon="9.24723699036392"><ele>969.0</ele><time>2026-04-03T12:38:21.001Z</time></trkpt><trkpt lat="45.927996549660364" lon="9.247360416763675"><ele>969.0</ele><time>2026-04-03T12:38:22.001Z</time></trkpt><trkpt lat="45.927960815582544" lon="9.247475037053196"><ele>969.0</ele><time>2026-04-03T12:38:23.001Z</time></trkpt><trkpt lat="45.92793301125593" lon="9.247580843334061"><ele>969.0</ele><time>2026-04-03T12:38:24Z</time></trkpt><trkpt lat="45.9279080335827" lon="9.24769845073483"><ele>969.0</ele><time>2026-04-03T12:38:25Z</time></trkpt><trkpt lat="45.92787544850477" lon="9.247839490003656"><ele>969.0</ele><time>2026-04-03T12:38:26Z</time></trkpt><trkpt lat="45.92783410237033" lon="9.248005115738138"><ele>969.0</ele><time>2026-04-03T12:38:27Z</time></trkpt><trkpt lat="45.92779287788307" lon="9.248189514996032"><ele>969.0</ele><time>2026-04-03T12:38:28Z</time></trkpt><trkpt lat="45.92776125831403" lon="9.248368725199441"><ele>969.0</ele><time>2026-04-03T12:38:29Z</time></trkpt><trkpt lat="45.92774280265956" lon="9.24851540583128"><ele>969.0</ele><time>2026-04-03T12:38:30Z</time></trkpt><trkpt lat="45.92772768901279" lon="9.248650540983087"><ele>969.0000000000001</ele><time>2026-04-03T12:38:31Z</time></trkpt><trkpt lat="45.927720359148324" lon="9.248783796847862"><ele>969.0000000000001</ele><time>2026-04-03T12:38:32Z</time></trkpt><trkpt lat="45.927727169028216" lon="9.248923845233941"><ele>969.0</ele><time>2026-04-03T12:38:33Z</time></trkpt><trkpt lat="45.92775085848407" lon="9.249073434282888"><ele>969.0</ele><time>2026-04-03T12:38:34Z</time></trkpt><trkpt lat="45.92777858989181" lon="9.249241703462538"><ele>969.5</ele><time>2026-04-03T12:38:35Z</time></trkpt><trkpt lat="45.92780817281698" lon="9.249410671950656"><ele>970.0</ele><time>2026-04-03T12:38:36Z</time></trkpt><trkpt lat="45.92786439476504" lon="9.249711077173957"><ele>970.5</ele><time>2026-04-03T12:38:38Z</time></trkpt><trkpt lat="45.9278935523348" lon="9.24984836031478"><ele>971.0</ele><time>2026-04-03T12:38:39Z</time></trkpt><trkpt lat="45.92791776715377" lon="9.249997571565178"><ele>969.8</ele><time>2026-04-03T12:38:40Z</time></trkpt><trkpt lat="45.927942105126576" lon="9.25014652999277"><ele>968.5999999999999</ele><time>2026-04-03T12:38:41Z</time></trkpt><trkpt lat="45.927968731997105" lon="9.250286878084175"><ele>967.4</ele><time>2026-04-03T12:38:42Z</time></trkpt><trkpt lat="45.92798525083255" lon="9.250425423159644"><ele>966.2</ele><time>2026-04-03T12:38:43Z</time></trkpt><trkpt lat="45.92800605807671" lon="9.250565318685172"><ele>965.0</ele><time>2026-04-03T12:38:44Z</time></trkpt><trkpt lat="45.92802321639952" lon="9.250697324246243"><ele>963.4</ele><time>2026-04-03T12:38:45Z</time></trkpt><trkpt lat="45.928046326950444" lon="9.250830688536961"><ele>961.8</ele><time>2026-04-03T12:38:46Z</time></trkpt><trkpt lat="45.92807814934396" lon="9.250973176475199"><ele>960.2</ele><time>2026-04-03T12:38:47Z</time></trkpt><trkpt lat="45.92812574745637" lon="9.2511191806583"><ele>958.6</ele><time>2026-04-03T12:38:48Z</time></trkpt><trkpt lat="45.92817798055812" lon="9.251262519786057"><ele>957.0</ele><time>2026-04-03T12:38:49Z</time></trkpt><trkpt lat="45.92822707129445" lon="9.251392403273057"><ele>956.8</ele><time>2026-04-03T12:38:50Z</time></trkpt><trkpt lat="45.92827366771217" lon="9.251510339214228"><ele>956.6</ele><time>2026-04-03T12:38:51Z</time></trkpt><trkpt lat="45.92831601274243" lon="9.251623520294396"><ele>956.3999999999999</ele><time>2026-04-03T12:38:52Z</time></trkpt><trkpt lat="45.92835045786209" lon="9.251736052491385"><ele>956.1999999999999</ele><time>2026-04-03T12:38:53Z</time></trkpt><trkpt lat="45.92837905644726" lon="9.251870779935834"><ele>956.0</ele><time>2026-04-03T12:38:54Z</time></trkpt><trkpt lat="45.92838181166946" lon="9.252035056962448"><ele>956.0</ele><time>2026-04-03T12:38:55Z</time></trkpt><trkpt lat="45.92835255506724" lon="9.252225408775233"><ele>956.0</ele><time>2026-04-03T12:38:56Z</time></trkpt><trkpt lat="45.92833247338285" lon="9.25241127909119"><ele>956.0</ele><time>2026-04-03T12:38:57Z</time></trkpt><trkpt lat="45.92832984801407" lon="9.252617396124457"><ele>956.0</ele><time>2026-04-03T12:38:58Z</time></trkpt><trkpt lat="45.92835203110308" lon="9.252836141745487"><ele>955.25</ele><time>2026-04-03T12:38:59Z</time></trkpt><trkpt lat="45.92839060260716" lon="9.253056531462905"><ele>954.5</ele><time>2026-04-03T12:39:00Z</time></trkpt><trkpt lat="45.928428721142744" lon="9.253257343450583"><ele>953.75</ele><time>2026-04-03T12:39:01Z</time></trkpt><trkpt lat="45.92846533591867" lon="9.253439139948693"><ele>953.0</ele><time>2026-04-03T12:39:02Z</time></trkpt><trkpt lat="45.92849260691938" lon="9.253607215314513"><ele>945.4</ele><time>2026-04-03T12:39:03Z</time></trkpt><trkpt lat="45.92851305018278" lon="9.253763612566672"><ele>937.8</ele><time>2026-04-03T12:39:04Z</time></trkpt><trkpt lat="45.928529755389896" lon="9.253918952955877"><ele>930.2</ele><time>2026-04-03T12:39:04.999Z</time></trkpt><trkpt lat="45.92854835485777" lon="9.254069367962732"><ele>922.6</ele><time>2026-04-03T12:39:05.999Z</time></trkpt><trkpt lat="45.928564753775014" lon="9.254200766858212"><ele>915.0</ele><time>2026-04-03T12:39:06.999Z</time></trkpt><trkpt lat="45.92858299716503" lon="9.254314085512112"><ele>913.6</ele><time>2026-04-03T12:39:07.999Z</time></trkpt><trkpt lat="45.928585651612224" lon="9.254430624666139"><ele>912.2</ele><time>2026-04-03T12:39:08.999Z</time></trkpt><trkpt lat="45.928561226267924" lon="9.254569154942944"><ele>910.8</ele><time>2026-04-03T12:39:09.999Z</time></trkpt><trkpt lat="45.928514357715486" lon="9.254739787645716"><ele>909.4</ele><time>2026-04-03T12:39:10.999Z</time></trkpt><trkpt lat="45.92845859382537" lon="9.25491755855325"><ele>908.0</ele><time>2026-04-03T12:39:11.999Z</time></trkpt><trkpt lat="45.928393184294144" lon="9.25511200782949"><ele>912.25</ele><time>2026-04-03T12:39:12.999Z</time></trkpt><trkpt lat="45.92833106587779" lon="9.25530336947016"><ele>916.5</ele><time>2026-04-03T12:39:13.999Z</time></trkpt><trkpt lat="45.92826734884393" lon="9.255485038812097"><ele>920.75</ele><time>2026-04-03T12:39:14.999Z</time></trkpt><trkpt lat="45.92820645643567" lon="9.255650830270065"><ele>925.0</ele><time>2026-04-03T12:39:15.999Z</time></trkpt><trkpt lat="45.92815230099905" lon="9.255808087081352"><ele>925.0</ele><time>2026-04-03T12:39:16.999Z</time></trkpt><trkpt lat="45.92811984273144" lon="9.255970658706195"><ele>925.0</ele><time>2026-04-03T12:39:17.999Z</time></trkpt><trkpt lat="45.92811380342045" lon="9.256157425769413"><ele>925.0</ele><time>2026-04-03T12:39:18.999Z</time></trkpt><trkpt lat="45.92812620981099" lon="9.256371641471622"><ele>925.0</ele><time>2026-04-03T12:39:19.999Z</time></trkpt><trkpt lat="45.92814227109074" lon="9.256595522969363"><ele>921.0</ele><time>2026-04-03T12:39:20.999Z</time></trkpt><trkpt lat="45.92814981217035" lon="9.256821240001589"><ele>917.0</ele><time>2026-04-03T12:39:21.999Z</time></trkpt><trkpt lat="45.92815364689896" lon="9.257051665879311"><ele>913.0</ele><time>2026-04-03T12:39:22.999Z</time></trkpt><trkpt lat="45.92815334438085" lon="9.25727372559819"><ele>911.5</ele><time>2026-04-03T12:39:23.999Z</time></trkpt><trkpt lat="45.928158643328615" lon="9.25747601193298"><ele>910.0</ele><time>2026-04-03T12:39:24.999Z</time></trkpt><trkpt lat="45.9281616673864" lon="9.257665947509132"><ele>908.5</ele><time>2026-04-03T12:39:25.999Z</time></trkpt><trkpt lat="45.92816788162236" lon="9.257848298222395"><ele>907.0</ele><time>2026-04-03T12:39:26.999Z</time></trkpt><trkpt lat="45.928169513290015" lon="9.258026141295646"><ele>905.8</ele><time>2026-04-03T12:39:27.999Z</time></trkpt><trkpt lat="45.928171488867925" lon="9.258199297097788"><ele>904.6</ele><time>2026-04-03T12:39:28.999Z</time></trkpt><trkpt lat="45.928171171585056" lon="9.258361421791543"><ele>903.3999999999999</ele><time>2026-04-03T12:39:29.999Z</time></trkpt><trkpt lat="45.92816574151811" lon="9.25849717132708"><ele>902.1999999999999</ele><time>2026-04-03T12:39:30.999Z</time></trkpt><trkpt lat="45.92814929246815" lon="9.2586121823827"><ele>901.0</ele><time>2026-04-03T12:39:31.999Z</time></trkpt><trkpt lat="45.92812436753965" lon="9.25871848570964"><ele>900.9999999999999</ele><time>2026-04-03T12:39:32.999Z</time></trkpt><trkpt lat="45.92809853235791" lon="9.258809853817505"><ele>901.0</ele><time>2026-04-03T12:39:33.999Z</time></trkpt><trkpt lat="45.928072734312714" lon="9.258954668939406"><ele>901.0</ele><time>2026-04-03T12:39:35.999Z</time></trkpt><trkpt lat="45.928157055583874" lon="9.25903366452076"><ele>901.0</ele><time>2026-04-03T12:39:37.999Z</time></trkpt><trkpt lat="45.928218807770286" lon="9.258997542450793"><ele>900.9999999999999</ele><time>2026-04-03T12:39:38.999Z</time></trkpt><trkpt lat="45.92826085152024" lon="9.258925993613987"><ele>901.0</ele><time>2026-04-03T12:39:39.999Z</time></trkpt><trkpt lat="45.92828235424429" lon="9.258817636833445"><ele>901.0</ele><time>2026-04-03T12:39:40.999Z</time></trkpt><trkpt lat="45.9283022286692" lon="9.258679489977569"><ele>901.0</ele><time>2026-04-03T12:39:41.999Z</time></trkpt><trkpt lat="45.92834826750579" lon="9.25853669871423"><ele>901.0</ele><time>2026-04-03T12:39:42.999Z</time></trkpt><trkpt lat="45.92842003179064" lon="9.258374432404203"><ele>901.0</ele><time>2026-04-03T12:39:43.999Z</time></trkpt><trkpt lat="45.9285059544901" lon="9.258210161400365"><ele>895.5</ele><time>2026-04-03T12:39:44.999Z</time></trkpt><trkpt lat="45.92857961430878" lon="9.258046536921025"><ele>890.0</ele><time>2026-04-03T12:39:45.999Z</time></trkpt><trkpt lat="45.928638674742395" lon="9.257904465965872"><ele>884.5</ele><time>2026-04-03T12:39:46.998Z</time></trkpt><trkpt lat="45.92869937379057" lon="9.257783970257014"><ele>879.0</ele><time>2026-04-03T12:39:47.998Z</time></trkpt><trkpt lat="45.92875668514668" lon="9.257666755138628"><ele>879.0</ele><time>2026-04-03T12:39:48.998Z</time></trkpt><trkpt lat="45.928809807254176" lon="9.257535957852788"><ele>879.0</ele><time>2026-04-03T12:39:49.998Z</time></trkpt><trkpt lat="45.92885955225316" lon="9.25741471066573"><ele>879.0</ele><time>2026-04-03T12:39:50.998Z</time></trkpt><trkpt lat="45.92890620338655" lon="9.257306896141332"><ele>879.0</ele><time>2026-04-03T12:39:51.998Z</time></trkpt><trkpt lat="45.92893526436042" lon="9.25721364579529"><ele>879.0</ele><time>2026-04-03T12:39:52.998Z</time></trkpt><trkpt lat="45.92895281590095" lon="9.257110929071391"><ele>879.0</ele><time>2026-04-03T12:39:53.998Z</time></trkpt><trkpt lat="45.928960493418444" lon="9.256939979711493"><ele>879.0</ele><time>2026-04-03T12:39:55.998Z</time></trkpt><trkpt lat="45.92902668310804" lon="9.256874247295338"><ele>879.0</ele><time>2026-04-03T12:39:57.998Z</time></trkpt><trkpt lat="45.92910025219389" lon="9.256977540557381"><ele>879.0</ele><time>2026-04-03T12:39:59.998Z</time></trkpt><trkpt lat="45.92911315356852" lon="9.257068897592713"><ele>879.0</ele><time>2026-04-03T12:40:00.998Z</time></trkpt><trkpt lat="45.92911298914792" lon="9.257193993114003"><ele>879.0</ele><time>2026-04-03T12:40:01.998Z</time></trkpt><trkpt lat="45.92911976671998" lon="9.257334009486183"><ele>879.0</ele><time>2026-04-03T12:40:02.998Z</time></trkpt><trkpt lat="45.92913298080365" lon="9.25749187088575"><ele>879.0</ele><time>2026-04-03T12:40:03.998Z</time></trkpt><trkpt lat="45.929145845412705" lon="9.257654091037118"><ele>879.0000000000001</ele><time>2026-04-03T12:40:04.998Z</time></trkpt><trkpt lat="45.92915618588731" lon="9.257807851372329"><ele>879.0000000000001</ele><time>2026-04-03T12:40:05.998Z</time></trkpt><trkpt lat="45.929162492030095" lon="9.257948921115304"><ele>879.0</ele><time>2026-04-03T12:40:06.998Z</time></trkpt><trkpt lat="45.92916297303183" lon="9.258081070461067"><ele>879.0</ele><time>2026-04-03T12:40:07.998Z</time></trkpt><trkpt lat="45.929165845450534" lon="9.258195459777102"><ele>878.0</ele><time>2026-04-03T12:40:08.998Z</time></trkpt><trkpt lat="45.92917067128549" lon="9.258303222615462"><ele>877.0</ele><time>2026-04-03T12:40:09.998Z</time></trkpt><trkpt lat="45.92917697148419" lon="9.25840061116408"><ele>876.0</ele><time>2026-04-03T12:40:10.998Z</time></trkpt><trkpt lat="45.929168270822466" lon="9.258542295445308"><ele>875.0</ele><time>2026-04-03T12:40:13.001Z</time></trkpt><trkpt lat="45.92920808362259" lon="9.258649065882347"><ele>874.0</ele><time>2026-04-03T12:40:15Z</time></trkpt><trkpt lat="45.9293049842308" lon="9.258626215749207"><ele>873.0</ele><time>2026-04-03T12:40:17.001Z</time></trkpt><trkpt lat="45.92935343914295" lon="9.258451748449525"><ele>869.5999999999999</ele><time>2026-04-03T12:40:19.001Z</time></trkpt><trkpt lat="45.929348244394724" lon="9.258330861249574"><ele>866.1999999999999</ele><time>2026-04-03T12:40:20.001Z</time></trkpt><trkpt lat="45.92935845172702" lon="9.258198386222483"><ele>862.8</ele><time>2026-04-03T12:40:21Z</time></trkpt><trkpt lat="45.92939089260014" lon="9.258062894376861"><ele>859.4</ele><time>2026-04-03T12:40:22.001Z</time></trkpt><trkpt lat="45.929443332040215" lon="9.257927599224589"><ele>856.0</ele><time>2026-04-03T12:40:23.001Z</time></trkpt><trkpt lat="45.92950160645672" lon="9.25778090689342"><ele>856.0</ele><time>2026-04-03T12:40:24Z</time></trkpt><trkpt lat="45.92955843910026" lon="9.257624059461765"><ele>855.9999999999999</ele><time>2026-04-03T12:40:25.001Z</time></trkpt><trkpt lat="45.92960586085052" lon="9.25747712085767"><ele>855.9999999999999</ele><time>2026-04-03T12:40:26.001Z</time></trkpt><trkpt lat="45.92963707164639" lon="9.257352108901827"><ele>856.0</ele><time>2026-04-03T12:40:27Z</time></trkpt><trkpt lat="45.929654135126746" lon="9.257230781816983"><ele>856.0</ele><time>2026-04-03T12:40:28Z</time></trkpt><trkpt lat="45.92965361079472" lon="9.257116466283993"><ele>854.3333333333333</ele><time>2026-04-03T12:40:29Z</time></trkpt><trkpt lat="45.92965374342072" lon="9.257009040123604"><ele>852.6666666666666</ele><time>2026-04-03T12:40:30Z</time></trkpt><trkpt lat="45.929656260454344" lon="9.256874677040189"><ele>851.0</ele><time>2026-04-03T12:40:32Z</time></trkpt><trkpt lat="45.92972284327687" lon="9.256838583328097"><ele>849.3333333333333</ele><time>2026-04-03T12:40:34Z</time></trkpt><trkpt lat="45.9297898365182" lon="9.25696526862306"><ele>847.6666666666666</ele><time>2026-04-03T12:40:36Z</time></trkpt><trkpt lat="45.9298010217426" lon="9.25708445671542"><ele>846.0</ele><time>2026-04-03T12:40:37Z</time></trkpt><trkpt lat="45.92982364827012" lon="9.257223582831417"><ele>848.5</ele><time>2026-04-03T12:40:38Z</time></trkpt><trkpt lat="45.92987009710143" lon="9.257380293534933"><ele>851.0</ele><time>2026-04-03T12:40:39Z</time></trkpt><trkpt lat="45.92992341295931" lon="9.257552769237579"><ele>853.5</ele><time>2026-04-03T12:40:40Z</time></trkpt><trkpt lat="45.929967175732926" lon="9.257724699755984"><ele>856.0</ele><time>2026-04-03T12:40:41Z</time></trkpt><trkpt lat="45.93000107329247" lon="9.25788196782275"><ele>856.0</ele><time>2026-04-03T12:40:42Z</time></trkpt><trkpt lat="45.93003773939571" lon="9.258016558656392"><ele>855.9999999999999</ele><time>2026-04-03T12:40:43Z</time></trkpt><trkpt lat="45.93007499556047" lon="9.258144061061103"><ele>855.9999999999999</ele><time>2026-04-03T12:40:44Z</time></trkpt><trkpt lat="45.93010183499303" lon="9.258275503601245"><ele>856.0</ele><time>2026-04-03T12:40:45Z</time></trkpt><trkpt lat="45.93010988450171" lon="9.258397144216302"><ele>856.0</ele><time>2026-04-03T12:40:46Z</time></trkpt><trkpt lat="45.93010122329295" lon="9.258532345347795"><ele>854.75</ele><time>2026-04-03T12:40:47Z</time></trkpt><trkpt lat="45.93007000395923" lon="9.258661475828339"><ele>853.5</ele><time>2026-04-03T12:40:48Z</time></trkpt><trkpt lat="45.9300123233123" lon="9.258797397165292"><ele>852.25</ele><time>2026-04-03T12:40:49Z</time></trkpt><trkpt lat="45.92993536585296" lon="9.258944960524449"><ele>851.0</ele><time>2026-04-03T12:40:50Z</time></trkpt><trkpt lat="45.929852759126824" lon="9.259107190149754"><ele>849.0</ele><time>2026-04-03T12:40:51Z</time></trkpt><trkpt lat="45.929776945973174" lon="9.259277123302233"><ele>847.0</ele><time>2026-04-03T12:40:52Z</time></trkpt><trkpt lat="45.929702640036865" lon="9.259444746155172"><ele>845.0</ele><time>2026-04-03T12:40:53Z</time></trkpt><trkpt lat="45.929622409268966" lon="9.259611033002065"><ele>843.0</ele><time>2026-04-03T12:40:54Z</time></trkpt><trkpt lat="45.92954093401955" lon="9.259776426704683"><ele>839.75</ele><time>2026-04-03T12:40:55Z</time></trkpt><trkpt lat="45.929458650975185" lon="9.25994511972065"><ele>836.5</ele><time>2026-04-03T12:40:56Z</time></trkpt><trkpt lat="45.92938291870192" lon="9.260110815190357"><ele>833.25</ele><time>2026-04-03T12:40:57Z</time></trkpt><trkpt lat="45.9293142707294" lon="9.260262652003581"><ele>830.0</ele><time>2026-04-03T12:40:58Z</time></trkpt><trkpt lat="45.92924344401557" lon="9.260410313150377"><ele>830.25</ele><time>2026-04-03T12:40:59Z</time></trkpt><trkpt lat="45.92916297180744" lon="9.260547985762614"><ele>830.5</ele><time>2026-04-03T12:41:00Z</time></trkpt><trkpt lat="45.92907002936775" lon="9.260657039047558"><ele>830.75</ele><time>2026-04-03T12:41:01Z</time></trkpt><trkpt lat="45.92897630894677" lon="9.260765993834172"><ele>831.0</ele><time>2026-04-03T12:41:02Z</time></trkpt><trkpt lat="45.92889206850358" lon="9.260892087550996"><ele>831.0</ele><time>2026-04-03T12:41:03Z</time></trkpt><trkpt lat="45.92882939571217" lon="9.261052443233213"><ele>831.0</ele><time>2026-04-03T12:41:04Z</time></trkpt><trkpt lat="45.92879442515924" lon="9.261244006783883"><ele>831.0</ele><time>2026-04-03T12:41:05Z</time></trkpt><trkpt lat="45.928770458122266" lon="9.261457526932"><ele>831.0</ele><time>2026-04-03T12:41:06Z</time></trkpt><trkpt lat="45.92876278257402" lon="9.261661269735209"><ele>827.25</ele><time>2026-04-03T12:41:07Z</time></trkpt><trkpt lat="45.92875539702118" lon="9.26184938273822"><ele>823.5</ele><time>2026-04-03T12:41:08Z</time></trkpt><trkpt lat="45.92875709798422" lon="9.262025450370249"><ele>819.75</ele><time>2026-04-03T12:41:08.999Z</time></trkpt><trkpt lat="45.92876341720309" lon="9.26219853659331"><ele>816.0</ele><time>2026-04-03T12:41:09.999Z</time></trkpt><trkpt lat="45.9287493768519" lon="9.262375381130354"><ele>814.0</ele><time>2026-04-03T12:41:10.999Z</time></trkpt><trkpt lat="45.928710673528954" lon="9.262562658121581"><ele>812.0</ele><time>2026-04-03T12:41:11.999Z</time></trkpt><trkpt lat="45.928656210119144" lon="9.262722770567072"><ele>810.0</ele><time>2026-04-03T12:41:12.999Z</time></trkpt><trkpt lat="45.92860487408199" lon="9.262857237745532"><ele>808.0</ele><time>2026-04-03T12:41:13.999Z</time></trkpt><trkpt lat="45.928557120009785" lon="9.262987160483942"><ele>808.0</ele><time>2026-04-03T12:41:14.999Z</time></trkpt><trkpt lat="45.92848420360002" lon="9.263112579368704"><ele>808.0</ele><time>2026-04-03T12:41:15.999Z</time></trkpt><trkpt lat="45.928396879978116" lon="9.263236051893163"><ele>808.0</ele><time>2026-04-03T12:41:16.999Z</time></trkpt><trkpt lat="45.928327822973046" lon="9.263359518957836"><ele>808.0</ele><time>2026-04-03T12:41:17.999Z</time></trkpt><trkpt lat="45.928266439452734" lon="9.263478474809155"><ele>808.0</ele><time>2026-04-03T12:41:18.999Z</time></trkpt><trkpt lat="45.928179643326615" lon="9.263580949912356"><ele>806.75</ele><time>2026-04-03T12:41:19.999Z</time></trkpt><trkpt lat="45.92806484582693" lon="9.263675360738613"><ele>805.5</ele><time>2026-04-03T12:41:20.999Z</time></trkpt><trkpt lat="45.9279378850616" lon="9.26378118933776"><ele>804.25</ele><time>2026-04-03T12:41:21.999Z</time></trkpt><trkpt lat="45.9278091061452" lon="9.263899868523758"><ele>803.0</ele><time>2026-04-03T12:41:22.999Z</time></trkpt><trkpt lat="45.927689356074296" lon="9.264015020915725"><ele>803.0</ele><time>2026-04-03T12:41:23.999Z</time></trkpt><trkpt lat="45.92757972548706" lon="9.26412160838439"><ele>803.0</ele><time>2026-04-03T12:41:24.999Z</time></trkpt><trkpt lat="45.92748006196" lon="9.264215839665745"><ele>803.0</ele><time>2026-04-03T12:41:25.999Z</time></trkpt><trkpt lat="45.9273868169747" lon="9.264297285115942"><ele>803.0</ele><time>2026-04-03T12:41:26.999Z</time></trkpt><trkpt lat="45.92730302866083" lon="9.264350420198582"><ele>803.4</ele><time>2026-04-03T12:41:27.999Z</time></trkpt><trkpt lat="45.92722605335708" lon="9.264380302911313"><ele>803.8</ele><time>2026-04-03T12:41:28.999Z</time></trkpt><trkpt lat="45.92715721061995" lon="9.264418874049326"><ele>804.2</ele><time>2026-04-03T12:41:29.999Z</time></trkpt><trkpt lat="45.92710694034977" lon="9.264518350287466"><ele>804.6</ele><time>2026-04-03T12:41:30.999Z</time></trkpt><trkpt lat="45.927076010916785" lon="9.26467332564914"><ele>805.0</ele><time>2026-04-03T12:41:31.999Z</time></trkpt><trkpt lat="45.927061915289464" lon="9.264866957466216"><ele>798.0</ele><time>2026-04-03T12:41:32.999Z</time></trkpt><trkpt lat="45.92704567935227" lon="9.265088192173868"><ele>791.0</ele><time>2026-04-03T12:41:33.999Z</time></trkpt><trkpt lat="45.92700809614184" lon="9.265311088100573"><ele>784.0</ele><time>2026-04-03T12:41:34.999Z</time></trkpt><trkpt lat="45.92696493001871" lon="9.26552256569271"><ele>781.0</ele><time>2026-04-03T12:41:35.999Z</time></trkpt><trkpt lat="45.926920187423164" lon="9.265722626367337"><ele>778.0</ele><time>2026-04-03T12:41:36.999Z</time></trkpt><trkpt lat="45.92698426397901" lon="9.265895330078804"><ele>775.0</ele><time>2026-04-03T12:41:37.999Z</time></trkpt><trkpt lat="45.92697261747138" lon="9.266048409896225"><ele>772.0</ele><time>2026-04-03T12:41:38.999Z</time></trkpt><trkpt lat="45.92696293184084" lon="9.26618690588103"><ele>772.0</ele><time>2026-04-03T12:41:39.999Z</time></trkpt><trkpt lat="45.926945713847296" lon="9.266303523064217"><ele>772.0</ele><time>2026-04-03T12:41:40.999Z</time></trkpt><trkpt lat="45.92687645226718" lon="9.266454397624987"><ele>772.0</ele><time>2026-04-03T12:41:42.999Z</time></trkpt><trkpt lat="45.92678882448287" lon="9.26651893996711"><ele>772.0</ele><time>2026-04-03T12:41:43.999Z</time></trkpt><trkpt lat="45.926670060994724" lon="9.266588803256916"><ele>772.0</ele><time>2026-04-03T12:41:44.999Z</time></trkpt><trkpt lat="45.926561460157" lon="9.266705234642197"><ele>773.4000000000001</ele><time>2026-04-03T12:41:45.999Z</time></trkpt><trkpt lat="45.926484761147854" lon="9.266836555829189"><ele>774.8000000000001</ele><time>2026-04-03T12:41:46.999Z</time></trkpt><trkpt lat="45.92640223553666" lon="9.266923438709156"><ele>776.2</ele><time>2026-04-03T12:41:47.999Z</time></trkpt><trkpt lat="45.92631944844295" lon="9.266961170487473"><ele>777.6</ele><time>2026-04-03T12:41:48.999Z</time></trkpt><trkpt lat="45.92620146286155" lon="9.266962493435454"><ele>779.0</ele><time>2026-04-03T12:41:49.999Z</time></trkpt><trkpt lat="45.92607471881249" lon="9.266956711073039"><ele>779.0</ele><time>2026-04-03T12:41:50.998Z</time></trkpt><trkpt lat="45.92594654638277" lon="9.266979024414836"><ele>779.0</ele><time>2026-04-03T12:41:51.998Z</time></trkpt><trkpt lat="45.925824516633384" lon="9.267032529420213"><ele>779.0</ele><time>2026-04-03T12:41:52.998Z</time></trkpt><trkpt lat="45.92573298468515" lon="9.267055627674772"><ele>779.0</ele><time>2026-04-03T12:41:53.998Z</time></trkpt><trkpt lat="45.925616544663" lon="9.267130676873494"><ele>784.0</ele><time>2026-04-03T12:41:54.998Z</time></trkpt><trkpt lat="45.92552453506312" lon="9.267206969577362"><ele>789.0</ele><time>2026-04-03T12:41:55.998Z</time></trkpt><trkpt lat="45.92544639272975" lon="9.267264832138075"><ele>794.0</ele><time>2026-04-03T12:41:56.998Z</time></trkpt><trkpt lat="45.925363355351244" lon="9.267286075798712"><ele>799.0</ele><time>2026-04-03T12:41:57.998Z</time></trkpt><trkpt lat="45.92528281763202" lon="9.267254407228348"><ele>804.0</ele><time>2026-04-03T12:41:58.998Z</time></trkpt><trkpt lat="45.92517104644232" lon="9.267220314013304"><ele>802.5</ele><time>2026-04-03T12:41:59.998Z</time></trkpt><trkpt lat="45.92504468652935" lon="9.267192980262458"><ele>801.0</ele><time>2026-04-03T12:42:00.998Z</time></trkpt><trkpt lat="45.92491550497058" lon="9.267193511148072"><ele>799.5</ele><time>2026-04-03T12:42:01.998Z</time></trkpt><trkpt lat="45.92480777165314" lon="9.26721104227458"><ele>798.0</ele><time>2026-04-03T12:42:02.998Z</time></trkpt><trkpt lat="45.92471389807171" lon="9.267230820751932"><ele>798.0</ele><time>2026-04-03T12:42:03.998Z</time></trkpt><trkpt lat="45.92462364488773" lon="9.267256071577865"><ele>798.0</ele><time>2026-04-03T12:42:04.998Z</time></trkpt><trkpt lat="45.924538390262114" lon="9.267280551137647"><ele>798.0</ele><time>2026-04-03T12:42:05.998Z</time></trkpt><trkpt lat="45.92446256014437" lon="9.267280070788908"><ele>798.0</ele><time>2026-04-03T12:42:06.998Z</time></trkpt><trkpt lat="45.92438982437546" lon="9.26724574408438"><ele>798.0</ele><time>2026-04-03T12:42:07.998Z</time></trkpt><trkpt lat="45.92431026652021" lon="9.267173723311132"><ele>798.0</ele><time>2026-04-03T12:42:08.998Z</time></trkpt><trkpt lat="45.92422225860907" lon="9.267107819252281"><ele>792.6666666666666</ele><time>2026-04-03T12:42:09.998Z</time></trkpt><trkpt lat="45.92413391904394" lon="9.267052034033098"><ele>787.3333333333334</ele><time>2026-04-03T12:42:10.998Z</time></trkpt><trkpt lat="45.92405747789672" lon="9.267002228999404"><ele>782.0</ele><time>2026-04-03T12:42:11.998Z</time></trkpt><trkpt lat="45.92398646555481" lon="9.266957532791004"><ele>776.6666666666667</ele><time>2026-04-03T12:42:12.998Z</time></trkpt><trkpt lat="45.92391606353387" lon="9.266910934959773"><ele>771.3333333333334</ele><time>2026-04-03T12:42:13.998Z</time></trkpt><trkpt lat="45.92384901220986" lon="9.266880760343458"><ele>766.0</ele><time>2026-04-03T12:42:14.998Z</time></trkpt><trkpt lat="45.92378032899425" lon="9.266866117700907"><ele>766.0</ele><time>2026-04-03T12:42:15.998Z</time></trkpt><trkpt lat="45.92371535838594" lon="9.266872160461284"><ele>766.0</ele><time>2026-04-03T12:42:16.998Z</time></trkpt><trkpt lat="45.923614747882944" lon="9.266893607534799"><ele>766.0</ele><time>2026-04-03T12:42:19Z</time></trkpt><trkpt lat="45.92353884162648" lon="9.266902728279035"><ele>766.0</ele><time>2026-04-03T12:42:22Z</time></trkpt><trkpt lat="45.9234665633691" lon="9.266918751880123"><ele>766.0</ele><time>2026-04-03T12:42:51Z</time></trkpt><trkpt lat="45.92338996711475" lon="9.26688899061869"><ele>766.0</ele><time>2026-04-03T12:42:54Z</time></trkpt><trkpt lat="45.92330231195896" lon="9.266782774683028"><ele>766.0</ele><time>2026-04-03T12:42:56Z</time></trkpt><trkpt lat="45.92326191381103" lon="9.266711759555921"><ele>766.0</ele><time>2026-04-03T12:42:57Z</time></trkpt><trkpt lat="45.923219973074644" lon="9.266627539304947"><ele>766.0</ele><time>2026-04-03T12:42:58Z</time></trkpt><trkpt lat="45.923182155095084" lon="9.26652619746116"><ele>766.0</ele><time>2026-04-03T12:42:59Z</time></trkpt><trkpt lat="45.92314692233082" lon="9.26640820188011"><ele>766.0</ele><time>2026-04-03T12:43:00Z</time></trkpt><trkpt lat="45.92312054133022" lon="9.266274109177157"><ele>766.0</ele><time>2026-04-03T12:43:01Z</time></trkpt><trkpt lat="45.92310367444473" lon="9.266123836825539"><ele>766.0</ele><time>2026-04-03T12:43:02Z</time></trkpt><trkpt lat="45.92309248785545" lon="9.265957797945948"><ele>766.0</ele><time>2026-04-03T12:43:03Z</time></trkpt><trkpt lat="45.923080898691786" lon="9.26577987706198"><ele>766.0</ele><time>2026-04-03T12:43:04Z</time></trkpt><trkpt lat="45.92306372712385" lon="9.265601888545595"><ele>766.0</ele><time>2026-04-03T12:43:05Z</time></trkpt><trkpt lat="45.923050876889334" lon="9.26541843089975"><ele>766.0</ele><time>2026-04-03T12:43:06Z</time></trkpt><trkpt lat="45.92303657385164" lon="9.265230944210922"><ele>766.0</ele><time>2026-04-03T12:43:07Z</time></trkpt><trkpt lat="45.92302237003141" lon="9.265049078523086"><ele>766.0</ele><time>2026-04-03T12:43:08Z</time></trkpt><trkpt lat="45.92300473746264" lon="9.26486315024077"><ele>766.0</ele><time>2026-04-03T12:43:08.999Z</time></trkpt><trkpt lat="45.92298698887592" lon="9.264670721834914"><ele>766.0</ele><time>2026-04-03T12:43:09.999Z</time></trkpt><trkpt lat="45.92296307191645" lon="9.264475087022461"><ele>766.0</ele><time>2026-04-03T12:43:10.999Z</time></trkpt><trkpt lat="45.922934989335175" lon="9.264281709470406"><ele>766.0</ele><time>2026-04-03T12:43:11.999Z</time></trkpt><trkpt lat="45.92290759008563" lon="9.26409404498657"><ele>766.0</ele><time>2026-04-03T12:43:12.999Z</time></trkpt><trkpt lat="45.92288468717948" lon="9.263909559591916"><ele>766.0</ele><time>2026-04-03T12:43:13.999Z</time></trkpt><trkpt lat="45.922862061959776" lon="9.26375428896521"><ele>766.0</ele><time>2026-04-03T12:43:14.999Z</time></trkpt><trkpt lat="45.92283937116527" lon="9.263617587404323"><ele>766.0</ele><time>2026-04-03T12:43:15.999Z</time></trkpt><trkpt lat="45.922811728751746" lon="9.263506923155136"><ele>766.0</ele><time>2026-04-03T12:43:16.999Z</time></trkpt><trkpt lat="45.92277615984628" lon="9.263414402524644"><ele>766.0</ele><time>2026-04-03T12:43:17.999Z</time></trkpt><trkpt lat="45.92274422422537" lon="9.263335037277955"><ele>766.0</ele><time>2026-04-03T12:43:18.999Z</time></trkpt><trkpt lat="45.922692064108794" lon="9.263208266809302"><ele>766.4</ele><time>2026-04-03T12:43:20.999Z</time></trkpt><trkpt lat="45.92261647614264" lon="9.263051173362296"><ele>766.8</ele><time>2026-04-03T12:43:22.999Z</time></trkpt><trkpt lat="45.92256394728043" lon="9.262960261286127"><ele>767.1999999999999</ele><time>2026-04-03T12:43:23.999Z</time></trkpt><trkpt lat="45.92249678438503" lon="9.262871335102155"><ele>767.5999999999999</ele><time>2026-04-03T12:43:24.999Z</time></trkpt><trkpt lat="45.92241657673796" lon="9.26277390125766"><ele>768.0</ele><time>2026-04-03T12:43:25.999Z</time></trkpt><trkpt lat="45.92231906001103" lon="9.262673232843797"><ele>765.0</ele><time>2026-04-03T12:43:26.999Z</time></trkpt><trkpt lat="45.92219912451633" lon="9.262582619327354"><ele>762.0</ele><time>2026-04-03T12:43:27.999Z</time></trkpt><trkpt lat="45.92206689770807" lon="9.262502591188555"><ele>759.0</ele><time>2026-04-03T12:43:28.999Z</time></trkpt><trkpt lat="45.92192863118857" lon="9.262426466637004"><ele>756.0</ele><time>2026-04-03T12:43:29.999Z</time></trkpt><trkpt lat="45.92179784947532" lon="9.262369420258526"><ele>755.0</ele><time>2026-04-03T12:43:30.999Z</time></trkpt><trkpt lat="45.92167151210949" lon="9.262319855423165"><ele>754.0</ele><time>2026-04-03T12:43:31.999Z</time></trkpt><trkpt lat="45.92155085677921" lon="9.262285433296622"><ele>753.0</ele><time>2026-04-03T12:43:32.999Z</time></trkpt><trkpt lat="45.921435343750545" lon="9.262241160629655"><ele>752.0</ele><time>2026-04-03T12:43:33.999Z</time></trkpt><trkpt lat="45.92131836737386" lon="9.26220029757619"><ele>752.25</ele><time>2026-04-03T12:43:34.999Z</time></trkpt><trkpt lat="45.92120323266703" lon="9.262158523254026"><ele>752.5</ele><time>2026-04-03T12:43:35.999Z</time></trkpt><trkpt lat="45.921087340436415" lon="9.26209786924655"><ele>752.75</ele><time>2026-04-03T12:43:36.999Z</time></trkpt><trkpt lat="45.92098703747379" lon="9.26203113404258"><ele>753.0</ele><time>2026-04-03T12:43:37.999Z</time></trkpt><trkpt lat="45.92089705801756" lon="9.261971160083576"><ele>753.0</ele><time>2026-04-03T12:43:38.999Z</time></trkpt><trkpt lat="45.92081141394186" lon="9.261917741965405"><ele>753.0</ele><time>2026-04-03T12:43:39.999Z</time></trkpt><trkpt lat="45.92072141639669" lon="9.261858282548193"><ele>753.0</ele><time>2026-04-03T12:43:40.999Z</time></trkpt><trkpt lat="45.92063036983014" lon="9.261787403354347"><ele>753.0</ele><time>2026-04-03T12:43:41.999Z</time></trkpt><trkpt lat="45.92053848677808" lon="9.261717667531023"><ele>753.0</ele><time>2026-04-03T12:43:42.999Z</time></trkpt><trkpt lat="45.920457738300286" lon="9.261659179631488"><ele>753.0</ele><time>2026-04-03T12:43:43.999Z</time></trkpt><trkpt lat="45.92038645433518" lon="9.261611627420047"><ele>753.0</ele><time>2026-04-03T12:43:44.999Z</time></trkpt><trkpt lat="45.92030886433097" lon="9.261586073210406"><ele>753.0</ele><time>2026-04-03T12:43:45.999Z</time></trkpt><trkpt lat="45.920217234676116" lon="9.261572572666685"><ele>753.0</ele><time>2026-04-03T12:43:46.999Z</time></trkpt><trkpt lat="45.92011636540582" lon="9.261598860056365"><ele>753.0</ele><time>2026-04-03T12:43:47.999Z</time></trkpt><trkpt lat="45.92001287077055" lon="9.261625743699643"><ele>751.2</ele><time>2026-04-03T12:43:48.999Z</time></trkpt><trkpt lat="45.91991400618434" lon="9.26164103692074"><ele>749.4</ele><time>2026-04-03T12:43:49.999Z</time></trkpt><trkpt lat="45.91981258123343" lon="9.261644324598121"><ele>747.6</ele><time>2026-04-03T12:43:50.998Z</time></trkpt><trkpt lat="45.91971156317529" lon="9.261639739014484"><ele>745.8000000000001</ele><time>2026-04-03T12:43:51.998Z</time></trkpt><trkpt lat="45.919598936284764" lon="9.261643156947775"><ele>744.0</ele><time>2026-04-03T12:43:52.998Z</time></trkpt><trkpt lat="45.919491161382446" lon="9.261635658677898"><ele>744.0</ele><time>2026-04-03T12:43:53.998Z</time></trkpt><trkpt lat="45.91937860867348" lon="9.261618339358284"><ele>744.0</ele><time>2026-04-03T12:43:54.998Z</time></trkpt><trkpt lat="45.91925547636433" lon="9.261592084096453"><ele>744.0</ele><time>2026-04-03T12:43:55.998Z</time></trkpt><trkpt lat="45.91912415006468" lon="9.26156776636978"><ele>744.0</ele><time>2026-04-03T12:43:56.998Z</time></trkpt><trkpt lat="45.918978059489554" lon="9.261542304491142"><ele>743.0</ele><time>2026-04-03T12:43:57.998Z</time></trkpt><trkpt lat="45.91882067106964" lon="9.261508632510639"><ele>742.0</ele><time>2026-04-03T12:43:58.998Z</time></trkpt><trkpt lat="45.91866427974471" lon="9.261473438011507"><ele>741.0</ele><time>2026-04-03T12:43:59.998Z</time></trkpt><trkpt lat="45.918500948559945" lon="9.261439130276532"><ele>743.3333333333334</ele><time>2026-04-03T12:44:00.998Z</time></trkpt><trkpt lat="45.91833527391313" lon="9.261405440765097"><ele>745.6666666666667</ele><time>2026-04-03T12:44:01.998Z</time></trkpt><trkpt lat="45.91817293946677" lon="9.261372991568237"><ele>748.0</ele><time>2026-04-03T12:44:02.998Z</time></trkpt><trkpt lat="45.91801176495627" lon="9.261340698211736"><ele>748.0</ele><time>2026-04-03T12:44:03.998Z</time></trkpt><trkpt lat="45.91785195051633" lon="9.261306612385201"><ele>748.0</ele><time>2026-04-03T12:44:04.998Z</time></trkpt><trkpt lat="45.91769468901225" lon="9.261269924054861"><ele>748.0</ele><time>2026-04-03T12:44:05.998Z</time></trkpt><trkpt lat="45.91754122969206" lon="9.261233320373426"><ele>746.5</ele><time>2026-04-03T12:44:06.998Z</time></trkpt><trkpt lat="45.91739386323765" lon="9.26120111986404"><ele>745.0</ele><time>2026-04-03T12:44:07.998Z</time></trkpt><trkpt lat="45.91725023329894" lon="9.26116615229674"><ele>743.5</ele><time>2026-04-03T12:44:08.998Z</time></trkpt><trkpt lat="45.91711316656218" lon="9.261121875629645"><ele>742.0</ele><time>2026-04-03T12:44:09.998Z</time></trkpt><trkpt lat="45.9169786097925" lon="9.261055241627938"><ele>742.0</ele><time>2026-04-03T12:44:10.998Z</time></trkpt><trkpt lat="45.91683460783245" lon="9.260960456166012"><ele>742.0</ele><time>2026-04-03T12:44:11.998Z</time></trkpt><trkpt lat="45.91668742853051" lon="9.260859326392708"><ele>742.0</ele><time>2026-04-03T12:44:12.998Z</time></trkpt><trkpt lat="45.916535927382405" lon="9.26075025602136"><ele>743.3333333333334</ele><time>2026-04-03T12:44:13.998Z</time></trkpt><trkpt lat="45.91638136816499" lon="9.260653750407746"><ele>744.6666666666666</ele><time>2026-04-03T12:44:14.998Z</time></trkpt><trkpt lat="45.916242481218376" lon="9.260561384480878"><ele>746.0</ele><time>2026-04-03T12:44:15.998Z</time></trkpt><trkpt lat="45.916107033666115" lon="9.260478605804595"><ele>746.0</ele><time>2026-04-03T12:44:16.998Z</time></trkpt><trkpt lat="45.915970945030935" lon="9.26042260969139"><ele>746.0</ele><time>2026-04-03T12:44:17.998Z</time></trkpt><trkpt lat="45.915823373896664" lon="9.260393504013038"><ele>746.0</ele><time>2026-04-03T12:44:18.998Z</time></trkpt><trkpt lat="45.91566710367425" lon="9.260373728232022"><ele>746.0</ele><time>2026-04-03T12:44:19.998Z</time></trkpt><trkpt lat="45.91550794717134" lon="9.26035628939918"><ele>741.0</ele><time>2026-04-03T12:44:20.998Z</time></trkpt><trkpt lat="45.91535184668819" lon="9.26033018328234"><ele>736.0</ele><time>2026-04-03T12:44:21.998Z</time></trkpt><trkpt lat="45.9152011325729" lon="9.260314580165625"><ele>731.0</ele><time>2026-04-03T12:44:22.998Z</time></trkpt><trkpt lat="45.91504610615309" lon="9.260297891533718"><ele>727.0</ele><time>2026-04-03T12:44:24Z</time></trkpt><trkpt lat="45.914891364000894" lon="9.260276342720147"><ele>723.0</ele><time>2026-04-03T12:44:25Z</time></trkpt><trkpt lat="45.914737725099556" lon="9.260251471185171"><ele>719.0</ele><time>2026-04-03T12:44:26Z</time></trkpt><trkpt lat="45.91458080457314" lon="9.26021856135011"><ele>719.0</ele><time>2026-04-03T12:44:27Z</time></trkpt><trkpt lat="45.91442165911544" lon="9.260165925155343"><ele>719.0</ele><time>2026-04-03T12:44:28Z</time></trkpt><trkpt lat="45.914258698578934" lon="9.260090201803978"><ele>719.0</ele><time>2026-04-03T12:44:29Z</time></trkpt><trkpt lat="45.91410373624164" lon="9.260006743484583"><ele>715.25</ele><time>2026-04-03T12:44:30Z</time></trkpt><trkpt lat="45.91396288880084" lon="9.259927256687737"><ele>711.5</ele><time>2026-04-03T12:44:31Z</time></trkpt><trkpt lat="45.91382513017773" lon="9.25987215824487"><ele>707.75</ele><time>2026-04-03T12:44:32Z</time></trkpt><trkpt lat="45.91367950948121" lon="9.2598434966136"><ele>704.0</ele><time>2026-04-03T12:44:33Z</time></trkpt><trkpt lat="45.913534042214614" lon="9.25985157945122"><ele>702.0</ele><time>2026-04-03T12:44:34Z</time></trkpt><trkpt lat="45.91339421198094" lon="9.259895230167173"><ele>700.0</ele><time>2026-04-03T12:44:35Z</time></trkpt><trkpt lat="45.91325688868338" lon="9.259983748614944"><ele>698.0</ele><time>2026-04-03T12:44:36Z</time></trkpt><trkpt lat="45.91313579985339" lon="9.260085616745616"><ele>696.0</ele><time>2026-04-03T12:44:37Z</time></trkpt><trkpt lat="45.913034723130984" lon="9.260200984972684"><ele>696.0</ele><time>2026-04-03T12:44:38Z</time></trkpt><trkpt lat="45.91293625134389" lon="9.260318442639091"><ele>696.0</ele><time>2026-04-03T12:44:39Z</time></trkpt><trkpt lat="45.91283776878693" lon="9.260431806819378"><ele>696.0</ele><time>2026-04-03T12:44:40Z</time></trkpt><trkpt lat="45.91272941138392" lon="9.260543214012246"><ele>696.0</ele><time>2026-04-03T12:44:41Z</time></trkpt><trkpt lat="45.91261108947222" lon="9.260652394047266"><ele>697.0</ele><time>2026-04-03T12:44:42Z</time></trkpt><trkpt lat="45.91249445771383" lon="9.260777583318038"><ele>698.0</ele><time>2026-04-03T12:44:43Z</time></trkpt><trkpt lat="45.912383676110316" lon="9.260911929204703"><ele>699.0</ele><time>2026-04-03T12:44:44Z</time></trkpt><trkpt lat="45.912282569159956" lon="9.261061973601239"><ele>700.0</ele><time>2026-04-03T12:44:45Z</time></trkpt><trkpt lat="45.912196790394425" lon="9.261238881449614"><ele>700.0</ele><time>2026-04-03T12:44:46Z</time></trkpt><trkpt lat="45.912117621750646" lon="9.261433320214763"><ele>700.0</ele><time>2026-04-03T12:44:47Z</time></trkpt><trkpt lat="45.912047092766926" lon="9.261622417118351"><ele>700.0</ele><time>2026-04-03T12:44:48Z</time></trkpt><trkpt lat="45.91198876358554" lon="9.26180705036771"><ele>700.0</ele><time>2026-04-03T12:44:49Z</time></trkpt><trkpt lat="45.9119275801295" lon="9.261982251472197"><ele>695.75</ele><time>2026-04-03T12:44:50Z</time></trkpt><trkpt lat="45.911860477075415" lon="9.262147411747804"><ele>691.5</ele><time>2026-04-03T12:44:51Z</time></trkpt><trkpt lat="45.911776979629266" lon="9.262301686357988"><ele>687.25</ele><time>2026-04-03T12:44:52Z</time></trkpt><trkpt lat="45.91167257020976" lon="9.262435428545789"><ele>683.0</ele><time>2026-04-03T12:44:53Z</time></trkpt><trkpt lat="45.9115428624135" lon="9.262540386178706"><ele>681.3333333333333</ele><time>2026-04-03T12:44:54Z</time></trkpt><trkpt lat="45.9113925882466" lon="9.262618502116414"><ele>679.6666666666666</ele><time>2026-04-03T12:44:55Z</time></trkpt><trkpt lat="45.911228370602906" lon="9.262664254845056"><ele>678.0</ele><time>2026-04-03T12:44:56Z</time></trkpt><trkpt lat="45.91105455676627" lon="9.26266497585931"><ele>678.3333333333334</ele><time>2026-04-03T12:44:57Z</time></trkpt><trkpt lat="45.91087794096834" lon="9.262629126272007"><ele>678.6666666666667</ele><time>2026-04-03T12:44:58Z</time></trkpt><trkpt lat="45.91071439607689" lon="9.262588311147619"><ele>679.0</ele><time>2026-04-03T12:44:59Z</time></trkpt><trkpt lat="45.910560498537016" lon="9.262573699222793"><ele>679.0</ele><time>2026-04-03T12:45:00Z</time></trkpt><trkpt lat="45.91041645078511" lon="9.262566124521056"><ele>679.0</ele><time>2026-04-03T12:45:01Z</time></trkpt><trkpt lat="45.910263231787034" lon="9.26255604402654"><ele>679.0</ele><time>2026-04-03T12:45:02Z</time></trkpt><trkpt lat="45.91010342297536" lon="9.262570470073477"><ele>677.6666666666667</ele><time>2026-04-03T12:45:03Z</time></trkpt><trkpt lat="45.9099443025469" lon="9.26261235670292"><ele>676.3333333333334</ele><time>2026-04-03T12:45:04Z</time></trkpt><trkpt lat="45.909780390911315" lon="9.262682487422245"><ele>675.0</ele><time>2026-04-03T12:45:05Z</time></trkpt><trkpt lat="45.9096158059753" lon="9.262767061508345"><ele>675.0</ele><time>2026-04-03T12:45:06Z</time></trkpt><trkpt lat="45.90944412604558" lon="9.262857909076082"><ele>675.0</ele><time>2026-04-03T12:45:07Z</time></trkpt><trkpt lat="45.909267352812236" lon="9.262950661848718"><ele>675.0</ele><time>2026-04-03T12:45:08Z</time></trkpt><trkpt lat="45.90908613001544" lon="9.26304929089959"><ele>663.0</ele><time>2026-04-03T12:45:09Z</time></trkpt><trkpt lat="45.90890909310016" lon="9.263147777818586"><ele>651.0</ele><time>2026-04-03T12:45:10Z</time></trkpt><trkpt lat="45.90874311542841" lon="9.263237499779807"><ele>639.0</ele><time>2026-04-03T12:45:11Z</time></trkpt><trkpt lat="45.90858226017434" lon="9.263317800166677"><ele>639.0</ele><time>2026-04-03T12:45:12Z</time></trkpt><trkpt lat="45.908429022428635" lon="9.263396580528003"><ele>639.0</ele><time>2026-04-03T12:45:13Z</time></trkpt><trkpt lat="45.9082768060771" lon="9.263481833384297"><ele>639.0</ele><time>2026-04-03T12:45:13.999Z</time></trkpt><trkpt lat="45.90811862895241" lon="9.263571378645633"><ele>645.0</ele><time>2026-04-03T12:45:14.999Z</time></trkpt><trkpt lat="45.907953897349906" lon="9.263660888275627"><ele>651.0</ele><time>2026-04-03T12:45:15.999Z</time></trkpt><trkpt lat="45.907784917816876" lon="9.263763312913367"><ele>657.0</ele><time>2026-04-03T12:45:16.999Z</time></trkpt><trkpt lat="45.90761315154061" lon="9.263887718993587"><ele>647.3333333333334</ele><time>2026-04-03T12:45:17.999Z</time></trkpt><trkpt lat="45.907439753745656" lon="9.264044707227576"><ele>637.6666666666667</ele><time>2026-04-03T12:45:18.999Z</time></trkpt><trkpt lat="45.9072651510004" lon="9.264223332420205"><ele>628.0</ele><time>2026-04-03T12:45:19.999Z</time></trkpt><trkpt lat="45.90708773833845" lon="9.26440535054243"><ele>628.0</ele><time>2026-04-03T12:45:20.999Z</time></trkpt><trkpt lat="45.90691638287482" lon="9.264575152284438"><ele>628.0</ele><time>2026-04-03T12:45:21.999Z</time></trkpt><trkpt lat="45.90675054954419" lon="9.264742363231745"><ele>628.0</ele><time>2026-04-03T12:45:22.999Z</time></trkpt><trkpt lat="45.90659118553192" lon="9.264915245262742"><ele>625.0</ele><time>2026-04-03T12:45:23.999Z</time></trkpt><trkpt lat="45.90642752599292" lon="9.265084626662786"><ele>622.0</ele><time>2026-04-03T12:45:24.999Z</time></trkpt><trkpt lat="45.90626131094299" lon="9.265246250848703"><ele>619.0</ele><time>2026-04-03T12:45:25.999Z</time></trkpt><trkpt lat="45.90609542848122" lon="9.265408496947984"><ele>619.0</ele><time>2026-04-03T12:45:26.999Z</time></trkpt><trkpt lat="45.90592944099881" lon="9.265568428412871"><ele>619.0</ele><time>2026-04-03T12:45:27.999Z</time></trkpt><trkpt lat="45.90575612182775" lon="9.265715448732186"><ele>619.0</ele><time>2026-04-03T12:45:28.999Z</time></trkpt><trkpt lat="45.90557316739005" lon="9.26584776846167"><ele>617.3333333333334</ele><time>2026-04-03T12:45:29.999Z</time></trkpt><trkpt lat="45.90539259721248" lon="9.26597368892758"><ele>615.6666666666666</ele><time>2026-04-03T12:45:30.999Z</time></trkpt><trkpt lat="45.90521990734713" lon="9.266105982944616"><ele>614.0</ele><time>2026-04-03T12:45:31.999Z</time></trkpt><trkpt lat="45.90506120286349" lon="9.266234900496526"><ele>613.0</ele><time>2026-04-03T12:45:32.999Z</time></trkpt><trkpt lat="45.904915130938505" lon="9.266349485386458"><ele>612.0</ele><time>2026-04-03T12:45:33.999Z</time></trkpt><trkpt lat="45.90477856204231" lon="9.266453836672115"><ele>611.0</ele><time>2026-04-03T12:45:34.999Z</time></trkpt><trkpt lat="45.90464821361515" lon="9.266538541132569"><ele>610.3333333333333</ele><time>2026-04-03T12:45:35.999Z</time></trkpt><trkpt lat="45.90450366586191" lon="9.266570352714925"><ele>609.6666666666666</ele><time>2026-04-03T12:45:36.999Z</time></trkpt><trkpt lat="45.904350993139616" lon="9.266564600337505"><ele>609.0</ele><time>2026-04-03T12:45:37.999Z</time></trkpt><trkpt lat="45.90419163126138" lon="9.266484158643136"><ele>611.6666666666666</ele><time>2026-04-03T12:45:38.999Z</time></trkpt><trkpt lat="45.90403342612353" lon="9.266344553126158"><ele>614.3333333333333</ele><time>2026-04-03T12:45:39.999Z</time></trkpt><trkpt lat="45.903881275753655" lon="9.266168049100843"><ele>617.0</ele><time>2026-04-03T12:45:40.999Z</time></trkpt><trkpt lat="45.90372972154103" lon="9.266014647673442"><ele>617.0</ele><time>2026-04-03T12:45:41.999Z</time></trkpt><trkpt lat="45.90356486746806" lon="9.265898940013475"><ele>617.0</ele><time>2026-04-03T12:45:42.999Z</time></trkpt><trkpt lat="45.9034168394576" lon="9.265829441855562"><ele>617.0</ele><time>2026-04-03T12:45:43.999Z</time></trkpt><trkpt lat="45.90328150776688" lon="9.265771678281705"><ele>616.75</ele><time>2026-04-03T12:45:44.999Z</time></trkpt><trkpt lat="45.90315127998868" lon="9.26568479202041"><ele>616.5</ele><time>2026-04-03T12:45:45.999Z</time></trkpt><trkpt lat="45.90303455843021" lon="9.265603816649854"><ele>616.25</ele><time>2026-04-03T12:45:46.999Z</time></trkpt><trkpt lat="45.902922668172714" lon="9.26555779002598"><ele>616.0</ele><time>2026-04-03T12:45:47.999Z</time></trkpt><trkpt lat="45.902813254832274" lon="9.265531915465566"><ele>616.25</ele><time>2026-04-03T12:45:48.999Z</time></trkpt><trkpt lat="45.90269887699071" lon="9.265506357384908"><ele>616.5</ele><time>2026-04-03T12:45:49.999Z</time></trkpt><trkpt lat="45.902578358448565" lon="9.265471755511134"><ele>616.75</ele><time>2026-04-03T12:45:50.999Z</time></trkpt><trkpt lat="45.902451976901965" lon="9.265408360624823"><ele>617.0</ele><time>2026-04-03T12:45:51.999Z</time></trkpt><trkpt lat="45.902328575092305" lon="9.265317525825147"><ele>617.0</ele><time>2026-04-03T12:45:52.999Z</time></trkpt><trkpt lat="45.90221501739782" lon="9.265208158258073"><ele>617.0</ele><time>2026-04-03T12:45:53.999Z</time></trkpt><trkpt lat="45.90211474045911" lon="9.265082941252686"><ele>617.0</ele><time>2026-04-03T12:45:54.999Z</time></trkpt><trkpt lat="45.90202219248983" lon="9.264949750375061"><ele>617.0</ele><time>2026-04-03T12:45:55.999Z</time></trkpt><trkpt lat="45.9019302019336" lon="9.264818824511401"><ele>616.75</ele><time>2026-04-03T12:45:56.998Z</time></trkpt><trkpt lat="45.901831597106245" lon="9.264694411972313"><ele>616.5</ele><time>2026-04-03T12:45:57.998Z</time></trkpt><trkpt lat="45.90172504490681" lon="9.264578633071482"><ele>616.25</ele><time>2026-04-03T12:45:58.998Z</time></trkpt><trkpt lat="45.90161364391448" lon="9.264477127786568"><ele>616.0</ele><time>2026-04-03T12:45:59.998Z</time></trkpt><trkpt lat="45.90150437726375" lon="9.264387596358484"><ele>616.0</ele><time>2026-04-03T12:46:00.998Z</time></trkpt><trkpt lat="45.90139990802713" lon="9.264306589402056"><ele>616.0</ele><time>2026-04-03T12:46:01.998Z</time></trkpt><trkpt lat="45.901300077052014" lon="9.264230483945143"><ele>616.0</ele><time>2026-04-03T12:46:02.998Z</time></trkpt><trkpt lat="45.90119694727415" lon="9.264149816778618"><ele>616.0</ele><time>2026-04-03T12:46:03.998Z</time></trkpt><trkpt lat="45.90108170858762" lon="9.26407823862129"><ele>616.0</ele><time>2026-04-03T12:46:04.998Z</time></trkpt><trkpt lat="45.90094184017169" lon="9.264037167643743"><ele>616.0</ele><time>2026-04-03T12:46:05.998Z</time></trkpt><trkpt lat="45.90078727190907" lon="9.26402901434903"><ele>616.0</ele><time>2026-04-03T12:46:06.998Z</time></trkpt><trkpt lat="45.90061585530777" lon="9.264047631994723"><ele>612.3333333333334</ele><time>2026-04-03T12:46:07.998Z</time></trkpt><trkpt lat="45.900437607794835" lon="9.264071296342536"><ele>608.6666666666666</ele><time>2026-04-03T12:46:08.998Z</time></trkpt><trkpt lat="45.90026656736869" lon="9.264091462186158"><ele>605.0</ele><time>2026-04-03T12:46:09.998Z</time></trkpt><trkpt lat="45.9001074517118" lon="9.264104145061818"><ele>605.0</ele><time>2026-04-03T12:46:10.998Z</time></trkpt><trkpt lat="45.899948252805295" lon="9.264113179838665"><ele>605.0</ele><time>2026-04-03T12:46:11.998Z</time></trkpt><trkpt lat="45.89978777081276" lon="9.26412636385022"><ele>605.0</ele><time>2026-04-03T12:46:12.998Z</time></trkpt><trkpt lat="45.89962648143721" lon="9.264149264524185"><ele>605.0</ele><time>2026-04-03T12:46:13.998Z</time></trkpt><trkpt lat="45.89946704908369" lon="9.264170258709914"><ele>605.0</ele><time>2026-04-03T12:46:14.998Z</time></trkpt><trkpt lat="45.899319634187634" lon="9.264181411221847"><ele>605.0</ele><time>2026-04-03T12:46:15.998Z</time></trkpt><trkpt lat="45.89918193824997" lon="9.264172591445078"><ele>605.0</ele><time>2026-04-03T12:46:16.998Z</time></trkpt><trkpt lat="45.89903673538795" lon="9.264130312233457"><ele>603.0</ele><time>2026-04-03T12:46:17.998Z</time></trkpt><trkpt lat="45.89888939679092" lon="9.264055146303841"><ele>601.0</ele><time>2026-04-03T12:46:18.998Z</time></trkpt><trkpt lat="45.89874004237668" lon="9.263936693367947"><ele>599.0</ele><time>2026-04-03T12:46:19.998Z</time></trkpt><trkpt lat="45.898590647183134" lon="9.263792493180391"><ele>600.6666666666666</ele><time>2026-04-03T12:46:20.998Z</time></trkpt><trkpt lat="45.898437242883944" lon="9.263636421039518"><ele>602.3333333333334</ele><time>2026-04-03T12:46:21.998Z</time></trkpt><trkpt lat="45.89828336596771" lon="9.263487889950042"><ele>604.0</ele><time>2026-04-03T12:46:22.998Z</time></trkpt><trkpt lat="45.89812062751554" lon="9.26336367126955"><ele>604.0</ele><time>2026-04-03T12:46:23.998Z</time></trkpt><trkpt lat="45.89794562744657" lon="9.263263476778466"><ele>604.0</ele><time>2026-04-03T12:46:24.998Z</time></trkpt><trkpt lat="45.89776899983899" lon="9.263184854397522"><ele>604.0</ele><time>2026-04-03T12:46:25.998Z</time></trkpt><trkpt lat="45.89760260371701" lon="9.26312303188398"><ele>609.3333333333334</ele><time>2026-04-03T12:46:26.998Z</time></trkpt><trkpt lat="45.8974509539278" lon="9.263063902701386"><ele>614.6666666666666</ele><time>2026-04-03T12:46:27.998Z</time></trkpt><trkpt lat="45.897308618375334" lon="9.26298169194715"><ele>620.0</ele><time>2026-04-03T12:46:29Z</time></trkpt><trkpt lat="45.89717686950134" lon="9.262892523612482"><ele>620.0</ele><time>2026-04-03T12:46:30Z</time></trkpt><trkpt lat="45.897052997326696" lon="9.262819108957155"><ele>620.0</ele><time>2026-04-03T12:46:31Z</time></trkpt><trkpt lat="45.89693047128427" lon="9.262751131389988"><ele>620.0</ele><time>2026-04-03T12:46:32Z</time></trkpt><trkpt lat="45.89680913765829" lon="9.262692880039973"><ele>620.0</ele><time>2026-04-03T12:46:33Z</time></trkpt><trkpt lat="45.896689575034834" lon="9.262644456549614"><ele>615.25</ele><time>2026-04-03T12:46:34Z</time></trkpt><trkpt lat="45.896569915919265" lon="9.262602943889247"><ele>610.5</ele><time>2026-04-03T12:46:35Z</time></trkpt><trkpt lat="45.89644891958673" lon="9.262560121314635"><ele>605.75</ele><time>2026-04-03T12:46:36Z</time></trkpt><trkpt lat="45.896327301135514" lon="9.262493228167024"><ele>601.0</ele><time>2026-04-03T12:46:37Z</time></trkpt><trkpt lat="45.89620562636114" lon="9.262377849174056"><ele>602.0</ele><time>2026-04-03T12:46:38Z</time></trkpt><trkpt lat="45.89607720340206" lon="9.262223360210196"><ele>603.0</ele><time>2026-04-03T12:46:39Z</time></trkpt><trkpt lat="45.89593691730494" lon="9.262059387608263"><ele>604.0</ele><time>2026-04-03T12:46:40Z</time></trkpt><trkpt lat="45.89577165496104" lon="9.261934258485075"><ele>604.0</ele><time>2026-04-03T12:46:41Z</time></trkpt><trkpt lat="45.89557848050682" lon="9.261854600467439"><ele>604.0</ele><time>2026-04-03T12:46:42Z</time></trkpt><trkpt lat="45.89538418579691" lon="9.261792415323802"><ele>604.0</ele><time>2026-04-03T12:46:43Z</time></trkpt><trkpt lat="45.895214259895354" lon="9.261723759151144"><ele>598.6666666666667</ele><time>2026-04-03T12:46:44Z</time></trkpt><trkpt lat="45.895060208879094" lon="9.261658997016703"><ele>593.3333333333334</ele><time>2026-04-03T12:46:45Z</time></trkpt><trkpt lat="45.89491632576938" lon="9.261600057461633"><ele>588.0</ele><time>2026-04-03T12:46:46Z</time></trkpt><trkpt lat="45.89477309932319" lon="9.261539249229156"><ele>588.0</ele><time>2026-04-03T12:46:47Z</time></trkpt><trkpt lat="45.89461290749225" lon="9.261502536888953"><ele>588.0</ele><time>2026-04-03T12:46:48Z</time></trkpt><trkpt lat="45.89444115083681" lon="9.26148983406455"><ele>588.0</ele><time>2026-04-03T12:46:49Z</time></trkpt><trkpt lat="45.89428081641969" lon="9.261489239976983"><ele>585.25</ele><time>2026-04-03T12:46:50Z</time></trkpt><trkpt lat="45.894135484518095" lon="9.261481089596408"><ele>582.5</ele><time>2026-04-03T12:46:51Z</time></trkpt><trkpt lat="45.8939974425814" lon="9.261465096242269"><ele>579.75</ele><time>2026-04-03T12:46:52Z</time></trkpt><trkpt lat="45.893860365560705" lon="9.261451486544251"><ele>577.0</ele><time>2026-04-03T12:46:53Z</time></trkpt><trkpt lat="45.89371491729615" lon="9.261438725744402"><ele>579.0</ele><time>2026-04-03T12:46:54Z</time></trkpt><trkpt lat="45.893569225307346" lon="9.261428914095102"><ele>581.0</ele><time>2026-04-03T12:46:55Z</time></trkpt><trkpt lat="45.89342907034207" lon="9.261417161953089"><ele>583.0</ele><time>2026-04-03T12:46:56Z</time></trkpt><trkpt lat="45.89328826806276" lon="9.26137858649134"><ele>585.0</ele><time>2026-04-03T12:46:57Z</time></trkpt><trkpt lat="45.893142340238796" lon="9.261318214268549"><ele>585.0</ele><time>2026-04-03T12:46:58Z</time></trkpt><trkpt lat="45.89299063619421" lon="9.261251467005565"><ele>585.0</ele><time>2026-04-03T12:46:59Z</time></trkpt><trkpt lat="45.892833074026335" lon="9.261187362970814"><ele>585.0</ele><time>2026-04-03T12:47:00Z</time></trkpt><trkpt lat="45.89267300228703" lon="9.261127046728696"><ele>581.6666666666666</ele><time>2026-04-03T12:47:01Z</time></trkpt><trkpt lat="45.892511666151904" lon="9.261064056119594"><ele>578.3333333333333</ele><time>2026-04-03T12:47:02Z</time></trkpt><trkpt lat="45.89234880315941" lon="9.260996731191105"><ele>575.0</ele><time>2026-04-03T12:47:03Z</time></trkpt><trkpt lat="45.892183355147424" lon="9.260928099058148"><ele>575.0</ele><time>2026-04-03T12:47:04Z</time></trkpt><trkpt lat="45.89201771562823" lon="9.260867150909007"><ele>575.0</ele><time>2026-04-03T12:47:05Z</time></trkpt><trkpt lat="45.89185287985378" lon="9.260802022105755"><ele>575.0</ele><time>2026-04-03T12:47:06Z</time></trkpt><trkpt lat="45.89169190101767" lon="9.260732767085788"><ele>575.6666666666666</ele><time>2026-04-03T12:47:07Z</time></trkpt><trkpt lat="45.89153581144091" lon="9.260663605386034"><ele>576.3333333333334</ele><time>2026-04-03T12:47:08Z</time></trkpt><trkpt lat="45.89137434021319" lon="9.26060539516683"><ele>577.0</ele><time>2026-04-03T12:47:09Z</time></trkpt><trkpt lat="45.89120316053543" lon="9.260576756393048"><ele>577.0</ele><time>2026-04-03T12:47:10Z</time></trkpt><trkpt lat="45.891026582884" lon="9.260573603206156"><ele>577.0</ele><time>2026-04-03T12:47:11Z</time></trkpt><trkpt lat="45.890848681884876" lon="9.260579744249705"><ele>577.0</ele><time>2026-04-03T12:47:12Z</time></trkpt><trkpt lat="45.89068191386379" lon="9.26057352470337"><ele>574.6666666666667</ele><time>2026-04-03T12:47:13Z</time></trkpt><trkpt lat="45.89052183616061" lon="9.260563169416844"><ele>572.3333333333334</ele><time>2026-04-03T12:47:14Z</time></trkpt><trkpt lat="45.89036858957366" lon="9.2605584929054"><ele>570.0</ele><time>2026-04-03T12:47:15Z</time></trkpt><trkpt lat="45.890219559269326" lon="9.26055412295087"><ele>568.6666666666666</ele><time>2026-04-03T12:47:16Z</time></trkpt><trkpt lat="45.89006941883191" lon="9.260544424985834"><ele>567.3333333333333</ele><time>2026-04-03T12:47:16.999Z</time></trkpt><trkpt lat="45.88991721268907" lon="9.260537443503672"><ele>566.0</ele><time>2026-04-03T12:47:17.999Z</time></trkpt><trkpt lat="45.88976276811238" lon="9.260537604883773"><ele>566.0</ele><time>2026-04-03T12:47:18.999Z</time></trkpt><trkpt lat="45.88960569484293" lon="9.260553983599113"><ele>566.0</ele><time>2026-04-03T12:47:19.999Z</time></trkpt><trkpt lat="45.8894470316558" lon="9.260591852744838"><ele>566.0</ele><time>2026-04-03T12:47:20.999Z</time></trkpt><trkpt lat="45.88929188754364" lon="9.260639508262507"><ele>563.6666666666666</ele><time>2026-04-03T12:47:21.999Z</time></trkpt><trkpt lat="45.889139564312295" lon="9.26068411064832"><ele>561.3333333333334</ele><time>2026-04-03T12:47:22.999Z</time></trkpt><trkpt lat="45.88898941130864" lon="9.260728540751739"><ele>559.0</ele><time>2026-04-03T12:47:23.999Z</time></trkpt><trkpt lat="45.88884076963817" lon="9.260769605439583"><ele>559.0</ele><time>2026-04-03T12:47:24.999Z</time></trkpt><trkpt lat="45.888692595744494" lon="9.260812038806892"><ele>559.0</ele><time>2026-04-03T12:47:25.999Z</time></trkpt><trkpt lat="45.888537200617854" lon="9.260863579189227"><ele>559.0</ele><time>2026-04-03T12:47:26.999Z</time></trkpt><trkpt lat="45.88837317150594" lon="9.26093355194468"><ele>558.6666666666667</ele><time>2026-04-03T12:47:27.999Z</time></trkpt><trkpt lat="45.888201746187484" lon="9.261031558545376"><ele>558.3333333333334</ele><time>2026-04-03T12:47:28.999Z</time></trkpt><trkpt lat="45.88802066922308" lon="9.261138555303043"><ele>558.0</ele><time>2026-04-03T12:47:29.999Z</time></trkpt><trkpt lat="45.887830907999025" lon="9.26124122630271"><ele>558.0</ele><time>2026-04-03T12:47:30.999Z</time></trkpt><trkpt lat="45.88763843983137" lon="9.261342543813775"><ele>558.0</ele><time>2026-04-03T12:47:31.999Z</time></trkpt><trkpt lat="45.88745076101352" lon="9.261449093257152"><ele>558.0</ele><time>2026-04-03T12:47:32.999Z</time></trkpt><trkpt lat="45.88727573829733" lon="9.261558072695944"><ele>556.3333333333334</ele><time>2026-04-03T12:47:33.999Z</time></trkpt><trkpt lat="45.88711204920977" lon="9.261654314442078"><ele>554.6666666666667</ele><time>2026-04-03T12:47:34.999Z</time></trkpt><trkpt lat="45.88695020741505" lon="9.261742774808532"><ele>553.0</ele><time>2026-04-03T12:47:35.999Z</time></trkpt><trkpt lat="45.88678985047724" lon="9.261830858167583"><ele>550.6666666666667</ele><time>2026-04-03T12:47:36.999Z</time></trkpt><trkpt lat="45.88663303966166" lon="9.261918770928451"><ele>548.3333333333334</ele><time>2026-04-03T12:47:37.999Z</time></trkpt><trkpt lat="45.88647722762782" lon="9.262012690659542"><ele>546.0</ele><time>2026-04-03T12:47:38.999Z</time></trkpt><trkpt lat="45.88631854097809" lon="9.262103436252271"><ele>546.0</ele><time>2026-04-03T12:47:39.999Z</time></trkpt><trkpt lat="45.886159054536144" lon="9.26218784013088"><ele>546.0</ele><time>2026-04-03T12:47:40.999Z</time></trkpt><trkpt lat="45.886001268735285" lon="9.262273328749707"><ele>546.0</ele><time>2026-04-03T12:47:41.999Z</time></trkpt><trkpt lat="45.88585555519723" lon="9.262356092853677"><ele>546.25</ele><time>2026-04-03T12:47:42.999Z</time></trkpt><trkpt lat="45.88572025481873" lon="9.262433511989487"><ele>546.5</ele><time>2026-04-03T12:47:43.999Z</time></trkpt><trkpt lat="45.88558960849709" lon="9.262503383459473"><ele>546.75</ele><time>2026-04-03T12:47:44.999Z</time></trkpt><trkpt lat="45.885461935594854" lon="9.2625845691513"><ele>547.0</ele><time>2026-04-03T12:47:45.999Z</time></trkpt><trkpt lat="45.8853374839905" lon="9.26270510502115"><ele>547.0</ele><time>2026-04-03T12:47:46.999Z</time></trkpt><trkpt lat="45.88522482437623" lon="9.26287061166737"><ele>547.0</ele><time>2026-04-03T12:47:47.999Z</time></trkpt><trkpt lat="45.88512266955711" lon="9.263067266643679"><ele>547.0</ele><time>2026-04-03T12:47:48.999Z</time></trkpt><trkpt lat="45.88504108191386" lon="9.263256910501655"><ele>546.5</ele><time>2026-04-03T12:47:49.999Z</time></trkpt><trkpt lat="45.88497247123554" lon="9.263430068368272"><ele>546.0</ele><time>2026-04-03T12:47:50.999Z</time></trkpt><trkpt lat="45.8849058494552" lon="9.26357830067714"><ele>545.5</ele><time>2026-04-03T12:47:51.999Z</time></trkpt><trkpt lat="45.88483774789088" lon="9.263702605745774"><ele>545.0</ele><time>2026-04-03T12:47:52.999Z</time></trkpt><trkpt lat="45.8847569928236" lon="9.263803135306203"><ele>545.0</ele><time>2026-04-03T12:47:53.999Z</time></trkpt><trkpt lat="45.88465228527747" lon="9.26386876726399"><ele>545.0</ele><time>2026-04-03T12:47:54.999Z</time></trkpt><trkpt lat="45.88452418664882" lon="9.263887098584457"><ele>545.0</ele><time>2026-04-03T12:47:55.999Z</time></trkpt><trkpt lat="45.884379352350884" lon="9.263866475319599"><ele>545.0</ele><time>2026-04-03T12:47:56.999Z</time></trkpt><trkpt lat="45.88423392260089" lon="9.263838402702731"><ele>544.75</ele><time>2026-04-03T12:47:57.999Z</time></trkpt><trkpt lat="45.88409423420854" lon="9.263811579056311"><ele>544.5</ele><time>2026-04-03T12:47:58.999Z</time></trkpt><trkpt lat="45.88395587434943" lon="9.263776797103157"><ele>544.25</ele><time>2026-04-03T12:47:59.999Z</time></trkpt><trkpt lat="45.883820028260416" lon="9.263740506663659"><ele>544.0</ele><time>2026-04-03T12:48:00.998Z</time></trkpt><trkpt lat="45.88368486216764" lon="9.263707508306627"><ele>544.0</ele><time>2026-04-03T12:48:01.998Z</time></trkpt><trkpt lat="45.8835478750374" lon="9.263672918972308"><ele>544.0</ele><time>2026-04-03T12:48:02.998Z</time></trkpt><trkpt lat="45.88340934478968" lon="9.263635265839804"><ele>544.0</ele><time>2026-04-03T12:48:03.998Z</time></trkpt><trkpt lat="45.88327032954284" lon="9.263595237663974"><ele>544.0</ele><time>2026-04-03T12:48:04.998Z</time></trkpt><trkpt lat="45.88313421929868" lon="9.263554681954563"><ele>542.5</ele><time>2026-04-03T12:48:05.998Z</time></trkpt><trkpt lat="45.882997430289315" lon="9.263514370119465"><ele>541.0</ele><time>2026-04-03T12:48:06.998Z</time></trkpt><trkpt lat="45.8828602466652" lon="9.263474287023518"><ele>539.5</ele><time>2026-04-03T12:48:07.998Z</time></trkpt><trkpt lat="45.88271914469283" lon="9.263430361625577"><ele>538.0</ele><time>2026-04-03T12:48:08.998Z</time></trkpt><trkpt lat="45.882577551060905" lon="9.263388027011485"><ele>536.6</ele><time>2026-04-03T12:48:09.998Z</time></trkpt><trkpt lat="45.8824565613269" lon="9.263354434467187"><ele>535.1999999999999</ele><time>2026-04-03T12:48:10.998Z</time></trkpt><trkpt lat="45.88234923479557" lon="9.263322786209194"><ele>533.8</ele><time>2026-04-03T12:48:11.998Z</time></trkpt><trkpt lat="45.882261670884795" lon="9.263295859774685"><ele>532.4</ele><time>2026-04-03T12:48:12.998Z</time></trkpt><trkpt lat="45.882188007603254" lon="9.263277296080034"><ele>531.0</ele><time>2026-04-03T12:48:13.998Z</time></trkpt><trkpt lat="45.88212461426634" lon="9.263261808562575"><ele>531.0</ele><time>2026-04-03T12:48:14.998Z</time></trkpt><trkpt lat="45.88201763935076" lon="9.263234701799691"><ele>531.0</ele><time>2026-04-03T12:48:16.998Z</time></trkpt><trkpt lat="45.88189038798924" lon="9.263199147885906"><ele>531.0</ele><time>2026-04-03T12:48:18.998Z</time></trkpt><trkpt lat="45.881776718245554" lon="9.263149113150398"><ele>531.0</ele><time>2026-04-03T12:48:19.998Z</time></trkpt><trkpt lat="45.88164681339818" lon="9.263103820475685"><ele>536.3333333333334</ele><time>2026-04-03T12:48:20.998Z</time></trkpt><trkpt lat="45.8815016947968" lon="9.26306471180293"><ele>541.6666666666667</ele><time>2026-04-03T12:48:21.998Z</time></trkpt><trkpt lat="45.88132767204668" lon="9.263018927484481"><ele>547.0</ele><time>2026-04-03T12:48:22.998Z</time></trkpt><trkpt lat="45.881134203758904" lon="9.26296839561059"><ele>547.0</ele><time>2026-04-03T12:48:23.998Z</time></trkpt><trkpt lat="45.88094267903253" lon="9.262909168944768"><ele>547.0</ele><time>2026-04-03T12:48:24.998Z</time></trkpt><trkpt lat="45.880768295391576" lon="9.262857504001687"><ele>547.0</ele><time>2026-04-03T12:48:25.998Z</time></trkpt><trkpt lat="45.880579329746595" lon="9.262805580452417"><ele>547.0</ele><time>2026-04-03T12:48:26.998Z</time></trkpt><trkpt lat="45.880379757812065" lon="9.262766846515742"><ele>547.0</ele><time>2026-04-03T12:48:27.998Z</time></trkpt><trkpt lat="45.88018437568996" lon="9.262736075344286"><ele>547.0</ele><time>2026-04-03T12:48:28.998Z</time></trkpt><trkpt lat="45.88000621160151" lon="9.262702045551912"><ele>546.0</ele><time>2026-04-03T12:48:29.998Z</time></trkpt><trkpt lat="45.87982649887827" lon="9.262670530148023"><ele>545.0</ele><time>2026-04-03T12:48:30.998Z</time></trkpt><trkpt lat="45.87965026624106" lon="9.262640904649292"><ele>544.0</ele><time>2026-04-03T12:48:31.998Z</time></trkpt><trkpt lat="45.87947428969057" lon="9.262600241560985"><ele>544.0</ele><time>2026-04-03T12:48:32.998Z</time></trkpt><trkpt lat="45.87930282286972" lon="9.262540204639476"><ele>544.0</ele><time>2026-04-03T12:48:34Z</time></trkpt><trkpt lat="45.879130128529106" lon="9.26246101967565"><ele>544.0</ele><time>2026-04-03T12:48:35Z</time></trkpt><trkpt lat="45.87895953769183" lon="9.262375599619183"><ele>544.3333333333334</ele><time>2026-04-03T12:48:36Z</time></trkpt><trkpt lat="45.878784697219196" lon="9.262308281359891"><ele>544.6666666666666</ele><time>2026-04-03T12:48:37Z</time></trkpt><trkpt lat="45.8785986178546" lon="9.262254438194454"><ele>545.0</ele><time>2026-04-03T12:48:38Z</time></trkpt><trkpt lat="45.878411049554906" lon="9.262216993753892"><ele>545.0</ele><time>2026-04-03T12:48:39Z</time></trkpt><trkpt lat="45.878215309290326" lon="9.2621915937783"><ele>545.0</ele><time>2026-04-03T12:48:40Z</time></trkpt><trkpt lat="45.87800895706592" lon="9.262166192811158"><ele>545.0</ele><time>2026-04-03T12:48:41Z</time></trkpt><trkpt lat="45.87780495655381" lon="9.262135390230151"><ele>545.0</ele><time>2026-04-03T12:48:42Z</time></trkpt><trkpt lat="45.87761399992911" lon="9.262108045239403"><ele>545.0</ele><time>2026-04-03T12:48:43Z</time></trkpt><trkpt lat="45.87742761413926" lon="9.262092509372081"><ele>545.0</ele><time>2026-04-03T12:48:44Z</time></trkpt><trkpt lat="45.87724347146247" lon="9.262072695988715"><ele>541.6666666666666</ele><time>2026-04-03T12:48:45Z</time></trkpt><trkpt lat="45.87706307895329" lon="9.262033146317926"><ele>538.3333333333334</ele><time>2026-04-03T12:48:46Z</time></trkpt><trkpt lat="45.87689463408922" lon="9.261984123322039"><ele>535.0</ele><time>2026-04-03T12:48:47Z</time></trkpt><trkpt lat="45.876731913906134" lon="9.261911681428368"><ele>530.0</ele><time>2026-04-03T12:48:48Z</time></trkpt><trkpt lat="45.87657072548266" lon="9.261821800190193"><ele>525.0</ele><time>2026-04-03T12:48:49Z</time></trkpt><trkpt lat="45.87641860664925" lon="9.261721739828458"><ele>520.0</ele><time>2026-04-03T12:48:50Z</time></trkpt><trkpt lat="45.87627284283073" lon="9.26162652354389"><ele>520.0</ele><time>2026-04-03T12:48:51Z</time></trkpt><trkpt lat="45.87612944680155" lon="9.261541209182166"><ele>520.0</ele><time>2026-04-03T12:48:52Z</time></trkpt><trkpt lat="45.875988164405086" lon="9.261459961046953"><ele>520.0</ele><time>2026-04-03T12:48:53Z</time></trkpt><trkpt lat="45.87584964284328" lon="9.261375378334986"><ele>521.5</ele><time>2026-04-03T12:48:54Z</time></trkpt><trkpt lat="45.87571588949743" lon="9.26129331285136"><ele>523.0</ele><time>2026-04-03T12:48:55Z</time></trkpt><trkpt lat="45.87558603294515" lon="9.261207216786556"><ele>524.5</ele><time>2026-04-03T12:48:56Z</time></trkpt><trkpt lat="45.87545752057143" lon="9.261119330705212"><ele>526.0</ele><time>2026-04-03T12:48:57Z</time></trkpt><trkpt lat="45.87533833529491" lon="9.261042611655398"><ele>526.0</ele><time>2026-04-03T12:48:58Z</time></trkpt><trkpt lat="45.875238086452484" lon="9.260971135184683"><ele>526.0</ele><time>2026-04-03T12:48:59Z</time></trkpt><trkpt lat="45.87513945405143" lon="9.260903827716866"><ele>526.0</ele><time>2026-04-03T12:49:00Z</time></trkpt><trkpt lat="45.875042039190774" lon="9.26084847334974"><ele>526.0</ele><time>2026-04-03T12:49:01Z</time></trkpt><trkpt lat="45.874950552756665" lon="9.260808822897612"><ele>526.0</ele><time>2026-04-03T12:49:02Z</time></trkpt><trkpt lat="45.874854200764965" lon="9.260794841236134"><ele>522.5</ele><time>2026-04-03T12:49:03Z</time></trkpt><trkpt lat="45.87474638025909" lon="9.26082274714299"><ele>519.0</ele><time>2026-04-03T12:49:04Z</time></trkpt><trkpt lat="45.87463067801545" lon="9.260896501673905"><ele>515.5</ele><time>2026-04-03T12:49:05Z</time></trkpt><trkpt lat="45.8745103163902" lon="9.26099197519443"><ele>512.0</ele><time>2026-04-03T12:49:06Z</time></trkpt><trkpt lat="45.87439898308795" lon="9.261071450866295"><ele>512.0</ele><time>2026-04-03T12:49:07Z</time></trkpt><trkpt lat="45.87428906484246" lon="9.261121774057608"><ele>512.0</ele><time>2026-04-03T12:49:08Z</time></trkpt><trkpt lat="45.87417801054491" lon="9.26116040334978"><ele>512.0</ele><time>2026-04-03T12:49:09Z</time></trkpt><trkpt lat="45.87406792165278" lon="9.26120498302467"><ele>512.0</ele><time>2026-04-03T12:49:10Z</time></trkpt><trkpt lat="45.8739684580207" lon="9.261241962191706"><ele>512.0</ele><time>2026-04-03T12:49:11Z</time></trkpt><trkpt lat="45.873867780337804" lon="9.261254177432685"><ele>512.5</ele><time>2026-04-03T12:49:12Z</time></trkpt><trkpt lat="45.87376112384729" lon="9.261220649662746"><ele>513.0</ele><time>2026-04-03T12:49:13Z</time></trkpt><trkpt lat="45.87365198741151" lon="9.261156242588882"><ele>513.5</ele><time>2026-04-03T12:49:14Z</time></trkpt><trkpt lat="45.873543503070316" lon="9.261083603663494"><ele>514.0</ele><time>2026-04-03T12:49:14.999Z</time></trkpt><trkpt lat="45.87344853217988" lon="9.261023355794977"><ele>511.6</ele><time>2026-04-03T12:49:15.999Z</time></trkpt><trkpt lat="45.87335918785674" lon="9.26097699981736"><ele>509.2</ele><time>2026-04-03T12:49:16.999Z</time></trkpt><trkpt lat="45.873267699521406" lon="9.260937761665488"><ele>506.80000000000007</ele><time>2026-04-03T12:49:17.999Z</time></trkpt><trkpt lat="45.87316732665914" lon="9.26092013339796"><ele>504.40000000000003</ele><time>2026-04-03T12:49:18.999Z</time></trkpt><trkpt lat="45.87307663330449" lon="9.260925369191812"><ele>502.0</ele><time>2026-04-03T12:49:19.999Z</time></trkpt><trkpt lat="45.87300766195293" lon="9.260919134444034"><ele>502.0</ele><time>2026-04-03T12:49:20.999Z</time></trkpt><trkpt lat="45.87292351340301" lon="9.260827760319192"><ele>502.00000000000006</ele><time>2026-04-03T12:49:22.999Z</time></trkpt><trkpt lat="45.87290933701623" lon="9.260728911845625"><ele>502.00000000000006</ele><time>2026-04-03T12:49:23.999Z</time></trkpt><trkpt lat="45.872939400463096" lon="9.260612327734353"><ele>502.0</ele><time>2026-04-03T12:49:24.999Z</time></trkpt><trkpt lat="45.87299814336933" lon="9.260505092128286"><ele>502.0</ele><time>2026-04-03T12:49:25.999Z</time></trkpt><trkpt lat="45.87303608931459" lon="9.260376055937568"><ele>505.5</ele><time>2026-04-03T12:49:26.999Z</time></trkpt><trkpt lat="45.87305845696646" lon="9.260236639942214"><ele>509.0</ele><time>2026-04-03T12:49:27.999Z</time></trkpt><trkpt lat="45.87304083768852" lon="9.260099861104266"><ele>512.5</ele><time>2026-04-03T12:49:28.999Z</time></trkpt><trkpt lat="45.872990258142195" lon="9.259987751068802"><ele>516.0</ele><time>2026-04-03T12:49:29.999Z</time></trkpt><trkpt lat="45.872817452866755" lon="9.25988791515116"><ele>516.0</ele><time>2026-04-03T12:49:30.999Z</time></trkpt><trkpt lat="45.87266934459294" lon="9.259833388782791"><ele>516.0</ele><time>2026-04-03T12:49:31.999Z</time></trkpt><trkpt lat="45.8725115835326" lon="9.259787566680755"><ele>516.0</ele><time>2026-04-03T12:49:32.999Z</time></trkpt><trkpt lat="45.872370823676185" lon="9.259758072234137"><ele>511.66666666666663</ele><time>2026-04-03T12:49:33.999Z</time></trkpt><trkpt lat="45.872219678412755" lon="9.259785795153476"><ele>507.3333333333333</ele><time>2026-04-03T12:49:34.999Z</time></trkpt><trkpt lat="45.872057914724266" lon="9.259884594659988"><ele>503.0</ele><time>2026-04-03T12:49:35.999Z</time></trkpt><trkpt lat="45.871882611214325" lon="9.260026865262818"><ele>511.3333333333333</ele><time>2026-04-03T12:49:36.999Z</time></trkpt><trkpt lat="45.871695701649514" lon="9.260169056650621"><ele>519.6666666666666</ele><time>2026-04-03T12:49:37.999Z</time></trkpt><trkpt lat="45.87150996527072" lon="9.260294795467699"><ele>528.0</ele><time>2026-04-03T12:49:38.999Z</time></trkpt><trkpt lat="45.87134244735393" lon="9.260420462737644"><ele>528.0</ele><time>2026-04-03T12:49:39.999Z</time></trkpt><trkpt lat="45.87120902877684" lon="9.260565840700615"><ele>528.0</ele><time>2026-04-03T12:49:40.999Z</time></trkpt><trkpt lat="45.87110309543874" lon="9.260702785721595"><ele>528.0</ele><time>2026-04-03T12:49:41.999Z</time></trkpt><trkpt lat="45.871009783871735" lon="9.26082867742929"><ele>528.0</ele><time>2026-04-03T12:49:42.999Z</time></trkpt><trkpt lat="45.87091318877712" lon="9.260933568094913"><ele>527.75</ele><time>2026-04-03T12:49:43.999Z</time></trkpt><trkpt lat="45.870806875657536" lon="9.261002023629997"><ele>527.5</ele><time>2026-04-03T12:49:44.999Z</time></trkpt><trkpt lat="45.87068716741521" lon="9.261021572770236"><ele>527.25</ele><time>2026-04-03T12:49:45.999Z</time></trkpt><trkpt lat="45.87054223634752" lon="9.26098818844871"><ele>527.0</ele><time>2026-04-03T12:49:46.999Z</time></trkpt><trkpt lat="45.870374049204386" lon="9.26095393163142"><ele>527.0</ele><time>2026-04-03T12:49:47.999Z</time></trkpt><trkpt lat="45.87020359994712" lon="9.26091209781432"><ele>527.0</ele><time>2026-04-03T12:49:48.999Z</time></trkpt><trkpt lat="45.87004658762768" lon="9.260880563168325"><ele>527.0</ele><time>2026-04-03T12:49:49.999Z</time></trkpt><trkpt lat="45.869906384916526" lon="9.260844368456805"><ele>526.6666666666666</ele><time>2026-04-03T12:49:50.999Z</time></trkpt><trkpt lat="45.86977391894246" lon="9.260749649104547"><ele>526.3333333333334</ele><time>2026-04-03T12:49:51.999Z</time></trkpt><trkpt lat="45.86964730957171" lon="9.260596607590548"><ele>526.0</ele><time>2026-04-03T12:49:52.999Z</time></trkpt><trkpt lat="45.869515971957846" lon="9.260410099336108"><ele>527.6666666666667</ele><time>2026-04-03T12:49:53.999Z</time></trkpt><trkpt lat="45.869375260998055" lon="9.26023549259506"><ele>529.3333333333334</ele><time>2026-04-03T12:49:54.999Z</time></trkpt><trkpt lat="45.86923445704817" lon="9.260063673694242"><ele>531.0</ele><time>2026-04-03T12:49:55.999Z</time></trkpt><trkpt lat="45.869104928780175" lon="9.259910530026021"><ele>534.25</ele><time>2026-04-03T12:49:56.999Z</time></trkpt><trkpt lat="45.86899491796737" lon="9.259770725808425"><ele>537.5</ele><time>2026-04-03T12:49:57.999Z</time></trkpt><trkpt lat="45.86890510878161" lon="9.259641223423364"><ele>540.75</ele><time>2026-04-03T12:49:58.999Z</time></trkpt><trkpt lat="45.86883916403227" lon="9.259488086765213"><ele>544.0</ele><time>2026-04-03T12:49:59.999Z</time></trkpt><trkpt lat="45.86880467542094" lon="9.25931392122305"><ele>544.0</ele><time>2026-04-03T12:50:00.999Z</time></trkpt><trkpt lat="45.86880157303197" lon="9.259125037392677"><ele>544.0</ele><time>2026-04-03T12:50:01.998Z</time></trkpt><trkpt lat="45.868894025722874" lon="9.258747700152409"><ele>544.0</ele><time>2026-04-03T12:50:03.998Z</time></trkpt><trkpt lat="45.86898920512374" lon="9.2585651526693"><ele>543.0</ele><time>2026-04-03T12:50:04.998Z</time></trkpt><trkpt lat="45.86908919871024" lon="9.258371165842847"><ele>542.0</ele><time>2026-04-03T12:50:05.998Z</time></trkpt><trkpt lat="45.86919446444966" lon="9.258180989490068"><ele>541.0</ele><time>2026-04-03T12:50:06.998Z</time></trkpt><trkpt lat="45.86929417322397" lon="9.25800242971533"><ele>549.0</ele><time>2026-04-03T12:50:07.998Z</time></trkpt><trkpt lat="45.869373664156676" lon="9.257812890468958"><ele>557.0</ele><time>2026-04-03T12:50:08.998Z</time></trkpt><trkpt lat="45.869425831600424" lon="9.257591144025584"><ele>565.0</ele><time>2026-04-03T12:50:09.998Z</time></trkpt><trkpt lat="45.869482886952305" lon="9.257352006583854"><ele>565.6666666666667</ele><time>2026-04-03T12:50:10.998Z</time></trkpt><trkpt lat="45.86956653456639" lon="9.257121633422527"><ele>566.3333333333334</ele><time>2026-04-03T12:50:11.998Z</time></trkpt><trkpt lat="45.86965908893171" lon="9.256931974221972"><ele>567.0</ele><time>2026-04-03T12:50:12.998Z</time></trkpt><trkpt lat="45.86972395595936" lon="9.25674212502875"><ele>567.0</ele><time>2026-04-03T12:50:13.998Z</time></trkpt><trkpt lat="45.86974323340309" lon="9.25650121179985"><ele>567.0</ele><time>2026-04-03T12:50:14.998Z</time></trkpt><trkpt lat="45.8697536541013" lon="9.256240523716802"><ele>567.0</ele><time>2026-04-03T12:50:15.998Z</time></trkpt><trkpt lat="45.86977238179234" lon="9.255977162253812"><ele>566.8000000000001</ele><time>2026-04-03T12:50:16.998Z</time></trkpt><trkpt lat="45.869783476355245" lon="9.255756820674078"><ele>566.6</ele><time>2026-04-03T12:50:17.998Z</time></trkpt><trkpt lat="45.86979951440481" lon="9.255607995910152"><ele>566.4000000000001</ele><time>2026-04-03T12:50:18.998Z</time></trkpt><trkpt lat="45.869813388110735" lon="9.255505849510735"><ele>566.2</ele><time>2026-04-03T12:50:19.998Z</time></trkpt><trkpt lat="45.8698735809405" lon="9.25541880721862"><ele>566.0</ele><time>2026-04-03T12:50:21.998Z</time></trkpt><trkpt lat="45.86995167093491" lon="9.255499076281453"><ele>566.0</ele><time>2026-04-03T12:50:23.998Z</time></trkpt><trkpt lat="45.869957126915025" lon="9.255608059218526"><ele>566.0</ele><time>2026-04-03T12:50:24.998Z</time></trkpt><trkpt lat="45.8699191912968" lon="9.25574172384473"><ele>566.0</ele><time>2026-04-03T12:50:25.998Z</time></trkpt><trkpt lat="45.86986611604626" lon="9.255903754257279"><ele>566.0</ele><time>2026-04-03T12:50:26.998Z</time></trkpt><trkpt lat="45.86984844475572" lon="9.256106256882894"><ele>566.0</ele><time>2026-04-03T12:50:27.998Z</time></trkpt><trkpt lat="45.86986384311667" lon="9.25632767266817"><ele>566.3333333333333</ele><time>2026-04-03T12:50:28.998Z</time></trkpt><trkpt lat="45.86991191282265" lon="9.256553676387105"><ele>566.6666666666666</ele><time>2026-04-03T12:50:29.998Z</time></trkpt><trkpt lat="45.869989049308636" lon="9.25677367179919"><ele>567.0</ele><time>2026-04-03T12:50:30.998Z</time></trkpt><trkpt lat="45.8700807389924" lon="9.256989063692684"><ele>570.5</ele><time>2026-04-03T12:50:31.998Z</time></trkpt><trkpt lat="45.87015331839793" lon="9.257183464024452"><ele>574.0</ele><time>2026-04-03T12:50:32.998Z</time></trkpt><trkpt lat="45.87020414336763" lon="9.257352854411069"><ele>577.5</ele><time>2026-04-03T12:50:33.998Z</time></trkpt><trkpt lat="45.87023856781402" lon="9.257502870346165"><ele>581.0</ele><time>2026-04-03T12:50:34.998Z</time></trkpt><trkpt lat="45.87025261517361" lon="9.257630842399244"><ele>581.0</ele><time>2026-04-03T12:50:35.998Z</time></trkpt><trkpt lat="45.87027533396037" lon="9.257718747152184"><ele>581.0</ele><time>2026-04-03T12:50:36.998Z</time></trkpt><trkpt lat="45.87032655980092" lon="9.257780109774666"><ele>581.0</ele><time>2026-04-03T12:50:37.998Z</time></trkpt><trkpt lat="45.870392976811715" lon="9.257773780800957"><ele>581.0</ele><time>2026-04-03T12:50:38.998Z</time></trkpt><trkpt lat="45.87044280489507" lon="9.257697738079232"><ele>581.0</ele><time>2026-04-03T12:50:40Z</time></trkpt><trkpt lat="45.87045008493067" lon="9.257589858883932"><ele>581.0</ele><time>2026-04-03T12:50:41Z</time></trkpt><trkpt lat="45.87040842660287" lon="9.257456840342606"><ele>581.0</ele><time>2026-04-03T12:50:42Z</time></trkpt><trkpt lat="45.87035751676109" lon="9.257304528415911"><ele>583.0</ele><time>2026-04-03T12:50:43Z</time></trkpt><trkpt lat="45.87032157775567" lon="9.25713724405023"><ele>585.0</ele><time>2026-04-03T12:50:44Z</time></trkpt><trkpt lat="45.87029049668357" lon="9.256952022651362"><ele>587.0</ele><time>2026-04-03T12:50:45Z</time></trkpt><trkpt lat="45.87024957761088" lon="9.256768839440056"><ele>589.0</ele><time>2026-04-03T12:50:46Z</time></trkpt><trkpt lat="45.87019704663744" lon="9.25660571455323"><ele>589.0</ele><time>2026-04-03T12:50:47Z</time></trkpt><trkpt lat="45.87015673879822" lon="9.256488515756757"><ele>589.0</ele><time>2026-04-03T12:50:48Z</time></trkpt><trkpt lat="45.870139732571246" lon="9.25639919497017"><ele>589.0</ele><time>2026-04-03T12:50:49Z</time></trkpt><trkpt lat="45.870192165349444" lon="9.256283894789291"><ele>589.0</ele><time>2026-04-03T12:50:51Z</time></trkpt><trkpt lat="45.87028349362901" lon="9.25631351010223"><ele>589.0</ele><time>2026-04-03T12:50:53Z</time></trkpt><trkpt lat="45.87031771434486" lon="9.256389993223047"><ele>589.0</ele><time>2026-04-03T12:50:54Z</time></trkpt><trkpt lat="45.87033830265122" lon="9.256493718087668"><ele>589.0</ele><time>2026-04-03T12:50:55Z</time></trkpt><trkpt lat="45.87035506569704" lon="9.256605314687688"><ele>589.0</ele><time>2026-04-03T12:50:56Z</time></trkpt><trkpt lat="45.87038798970352" lon="9.256702768301103"><ele>589.0</ele><time>2026-04-03T12:50:57Z</time></trkpt><trkpt lat="45.870440404279286" lon="9.256792600105546"><ele>589.0</ele><time>2026-04-03T12:50:58Z</time></trkpt><trkpt lat="45.87051014126441" lon="9.256871929458832"><ele>589.0</ele><time>2026-04-03T12:50:59Z</time></trkpt><trkpt lat="45.870593359161504" lon="9.256949220170466"><ele>589.0</ele><time>2026-04-03T12:51:00Z</time></trkpt><trkpt lat="45.87069076211857" lon="9.257029203167873"><ele>589.0</ele><time>2026-04-03T12:51:01Z</time></trkpt><trkpt lat="45.87079204306976" lon="9.25712581118696"><ele>589.0</ele><time>2026-04-03T12:51:02Z</time></trkpt><trkpt lat="45.8709017269438" lon="9.257236926029714"><ele>589.0</ele><time>2026-04-03T12:51:03Z</time></trkpt><trkpt lat="45.87102123896265" lon="9.25734643735705"><ele>589.0</ele><time>2026-04-03T12:51:04Z</time></trkpt><trkpt lat="45.871146076479995" lon="9.257448819232204"><ele>590.5</ele><time>2026-04-03T12:51:05Z</time></trkpt><trkpt lat="45.87126348844345" lon="9.257550853572116"><ele>592.0</ele><time>2026-04-03T12:51:06Z</time></trkpt><trkpt lat="45.87136871304329" lon="9.25765341328723"><ele>593.5</ele><time>2026-04-03T12:51:07Z</time></trkpt><trkpt lat="45.87145935163732" lon="9.257726233959204"><ele>595.0</ele><time>2026-04-03T12:51:08Z</time></trkpt><trkpt lat="45.87154597210996" lon="9.257769357895887"><ele>595.0</ele><time>2026-04-03T12:51:09Z</time></trkpt><trkpt lat="45.871641935188556" lon="9.257781207014904"><ele>595.0</ele><time>2026-04-03T12:51:10Z</time></trkpt><trkpt lat="45.87175287825222" lon="9.257761804966654"><ele>595.0</ele><time>2026-04-03T12:51:11Z</time></trkpt><trkpt lat="45.87187053644641" lon="9.257718887854761"><ele>595.0</ele><time>2026-04-03T12:51:12Z</time></trkpt><trkpt lat="45.87199369402328" lon="9.257670814325973"><ele>595.75</ele><time>2026-04-03T12:51:13Z</time></trkpt><trkpt lat="45.872216001837835" lon="9.257609417956983"><ele>596.5</ele><time>2026-04-03T12:51:15Z</time></trkpt><trkpt lat="45.872293662288506" lon="9.257578904552512"><ele>597.25</ele><time>2026-04-03T12:51:16Z</time></trkpt><trkpt lat="45.872355805151656" lon="9.257540274524798"><ele>598.0</ele><time>2026-04-03T12:51:17Z</time></trkpt><trkpt lat="45.87238928763864" lon="9.257385978029335"><ele>598.0</ele><time>2026-04-03T12:51:19Z</time></trkpt><trkpt lat="45.87234275127425" lon="9.257306146595964"><ele>598.0</ele><time>2026-04-03T12:51:20Z</time></trkpt><trkpt lat="45.87226817648872" lon="9.257277350400932"><ele>598.0</ele><time>2026-04-03T12:51:21Z</time></trkpt><trkpt lat="45.87218284342085" lon="9.257296400189482"><ele>598.0</ele><time>2026-04-03T12:51:22Z</time></trkpt><trkpt lat="45.87208756324634" lon="9.257316715438904"><ele>598.0</ele><time>2026-04-03T12:51:23Z</time></trkpt><trkpt lat="45.871984102807275" lon="9.25729967628258"><ele>598.0</ele><time>2026-04-03T12:51:23.999Z</time></trkpt><trkpt lat="45.87187843844101" lon="9.257220728030553"><ele>600.25</ele><time>2026-04-03T12:51:24.999Z</time></trkpt><trkpt lat="45.87179256996003" lon="9.257105669365211"><ele>602.5</ele><time>2026-04-03T12:51:25.999Z</time></trkpt><trkpt lat="45.871729425361195" lon="9.256957010254967"><ele>604.75</ele><time>2026-04-03T12:51:26.999Z</time></trkpt><trkpt lat="45.871680339326296" lon="9.256773312274143"><ele>607.0</ele><time>2026-04-03T12:51:27.999Z</time></trkpt><trkpt lat="45.8716283427378" lon="9.256564795242797"><ele>610.6666666666667</ele><time>2026-04-03T12:51:28.999Z</time></trkpt><trkpt lat="45.8715566293742" lon="9.256354419780447"><ele>614.3333333333334</ele><time>2026-04-03T12:51:29.999Z</time></trkpt><trkpt lat="45.87148772007203" lon="9.256142962021858"><ele>618.0</ele><time>2026-04-03T12:51:30.999Z</time></trkpt><trkpt lat="45.871432185106634" lon="9.255948945189928"><ele>618.0</ele><time>2026-04-03T12:51:31.999Z</time></trkpt><trkpt lat="45.8713870181179" lon="9.255775104105323"><ele>618.0</ele><time>2026-04-03T12:51:32.999Z</time></trkpt><trkpt lat="45.87136100200801" lon="9.25559797366781"><ele>618.0</ele><time>2026-04-03T12:51:33.999Z</time></trkpt><trkpt lat="45.87136305242735" lon="9.255407254829478"><ele>618.0</ele><time>2026-04-03T12:51:34.999Z</time></trkpt><trkpt lat="45.871390767235454" lon="9.255206262398776"><ele>619.0</ele><time>2026-04-03T12:51:35.999Z</time></trkpt><trkpt lat="45.87142134487529" lon="9.255014208415158"><ele>620.0</ele><time>2026-04-03T12:51:36.999Z</time></trkpt><trkpt lat="45.87142699340163" lon="9.254822741528194"><ele>621.0</ele><time>2026-04-03T12:51:37.999Z</time></trkpt><trkpt lat="45.87140079255282" lon="9.254623453972675"><ele>622.0</ele><time>2026-04-03T12:51:38.999Z</time></trkpt><trkpt lat="45.871345688333605" lon="9.25443331988135"><ele>623.4</ele><time>2026-04-03T12:51:39.999Z</time></trkpt><trkpt lat="45.871289959325296" lon="9.254259802412642"><ele>624.8000000000001</ele><time>2026-04-03T12:51:40.999Z</time></trkpt><trkpt lat="45.87125572401525" lon="9.254134084357782"><ele>626.2</ele><time>2026-04-03T12:51:41.999Z</time></trkpt><trkpt lat="45.871230447337254" lon="9.254036019107177"><ele>627.6</ele><time>2026-04-03T12:51:42.999Z</time></trkpt><trkpt lat="45.871198373110445" lon="9.253903217540687"><ele>629.0</ele><time>2026-04-03T12:51:44.999Z</time></trkpt><trkpt lat="45.871245521754425" lon="9.253779605315826"><ele>629.0</ele><time>2026-04-03T12:51:46.999Z</time></trkpt><trkpt lat="45.871316690337935" lon="9.253782924126869"><ele>629.0</ele><time>2026-04-03T12:51:47.999Z</time></trkpt><trkpt lat="45.87138930385231" lon="9.253854912362995"><ele>629.0</ele><time>2026-04-03T12:51:48.999Z</time></trkpt><trkpt lat="45.87145344421825" lon="9.253963978925086"><ele>629.0</ele><time>2026-04-03T12:51:49.999Z</time></trkpt><trkpt lat="45.87152410980216" lon="9.254085628130886"><ele>629.0</ele><time>2026-04-03T12:51:50.999Z</time></trkpt><trkpt lat="45.87160986798125" lon="9.254204517041238"><ele>629.0</ele><time>2026-04-03T12:51:51.999Z</time></trkpt><trkpt lat="45.87171627937933" lon="9.254330033545582"><ele>629.0</ele><time>2026-04-03T12:51:52.999Z</time></trkpt><trkpt lat="45.87181910464244" lon="9.254436502671911"><ele>629.0</ele><time>2026-04-03T12:51:53.999Z</time></trkpt><trkpt lat="45.87193184609434" lon="9.25455040602109"><ele>629.0</ele><time>2026-04-03T12:51:54.999Z</time></trkpt><trkpt lat="45.87204016737011" lon="9.254679377647978"><ele>634.6666666666666</ele><time>2026-04-03T12:51:55.999Z</time></trkpt><trkpt lat="45.87213689363916" lon="9.2548316592446"><ele>640.3333333333334</ele><time>2026-04-03T12:51:56.999Z</time></trkpt><trkpt lat="45.872212755781696" lon="9.255022795190834"><ele>646.0</ele><time>2026-04-03T12:51:57.999Z</time></trkpt><trkpt lat="45.8722725509171" lon="9.255237106444469"><ele>646.0</ele><time>2026-04-03T12:51:58.999Z</time></trkpt><trkpt lat="45.872336952685366" lon="9.255447984338758"><ele>646.0</ele><time>2026-04-03T12:51:59.999Z</time></trkpt><trkpt lat="45.87240264629596" lon="9.255625639649159"><ele>646.0</ele><time>2026-04-03T12:52:00.999Z</time></trkpt><trkpt lat="45.87245896870378" lon="9.25576584032201"><ele>646.0</ele><time>2026-04-03T12:52:01.999Z</time></trkpt><trkpt lat="45.87251413364212" lon="9.255892510045284"><ele>646.0</ele><time>2026-04-03T12:52:02.999Z</time></trkpt><trkpt lat="45.87260258918107" lon="9.255999142598382"><ele>646.0</ele><time>2026-04-03T12:52:03.999Z</time></trkpt><trkpt lat="45.87271809499914" lon="9.25606323764662"><ele>646.0</ele><time>2026-04-03T12:52:04.999Z</time></trkpt><trkpt lat="45.87285908276089" lon="9.256068313332493"><ele>646.0</ele><time>2026-04-03T12:52:05.999Z</time></trkpt><trkpt lat="45.87301254643652" lon="9.256025847316907"><ele>646.0</ele><time>2026-04-03T12:52:06.999Z</time></trkpt><trkpt lat="45.87317352314094" lon="9.255946651713701"><ele>646.0</ele><time>2026-04-03T12:52:07.999Z</time></trkpt><trkpt lat="45.87334426151522" lon="9.255875832943028"><ele>646.0</ele><time>2026-04-03T12:52:08.999Z</time></trkpt><trkpt lat="45.873518282383834" lon="9.255809975272422"><ele>648.0</ele><time>2026-04-03T12:52:09.999Z</time></trkpt><trkpt lat="45.873699820528984" lon="9.255740798189036"><ele>650.0</ele><time>2026-04-03T12:52:10.999Z</time></trkpt><trkpt lat="45.87388548272632" lon="9.255683434479261"><ele>652.0</ele><time>2026-04-03T12:52:11.998Z</time></trkpt><trkpt lat="45.8740397993059" lon="9.255623617918571"><ele>655.0</ele><time>2026-04-03T12:52:12.998Z</time></trkpt><trkpt lat="45.874166690855816" lon="9.25557011272342"><ele>658.0</ele><time>2026-04-03T12:52:13.998Z</time></trkpt><trkpt lat="45.87428658173738" lon="9.255522855002898"><ele>661.0</ele><time>2026-04-03T12:52:14.998Z</time></trkpt><trkpt lat="45.87439228472834" lon="9.255478230132157"><ele>664.0</ele><time>2026-04-03T12:52:15.998Z</time></trkpt><trkpt lat="45.874486849584954" lon="9.255453201406565"><ele>664.0</ele><time>2026-04-03T12:52:16.998Z</time></trkpt><trkpt lat="45.87456370001741" lon="9.255438073403536"><ele>664.0</ele><time>2026-04-03T12:52:17.998Z</time></trkpt><trkpt lat="45.87462422686779" lon="9.25540313690476"><ele>664.0</ele><time>2026-04-03T12:52:18.998Z</time></trkpt><trkpt lat="45.874657177472386" lon="9.255325592963436"><ele>664.0</ele><time>2026-04-03T12:52:19.998Z</time></trkpt><trkpt lat="45.87462930857964" lon="9.255208032749131"><ele>664.0</ele><time>2026-04-03T12:52:20.998Z</time></trkpt><trkpt lat="45.87455851080308" lon="9.25513823699664"><ele>664.0</ele><time>2026-04-03T12:52:21.998Z</time></trkpt><trkpt lat="45.87446121827453" lon="9.255131546627556"><ele>664.0</ele><time>2026-04-03T12:52:22.998Z</time></trkpt><trkpt lat="45.87433778559244" lon="9.255197291897625"><ele>664.0</ele><time>2026-04-03T12:52:23.998Z</time></trkpt><trkpt lat="45.87420767861691" lon="9.25526796293012"><ele>664.0</ele><time>2026-04-03T12:52:24.998Z</time></trkpt><trkpt lat="45.87409145673883" lon="9.255261583465936"><ele>664.0</ele><time>2026-04-03T12:52:25.998Z</time></trkpt><trkpt lat="45.873945268009365" lon="9.255181252051813"><ele>664.0</ele><time>2026-04-03T12:52:26.998Z</time></trkpt><trkpt lat="45.873760953472804" lon="9.255081846392754"><ele>664.0</ele><time>2026-04-03T12:52:27.998Z</time></trkpt><trkpt lat="45.873583964827326" lon="9.25500552278089"><ele>664.0</ele><time>2026-04-03T12:52:28.998Z</time></trkpt><trkpt lat="45.87342507102637" lon="9.254939513660036"><ele>664.0</ele><time>2026-04-03T12:52:29.998Z</time></trkpt><trkpt lat="45.87330805283356" lon="9.25489757555807"><ele>664.0</ele><time>2026-04-03T12:52:30.998Z</time></trkpt><trkpt lat="45.873194502176474" lon="9.254880902027478"><ele>664.0</ele><time>2026-04-03T12:52:31.998Z</time></trkpt><trkpt lat="45.87310120495219" lon="9.254887149702064"><ele>664.0</ele><time>2026-04-03T12:52:32.998Z</time></trkpt><trkpt lat="45.87302728758504" lon="9.254889192081098"><ele>664.0</ele><time>2026-04-03T12:52:33.998Z</time></trkpt><trkpt lat="45.872945108856655" lon="9.25480183263628"><ele>667.3333333333334</ele><time>2026-04-03T12:52:35.998Z</time></trkpt><trkpt lat="45.87295979946136" lon="9.254710437035435"><ele>670.6666666666667</ele><time>2026-04-03T12:52:36.998Z</time></trkpt><trkpt lat="45.87301098098562" lon="9.254647904638592"><ele>674.0</ele><time>2026-04-03T12:52:37.998Z</time></trkpt><trkpt lat="45.87309144663362" lon="9.25464383614673"><ele>677.3333333333334</ele><time>2026-04-03T12:52:38.998Z</time></trkpt><trkpt lat="45.87317701579245" lon="9.254677082282464"><ele>680.6666666666666</ele><time>2026-04-03T12:52:39.998Z</time></trkpt><trkpt lat="45.873276619389046" lon="9.254713232682661"><ele>684.0</ele><time>2026-04-03T12:52:40.998Z</time></trkpt><trkpt lat="45.87339183790522" lon="9.254705881354656"><ele>684.75</ele><time>2026-04-03T12:52:41.998Z</time></trkpt><trkpt lat="45.8735187445955" lon="9.254678740222822"><ele>685.5</ele><time>2026-04-03T12:52:42.998Z</time></trkpt><trkpt lat="45.87364823048536" lon="9.254647313490738"><ele>686.25</ele><time>2026-04-03T12:52:43.998Z</time></trkpt><trkpt lat="45.87376595825321" lon="9.25460668601403"><ele>687.0</ele><time>2026-04-03T12:52:44.998Z</time></trkpt><trkpt lat="45.8738712725944" lon="9.254561740589914"><ele>687.0</ele><time>2026-04-03T12:52:46Z</time></trkpt><trkpt lat="45.873972115780106" lon="9.254523642588916"><ele>687.0</ele><time>2026-04-03T12:52:47Z</time></trkpt><trkpt lat="45.874066065433325" lon="9.254493595535392"><ele>687.0</ele><time>2026-04-03T12:52:48Z</time></trkpt><trkpt lat="45.874156072395465" lon="9.254461637366186"><ele>687.0</ele><time>2026-04-03T12:52:49Z</time></trkpt><trkpt lat="45.874249159310395" lon="9.254433662768346"><ele>687.0</ele><time>2026-04-03T12:52:50Z</time></trkpt><trkpt lat="45.874337152203545" lon="9.254422103496834"><ele>687.2</ele><time>2026-04-03T12:52:51Z</time></trkpt><trkpt lat="45.874416015108245" lon="9.254427170745789"><ele>687.4000000000001</ele><time>2026-04-03T12:52:52Z</time></trkpt><trkpt lat="45.87449321045587" lon="9.254434704762218"><ele>687.5999999999999</ele><time>2026-04-03T12:52:53Z</time></trkpt><trkpt lat="45.874586061694444" lon="9.25436465279455"><ele>687.8</ele><time>2026-04-03T12:52:55Z</time></trkpt><trkpt lat="45.874581978938956" lon="9.254190790272098"><ele>688.0</ele><time>2026-04-03T12:52:57Z</time></trkpt><trkpt lat="45.874508039924756" lon="9.254148284402659"><ele>688.0</ele><time>2026-04-03T12:52:58Z</time></trkpt><trkpt lat="45.87442480331" lon="9.254156424870533"><ele>688.0</ele><time>2026-04-03T12:52:59Z</time></trkpt><trkpt lat="45.87434350072032" lon="9.254178907466967"><ele>688.0</ele><time>2026-04-03T12:53:00Z</time></trkpt><trkpt lat="45.87426165952171" lon="9.254192716828658"><ele>688.0</ele><time>2026-04-03T12:53:01Z</time></trkpt><trkpt lat="45.874170709840705" lon="9.254195476999536"><ele>688.0</ele><time>2026-04-03T12:53:02Z</time></trkpt><trkpt lat="45.87406861866527" lon="9.254188175053327"><ele>688.0</ele><time>2026-04-03T12:53:03Z</time></trkpt><trkpt lat="45.87396372133855" lon="9.254169272465656"><ele>687.8</ele><time>2026-04-03T12:53:04Z</time></trkpt><trkpt lat="45.87386263009943" lon="9.254150921319027"><ele>687.5999999999999</ele><time>2026-04-03T12:53:05Z</time></trkpt><trkpt lat="45.8737694777499" lon="9.254142272411828"><ele>687.4000000000001</ele><time>2026-04-03T12:53:06Z</time></trkpt><trkpt lat="45.873699142510766" lon="9.25413302873548"><ele>687.2</ele><time>2026-04-03T12:53:07Z</time></trkpt><trkpt lat="45.87360141656003" lon="9.25409175169662"><ele>687.0</ele><time>2026-04-03T12:53:09Z</time></trkpt><trkpt lat="45.8735845501885" lon="9.253963067445843"><ele>690.2</ele><time>2026-04-03T12:53:11Z</time></trkpt><trkpt lat="45.87369468883998" lon="9.253889678341634"><ele>693.4000000000001</ele><time>2026-04-03T12:53:13Z</time></trkpt><trkpt lat="45.87377443989579" lon="9.2539044915612"><ele>696.5999999999999</ele><time>2026-04-03T12:53:14Z</time></trkpt><trkpt lat="45.873865623291515" lon="9.253908852002334"><ele>699.8</ele><time>2026-04-03T12:53:15Z</time></trkpt><trkpt lat="45.8739695281458" lon="9.253900382328746"><ele>703.0</ele><time>2026-04-03T12:53:16Z</time></trkpt><trkpt lat="45.87407411901759" lon="9.253871744156903"><ele>703.0</ele><time>2026-04-03T12:53:17Z</time></trkpt><trkpt lat="45.87419212411302" lon="9.253833188193452"><ele>703.0</ele><time>2026-04-03T12:53:18Z</time></trkpt><trkpt lat="45.874315285325366" lon="9.253802334147327"><ele>703.0</ele><time>2026-04-03T12:53:19Z</time></trkpt><trkpt lat="45.87443135668973" lon="9.253782949782067"><ele>703.0</ele><time>2026-04-03T12:53:20Z</time></trkpt><trkpt lat="45.87454349717161" lon="9.253748931923678"><ele>703.2</ele><time>2026-04-03T12:53:21Z</time></trkpt><trkpt lat="45.87464652258207" lon="9.25371816501219"><ele>703.4</ele><time>2026-04-03T12:53:22Z</time></trkpt><trkpt lat="45.87474697402617" lon="9.253688512867187"><ele>703.6</ele><time>2026-04-03T12:53:23Z</time></trkpt><trkpt lat="45.874845707599846" lon="9.253655570748212"><ele>703.8000000000001</ele><time>2026-04-03T12:53:24Z</time></trkpt><trkpt lat="45.8749611129176" lon="9.253591681012821"><ele>704.0</ele><time>2026-04-03T12:53:24.999Z</time></trkpt><trkpt lat="45.87504614331" lon="9.253483361344598"><ele>702.6</ele><time>2026-04-03T12:53:25.999Z</time></trkpt><trkpt lat="45.87513788111934" lon="9.25336171743707"><ele>701.2</ele><time>2026-04-03T12:53:26.999Z</time></trkpt><trkpt lat="45.875224264124114" lon="9.253271840796712"><ele>699.8000000000001</ele><time>2026-04-03T12:53:27.999Z</time></trkpt><trkpt lat="45.875309793971866" lon="9.25318277555012"><ele>698.4000000000001</ele><time>2026-04-03T12:53:28.999Z</time></trkpt><trkpt lat="45.87538086501178" lon="9.253103982707477"><ele>697.0</ele><time>2026-04-03T12:53:29.999Z</time></trkpt><trkpt lat="45.87544338094657" lon="9.253040597969802"><ele>700.1666666666667</ele><time>2026-04-03T12:53:30.999Z</time></trkpt><trkpt lat="45.8755101906043" lon="9.252914498361356"><ele>703.3333333333334</ele><time>2026-04-03T12:53:32.999Z</time></trkpt><trkpt lat="45.87545795107" lon="9.252761421045877"><ele>706.5</ele><time>2026-04-03T12:53:34.999Z</time></trkpt><trkpt lat="45.87539017346542" lon="9.25275336688407"><ele>709.6666666666666</ele><time>2026-04-03T12:53:35.999Z</time></trkpt><trkpt lat="45.8753276568341" lon="9.25279901356427"><ele>712.8333333333333</ele><time>2026-04-03T12:53:36.999Z</time></trkpt><trkpt lat="45.8752731733344" lon="9.25286841968612"><ele>716.0</ele><time>2026-04-03T12:53:37.999Z</time></trkpt><trkpt lat="45.87521403785035" lon="9.252927554054807"><ele>716.0</ele><time>2026-04-03T12:53:38.999Z</time></trkpt><trkpt lat="45.875145717706864" lon="9.252973519523728"><ele>716.0</ele><time>2026-04-03T12:53:39.999Z</time></trkpt><trkpt lat="45.8750781483461" lon="9.253009978671916"><ele>716.0</ele><time>2026-04-03T12:53:40.999Z</time></trkpt><trkpt lat="45.87498811383425" lon="9.253049778964689"><ele>716.0</ele><time>2026-04-03T12:53:41.999Z</time></trkpt><trkpt lat="45.87489118768931" lon="9.25307435671723"><ele>716.0</ele><time>2026-04-03T12:53:42.999Z</time></trkpt><trkpt lat="45.8747871929291" lon="9.253085300243223"><ele>716.0</ele><time>2026-04-03T12:53:43.999Z</time></trkpt><trkpt lat="45.874678972135726" lon="9.25307524136947"><ele>717.25</ele><time>2026-04-03T12:53:44.999Z</time></trkpt><trkpt lat="45.8745686325922" lon="9.253035037399199"><ele>718.5</ele><time>2026-04-03T12:53:45.999Z</time></trkpt><trkpt lat="45.8744438273253" lon="9.252975803743702"><ele>719.75</ele><time>2026-04-03T12:53:46.999Z</time></trkpt><trkpt lat="45.87433388912439" lon="9.252908722254203"><ele>721.0</ele><time>2026-04-03T12:53:47.999Z</time></trkpt><trkpt lat="45.87423114649619" lon="9.252855023335513"><ele>721.0</ele><time>2026-04-03T12:53:48.999Z</time></trkpt><trkpt lat="45.874140538130476" lon="9.252822704141874"><ele>721.0</ele><time>2026-04-03T12:53:49.999Z</time></trkpt><trkpt lat="45.874079460254926" lon="9.252790790935506"><ele>721.0</ele><time>2026-04-03T12:53:50.999Z</time></trkpt><trkpt lat="45.873987804319476" lon="9.252732712783496"><ele>721.0</ele><time>2026-04-03T12:53:52.999Z</time></trkpt><trkpt lat="45.873967655618955" lon="9.252591288352528"><ele>721.0</ele><time>2026-04-03T12:53:54.999Z</time></trkpt><trkpt lat="45.87401770881585" lon="9.252523316373445"><ele>721.0</ele><time>2026-04-03T12:53:55.999Z</time></trkpt><trkpt lat="45.874155568757544" lon="9.252536056022839"><ele>721.0</ele><time>2026-04-03T12:53:57.999Z</time></trkpt><trkpt lat="45.87423929315355" lon="9.252575844596363"><ele>721.0</ele><time>2026-04-03T12:53:58.999Z</time></trkpt><trkpt lat="45.87433726497202" lon="9.252618991496595"><ele>721.0</ele><time>2026-04-03T12:53:59.999Z</time></trkpt><trkpt lat="45.874437697411395" lon="9.252655116931848"><ele>721.0</ele><time>2026-04-03T12:54:00.999Z</time></trkpt><trkpt lat="45.87453322979432" lon="9.25268828750008"><ele>721.0</ele><time>2026-04-03T12:54:01.999Z</time></trkpt><trkpt lat="45.87464180100863" lon="9.252671267720892"><ele>721.75</ele><time>2026-04-03T12:54:02.999Z</time></trkpt><trkpt lat="45.87475853668574" lon="9.252607051931452"><ele>722.5</ele><time>2026-04-03T12:54:03.999Z</time></trkpt><trkpt lat="45.87487195898505" lon="9.252491885769647"><ele>723.25</ele><time>2026-04-03T12:54:04.999Z</time></trkpt><trkpt lat="45.87497718870678" lon="9.252376242848868"><ele>724.0</ele><time>2026-04-03T12:54:05.999Z</time></trkpt><trkpt lat="45.875066733173" lon="9.25229256016737"><ele>726.0</ele><time>2026-04-03T12:54:06.999Z</time></trkpt><trkpt lat="45.87515310929669" lon="9.252215665396973"><ele>728.0</ele><time>2026-04-03T12:54:07.999Z</time></trkpt><trkpt lat="45.875239792647626" lon="9.252142119830234"><ele>730.0</ele><time>2026-04-03T12:54:08.999Z</time></trkpt><trkpt lat="45.87532686735652" lon="9.252064467884539"><ele>732.0</ele><time>2026-04-03T12:54:09.999Z</time></trkpt><trkpt lat="45.87549974957082" lon="9.251906631884326"><ele>732.0</ele><time>2026-04-03T12:54:11.999Z</time></trkpt><trkpt lat="45.87558598704599" lon="9.251829973920957"><ele>732.0</ele><time>2026-04-03T12:54:12.999Z</time></trkpt><trkpt lat="45.875662965826784" lon="9.251752129397138"><ele>732.0</ele><time>2026-04-03T12:54:13.999Z</time></trkpt><trkpt lat="45.87573932739983" lon="9.251684528852666"><ele>732.0</ele><time>2026-04-03T12:54:14.999Z</time></trkpt><trkpt lat="45.875814195675055" lon="9.251611796472103"><ele>732.0</ele><time>2026-04-03T12:54:15.998Z</time></trkpt><trkpt lat="45.875893120347314" lon="9.251551845214827"><ele>732.2</ele><time>2026-04-03T12:54:16.998Z</time></trkpt><trkpt lat="45.87597156469552" lon="9.251494481397783"><ele>732.4000000000001</ele><time>2026-04-03T12:54:17.998Z</time></trkpt><trkpt lat="45.87605884453968" lon="9.251455401876157"><ele>732.5999999999999</ele><time>2026-04-03T12:54:18.998Z</time></trkpt><trkpt lat="45.87616077685059" lon="9.251424361113354"><ele>732.8</ele><time>2026-04-03T12:54:19.998Z</time></trkpt><trkpt lat="45.87626923922345" lon="9.25140464433105"><ele>733.0</ele><time>2026-04-03T12:54:20.998Z</time></trkpt><trkpt lat="45.876380644995656" lon="9.251403107995396"><ele>734.4</ele><time>2026-04-03T12:54:21.998Z</time></trkpt><trkpt lat="45.87648721670384" lon="9.251402738919072"><ele>735.8</ele><time>2026-04-03T12:54:22.998Z</time></trkpt><trkpt lat="45.876588367086335" lon="9.251400484739857"><ele>737.2</ele><time>2026-04-03T12:54:23.998Z</time></trkpt><trkpt lat="45.87668084431038" lon="9.251387940148808"><ele>738.6</ele><time>2026-04-03T12:54:24.998Z</time></trkpt><trkpt lat="45.876768681975385" lon="9.251349628141742"><ele>740.0</ele><time>2026-04-03T12:54:25.998Z</time></trkpt><trkpt lat="45.876852972011925" lon="9.251277073354277"><ele>740.0</ele><time>2026-04-03T12:54:26.998Z</time></trkpt><trkpt lat="45.87692762482028" lon="9.251168756189502"><ele>740.0</ele><time>2026-04-03T12:54:27.998Z</time></trkpt><trkpt lat="45.87697871768308" lon="9.251036396512617"><ele>740.0</ele><time>2026-04-03T12:54:28.998Z</time></trkpt><trkpt lat="45.87699974416962" lon="9.250884143375988"><ele>740.0</ele><time>2026-04-03T12:54:29.998Z</time></trkpt><trkpt lat="45.876996211873404" lon="9.250729016000935"><ele>740.0</ele><time>2026-04-03T12:54:30.998Z</time></trkpt><trkpt lat="45.87699407352068" lon="9.25059747635908"><ele>740.6666666666666</ele><time>2026-04-03T12:54:31.998Z</time></trkpt><trkpt lat="45.87700268895676" lon="9.25049080892034"><ele>741.3333333333333</ele><time>2026-04-03T12:54:32.998Z</time></trkpt><trkpt lat="45.87702352799705" lon="9.250377130034336"><ele>742.0</ele><time>2026-04-03T12:54:33.998Z</time></trkpt><trkpt lat="45.877057684429175" lon="9.250257709802877"><ele>742.6666666666666</ele><time>2026-04-03T12:54:34.998Z</time></trkpt><trkpt lat="45.87709906189716" lon="9.250137823936681"><ele>743.3333333333334</ele><time>2026-04-03T12:54:35.998Z</time></trkpt><trkpt lat="45.87714698939489" lon="9.250020573991375"><ele>744.0</ele><time>2026-04-03T12:54:36.998Z</time></trkpt><trkpt lat="45.877192484601956" lon="9.249897740239895"><ele>745.6</ele><time>2026-04-03T12:54:37.998Z</time></trkpt><trkpt lat="45.87723278478414" lon="9.249770627056447"><ele>747.2</ele><time>2026-04-03T12:54:38.998Z</time></trkpt><trkpt lat="45.87727210968019" lon="9.24965024414258"><ele>748.8000000000001</ele><time>2026-04-03T12:54:39.998Z</time></trkpt><trkpt lat="45.87731589327613" lon="9.249540046262867"><ele>750.4000000000001</ele><time>2026-04-03T12:54:40.998Z</time></trkpt><trkpt lat="45.87735079514433" lon="9.249446051594619"><ele>752.0</ele><time>2026-04-03T12:54:41.998Z</time></trkpt><trkpt lat="45.87735810994061" lon="9.249298202397021"><ele>752.0</ele><time>2026-04-03T12:54:43.998Z</time></trkpt><trkpt lat="45.87727609491561" lon="9.249214811815044"><ele>752.0</ele><time>2026-04-03T12:54:45.998Z</time></trkpt><trkpt lat="45.87712542100165" lon="9.249257402053193"><ele>752.0</ele><time>2026-04-03T12:54:48.998Z</time></trkpt><trkpt lat="45.87703800861164" lon="9.249380803791528"><ele>752.0</ele><time>2026-04-03T12:54:50.998Z</time></trkpt><trkpt lat="45.876945336687356" lon="9.249492662443888"><ele>752.0</ele><time>2026-04-03T12:54:53Z</time></trkpt><trkpt lat="45.876857287992955" lon="9.249565003591835"><ele>752.0</ele><time>2026-04-03T12:54:55Z</time></trkpt><trkpt lat="45.876790868943985" lon="9.24949223274576"><ele>752.0</ele><time>2026-04-03T12:54:57Z</time></trkpt><trkpt lat="45.87676399022953" lon="9.24940022581414"><ele>752.0</ele><time>2026-04-03T12:54:58Z</time></trkpt><trkpt lat="45.87676259199996" lon="9.24921090082823"><ele>752.0</ele><time>2026-04-03T12:55:00Z</time></trkpt><trkpt lat="45.87677170464176" lon="9.24910540168237"><ele>752.0</ele><time>2026-04-03T12:55:01Z</time></trkpt><trkpt lat="45.87679053679954" lon="9.248990933400195"><ele>752.0</ele><time>2026-04-03T12:55:02Z</time></trkpt><trkpt lat="45.87681594826355" lon="9.248878016779802"><ele>752.0</ele><time>2026-04-03T12:55:03Z</time></trkpt><trkpt lat="45.876842602221224" lon="9.248771702516697"><ele>752.0</ele><time>2026-04-03T12:55:04Z</time></trkpt><trkpt lat="45.87686894593922" lon="9.24864853848896"><ele>752.0</ele><time>2026-04-03T12:55:05Z</time></trkpt><trkpt lat="45.87691362259989" lon="9.248530761231569"><ele>752.0</ele><time>2026-04-03T12:55:06Z</time></trkpt><trkpt lat="45.87693989822482" lon="9.248398349994659"><ele>753.8333333333333</ele><time>2026-04-03T12:55:07Z</time></trkpt><trkpt lat="45.876934615803656" lon="9.24829156856653"><ele>755.6666666666666</ele><time>2026-04-03T12:55:08Z</time></trkpt><trkpt lat="45.876949684173276" lon="9.248150102265654"><ele>757.5</ele><time>2026-04-03T12:55:10Z</time></trkpt><trkpt lat="45.87696465045589" lon="9.248053964621802"><ele>759.3333333333334</ele><time>2026-04-03T12:55:12Z</time></trkpt><trkpt lat="45.87702290252778" lon="9.247989701472973"><ele>761.1666666666667</ele><time>2026-04-03T12:55:15Z</time></trkpt><trkpt lat="45.877104855135805" lon="9.248001606544074"><ele>763.0</ele><time>2026-04-03T12:55:17Z</time></trkpt><trkpt lat="45.8771847861952" lon="9.248001925568724"><ele>764.3333333333334</ele><time>2026-04-03T12:55:19Z</time></trkpt><trkpt lat="45.87726318015529" lon="9.2479993169764"><ele>765.6666666666667</ele><time>2026-04-03T12:55:21Z</time></trkpt><trkpt lat="45.87733099672943" lon="9.248007178046675"><ele>767.0</ele><time>2026-04-03T12:55:23Z</time></trkpt><trkpt lat="45.87737177785084" lon="9.247914052422994"><ele>768.3333333333334</ele><time>2026-04-03T12:55:28Z</time></trkpt><trkpt lat="45.87731785214511" lon="9.248008524978783"><ele>769.6666666666666</ele><time>2026-04-03T12:55:33.999Z</time></trkpt><trkpt lat="45.87722265920934" lon="9.248048329286306"><ele>771.0</ele><time>2026-04-03T12:55:36.999Z</time></trkpt><trkpt lat="45.87716277677437" lon="9.248016304532563"><ele>771.0</ele><time>2026-04-03T12:55:37.999Z</time></trkpt><trkpt lat="45.877086601953344" lon="9.24801048487064"><ele>771.0</ele><time>2026-04-03T12:55:38.999Z</time></trkpt><trkpt lat="45.876987734903935" lon="9.248013917347937"><ele>771.0</ele><time>2026-04-03T12:55:40.999Z</time></trkpt><trkpt lat="45.876952881285625" lon="9.247903866528272"><ele>771.0</ele><time>2026-04-03T12:55:43.999Z</time></trkpt><trkpt lat="45.876963729314284" lon="9.247744793688375"><ele>771.0</ele><time>2026-04-03T12:55:45.999Z</time></trkpt><trkpt lat="45.87698733235393" lon="9.24759443007256"><ele>771.0</ele><time>2026-04-03T12:55:47.999Z</time></trkpt><trkpt lat="45.877002587440785" lon="9.247495002873897"><ele>771.0</ele><time>2026-04-03T12:55:48.999Z</time></trkpt><trkpt lat="45.87701084027092" lon="9.247403283218109"><ele>771.0</ele><time>2026-04-03T12:55:49.999Z</time></trkpt><trkpt lat="45.877021020325735" lon="9.247258008000669"><ele>771.0</ele><time>2026-04-03T12:55:51.999Z</time></trkpt><trkpt lat="45.877034282927696" lon="9.247157924117879"><ele>771.0</ele><time>2026-04-03T12:55:52.999Z</time></trkpt><trkpt lat="45.87709491623061" lon="9.246945622394978"><ele>770.1999999999999</ele><time>2026-04-03T12:55:54.999Z</time></trkpt><trkpt lat="45.87715883304208" lon="9.2468451089137"><ele>769.4</ele><time>2026-04-03T12:55:55.999Z</time></trkpt><trkpt lat="45.87724034678594" lon="9.246756467141104"><ele>768.6</ele><time>2026-04-03T12:55:56.999Z</time></trkpt><trkpt lat="45.87734611471922" lon="9.246688579470865"><ele>767.8</ele><time>2026-04-03T12:55:57.999Z</time></trkpt><trkpt lat="45.877461380269594" lon="9.246626034287832"><ele>767.0</ele><time>2026-04-03T12:55:58.999Z</time></trkpt><trkpt lat="45.87757376380991" lon="9.246573633064026"><ele>769.2</ele><time>2026-04-03T12:55:59.999Z</time></trkpt><trkpt lat="45.87767422136207" lon="9.24652424406471"><ele>771.4000000000001</ele><time>2026-04-03T12:56:00.999Z</time></trkpt><trkpt lat="45.87776659013607" lon="9.246453234652021"><ele>773.5999999999999</ele><time>2026-04-03T12:56:01.999Z</time></trkpt><trkpt lat="45.87785199451875" lon="9.24635624901027"><ele>775.8</ele><time>2026-04-03T12:56:02.999Z</time></trkpt><trkpt lat="45.87793064809232" lon="9.246229106675028"><ele>778.0</ele><time>2026-04-03T12:56:03.999Z</time></trkpt><trkpt lat="45.87800295979716" lon="9.24609967134808"><ele>778.0</ele><time>2026-04-03T12:56:04.999Z</time></trkpt><trkpt lat="45.87814253673843" lon="9.245804552539358"><ele>778.0</ele><time>2026-04-03T12:56:06.999Z</time></trkpt><trkpt lat="45.87821799873014" lon="9.245655824897167"><ele>778.0</ele><time>2026-04-03T12:56:07.999Z</time></trkpt><trkpt lat="45.87829369919361" lon="9.245507833257347"><ele>777.0</ele><time>2026-04-03T12:56:08.999Z</time></trkpt><trkpt lat="45.87836082095859" lon="9.245357439690931"><ele>776.0</ele><time>2026-04-03T12:56:09.999Z</time></trkpt><trkpt lat="45.87841624732672" lon="9.245186220064816"><ele>775.0</ele><time>2026-04-03T12:56:10.999Z</time></trkpt><trkpt lat="45.87845163586537" lon="9.24499642263534"><ele>774.0</ele><time>2026-04-03T12:56:11.999Z</time></trkpt><trkpt lat="45.87848038163717" lon="9.244799706456512"><ele>779.0</ele><time>2026-04-03T12:56:12.999Z</time></trkpt><trkpt lat="45.87852059681203" lon="9.24461252254133"><ele>784.0</ele><time>2026-04-03T12:56:13.999Z</time></trkpt><trkpt lat="45.87858276632755" lon="9.244452484760455"><ele>789.0</ele><time>2026-04-03T12:56:14.999Z</time></trkpt><trkpt lat="45.87865709589134" lon="9.244321069370292"><ele>794.0</ele><time>2026-04-03T12:56:15.999Z</time></trkpt><trkpt lat="45.87872252466496" lon="9.244192957687845"><ele>794.0000000000001</ele><time>2026-04-03T12:56:16.999Z</time></trkpt><trkpt lat="45.87874217971545" lon="9.244065051921062"><ele>794.0</ele><time>2026-04-03T12:56:17.999Z</time></trkpt><trkpt lat="45.87874560706415" lon="9.243927381398395"><ele>794.0</ele><time>2026-04-03T12:56:18.999Z</time></trkpt><trkpt lat="45.87874666716406" lon="9.24379786097677"><ele>794.0</ele><time>2026-04-03T12:56:19.999Z</time></trkpt><trkpt lat="45.87874586533263" lon="9.243697146190332"><ele>794.0000000000001</ele><time>2026-04-03T12:56:20.999Z</time></trkpt><trkpt lat="45.878799869971566" lon="9.243587021321714"><ele>794.0</ele><time>2026-04-03T12:56:22.999Z</time></trkpt><trkpt lat="45.87887833214565" lon="9.243652526333447"><ele>794.0</ele><time>2026-04-03T12:56:24.998Z</time></trkpt><trkpt lat="45.87890481604632" lon="9.243849357725578"><ele>794.0</ele><time>2026-04-03T12:56:26.998Z</time></trkpt><trkpt lat="45.87889932458305" lon="9.243988634160543"><ele>794.0</ele><time>2026-04-03T12:56:27.998Z</time></trkpt><trkpt lat="45.878906974214566" lon="9.244133701795908"><ele>794.0</ele><time>2026-04-03T12:56:28.998Z</time></trkpt><trkpt lat="45.87892700644842" lon="9.244276543105007"><ele>794.0</ele><time>2026-04-03T12:56:29.998Z</time></trkpt><trkpt lat="45.878947380519975" lon="9.24439298360882"><ele>794.0</ele><time>2026-04-03T12:56:30.998Z</time></trkpt><trkpt lat="45.87899197530395" lon="9.244541770136758"><ele>794.0</ele><time>2026-04-03T12:56:32.998Z</time></trkpt><trkpt lat="45.87902160076798" lon="9.244636269063111"><ele>794.0</ele><time>2026-04-03T12:56:34.998Z</time></trkpt><trkpt lat="45.87908633897455" lon="9.244731475368631"><ele>794.0</ele><time>2026-04-03T12:56:37.998Z</time></trkpt><trkpt lat="45.87916692418806" lon="9.244865911364958"><ele>794.0</ele><time>2026-04-03T12:56:39.998Z</time></trkpt><trkpt lat="45.87920313387997" lon="9.2449832876752"><ele>795.0</ele><time>2026-04-03T12:56:40.998Z</time></trkpt><trkpt lat="45.87924938422057" lon="9.245104923532017"><ele>796.0</ele><time>2026-04-03T12:56:41.998Z</time></trkpt><trkpt lat="45.87929690203421" lon="9.245227327806536"><ele>797.0</ele><time>2026-04-03T12:56:42.998Z</time></trkpt><trkpt lat="45.8793495478083" lon="9.24535862043158"><ele>798.0</ele><time>2026-04-03T12:56:43.998Z</time></trkpt><trkpt lat="45.87940243818488" lon="9.245500825171293"><ele>799.0</ele><time>2026-04-03T12:56:44.998Z</time></trkpt><trkpt lat="45.879456792026055" lon="9.2456514791385"><ele>803.25</ele><time>2026-04-03T12:56:45.998Z</time></trkpt><trkpt lat="45.87951855770819" lon="9.24579849669109"><ele>807.5</ele><time>2026-04-03T12:56:46.998Z</time></trkpt><trkpt lat="45.879588368794316" lon="9.245950468291163"><ele>811.75</ele><time>2026-04-03T12:56:47.998Z</time></trkpt><trkpt lat="45.87965251790947" lon="9.246094967083485"><ele>816.0</ele><time>2026-04-03T12:56:48.998Z</time></trkpt><trkpt lat="45.879704608013405" lon="9.246229155474573"><ele>816.0</ele><time>2026-04-03T12:56:49.998Z</time></trkpt><trkpt lat="45.87973905378427" lon="9.246350705553128"><ele>816.0</ele><time>2026-04-03T12:56:50.998Z</time></trkpt><trkpt lat="45.87975216560583" lon="9.246457143973625"><ele>816.0</ele><time>2026-04-03T12:56:51.998Z</time></trkpt><trkpt lat="45.87975525324971" lon="9.246548296160958"><ele>816.0</ele><time>2026-04-03T12:56:52.998Z</time></trkpt><trkpt lat="45.87976232856171" lon="9.246640735731688"><ele>816.0</ele><time>2026-04-03T12:56:53.998Z</time></trkpt><trkpt lat="45.87979797812495" lon="9.246725485298436"><ele>816.0</ele><time>2026-04-03T12:56:54.998Z</time></trkpt><trkpt lat="45.87986988391907" lon="9.246759598895874"><ele>816.0</ele><time>2026-04-03T12:56:55.998Z</time></trkpt><trkpt lat="45.87994806157272" lon="9.2467072044437"><ele>816.0</ele><time>2026-04-03T12:56:56.998Z</time></trkpt><trkpt lat="45.87999613315975" lon="9.246605152247428"><ele>816.0</ele><time>2026-04-03T12:56:58Z</time></trkpt><trkpt lat="45.87999114642074" lon="9.246465041307108"><ele>816.0</ele><time>2026-04-03T12:56:59Z</time></trkpt><trkpt lat="45.87995673628712" lon="9.24631350479692"><ele>816.0</ele><time>2026-04-03T12:57:00Z</time></trkpt><trkpt lat="45.87993150929515" lon="9.246144339635359"><ele>816.0</ele><time>2026-04-03T12:57:01Z</time></trkpt><trkpt lat="45.87992426601493" lon="9.245952426766907"><ele>816.0</ele><time>2026-04-03T12:57:02Z</time></trkpt><trkpt lat="45.87993748923397" lon="9.24573948436693"><ele>816.0</ele><time>2026-04-03T12:57:03Z</time></trkpt><trkpt lat="45.87995884967739" lon="9.245523395029334"><ele>816.0</ele><time>2026-04-03T12:57:04Z</time></trkpt><trkpt lat="45.87998085016712" lon="9.245312432094146"><ele>816.0</ele><time>2026-04-03T12:57:05Z</time></trkpt><trkpt lat="45.87999218653719" lon="9.245142526492511"><ele>816.0</ele><time>2026-04-03T12:57:06Z</time></trkpt><trkpt lat="45.87999947734531" lon="9.244998901661893"><ele>816.0</ele><time>2026-04-03T12:57:07Z</time></trkpt><trkpt lat="45.88001553683409" lon="9.24486407178528"><ele>816.0</ele><time>2026-04-03T12:57:08Z</time></trkpt><trkpt lat="45.88004613001097" lon="9.244739523739089"><ele>816.0</ele><time>2026-04-03T12:57:09Z</time></trkpt><trkpt lat="45.88010629919233" lon="9.244635596454321"><ele>816.0</ele><time>2026-04-03T12:57:10Z</time></trkpt><trkpt lat="45.8801887325075" lon="9.244556763687939"><ele>818.75</ele><time>2026-04-03T12:57:11Z</time></trkpt><trkpt lat="45.88028976424839" lon="9.244503816915746"><ele>821.5</ele><time>2026-04-03T12:57:12Z</time></trkpt><trkpt lat="45.880409132143356" lon="9.244457077656909"><ele>824.25</ele><time>2026-04-03T12:57:13Z</time></trkpt><trkpt lat="45.88053139341211" lon="9.244398332211212"><ele>827.0</ele><time>2026-04-03T12:57:14Z</time></trkpt><trkpt lat="45.88065697267847" lon="9.244319095909855"><ele>827.0</ele><time>2026-04-03T12:57:15Z</time></trkpt><trkpt lat="45.8807802435758" lon="9.244239047627687"><ele>827.0</ele><time>2026-04-03T12:57:16Z</time></trkpt><trkpt lat="45.880898613729144" lon="9.244180389678897"><ele>827.0</ele><time>2026-04-03T12:57:17Z</time></trkpt><trkpt lat="45.88101657896956" lon="9.244125663133449"><ele>827.0</ele><time>2026-04-03T12:57:18Z</time></trkpt><trkpt lat="45.88113088342098" lon="9.244071867834299"><ele>826.75</ele><time>2026-04-03T12:57:19Z</time></trkpt><trkpt lat="45.88125312174978" lon="9.24401913944375"><ele>826.5</ele><time>2026-04-03T12:57:20Z</time></trkpt><trkpt lat="45.88138411712639" lon="9.24398036708086"><ele>826.25</ele><time>2026-04-03T12:57:21Z</time></trkpt><trkpt lat="45.88152689828708" lon="9.243947263419795"><ele>826.0</ele><time>2026-04-03T12:57:22Z</time></trkpt><trkpt lat="45.88168809417921" lon="9.243917791921433"><ele>829.3333333333333</ele><time>2026-04-03T12:57:23Z</time></trkpt><trkpt lat="45.88186348876888" lon="9.243894203736529"><ele>832.6666666666667</ele><time>2026-04-03T12:57:24Z</time></trkpt><trkpt lat="45.88204928372789" lon="9.243880747523923"><ele>836.0</ele><time>2026-04-03T12:57:25Z</time></trkpt><trkpt lat="45.882231037339686" lon="9.243873899922395"><ele>836.0</ele><time>2026-04-03T12:57:26Z</time></trkpt><trkpt lat="45.88241428953638" lon="9.243863522209438"><ele>836.0</ele><time>2026-04-03T12:57:27Z</time></trkpt><trkpt lat="45.88260013109948" lon="9.243843573493505"><ele>836.0</ele><time>2026-04-03T12:57:28Z</time></trkpt><trkpt lat="45.88277617933266" lon="9.243833113060841"><ele>840.5</ele><time>2026-04-03T12:57:29Z</time></trkpt><trkpt lat="45.882933193026915" lon="9.243825003346942"><ele>845.0</ele><time>2026-04-03T12:57:30Z</time></trkpt><trkpt lat="45.883069340809605" lon="9.24381093142286"><ele>849.5</ele><time>2026-04-03T12:57:31Z</time></trkpt><trkpt lat="45.883196963998586" lon="9.24376004071577"><ele>854.0</ele><time>2026-04-03T12:57:32Z</time></trkpt><trkpt lat="45.88332504391151" lon="9.24365871561186"><ele>858.0</ele><time>2026-04-03T12:57:33Z</time></trkpt><trkpt lat="45.88343731647897" lon="9.24350808515228"><ele>862.0</ele><time>2026-04-03T12:57:33.999Z</time></trkpt><trkpt lat="45.883552321433115" lon="9.243380382250054"><ele>866.0</ele><time>2026-04-03T12:57:34.999Z</time></trkpt><trkpt lat="45.883667371707915" lon="9.243325009144128"><ele>870.0</ele><time>2026-04-03T12:57:35.999Z</time></trkpt><trkpt lat="45.88381902505003" lon="9.243321339674306"><ele>870.0</ele><time>2026-04-03T12:57:36.999Z</time></trkpt><trkpt lat="45.883976655169725" lon="9.243326415615947"><ele>870.0</ele><time>2026-04-03T12:57:37.999Z</time></trkpt><trkpt lat="45.88414356366701" lon="9.24328370351168"><ele>870.0</ele><time>2026-04-03T12:57:38.999Z</time></trkpt><trkpt lat="45.884256390344106" lon="9.243209601976533"><ele>868.0</ele><time>2026-04-03T12:57:39.999Z</time></trkpt><trkpt lat="45.884377583003044" lon="9.243088799980132"><ele>866.0</ele><time>2026-04-03T12:57:40.999Z</time></trkpt><trkpt lat="45.88453566580832" lon="9.242947248818167"><ele>864.0</ele><time>2026-04-03T12:57:41.999Z</time></trkpt><trkpt lat="45.88467322339227" lon="9.242921367136681"><ele>864.0</ele><time>2026-04-03T12:57:42.999Z</time></trkpt><trkpt lat="45.884858747373016" lon="9.24291404585755"><ele>864.0</ele><time>2026-04-03T12:57:43.999Z</time></trkpt><trkpt lat="45.88505794112604" lon="9.242866907911328"><ele>864.0</ele><time>2026-04-03T12:57:44.999Z</time></trkpt><trkpt lat="45.88524560522404" lon="9.242745583715948"><ele>867.0</ele><time>2026-04-03T12:57:45.999Z</time></trkpt><trkpt lat="45.885398842262845" lon="9.24266691980247"><ele>870.0</ele><time>2026-04-03T12:57:46.999Z</time></trkpt><trkpt lat="45.885529207523255" lon="9.24262602262292"><ele>873.0</ele><time>2026-04-03T12:57:47.999Z</time></trkpt><trkpt lat="45.885658732928" lon="9.242576834317816"><ele>876.0</ele><time>2026-04-03T12:57:48.999Z</time></trkpt><trkpt lat="45.885772064798346" lon="9.242561167861915"><ele>876.0</ele><time>2026-04-03T12:57:49.999Z</time></trkpt><trkpt lat="45.8858960407968" lon="9.242586277605096"><ele>876.0</ele><time>2026-04-03T12:57:50.999Z</time></trkpt><trkpt lat="45.886035464576516" lon="9.242673932708655"><ele>876.0</ele><time>2026-04-03T12:57:51.999Z</time></trkpt><trkpt lat="45.88618319472863" lon="9.242804270801535"><ele>877.0</ele><time>2026-04-03T12:57:52.999Z</time></trkpt><trkpt lat="45.886347240090984" lon="9.242918026326763"><ele>878.0</ele><time>2026-04-03T12:57:53.999Z</time></trkpt><trkpt lat="45.88652794377728" lon="9.243014786776593"><ele>879.0</ele><time>2026-04-03T12:57:54.999Z</time></trkpt><trkpt lat="45.886712192425165" lon="9.243119873716779"><ele>882.3333333333333</ele><time>2026-04-03T12:57:55.999Z</time></trkpt><trkpt lat="45.886886247275456" lon="9.243242892585643"><ele>885.6666666666666</ele><time>2026-04-03T12:57:56.999Z</time></trkpt><trkpt lat="45.88705815471753" lon="9.243335888847287"><ele>889.0</ele><time>2026-04-03T12:57:57.999Z</time></trkpt><trkpt lat="45.887252050045205" lon="9.2433864386921"><ele>889.0</ele><time>2026-04-03T12:57:58.999Z</time></trkpt><trkpt lat="45.887469073839526" lon="9.243406416514466"><ele>889.0</ele><time>2026-04-03T12:57:59.999Z</time></trkpt><trkpt lat="45.88769096152539" lon="9.243424922983568"><ele>889.0</ele><time>2026-04-03T12:58:00.999Z</time></trkpt><trkpt lat="45.887915282111" lon="9.243467093538264"><ele>892.0</ele><time>2026-04-03T12:58:01.999Z</time></trkpt><trkpt lat="45.888136318554494" lon="9.243501563076162"><ele>895.0</ele><time>2026-04-03T12:58:02.999Z</time></trkpt><trkpt lat="45.888351960224206" lon="9.24352962349237"><ele>898.0</ele><time>2026-04-03T12:58:03.999Z</time></trkpt><trkpt lat="45.88855804798734" lon="9.243555796472705"><ele>901.6666666666666</ele><time>2026-04-03T12:58:04.999Z</time></trkpt><trkpt lat="45.888741415905514" lon="9.243582356915994"><ele>905.3333333333333</ele><time>2026-04-03T12:58:05.999Z</time></trkpt><trkpt lat="45.88889042122684" lon="9.243608576743917"><ele>909.0</ele><time>2026-04-03T12:58:06.999Z</time></trkpt><trkpt lat="45.8890361153208" lon="9.243637450383444"><ele>909.0</ele><time>2026-04-03T12:58:07.999Z</time></trkpt><trkpt lat="45.889174235138285" lon="9.243659343034249"><ele>909.0</ele><time>2026-04-03T12:58:08.999Z</time></trkpt><trkpt lat="45.88929768406912" lon="9.243677122693347"><ele>909.0</ele><time>2026-04-03T12:58:09.999Z</time></trkpt><trkpt lat="45.8894033896802" lon="9.243691515208878"><ele>909.0</ele><time>2026-04-03T12:58:10.999Z</time></trkpt><trkpt lat="45.88950782745864" lon="9.243693860268557"><ele>909.1666666666666</ele><time>2026-04-03T12:58:11.999Z</time></trkpt><trkpt lat="45.88960522065944" lon="9.243672445835248"><ele>909.3333333333333</ele><time>2026-04-03T12:58:12.999Z</time></trkpt><trkpt lat="45.88967978721893" lon="9.24364086233068"><ele>909.5</ele><time>2026-04-03T12:58:13.999Z</time></trkpt><trkpt lat="45.889747486329924" lon="9.243619303197631"><ele>909.6666666666666</ele><time>2026-04-03T12:58:14.999Z</time></trkpt><trkpt lat="45.88983870412547" lon="9.243731074309759"><ele>909.8333333333333</ele><time>2026-04-03T12:58:16.999Z</time></trkpt><trkpt lat="45.88984214402902" lon="9.243836213350386"><ele>910.0</ele><time>2026-04-03T12:58:17.999Z</time></trkpt><trkpt lat="45.889784407904024" lon="9.243916026819411"><ele>910.0</ele><time>2026-04-03T12:58:18.999Z</time></trkpt><trkpt lat="45.88970677217978" lon="9.24393099531298"><ele>910.0</ele><time>2026-04-03T12:58:19.999Z</time></trkpt><trkpt lat="45.88961464977729" lon="9.243891760322654"><ele>910.0</ele><time>2026-04-03T12:58:20.999Z</time></trkpt><trkpt lat="45.889516992997386" lon="9.243862317982922"><ele>910.0</ele><time>2026-04-03T12:58:21.999Z</time></trkpt><trkpt lat="45.889384358285554" lon="9.24385309587568"><ele>910.0</ele><time>2026-04-03T12:58:22.999Z</time></trkpt><trkpt lat="45.889235712222835" lon="9.243871186846821"><ele>909.6666666666666</ele><time>2026-04-03T12:58:23.999Z</time></trkpt><trkpt lat="45.889063431826656" lon="9.243925909908766"><ele>909.3333333333333</ele><time>2026-04-03T12:58:24.999Z</time></trkpt><trkpt lat="45.88894242597764" lon="9.24394436467707"><ele>909.0</ele><time>2026-04-03T12:58:25.999Z</time></trkpt><trkpt lat="45.88876095614277" lon="9.244057263260615"><ele>913.0</ele><time>2026-04-03T12:58:26.999Z</time></trkpt><trkpt lat="45.88856525866269" lon="9.244165107332181"><ele>917.0</ele><time>2026-04-03T12:58:27.999Z</time></trkpt><trkpt lat="45.88837188351572" lon="9.24427080033911"><ele>921.0</ele><time>2026-04-03T12:58:28.999Z</time></trkpt><trkpt lat="45.88818948775025" lon="9.244385476727647"><ele>921.0</ele><time>2026-04-03T12:58:29.999Z</time></trkpt><trkpt lat="45.88798531309765" lon="9.244539651480894"><ele>921.0</ele><time>2026-04-03T12:58:30.999Z</time></trkpt><trkpt lat="45.88778721566742" lon="9.24469302873262"><ele>927.3333333333333</ele><time>2026-04-03T12:58:31.998Z</time></trkpt><trkpt lat="45.88759458108801" lon="9.244828144078424"><ele>933.6666666666666</ele><time>2026-04-03T12:58:32.998Z</time></trkpt><trkpt lat="45.88741610428096" lon="9.244942670567367"><ele>940.0</ele><time>2026-04-03T12:58:33.998Z</time></trkpt><trkpt lat="45.887256872766216" lon="9.245037389578272"><ele>940.0</ele><time>2026-04-03T12:58:34.998Z</time></trkpt><trkpt lat="45.88711643961328" lon="9.24510553544718"><ele>940.0</ele><time>2026-04-03T12:58:35.998Z</time></trkpt><trkpt lat="45.88699954259965" lon="9.245119674434347"><ele>940.0</ele><time>2026-04-03T12:58:36.998Z</time></trkpt><trkpt lat="45.88689063986307" lon="9.245094948669333"><ele>940.0</ele><time>2026-04-03T12:58:37.998Z</time></trkpt><trkpt lat="45.886809233171576" lon="9.245078771061532"><ele>940.0</ele><time>2026-04-03T12:58:38.998Z</time></trkpt><trkpt lat="45.88673936430104" lon="9.245209836808517"><ele>940.0</ele><time>2026-04-03T12:58:40.998Z</time></trkpt><trkpt lat="45.88674625793443" lon="9.245331460716455"><ele>940.0</ele><time>2026-04-03T12:58:41.998Z</time></trkpt><trkpt lat="45.88680649956511" lon="9.245416879169294"><ele>940.0</ele><time>2026-04-03T12:58:42.998Z</time></trkpt><trkpt lat="45.88690007577474" lon="9.245439051872296"><ele>940.0</ele><time>2026-04-03T12:58:43.998Z</time></trkpt><trkpt lat="45.88701003208748" lon="9.245390890729633"><ele>940.0</ele><time>2026-04-03T12:58:44.998Z</time></trkpt><trkpt lat="45.88714962751359" lon="9.245302231571506"><ele>940.0</ele><time>2026-04-03T12:58:45.998Z</time></trkpt><trkpt lat="45.88730282629342" lon="9.245231829925867"><ele>940.0</ele><time>2026-04-03T12:58:46.998Z</time></trkpt><trkpt lat="45.887468411549705" lon="9.245168516763208"><ele>943.0</ele><time>2026-04-03T12:58:47.998Z</time></trkpt><trkpt lat="45.88763945404652" lon="9.245107611506835"><ele>946.0</ele><time>2026-04-03T12:58:48.998Z</time></trkpt><trkpt lat="45.88782631760929" lon="9.24508547658441"><ele>949.0</ele><time>2026-04-03T12:58:49.998Z</time></trkpt><trkpt lat="45.88802173184266" lon="9.245087665804705"><ele>949.0</ele><time>2026-04-03T12:58:50.998Z</time></trkpt><trkpt lat="45.88820384380793" lon="9.245076319745339"><ele>949.0</ele><time>2026-04-03T12:58:51.998Z</time></trkpt><trkpt lat="45.88838501542753" lon="9.245063316391546"><ele>949.0</ele><time>2026-04-03T12:58:52.998Z</time></trkpt><trkpt lat="45.88857721474905" lon="9.245044722802659"><ele>950.6666666666666</ele><time>2026-04-03T12:58:53.998Z</time></trkpt><trkpt lat="45.88875613871799" lon="9.245044776443683"><ele>952.3333333333333</ele><time>2026-04-03T12:58:54.998Z</time></trkpt><trkpt lat="45.88892206978005" lon="9.245025931766213"><ele>954.0</ele><time>2026-04-03T12:58:55.998Z</time></trkpt><trkpt lat="45.889099555010944" lon="9.245034218403665"><ele>955.6666666666667</ele><time>2026-04-03T12:58:56.998Z</time></trkpt><trkpt lat="45.889286240223456" lon="9.24507650194476"><ele>957.3333333333334</ele><time>2026-04-03T12:58:57.998Z</time></trkpt><trkpt lat="45.889476976178614" lon="9.245132251030991"><ele>959.0</ele><time>2026-04-03T12:58:58.998Z</time></trkpt><trkpt lat="45.88967735498762" lon="9.245164888768336"><ele>959.0</ele><time>2026-04-03T12:58:59.998Z</time></trkpt><trkpt lat="45.88988323640853" lon="9.245183843233244"><ele>959.0</ele><time>2026-04-03T12:59:00.998Z</time></trkpt><trkpt lat="45.890092840955234" lon="9.245213359697916"><ele>959.0</ele><time>2026-04-03T12:59:01.998Z</time></trkpt><trkpt lat="45.890297670079505" lon="9.245253882102082"><ele>958.3333333333334</ele><time>2026-04-03T12:59:02.998Z</time></trkpt><trkpt lat="45.890496896565146" lon="9.245286032283252"><ele>957.6666666666667</ele><time>2026-04-03T12:59:04Z</time></trkpt><trkpt lat="45.89069611656397" lon="9.24532167621229"><ele>957.0</ele><time>2026-04-03T12:59:05Z</time></trkpt><trkpt lat="45.89089623894978" lon="9.245384616051586"><ele>956.6666666666667</ele><time>2026-04-03T12:59:06Z</time></trkpt><trkpt lat="45.89109279391972" lon="9.245475118006727"><ele>956.3333333333334</ele><time>2026-04-03T12:59:07Z</time></trkpt><trkpt lat="45.89129335601458" lon="9.245566033140808"><ele>956.0</ele><time>2026-04-03T12:59:08Z</time></trkpt><trkpt lat="45.891501175341695" lon="9.24562740643909"><ele>966.3333333333334</ele><time>2026-04-03T12:59:09Z</time></trkpt><trkpt lat="45.89171718521911" lon="9.245666138841688"><ele>976.6666666666667</ele><time>2026-04-03T12:59:10Z</time></trkpt><trkpt lat="45.89193227482737" lon="9.245705425592961"><ele>987.0</ele><time>2026-04-03T12:59:11Z</time></trkpt><trkpt lat="45.89214645925566" lon="9.245748157277282"><ele>988.3333333333333</ele><time>2026-04-03T12:59:12Z</time></trkpt><trkpt lat="45.89236169530896" lon="9.245781809306637"><ele>989.6666666666666</ele><time>2026-04-03T12:59:13Z</time></trkpt><trkpt lat="45.892572802061686" lon="9.245813380098674"><ele>991.0</ele><time>2026-04-03T12:59:14Z</time></trkpt><trkpt lat="45.89278540975157" lon="9.245842386649121"><ele>991.6666666666666</ele><time>2026-04-03T12:59:15Z</time></trkpt><trkpt lat="45.89299704607474" lon="9.24587041606871"><ele>992.3333333333333</ele><time>2026-04-03T12:59:16Z</time></trkpt><trkpt lat="45.89320287742924" lon="9.245905356685128"><ele>993.0</ele><time>2026-04-03T12:59:17Z</time></trkpt><trkpt lat="45.89340104612945" lon="9.245946815189074"><ele>999.0</ele><time>2026-04-03T12:59:18Z</time></trkpt><trkpt lat="45.89357091937469" lon="9.24598443457814"><ele>1005.0</ele><time>2026-04-03T12:59:19Z</time></trkpt><trkpt lat="45.89371836089234" lon="9.246009160934953"><ele>1011.0</ele><time>2026-04-03T12:59:20Z</time></trkpt><trkpt lat="45.893848473836" lon="9.24602127819383"><ele>1011.0</ele><time>2026-04-03T12:59:21Z</time></trkpt><trkpt lat="45.89395869461372" lon="9.24601239784548"><ele>1010.9999999999999</ele><time>2026-04-03T12:59:22Z</time></trkpt><trkpt lat="45.89406134566674" lon="9.245980690652292"><ele>1010.9999999999999</ele><time>2026-04-03T12:59:23Z</time></trkpt><trkpt lat="45.89413608889089" lon="9.24591279733817"><ele>1011.0</ele><time>2026-04-03T12:59:24Z</time></trkpt><trkpt lat="45.89419393131581" lon="9.245838702810758"><ele>1011.0</ele><time>2026-04-03T12:59:25Z</time></trkpt><trkpt lat="45.894211869269675" lon="9.245725066795078"><ele>1012.25</ele><time>2026-04-03T12:59:26Z</time></trkpt><trkpt lat="45.89418502340393" lon="9.245583003420563"><ele>1013.5</ele><time>2026-04-03T12:59:27Z</time></trkpt><trkpt lat="45.894109275334976" lon="9.245468832164923"><ele>1014.75</ele><time>2026-04-03T12:59:28Z</time></trkpt><trkpt lat="45.89401901692767" lon="9.245357890965415"><ele>1016.0</ele><time>2026-04-03T12:59:29Z</time></trkpt><trkpt lat="45.89395475631466" lon="9.24517887934844"><ele>1016.0</ele><time>2026-04-03T12:59:30Z</time></trkpt><trkpt lat="45.893947712810906" lon="9.2449469136194"><ele>1016.0</ele><time>2026-04-03T12:59:31Z</time></trkpt><trkpt lat="45.893934250571974" lon="9.244726325187637"><ele>1016.0</ele><time>2026-04-03T12:59:32Z</time></trkpt><trkpt lat="45.893943478018414" lon="9.244507308455153"><ele>1015.3333333333334</ele><time>2026-04-03T12:59:33Z</time></trkpt><trkpt lat="45.89397810799042" lon="9.244290507075254"><ele>1014.6666666666667</ele><time>2026-04-03T12:59:34Z</time></trkpt><trkpt lat="45.89404679825724" lon="9.24408063137204"><ele>1014.0</ele><time>2026-04-03T12:59:35Z</time></trkpt><trkpt lat="45.89412470379778" lon="9.243891924544023"><ele>1010.75</ele><time>2026-04-03T12:59:36Z</time></trkpt><trkpt lat="45.894219124303376" lon="9.243737974555849"><ele>1007.5</ele><time>2026-04-03T12:59:37Z</time></trkpt><trkpt lat="45.894343661911726" lon="9.243583849677417"><ele>1004.25</ele><time>2026-04-03T12:59:38Z</time></trkpt><trkpt lat="45.89446142727206" lon="9.243477123754538"><ele>1001.0</ele><time>2026-04-03T12:59:39Z</time></trkpt><trkpt lat="45.894566564840645" lon="9.243397877687302"><ele>1008.1999999999999</ele><time>2026-04-03T12:59:40Z</time></trkpt><trkpt lat="45.894668115157636" lon="9.243362023044892"><ele>1015.3999999999999</ele><time>2026-04-03T12:59:41Z</time></trkpt><trkpt lat="45.89474974327324" lon="9.243348471853801"><ele>1022.6</ele><time>2026-04-03T12:59:42Z</time></trkpt><trkpt lat="45.89481035644281" lon="9.243183669203072"><ele>1029.8</ele><time>2026-04-03T12:59:44Z</time></trkpt><trkpt lat="45.894766300816926" lon="9.243038788230047"><ele>1037.0</ele><time>2026-04-03T12:59:45Z</time></trkpt><trkpt lat="45.894667109445614" lon="9.242916129464765"><ele>1038.25</ele><time>2026-04-03T12:59:46Z</time></trkpt><trkpt lat="45.89456537801149" lon="9.24277797479783"><ele>1039.5</ele><time>2026-04-03T12:59:47Z</time></trkpt><trkpt lat="45.89451252690987" lon="9.242637606287264"><ele>1040.75</ele><time>2026-04-03T12:59:47.999Z</time></trkpt><trkpt lat="45.89451789936793" lon="9.242464516215687"><ele>1042.0</ele><time>2026-04-03T12:59:48.999Z</time></trkpt><trkpt lat="45.89455216386184" lon="9.242265526354977"><ele>1045.75</ele><time>2026-04-03T12:59:49.999Z</time></trkpt><trkpt lat="45.894550175910865" lon="9.242093574092866"><ele>1049.5</ele><time>2026-04-03T12:59:50.999Z</time></trkpt><trkpt lat="45.894492875111766" lon="9.241931745639736"><ele>1053.25</ele><time>2026-04-03T12:59:51.999Z</time></trkpt><trkpt lat="45.894370198762815" lon="9.241758170269053"><ele>1057.0</ele><time>2026-04-03T12:59:52.999Z</time></trkpt><trkpt lat="45.894221419349385" lon="9.241584920348561"><ele>1053.3333333333333</ele><time>2026-04-03T12:59:53.999Z</time></trkpt><trkpt lat="45.89408330273356" lon="9.241408777304978"><ele>1049.6666666666667</ele><time>2026-04-03T12:59:54.999Z</time></trkpt><trkpt lat="45.89400069878223" lon="9.241231725394448"><ele>1046.0</ele><time>2026-04-03T12:59:55.999Z</time></trkpt><trkpt lat="45.893932739807006" lon="9.241022898074773"><ele>1046.0</ele><time>2026-04-03T12:59:56.999Z</time></trkpt><trkpt lat="45.89388769818931" lon="9.24076876203759"><ele>1046.0</ele><time>2026-04-03T12:59:57.999Z</time></trkpt><trkpt lat="45.893851502580816" lon="9.240542362108092"><ele>1046.0</ele><time>2026-04-03T12:59:58.999Z</time></trkpt><trkpt lat="45.8937982411508" lon="9.240328666036973"><ele>1051.0</ele><time>2026-04-03T12:59:59.999Z</time></trkpt><trkpt lat="45.89369656750571" lon="9.240137752777885"><ele>1056.0</ele><time>2026-04-03T13:00:00.999Z</time></trkpt><trkpt lat="45.89359016620766" lon="9.239983139981176"><ele>1061.0</ele><time>2026-04-03T13:00:01.999Z</time></trkpt><trkpt lat="45.893513651198816" lon="9.23986045591701"><ele>1066.0</ele><time>2026-04-03T13:00:02.999Z</time></trkpt><trkpt lat="45.89341260487547" lon="9.239724493070419"><ele>1067.0</ele><time>2026-04-03T13:00:03.999Z</time></trkpt><trkpt lat="45.893288298666135" lon="9.239627520418754"><ele>1068.0</ele><time>2026-04-03T13:00:04.999Z</time></trkpt><trkpt lat="45.89317440047957" lon="9.23951933575549"><ele>1069.0</ele><time>2026-04-03T13:00:05.999Z</time></trkpt><trkpt lat="45.89312051699955" lon="9.239375506863169"><ele>1070.0</ele><time>2026-04-03T13:00:06.999Z</time></trkpt><trkpt lat="45.893062746573925" lon="9.239279300422941"><ele>1070.0</ele><time>2026-04-03T13:00:07.999Z</time></trkpt><trkpt lat="45.89296008982617" lon="9.239251524702146"><ele>1070.0</ele><time>2026-04-03T13:00:08.999Z</time></trkpt><trkpt lat="45.89283119185994" lon="9.239307684972308"><ele>1070.0</ele><time>2026-04-03T13:00:09.999Z</time></trkpt><trkpt lat="45.89268264508217" lon="9.239383887761784"><ele>1070.0</ele><time>2026-04-03T13:00:10.999Z</time></trkpt><trkpt lat="45.89251602875993" lon="9.239381278961243"><ele>1066.0</ele><time>2026-04-03T13:00:11.999Z</time></trkpt><trkpt lat="45.89235115214191" lon="9.23931886076328"><ele>1062.0</ele><time>2026-04-03T13:00:12.999Z</time></trkpt><trkpt lat="45.892200379102235" lon="9.239259623788465"><ele>1058.0</ele><time>2026-04-03T13:00:13.999Z</time></trkpt><trkpt lat="45.89205539112015" lon="9.239171644863694"><ele>1058.0</ele><time>2026-04-03T13:00:14.999Z</time></trkpt><trkpt lat="45.891928806521676" lon="9.23904979395988"><ele>1058.0</ele><time>2026-04-03T13:00:15.999Z</time></trkpt><trkpt lat="45.891828280218924" lon="9.23887944829928"><ele>1058.0</ele><time>2026-04-03T13:00:16.999Z</time></trkpt><trkpt lat="45.89173540566538" lon="9.23867547718124"><ele>1059.5</ele><time>2026-04-03T13:00:17.999Z</time></trkpt><trkpt lat="45.89166056417286" lon="9.238458794819833"><ele>1061.0</ele><time>2026-04-03T13:00:18.999Z</time></trkpt><trkpt lat="45.89157266294264" lon="9.238291438240015"><ele>1062.5</ele><time>2026-04-03T13:00:19.999Z</time></trkpt><trkpt lat="45.891469174750355" lon="9.238178587234437"><ele>1064.0</ele><time>2026-04-03T13:00:20.999Z</time></trkpt><trkpt lat="45.891338247120785" lon="9.238140170038935"><ele>1064.0</ele><time>2026-04-03T13:00:21.999Z</time></trkpt><trkpt lat="45.89118560575494" lon="9.238144401396404"><ele>1064.0</ele><time>2026-04-03T13:00:22.999Z</time></trkpt><trkpt lat="45.89103937337418" lon="9.238171346609723"><ele>1064.0</ele><time>2026-04-03T13:00:23.999Z</time></trkpt><trkpt lat="45.89090952524714" lon="9.238147805271039"><ele>1064.0</ele><time>2026-04-03T13:00:24.999Z</time></trkpt><trkpt lat="45.89076149285227" lon="9.238076999393096"><ele>1069.5</ele><time>2026-04-03T13:00:25.999Z</time></trkpt><trkpt lat="45.890612316638034" lon="9.237986459652399"><ele>1075.0</ele><time>2026-04-03T13:00:26.999Z</time></trkpt><trkpt lat="45.890517296594744" lon="9.23788053008211"><ele>1080.5</ele><time>2026-04-03T13:00:27.999Z</time></trkpt><trkpt lat="45.89044586870792" lon="9.237750259910923"><ele>1086.0</ele><time>2026-04-03T13:00:28.999Z</time></trkpt><trkpt lat="45.89040193829632" lon="9.237566634001173"><ele>1086.0</ele><time>2026-04-03T13:00:29.999Z</time></trkpt><trkpt lat="45.890370892482665" lon="9.23736359827416"><ele>1086.0</ele><time>2026-04-03T13:00:30.999Z</time></trkpt><trkpt lat="45.890333666287944" lon="9.237206371154574"><ele>1086.0</ele><time>2026-04-03T13:00:31.999Z</time></trkpt><trkpt lat="45.89024100511036" lon="9.237086429781137"><ele>1086.0</ele><time>2026-04-03T13:00:32.999Z</time></trkpt><trkpt lat="45.89008784598415" lon="9.2370341735181"><ele>1089.3333333333333</ele><time>2026-04-03T13:00:33.999Z</time></trkpt><trkpt lat="45.889935682866046" lon="9.236995752452547"><ele>1092.6666666666665</ele><time>2026-04-03T13:00:34.999Z</time></trkpt><trkpt lat="45.88978057016068" lon="9.236922960049709"><ele>1096.0</ele><time>2026-04-03T13:00:35.999Z</time></trkpt><trkpt lat="45.88967670309001" lon="9.236776727486559"><ele>1096.0</ele><time>2026-04-03T13:00:36.999Z</time></trkpt><trkpt lat="45.88960465426148" lon="9.236610994293093"><ele>1096.0</ele><time>2026-04-03T13:00:37.999Z</time></trkpt><trkpt lat="45.88957398095274" lon="9.236420342380244"><ele>1096.0</ele><time>2026-04-03T13:00:38.999Z</time></trkpt><trkpt lat="45.88955943337289" lon="9.236286269918224"><ele>1096.0</ele><time>2026-04-03T13:00:39.999Z</time></trkpt><trkpt lat="45.88948004514988" lon="9.2361867165805"><ele>1096.75</ele><time>2026-04-03T13:00:40.999Z</time></trkpt><trkpt lat="45.889357773308305" lon="9.236195978101392"><ele>1097.5</ele><time>2026-04-03T13:00:41.999Z</time></trkpt><trkpt lat="45.88922834581894" lon="9.23623355691699"><ele>1098.25</ele><time>2026-04-03T13:00:42.999Z</time></trkpt><trkpt lat="45.889115302626415" lon="9.236227840887251"><ele>1099.0</ele><time>2026-04-03T13:00:43.999Z</time></trkpt><trkpt lat="45.88900425464184" lon="9.23613466096279"><ele>1099.0</ele><time>2026-04-03T13:00:44.999Z</time></trkpt><trkpt lat="45.888886061032906" lon="9.236019191433709"><ele>1099.0</ele><time>2026-04-03T13:00:45.999Z</time></trkpt><trkpt lat="45.88877181530506" lon="9.235820758004985"><ele>1099.0</ele><time>2026-04-03T13:00:46.998Z</time></trkpt><trkpt lat="45.888670315201544" lon="9.23564525858483"><ele>1108.6666666666665</ele><time>2026-04-03T13:00:47.998Z</time></trkpt><trkpt lat="45.88860029990269" lon="9.235437891657035"><ele>1118.3333333333333</ele><time>2026-04-03T13:00:48.998Z</time></trkpt><trkpt lat="45.88854499340644" lon="9.235205421820767"><ele>1128.0</ele><time>2026-04-03T13:00:49.998Z</time></trkpt><trkpt lat="45.8884978364138" lon="9.234952244755428"><ele>1133.3333333333333</ele><time>2026-04-03T13:00:50.998Z</time></trkpt><trkpt lat="45.88844962522224" lon="9.234686554591212"><ele>1138.6666666666665</ele><time>2026-04-03T13:00:51.998Z</time></trkpt><trkpt lat="45.88840753245966" lon="9.23442539721395"><ele>1144.0</ele><time>2026-04-03T13:00:52.998Z</time></trkpt><trkpt lat="45.88837563721741" lon="9.234202646708065"><ele>1134.0</ele><time>2026-04-03T13:00:53.998Z</time></trkpt><trkpt lat="45.888337921981424" lon="9.233994093255783"><ele>1124.0</ele><time>2026-04-03T13:00:54.998Z</time></trkpt><trkpt lat="45.888267066858695" lon="9.23378816076132"><ele>1114.0</ele><time>2026-04-03T13:00:55.998Z</time></trkpt><trkpt lat="45.88815600860203" lon="9.23358192343842"><ele>1114.0</ele><time>2026-04-03T13:00:56.998Z</time></trkpt><trkpt lat="45.888025219121616" lon="9.2333642083015"><ele>1114.0</ele><time>2026-04-03T13:00:57.998Z</time></trkpt><trkpt lat="45.887901868387566" lon="9.233142207278359"><ele>1114.0</ele><time>2026-04-03T13:00:58.998Z</time></trkpt><trkpt lat="45.88777340539404" lon="9.232915482130077"><ele>1111.0</ele><time>2026-04-03T13:00:59.998Z</time></trkpt><trkpt lat="45.88764749462677" lon="9.232689958742716"><ele>1108.0</ele><time>2026-04-03T13:01:00.998Z</time></trkpt><trkpt lat="45.8875240472289" lon="9.232480243989269"><ele>1105.0</ele><time>2026-04-03T13:01:01.998Z</time></trkpt><trkpt lat="45.887397901884114" lon="9.232311411359634"><ele>1113.3333333333333</ele><time>2026-04-03T13:01:02.998Z</time></trkpt><trkpt lat="45.88726435515695" lon="9.232191122520856"><ele>1121.6666666666667</ele><time>2026-04-03T13:01:03.998Z</time></trkpt><trkpt lat="45.88711319514742" lon="9.232118426407727"><ele>1130.0</ele><time>2026-04-03T13:01:04.998Z</time></trkpt><trkpt lat="45.88694620685219" lon="9.232074578612266"><ele>1127.6666666666667</ele><time>2026-04-03T13:01:05.998Z</time></trkpt><trkpt lat="45.88675922553126" lon="9.232062767197215"><ele>1125.3333333333333</ele><time>2026-04-03T13:01:06.998Z</time></trkpt><trkpt lat="45.886563169632375" lon="9.232061112078398"><ele>1123.0</ele><time>2026-04-03T13:01:07.998Z</time></trkpt><trkpt lat="45.88637109288645" lon="9.232059724289993"><ele>1123.0</ele><time>2026-04-03T13:01:08.998Z</time></trkpt><trkpt lat="45.88619426464623" lon="9.232042285038768"><ele>1123.0</ele><time>2026-04-03T13:01:10Z</time></trkpt><trkpt lat="45.88601641013236" lon="9.231994164333738"><ele>1123.0</ele><time>2026-04-03T13:01:11Z</time></trkpt><trkpt lat="45.88582748897962" lon="9.23191740715031"><ele>1120.0</ele><time>2026-04-03T13:01:12Z</time></trkpt><trkpt lat="45.88562877785264" lon="9.231824194725414"><ele>1117.0</ele><time>2026-04-03T13:01:13Z</time></trkpt><trkpt lat="45.885428489838866" lon="9.231724850703527"><ele>1114.0</ele><time>2026-04-03T13:01:14Z</time></trkpt><trkpt lat="45.885223276181165" lon="9.231628854681425"><ele>1110.3333333333333</ele><time>2026-04-03T13:01:15Z</time></trkpt><trkpt lat="45.88503327715268" lon="9.23154464333154"><ele>1106.6666666666667</ele><time>2026-04-03T13:01:16Z</time></trkpt><trkpt lat="45.88485887048948" lon="9.231481599120057"><ele>1103.0</ele><time>2026-04-03T13:01:17Z</time></trkpt><trkpt lat="45.88470760971495" lon="9.231423848265813"><ele>1102.6666666666667</ele><time>2026-04-03T13:01:18Z</time></trkpt><trkpt lat="45.88455816120782" lon="9.231387738981065"><ele>1102.3333333333333</ele><time>2026-04-03T13:01:19Z</time></trkpt><trkpt lat="45.88438938804132" lon="9.23141211029839"><ele>1102.0</ele><time>2026-04-03T13:01:20Z</time></trkpt><trkpt lat="45.884215512589286" lon="9.231476712524492"><ele>1102.0</ele><time>2026-04-03T13:01:21Z</time></trkpt><trkpt lat="45.88405909026759" lon="9.231519663212895"><ele>1102.0</ele><time>2026-04-03T13:01:22Z</time></trkpt><trkpt lat="45.88391576995584" lon="9.23153956683341"><ele>1102.0</ele><time>2026-04-03T13:01:23Z</time></trkpt><trkpt lat="45.88378168805393" lon="9.231546734569212"><ele>1102.0</ele><time>2026-04-03T13:01:24Z</time></trkpt><trkpt lat="45.88365057408786" lon="9.231555123722385"><ele>1102.0</ele><time>2026-04-03T13:01:25Z</time></trkpt><trkpt lat="45.88352038443935" lon="9.231532553913029"><ele>1102.0</ele><time>2026-04-03T13:01:26Z</time></trkpt><trkpt lat="45.88339571629206" lon="9.231471374427317"><ele>1102.0</ele><time>2026-04-03T13:01:27Z</time></trkpt><trkpt lat="45.88328792574389" lon="9.231390594883136"><ele>1102.0</ele><time>2026-04-03T13:01:28Z</time></trkpt><trkpt lat="45.88319183303819" lon="9.23128960913936"><ele>1106.0</ele><time>2026-04-03T13:01:29Z</time></trkpt><trkpt lat="45.883115890613695" lon="9.231161336518502"><ele>1110.0</ele><time>2026-04-03T13:01:30Z</time></trkpt><trkpt lat="45.88306211563875" lon="9.231006151746197"><ele>1114.0</ele><time>2026-04-03T13:01:31Z</time></trkpt><trkpt lat="45.88302949551753" lon="9.230840365648385"><ele>1118.0</ele><time>2026-04-03T13:01:32Z</time></trkpt><trkpt lat="45.883024493019356" lon="9.23067826684592"><ele>1119.3333333333335</ele><time>2026-04-03T13:01:33Z</time></trkpt><trkpt lat="45.88302220320515" lon="9.230533285981013"><ele>1120.6666666666667</ele><time>2026-04-03T13:01:34Z</time></trkpt><trkpt lat="45.883018105630434" lon="9.230409126296637"><ele>1122.0</ele><time>2026-04-03T13:01:35Z</time></trkpt><trkpt lat="45.88301076099998" lon="9.230295309633938"><ele>1123.3333333333333</ele><time>2026-04-03T13:01:36Z</time></trkpt><trkpt lat="45.882996045061724" lon="9.230181673926175"><ele>1124.6666666666665</ele><time>2026-04-03T13:01:37Z</time></trkpt><trkpt lat="45.882978202227484" lon="9.23007691879587"><ele>1126.0</ele><time>2026-04-03T13:01:38Z</time></trkpt><trkpt lat="45.88296537786055" lon="9.229985209295327"><ele>1126.0</ele><time>2026-04-03T13:01:39Z</time></trkpt><trkpt lat="45.88294173826225" lon="9.22990047612434"><ele>1126.0</ele><time>2026-04-03T13:01:40Z</time></trkpt><trkpt lat="45.882894371793384" lon="9.22974263722064"><ele>1126.0</ele><time>2026-04-03T13:01:42Z</time></trkpt><trkpt lat="45.882853182399444" lon="9.229597062026718"><ele>1126.0</ele><time>2026-04-03T13:01:44Z</time></trkpt><trkpt lat="45.882830350428954" lon="9.229462105079092"><ele>1126.0</ele><time>2026-04-03T13:01:46Z</time></trkpt><trkpt lat="45.88280069837562" lon="9.229327834146297"><ele>1125.6666666666665</ele><time>2026-04-03T13:01:48Z</time></trkpt><trkpt lat="45.88282852973951" lon="9.229209526501853"><ele>1125.3333333333333</ele><time>2026-04-03T13:01:50Z</time></trkpt><trkpt lat="45.8829093219866" lon="9.229119240090158"><ele>1125.0</ele><time>2026-04-03T13:01:52Z</time></trkpt><trkpt lat="45.88296914383079" lon="9.2290756388976"><ele>1124.6666666666667</ele><time>2026-04-03T13:01:54Z</time></trkpt><trkpt lat="45.883032484513954" lon="9.229009754271868"><ele>1124.3333333333335</ele><time>2026-04-03T13:02:20.999Z</time></trkpt><trkpt lat="45.88310621172979" lon="9.228905320463722"><ele>1124.0</ele><time>2026-04-03T13:02:22.999Z</time></trkpt><trkpt lat="45.883152377411264" lon="9.22883861380833"><ele>1123.5</ele><time>2026-04-03T13:02:23.999Z</time></trkpt><trkpt lat="45.88319943645185" lon="9.228764705879307"><ele>1123.0</ele><time>2026-04-03T13:02:24.999Z</time></trkpt><trkpt lat="45.883258627772115" lon="9.228699704497878"><ele>1122.5</ele><time>2026-04-03T13:02:25.999Z</time></trkpt><trkpt lat="45.883321585353016" lon="9.22864428907053"><ele>1122.0</ele><time>2026-04-03T13:02:26.999Z</time></trkpt><trkpt lat="45.883398213636546" lon="9.228609207970994"><ele>1121.5</ele><time>2026-04-03T13:02:27.999Z</time></trkpt><trkpt lat="45.88348619061802" lon="9.228593233092903"><ele>1121.0</ele><time>2026-04-03T13:02:28.999Z</time></trkpt><trkpt lat="45.88360089599528" lon="9.228601552477109"><ele>1120.0</ele><time>2026-04-03T13:02:29.999Z</time></trkpt><trkpt lat="45.8837166945551" lon="9.228600641796971"><ele>1119.0</ele><time>2026-04-03T13:02:30.999Z</time></trkpt><trkpt lat="45.88382791808997" lon="9.22859628579973"><ele>1118.0</ele><time>2026-04-03T13:02:31.999Z</time></trkpt><trkpt lat="45.88394291969976" lon="9.228594937784115"><ele>1117.0</ele><time>2026-04-03T13:02:32.999Z</time></trkpt><trkpt lat="45.88406443348384" lon="9.228566271693952"><ele>1117.0</ele><time>2026-04-03T13:02:33.999Z</time></trkpt><trkpt lat="45.884200529510224" lon="9.228493413197072"><ele>1117.0</ele><time>2026-04-03T13:02:34.999Z</time></trkpt><trkpt lat="45.88434163610964" lon="9.228370400606634"><ele>1117.0</ele><time>2026-04-03T13:02:35.999Z</time></trkpt><trkpt lat="45.884484922428854" lon="9.228226972070141"><ele>1116.0</ele><time>2026-04-03T13:02:36.999Z</time></trkpt><trkpt lat="45.88463287991843" lon="9.228091057592486"><ele>1115.0</ele><time>2026-04-03T13:02:37.999Z</time></trkpt><trkpt lat="45.88479279687433" lon="9.227973496991439"><ele>1114.0</ele><time>2026-04-03T13:02:38.999Z</time></trkpt><trkpt lat="45.88510136144277" lon="9.227759157012995"><ele>1114.0</ele><time>2026-04-03T13:02:40.999Z</time></trkpt><trkpt lat="45.885236233281255" lon="9.227654611211966"><ele>1114.0</ele><time>2026-04-03T13:02:41.999Z</time></trkpt><trkpt lat="45.88535497943567" lon="9.227571695833714"><ele>1114.0</ele><time>2026-04-03T13:02:42.999Z</time></trkpt><trkpt lat="45.88545588385698" lon="9.227497870318727"><ele>1114.0</ele><time>2026-04-03T13:02:43.999Z</time></trkpt><trkpt lat="45.885540292182434" lon="9.227400050691076"><ele>1111.25</ele><time>2026-04-03T13:02:44.999Z</time></trkpt><trkpt lat="45.88560202157295" lon="9.227256156696955"><ele>1108.5</ele><time>2026-04-03T13:02:45.999Z</time></trkpt><trkpt lat="45.885632486971964" lon="9.227072321498012"><ele>1105.75</ele><time>2026-04-03T13:02:46.999Z</time></trkpt><trkpt lat="45.88562772520193" lon="9.226857573198034"><ele>1103.0</ele><time>2026-04-03T13:02:47.999Z</time></trkpt><trkpt lat="45.88562440049257" lon="9.226633624829875"><ele>1096.6666666666667</ele><time>2026-04-03T13:02:48.999Z</time></trkpt><trkpt lat="45.88564675652609" lon="9.226419663434562"><ele>1090.3333333333333</ele><time>2026-04-03T13:02:49.999Z</time></trkpt><trkpt lat="45.88568846916206" lon="9.226195247500106"><ele>1084.0</ele><time>2026-04-03T13:02:50.999Z</time></trkpt><trkpt lat="45.88574940564135" lon="9.225989432812057"><ele>1084.0</ele><time>2026-04-03T13:02:51.999Z</time></trkpt><trkpt lat="45.885829496611834" lon="9.225792656399417"><ele>1084.0</ele><time>2026-04-03T13:02:52.999Z</time></trkpt><trkpt lat="45.88593247988225" lon="9.225600336791983"><ele>1084.0</ele><time>2026-04-03T13:02:53.999Z</time></trkpt><trkpt lat="45.88605442767492" lon="9.225425849095135"><ele>1085.3333333333333</ele><time>2026-04-03T13:02:54.999Z</time></trkpt><trkpt lat="45.88619030040072" lon="9.225266277999078"><ele>1086.6666666666667</ele><time>2026-04-03T13:02:55.999Z</time></trkpt><trkpt lat="45.88632642936703" lon="9.22510200845503"><ele>1088.0</ele><time>2026-04-03T13:02:56.999Z</time></trkpt><trkpt lat="45.88646478232132" lon="9.2249338291117"><ele>1082.0</ele><time>2026-04-03T13:02:57.999Z</time></trkpt><trkpt lat="45.88660634919037" lon="9.22477550024063"><ele>1076.0</ele><time>2026-04-03T13:02:58.999Z</time></trkpt><trkpt lat="45.88666666987765" lon="9.224496357705968"><ele>1070.0</ele><time>2026-04-03T13:02:59.999Z</time></trkpt><trkpt lat="45.88678034191177" lon="9.224326897176264"><ele>1070.0</ele><time>2026-04-03T13:03:00.999Z</time></trkpt><trkpt lat="45.88688506665209" lon="9.224192003739814"><ele>1070.0</ele><time>2026-04-03T13:03:01.998Z</time></trkpt><trkpt lat="45.88698040874498" lon="9.224066227632887"><ele>1070.0</ele><time>2026-04-03T13:03:02.998Z</time></trkpt><trkpt lat="45.887068944903454" lon="9.223960523899843"><ele>1070.0</ele><time>2026-04-03T13:03:03.998Z</time></trkpt><trkpt lat="45.88717499533957" lon="9.223874542368694"><ele>1066.0</ele><time>2026-04-03T13:03:04.998Z</time></trkpt><trkpt lat="45.88729368450108" lon="9.223829199081875"><ele>1062.0</ele><time>2026-04-03T13:03:05.998Z</time></trkpt><trkpt lat="45.88741302750141" lon="9.223825893403387"><ele>1058.0</ele><time>2026-04-03T13:03:06.998Z</time></trkpt><trkpt lat="45.88752416375588" lon="9.223889858797671"><ele>1054.0</ele><time>2026-04-03T13:03:07.998Z</time></trkpt><trkpt lat="45.88764422885185" lon="9.224003936725257"><ele>1054.0</ele><time>2026-04-03T13:03:08.998Z</time></trkpt><trkpt lat="45.887773198982075" lon="9.22413823689355"><ele>1054.0</ele><time>2026-04-03T13:03:09.998Z</time></trkpt><trkpt lat="45.88790879052051" lon="9.224261383289605"><ele>1054.0</ele><time>2026-04-03T13:03:10.998Z</time></trkpt><trkpt lat="45.888051120641144" lon="9.224351199559694"><ele>1054.0</ele><time>2026-04-03T13:03:11.998Z</time></trkpt><trkpt lat="45.88819638979763" lon="9.224403897681048"><ele>1054.0</ele><time>2026-04-03T13:03:12.998Z</time></trkpt><trkpt lat="45.88833807890732" lon="9.22442861895518"><ele>1054.0</ele><time>2026-04-03T13:03:13.998Z</time></trkpt><trkpt lat="45.88847898095115" lon="9.224417144454897"><ele>1054.0</ele><time>2026-04-03T13:03:14.998Z</time></trkpt><trkpt lat="45.88861251063101" lon="9.224360934880652"><ele>1051.0</ele><time>2026-04-03T13:03:16.001Z</time></trkpt><trkpt lat="45.88874449455807" lon="9.224267586389852"><ele>1048.0</ele><time>2026-04-03T13:03:17.001Z</time></trkpt><trkpt lat="45.88886269336039" lon="9.224186570629513"><ele>1045.0</ele><time>2026-04-03T13:03:18.001Z</time></trkpt><trkpt lat="45.888977954435774" lon="9.22414502261952"><ele>1042.0</ele><time>2026-04-03T13:03:19.001Z</time></trkpt><trkpt lat="45.889095355851886" lon="9.224165615576755"><ele>1042.0</ele><time>2026-04-03T13:03:20.001Z</time></trkpt><trkpt lat="45.88921741921002" lon="9.224239549700695"><ele>1042.0</ele><time>2026-04-03T13:03:21.001Z</time></trkpt><trkpt lat="45.88933831006466" lon="9.224348228815694"><ele>1042.0</ele><time>2026-04-03T13:03:22.001Z</time></trkpt><trkpt lat="45.889419796173506" lon="9.224482341687299"><ele>1042.0</ele><time>2026-04-03T13:03:23.001Z</time></trkpt><trkpt lat="45.88947462727558" lon="9.224631511690305"><ele>1041.8</ele><time>2026-04-03T13:03:24.001Z</time></trkpt><trkpt lat="45.88951291098494" lon="9.224792173297192"><ele>1041.6</ele><time>2026-04-03T13:03:25.001Z</time></trkpt><trkpt lat="45.889528117129785" lon="9.224951939911952"><ele>1041.3999999999999</ele><time>2026-04-03T13:03:26.001Z</time></trkpt><trkpt lat="45.889531006468616" lon="9.225088690123378"><ele>1041.2</ele><time>2026-04-03T13:03:27.001Z</time></trkpt><trkpt lat="45.88953851010134" lon="9.225195989517358"><ele>1041.0</ele><time>2026-04-03T13:03:28.001Z</time></trkpt><trkpt lat="45.88963968018148" lon="9.225236158697404"><ele>1041.0</ele><time>2026-04-03T13:03:30Z</time></trkpt><trkpt lat="45.889713933037775" lon="9.225183623461415"><ele>1041.0</ele><time>2026-04-03T13:03:31Z</time></trkpt><trkpt lat="45.88981164377732" lon="9.225079928430999"><ele>1041.0</ele><time>2026-04-03T13:03:32Z</time></trkpt><trkpt lat="45.8899166896567" lon="9.224938746245426"><ele>1041.0</ele><time>2026-04-03T13:03:33Z</time></trkpt><trkpt lat="45.89002259465316" lon="9.224810145699873"><ele>1037.3999999999999</ele><time>2026-04-03T13:03:34Z</time></trkpt><trkpt lat="45.89010446815742" lon="9.22469660762019"><ele>1033.8</ele><time>2026-04-03T13:03:35Z</time></trkpt><trkpt lat="45.89016502637845" lon="9.22454612789266"><ele>1030.1999999999998</ele><time>2026-04-03T13:03:36Z</time></trkpt><trkpt lat="45.890205545384795" lon="9.224398704666447"><ele>1026.6</ele><time>2026-04-03T13:03:37Z</time></trkpt><trkpt lat="45.8902550331892" lon="9.224289765995268"><ele>1023.0</ele><time>2026-04-03T13:03:38Z</time></trkpt><trkpt lat="45.89032999104032" lon="9.224210459636973"><ele>1023.0</ele><time>2026-04-03T13:03:39Z</time></trkpt><trkpt lat="45.89044346748537" lon="9.224138971069591"><ele>1023.0</ele><time>2026-04-03T13:03:40Z</time></trkpt><trkpt lat="45.89059713430639" lon="9.224102653290206"><ele>1023.0</ele><time>2026-04-03T13:03:41Z</time></trkpt><trkpt lat="45.89072398726122" lon="9.224066520108963"><ele>1023.0</ele><time>2026-04-03T13:03:42Z</time></trkpt><trkpt lat="45.8908147258707" lon="9.224013169364177"><ele>1020.8</ele><time>2026-04-03T13:03:43Z</time></trkpt><trkpt lat="45.8908813754203" lon="9.223955669966388"><ele>1018.5999999999999</ele><time>2026-04-03T13:03:44Z</time></trkpt><trkpt lat="45.89095493128846" lon="9.223922016691311"><ele>1016.4000000000001</ele><time>2026-04-03T13:03:45Z</time></trkpt><trkpt lat="45.891038245770346" lon="9.22392869415288"><ele>1014.2</ele><time>2026-04-03T13:03:46Z</time></trkpt><trkpt lat="45.891139648079445" lon="9.22398171454823"><ele>1012.0</ele><time>2026-04-03T13:03:47Z</time></trkpt><trkpt lat="45.8912561257193" lon="9.224066284324262"><ele>1012.0</ele><time>2026-04-03T13:03:48Z</time></trkpt><trkpt lat="45.891380629484786" lon="9.224139502923963"><ele>1012.0</ele><time>2026-04-03T13:03:49Z</time></trkpt><trkpt lat="45.89150757656516" lon="9.224178421528611"><ele>1012.0</ele><time>2026-04-03T13:03:50Z</time></trkpt><trkpt lat="45.89162341077372" lon="9.224213081930031"><ele>1012.0</ele><time>2026-04-03T13:03:51Z</time></trkpt><trkpt lat="45.89172364102686" lon="9.224273005486511"><ele>1009.0</ele><time>2026-04-03T13:03:52Z</time></trkpt><trkpt lat="45.891809909075505" lon="9.2243695809843"><ele>1006.0</ele><time>2026-04-03T13:03:53Z</time></trkpt><trkpt lat="45.89189247836645" lon="9.224507288187787"><ele>1003.0</ele><time>2026-04-03T13:03:54Z</time></trkpt><trkpt lat="45.891969788143925" lon="9.224694889476895"><ele>1000.0</ele><time>2026-04-03T13:03:55Z</time></trkpt><trkpt lat="45.89203685463051" lon="9.224882541195873"><ele>1000.0</ele><time>2026-04-03T13:03:56Z</time></trkpt><trkpt lat="45.89209733973782" lon="9.225027369747547"><ele>1000.0</ele><time>2026-04-03T13:03:57Z</time></trkpt><trkpt lat="45.8921448512643" lon="9.225161633706497"><ele>1000.0</ele><time>2026-04-03T13:03:58Z</time></trkpt><trkpt lat="45.89217865680662" lon="9.225286900450163"><ele>1000.0</ele><time>2026-04-03T13:03:59Z</time></trkpt><trkpt lat="45.892251827552535" lon="9.225388500786071"><ele>1000.0</ele><time>2026-04-03T13:04:00Z</time></trkpt><trkpt lat="45.89237730214397" lon="9.225428057456563"><ele>1000.0</ele><time>2026-04-03T13:04:01Z</time></trkpt><trkpt lat="45.892517152893184" lon="9.225422322813488"><ele>1000.0</ele><time>2026-04-03T13:04:02Z</time></trkpt><trkpt lat="45.8926451126044" lon="9.225450749599757"><ele>1000.0</ele><time>2026-04-03T13:04:03Z</time></trkpt><trkpt lat="45.892760099716675" lon="9.225513382359233"><ele>1000.0</ele><time>2026-04-03T13:04:04Z</time></trkpt><trkpt lat="45.892872768095586" lon="9.225570429423545"><ele>995.3333333333333</ele><time>2026-04-03T13:04:05Z</time></trkpt><trkpt lat="45.89300108139277" lon="9.225555300591205"><ele>990.6666666666667</ele><time>2026-04-03T13:04:06Z</time></trkpt><trkpt lat="45.89314345576921" lon="9.22547373693861"><ele>986.0</ele><time>2026-04-03T13:04:07Z</time></trkpt><trkpt lat="45.89327818049416" lon="9.225306424636678"><ele>986.0</ele><time>2026-04-03T13:04:08Z</time></trkpt><trkpt lat="45.89337561569088" lon="9.225054757653663"><ele>986.0</ele><time>2026-04-03T13:04:09Z</time></trkpt><trkpt lat="45.89344430920784" lon="9.224749780315035"><ele>986.0</ele><time>2026-04-03T13:04:10Z</time></trkpt><trkpt lat="45.89347467045979" lon="9.224413315873344"><ele>985.0</ele><time>2026-04-03T13:04:11Z</time></trkpt><trkpt lat="45.89351713262721" lon="9.22407419235337"><ele>984.0</ele><time>2026-04-03T13:04:12Z</time></trkpt><trkpt lat="45.893547661332946" lon="9.223722455305909"><ele>984.0</ele><time>2026-04-03T13:04:13Z</time></trkpt><trkpt lat="45.89357375345749" lon="9.2233702449114"><ele>984.0</ele><time>2026-04-03T13:04:14Z</time></trkpt><trkpt lat="45.893606050810526" lon="9.223053305832408"><ele>984.6666666666667</ele><time>2026-04-03T13:04:15Z</time></trkpt><trkpt lat="45.893641821646106" lon="9.222768724067565"><ele>985.3333333333334</ele><time>2026-04-03T13:04:16Z</time></trkpt><trkpt lat="45.89367870193636" lon="9.222482203265352"><ele>986.0</ele><time>2026-04-03T13:04:17Z</time></trkpt><trkpt lat="45.89371234878666" lon="9.222195356650909"><ele>986.3333333333334</ele><time>2026-04-03T13:04:18Z</time></trkpt><trkpt lat="45.89374675745178" lon="9.221905159009921"><ele>986.6666666666667</ele><time>2026-04-03T13:04:19Z</time></trkpt><trkpt lat="45.893785744488696" lon="9.22161811747954"><ele>987.0</ele><time>2026-04-03T13:04:20Z</time></trkpt><trkpt lat="45.89382004246742" lon="9.22132495417909"><ele>985.6666666666667</ele><time>2026-04-03T13:04:20.999Z</time></trkpt><trkpt lat="45.893846859662446" lon="9.221023369443607"><ele>984.3333333333334</ele><time>2026-04-03T13:04:21.999Z</time></trkpt><trkpt lat="45.893869968258855" lon="9.220729818422996"><ele>983.0</ele><time>2026-04-03T13:04:22.999Z</time></trkpt><trkpt lat="45.89389797464052" lon="9.220461250908935"><ele>980.6666666666667</ele><time>2026-04-03T13:04:23.999Z</time></trkpt><trkpt lat="45.89393942178705" lon="9.220229848753988"><ele>978.3333333333333</ele><time>2026-04-03T13:04:24.999Z</time></trkpt><trkpt lat="45.893997185695305" lon="9.220009986227598"><ele>976.0</ele><time>2026-04-03T13:04:25.999Z</time></trkpt><trkpt lat="45.89407367926768" lon="9.219785287060713"><ele>974.6666666666666</ele><time>2026-04-03T13:04:26.999Z</time></trkpt><trkpt lat="45.89417239179492" lon="9.219554930938141"><ele>973.3333333333333</ele><time>2026-04-03T13:04:27.999Z</time></trkpt><trkpt lat="45.89428648142752" lon="9.219308200798352"><ele>972.0</ele><time>2026-04-03T13:04:28.999Z</time></trkpt><trkpt lat="45.894409199278456" lon="9.21905678395003"><ele>974.6666666666667</ele><time>2026-04-03T13:04:29.999Z</time></trkpt><trkpt lat="45.894543358114525" lon="9.21881134179834"><ele>977.3333333333334</ele><time>2026-04-03T13:04:30.999Z</time></trkpt><trkpt lat="45.894670942770105" lon="9.2185937086043"><ele>980.0</ele><time>2026-04-03T13:04:31.999Z</time></trkpt><trkpt lat="45.894786494083256" lon="9.218391788931743"><ele>980.0</ele><time>2026-04-03T13:04:32.999Z</time></trkpt><trkpt lat="45.89489515748887" lon="9.21821059989825"><ele>980.0</ele><time>2026-04-03T13:04:33.999Z</time></trkpt><trkpt lat="45.894989463482105" lon="9.218054521623763"><ele>980.0</ele><time>2026-04-03T13:04:34.999Z</time></trkpt><trkpt lat="45.8950595044045" lon="9.217894914307166"><ele>980.0</ele><time>2026-04-03T13:04:35.999Z</time></trkpt><trkpt lat="45.8951059715696" lon="9.217743932139257"><ele>979.25</ele><time>2026-04-03T13:04:36.999Z</time></trkpt><trkpt lat="45.89514376139954" lon="9.21759592528242"><ele>978.5</ele><time>2026-04-03T13:04:37.999Z</time></trkpt><trkpt lat="45.895164384344106" lon="9.217436287738687"><ele>977.75</ele><time>2026-04-03T13:04:38.999Z</time></trkpt><trkpt lat="45.89514262421664" lon="9.2172615086974"><ele>977.0</ele><time>2026-04-03T13:04:39.999Z</time></trkpt><trkpt lat="45.895083776238266" lon="9.217091377384568"><ele>977.0000000000001</ele><time>2026-04-03T13:04:40.999Z</time></trkpt><trkpt lat="45.89500875756566" lon="9.216968436905788"><ele>977.0</ele><time>2026-04-03T13:04:41.999Z</time></trkpt><trkpt lat="45.894961292296884" lon="9.216872730234359"><ele>977.0</ele><time>2026-04-03T13:04:42.999Z</time></trkpt><trkpt lat="45.89494731956463" lon="9.21678299456609"><ele>977.0</ele><time>2026-04-03T13:04:43.999Z</time></trkpt><trkpt lat="45.89497284615914" lon="9.216677567050754"><ele>977.0000000000001</ele><time>2026-04-03T13:04:44.999Z</time></trkpt><trkpt lat="45.89502902465635" lon="9.216567900171576"><ele>977.0</ele><time>2026-04-03T13:04:45.999Z</time></trkpt><trkpt lat="45.89509019672216" lon="9.216476716598068"><ele>979.8</ele><time>2026-04-03T13:04:46.999Z</time></trkpt><trkpt lat="45.89513271380073" lon="9.216371311471365"><ele>982.6</ele><time>2026-04-03T13:04:47.999Z</time></trkpt><trkpt lat="45.89513814922482" lon="9.216226080236408"><ele>985.3999999999999</ele><time>2026-04-03T13:04:48.999Z</time></trkpt><trkpt lat="45.895140800444395" lon="9.21608229023319"><ele>988.1999999999999</ele><time>2026-04-03T13:04:49.999Z</time></trkpt><trkpt lat="45.895167931606565" lon="9.215949269901072"><ele>991.0</ele><time>2026-04-03T13:04:50.999Z</time></trkpt><trkpt lat="45.89522139437843" lon="9.21581346165921"><ele>991.0</ele><time>2026-04-03T13:04:51.999Z</time></trkpt><trkpt lat="45.895283998209734" lon="9.215676582860372"><ele>990.9999999999999</ele><time>2026-04-03T13:04:52.999Z</time></trkpt><trkpt lat="45.89534996727912" lon="9.215554439712283"><ele>990.9999999999999</ele><time>2026-04-03T13:04:53.999Z</time></trkpt><trkpt lat="45.89542920730013" lon="9.21545339299785"><ele>991.0</ele><time>2026-04-03T13:04:54.999Z</time></trkpt><trkpt lat="45.89552461872668" lon="9.215362286580714"><ele>991.0</ele><time>2026-04-03T13:04:55.999Z</time></trkpt><trkpt lat="45.8956320708963" lon="9.21528213045192"><ele>991.25</ele><time>2026-04-03T13:04:56.999Z</time></trkpt><trkpt lat="45.89573970049607" lon="9.215201377043327"><ele>991.5</ele><time>2026-04-03T13:04:57.999Z</time></trkpt><trkpt lat="45.89583826962352" lon="9.215094640910003"><ele>991.75</ele><time>2026-04-03T13:04:58.999Z</time></trkpt><trkpt lat="45.89593078401656" lon="9.214955040507942"><ele>992.0</ele><time>2026-04-03T13:04:59.999Z</time></trkpt><trkpt lat="45.89601094661126" lon="9.21478957328973"><ele>989.25</ele><time>2026-04-03T13:05:00.999Z</time></trkpt><trkpt lat="45.896071778255745" lon="9.214612843231516"><ele>986.5</ele><time>2026-04-03T13:05:01.999Z</time></trkpt><trkpt lat="45.89611111908274" lon="9.214427048651386"><ele>983.75</ele><time>2026-04-03T13:05:02.999Z</time></trkpt><trkpt lat="45.89613403333556" lon="9.214238206415592"><ele>981.0</ele><time>2026-04-03T13:05:03.999Z</time></trkpt><trkpt lat="45.89615070229252" lon="9.214046205616334"><ele>980.0</ele><time>2026-04-03T13:05:04.999Z</time></trkpt><trkpt lat="45.89616455046971" lon="9.213856169118298"><ele>979.0</ele><time>2026-04-03T13:05:05.999Z</time></trkpt><trkpt lat="45.89618822099181" lon="9.213673889495396"><ele>978.0</ele><time>2026-04-03T13:05:06.999Z</time></trkpt><trkpt lat="45.896221282855905" lon="9.213498733312575"><ele>977.0</ele><time>2026-04-03T13:05:07.999Z</time></trkpt><trkpt lat="45.896264304819866" lon="9.213325448872544"><ele>977.0</ele><time>2026-04-03T13:05:08.999Z</time></trkpt><trkpt lat="45.89631401963118" lon="9.2131567520833"><ele>977.0</ele><time>2026-04-03T13:05:09.999Z</time></trkpt><trkpt lat="45.89636289928425" lon="9.212985526423378"><ele>977.0</ele><time>2026-04-03T13:05:10.999Z</time></trkpt><trkpt lat="45.89640474558008" lon="9.212815911670083"><ele>977.0</ele><time>2026-04-03T13:05:11.999Z</time></trkpt><trkpt lat="45.89644003764833" lon="9.212653352550154"><ele>977.2</ele><time>2026-04-03T13:05:12.999Z</time></trkpt><trkpt lat="45.89647135576526" lon="9.212508923046904"><ele>977.4000000000001</ele><time>2026-04-03T13:05:13.999Z</time></trkpt><trkpt lat="45.896499081910264" lon="9.212372718342639"><ele>977.5999999999999</ele><time>2026-04-03T13:05:14.999Z</time></trkpt><trkpt lat="45.89652381331551" lon="9.212236729682283"><ele>977.8</ele><time>2026-04-03T13:05:15.999Z</time></trkpt><trkpt lat="45.896539044478736" lon="9.212118294134278"><ele>978.0</ele><time>2026-04-03T13:05:16.999Z</time></trkpt><trkpt lat="45.896550809831886" lon="9.212017129746565"><ele>977.5999999999999</ele><time>2026-04-03T13:05:17.998Z</time></trkpt><trkpt lat="45.89656777056072" lon="9.211843574923295"><ele>977.1999999999999</ele><time>2026-04-03T13:05:19.998Z</time></trkpt><trkpt lat="45.89658839062519" lon="9.211690499016619"><ele>976.8</ele><time>2026-04-03T13:05:22.001Z</time></trkpt><trkpt lat="45.89660174682734" lon="9.211594883224764"><ele>976.4</ele><time>2026-04-03T13:05:23.001Z</time></trkpt><trkpt lat="45.89661318587337" lon="9.211478023334548"><ele>976.0</ele><time>2026-04-03T13:05:24.001Z</time></trkpt><trkpt lat="45.89662639997848" lon="9.211331581373386"><ele>976.0</ele><time>2026-04-03T13:05:25.001Z</time></trkpt><trkpt lat="45.89664802320454" lon="9.211128126333932"><ele>976.0</ele><time>2026-04-03T13:05:26.001Z</time></trkpt><trkpt lat="45.896680833891544" lon="9.210885218874985"><ele>976.0</ele><time>2026-04-03T13:05:27.001Z</time></trkpt><trkpt lat="45.896733998942786" lon="9.210613568224428"><ele>979.0</ele><time>2026-04-03T13:05:28.001Z</time></trkpt><trkpt lat="45.89678294290394" lon="9.210318295311465"><ele>982.0</ele><time>2026-04-03T13:05:29.001Z</time></trkpt><trkpt lat="45.89682035183839" lon="9.209999294685979"><ele>985.0</ele><time>2026-04-03T13:05:30.001Z</time></trkpt><trkpt lat="45.89685798974356" lon="9.209684863151441"><ele>987.6666666666666</ele><time>2026-04-03T13:05:31.001Z</time></trkpt><trkpt lat="45.89689739180934" lon="9.209422678435933"><ele>990.3333333333333</ele><time>2026-04-03T13:05:32.001Z</time></trkpt><trkpt lat="45.89692898850236" lon="9.209226329451889"><ele>993.0</ele><time>2026-04-03T13:05:33.001Z</time></trkpt><trkpt lat="45.89695264248801" lon="9.209039433503337"><ele>995.0</ele><time>2026-04-03T13:05:34.001Z</time></trkpt><trkpt lat="45.896976070307545" lon="9.208826501663665"><ele>997.0</ele><time>2026-04-03T13:05:35.001Z</time></trkpt><trkpt lat="45.8970031898174" lon="9.208600405479364"><ele>999.0</ele><time>2026-04-03T13:05:36.001Z</time></trkpt><trkpt lat="45.897031085022306" lon="9.208371757847036"><ele>999.3333333333333</ele><time>2026-04-03T13:05:37.001Z</time></trkpt><trkpt lat="45.89705187810497" lon="9.208140971796077"><ele>999.6666666666666</ele><time>2026-04-03T13:05:38.001Z</time></trkpt><trkpt lat="45.897049146603294" lon="9.207923099215998"><ele>1000.0</ele><time>2026-04-03T13:05:39.001Z</time></trkpt><trkpt lat="45.89701648834804" lon="9.20771861265824"><ele>1000.0</ele><time>2026-04-03T13:05:40.001Z</time></trkpt><trkpt lat="45.89695896676662" lon="9.207509994951716"><ele>1000.0</ele><time>2026-04-03T13:05:41.001Z</time></trkpt><trkpt lat="45.89689280290114" lon="9.207297197667085"><ele>1000.0</ele><time>2026-04-03T13:05:42.001Z</time></trkpt><trkpt lat="45.896823980074224" lon="9.207080758847166"><ele>1002.6666666666666</ele><time>2026-04-03T13:05:43Z</time></trkpt><trkpt lat="45.89675815690125" lon="9.206869075097561"><ele>1005.3333333333333</ele><time>2026-04-03T13:05:44Z</time></trkpt><trkpt lat="45.896697734242856" lon="9.206669955270476"><ele>1008.0</ele><time>2026-04-03T13:05:45Z</time></trkpt><trkpt lat="45.896638003327844" lon="9.206482611345443"><ele>999.25</ele><time>2026-04-03T13:05:46Z</time></trkpt><trkpt lat="45.896587481205806" lon="9.20629742318095"><ele>990.5</ele><time>2026-04-03T13:05:47Z</time></trkpt><trkpt lat="45.89654845876896" lon="9.206110563832988"><ele>981.75</ele><time>2026-04-03T13:05:48Z</time></trkpt><trkpt lat="45.896526268347046" lon="9.205915983567916"><ele>973.0</ele><time>2026-04-03T13:05:49Z</time></trkpt><trkpt lat="45.89653729887206" lon="9.205701243937753"><ele>971.6666666666666</ele><time>2026-04-03T13:05:50Z</time></trkpt><trkpt lat="45.89657857712677" lon="9.205474579045093"><ele>970.3333333333333</ele><time>2026-04-03T13:05:51Z</time></trkpt><trkpt lat="45.896606382254035" lon="9.205251408394542"><ele>969.0</ele><time>2026-04-03T13:05:52Z</time></trkpt><trkpt lat="45.89663375209738" lon="9.205036468986208"><ele>969.0</ele><time>2026-04-03T13:05:53Z</time></trkpt><trkpt lat="45.896679593673255" lon="9.204843503145467"><ele>969.0</ele><time>2026-04-03T13:05:54Z</time></trkpt><trkpt lat="45.8967402789529" lon="9.204664086355091"><ele>969.0</ele><time>2026-04-03T13:05:55Z</time></trkpt><trkpt lat="45.89681707724506" lon="9.20450660730961"><ele>969.0</ele><time>2026-04-03T13:05:56Z</time></trkpt><trkpt lat="45.89690584087738" lon="9.20436323727996"><ele>969.0</ele><time>2026-04-03T13:05:57Z</time></trkpt><trkpt lat="45.89701061446321" lon="9.204248394627035"><ele>969.0</ele><time>2026-04-03T13:05:58Z</time></trkpt><trkpt lat="45.89712358112635" lon="9.204143182521614"><ele>969.0</ele><time>2026-04-03T13:05:59Z</time></trkpt><trkpt lat="45.89723910736631" lon="9.204050763448668"><ele>969.0</ele><time>2026-04-03T13:06:00Z</time></trkpt><trkpt lat="45.89735193701018" lon="9.20398195692117"><ele>966.4000000000001</ele><time>2026-04-03T13:06:01Z</time></trkpt><trkpt lat="45.89746557472532" lon="9.203930689335005"><ele>963.8000000000001</ele><time>2026-04-03T13:06:02Z</time></trkpt><trkpt lat="45.89758435480632" lon="9.203884438818186"><ele>961.1999999999999</ele><time>2026-04-03T13:06:03Z</time></trkpt><trkpt lat="45.897689062252" lon="9.20385137137569"><ele>958.5999999999999</ele><time>2026-04-03T13:06:04Z</time></trkpt><trkpt lat="45.897779956468064" lon="9.203831880060163"><ele>956.0</ele><time>2026-04-03T13:06:05Z</time></trkpt><trkpt lat="45.89786703785456" lon="9.203836363537116"><ele>956.0</ele><time>2026-04-03T13:06:06Z</time></trkpt><trkpt lat="45.89794962089656" lon="9.203879295924443"><ele>955.9999999999999</ele><time>2026-04-03T13:06:07Z</time></trkpt><trkpt lat="45.89802640897607" lon="9.203954226437792"><ele>955.9999999999999</ele><time>2026-04-03T13:06:08Z</time></trkpt><trkpt lat="45.89810046157813" lon="9.20404188576431"><ele>956.0</ele><time>2026-04-03T13:06:09Z</time></trkpt><trkpt lat="45.89815317426886" lon="9.204117010560688"><ele>956.0</ele><time>2026-04-03T13:06:10Z</time></trkpt><trkpt lat="45.89826855761436" lon="9.204089895647604"><ele>956.0000000000001</ele><time>2026-04-03T13:06:12Z</time></trkpt><trkpt lat="45.898315111442564" lon="9.204009391330061"><ele>956.0</ele><time>2026-04-03T13:06:13Z</time></trkpt><trkpt lat="45.898339018114335" lon="9.203893121369768"><ele>956.0</ele><time>2026-04-03T13:06:14Z</time></trkpt><trkpt lat="45.898333869770916" lon="9.203768361918987"><ele>956.0</ele><time>2026-04-03T13:06:15Z</time></trkpt><trkpt lat="45.898321776814775" lon="9.203632957543585"><ele>956.0000000000001</ele><time>2026-04-03T13:06:16Z</time></trkpt><trkpt lat="45.89832994450867" lon="9.203493202789149"><ele>956.0</ele><time>2026-04-03T13:06:17Z</time></trkpt><trkpt lat="45.89833830661936" lon="9.203372742621571"><ele>956.0</ele><time>2026-04-03T13:06:18Z</time></trkpt><trkpt lat="45.89835646447981" lon="9.203259635414673"><ele>955.9999999999999</ele><time>2026-04-03T13:06:19Z</time></trkpt><trkpt lat="45.898397941382974" lon="9.203128920356466"><ele>955.9999999999999</ele><time>2026-04-03T13:06:20Z</time></trkpt><trkpt lat="45.898454568669656" lon="9.202992932537944"><ele>956.0</ele><time>2026-04-03T13:06:21Z</time></trkpt><trkpt lat="45.89848469570106" lon="9.202853357843633"><ele>956.0</ele><time>2026-04-03T13:06:22Z</time></trkpt><trkpt lat="45.89851225167833" lon="9.20269324138059"><ele>956.75</ele><time>2026-04-03T13:06:23Z</time></trkpt><trkpt lat="45.89851902830919" lon="9.20253048614852"><ele>957.5</ele><time>2026-04-03T13:06:24Z</time></trkpt><trkpt lat="45.898504470887616" lon="9.202370072228298"><ele>958.25</ele><time>2026-04-03T13:06:25Z</time></trkpt><trkpt lat="45.89848576132758" lon="9.202214004761606"><ele>959.0</ele><time>2026-04-03T13:06:26Z</time></trkpt><trkpt lat="45.898469506763384" lon="9.202052876439813"><ele>959.0</ele><time>2026-04-03T13:06:27Z</time></trkpt><trkpt lat="45.898461522665784" lon="9.201887481059824"><ele>959.0</ele><time>2026-04-03T13:06:28Z</time></trkpt><trkpt lat="45.89845513615162" lon="9.201715819660064"><ele>959.0</ele><time>2026-04-03T13:06:28.999Z</time></trkpt><trkpt lat="45.89844484868969" lon="9.2015435082935"><ele>959.0</ele><time>2026-04-03T13:06:29.999Z</time></trkpt><trkpt lat="45.89843416464719" lon="9.201369081849993"><ele>960.0</ele><time>2026-04-03T13:06:30.999Z</time></trkpt><trkpt lat="45.89842185089564" lon="9.201200891940879"><ele>961.0</ele><time>2026-04-03T13:06:31.999Z</time></trkpt><trkpt lat="45.89841042714453" lon="9.20103097408416"><ele>962.0</ele><time>2026-04-03T13:06:32.999Z</time></trkpt><trkpt lat="45.898404320751034" lon="9.200857266398785"><ele>963.0</ele><time>2026-04-03T13:06:33.999Z</time></trkpt><trkpt lat="45.898401323971925" lon="9.200676948984777"><ele>957.25</ele><time>2026-04-03T13:06:34.999Z</time></trkpt><trkpt lat="45.89839723112001" lon="9.200493746433612"><ele>951.5</ele><time>2026-04-03T13:06:35.999Z</time></trkpt><trkpt lat="45.89839369709105" lon="9.200307801560541"><ele>945.75</ele><time>2026-04-03T13:06:36.999Z</time></trkpt><trkpt lat="45.89839622371252" lon="9.200117705557728"><ele>940.0</ele><time>2026-04-03T13:06:37.999Z</time></trkpt><trkpt lat="45.89839748879955" lon="9.199927929431475"><ele>938.75</ele><time>2026-04-03T13:06:38.999Z</time></trkpt><trkpt lat="45.89839543816641" lon="9.199735955220662"><ele>937.5</ele><time>2026-04-03T13:06:39.999Z</time></trkpt><trkpt lat="45.898401812721104" lon="9.199541954898864"><ele>936.25</ele><time>2026-04-03T13:06:40.999Z</time></trkpt><trkpt lat="45.89842069010488" lon="9.199354150413582"><ele>935.0</ele><time>2026-04-03T13:06:41.999Z</time></trkpt><trkpt lat="45.89844391499852" lon="9.199165958128683"><ele>943.0</ele><time>2026-04-03T13:06:42.999Z</time></trkpt><trkpt lat="45.898464804060005" lon="9.198960884877087"><ele>951.0</ele><time>2026-04-03T13:06:43.999Z</time></trkpt><trkpt lat="45.89848554543008" lon="9.198740216270778"><ele>959.0</ele><time>2026-04-03T13:06:44.999Z</time></trkpt><trkpt lat="45.898506748771105" lon="9.198508073595455"><ele>959.0</ele><time>2026-04-03T13:06:45.999Z</time></trkpt><trkpt lat="45.89852936640093" lon="9.198264401380904"><ele>959.0</ele><time>2026-04-03T13:06:46.999Z</time></trkpt><trkpt lat="45.89854868207992" lon="9.198022984191654"><ele>959.0</ele><time>2026-04-03T13:06:47.999Z</time></trkpt><trkpt lat="45.89857614185856" lon="9.197786347659939"><ele>956.3333333333334</ele><time>2026-04-03T13:06:48.999Z</time></trkpt><trkpt lat="45.898599302234516" lon="9.197567203917478"><ele>953.6666666666667</ele><time>2026-04-03T13:06:49.999Z</time></trkpt><trkpt lat="45.89863140360051" lon="9.197340924916817"><ele>951.0</ele><time>2026-04-03T13:06:50.999Z</time></trkpt><trkpt lat="45.89868198784787" lon="9.197113898593525"><ele>947.6666666666667</ele><time>2026-04-03T13:06:51.999Z</time></trkpt><trkpt lat="45.89874367333354" lon="9.196894569718438"><ele>944.3333333333334</ele><time>2026-04-03T13:06:52.999Z</time></trkpt><trkpt lat="45.89876968007303" lon="9.196652680219731"><ele>941.0</ele><time>2026-04-03T13:06:53.999Z</time></trkpt><trkpt lat="45.89876487308915" lon="9.196400491471557"><ele>937.6666666666667</ele><time>2026-04-03T13:06:54.999Z</time></trkpt><trkpt lat="45.89877471885902" lon="9.19617171307738"><ele>934.3333333333333</ele><time>2026-04-03T13:06:55.999Z</time></trkpt><trkpt lat="45.898816735774695" lon="9.195934365798232"><ele>931.0</ele><time>2026-04-03T13:06:56.999Z</time></trkpt><trkpt lat="45.8988665002893" lon="9.195700558963491"><ele>925.3333333333333</ele><time>2026-04-03T13:06:57.999Z</time></trkpt><trkpt lat="45.89889708240605" lon="9.195485366158229"><ele>919.6666666666667</ele><time>2026-04-03T13:06:58.999Z</time></trkpt><trkpt lat="45.89893230088057" lon="9.195271870307735"><ele>914.0</ele><time>2026-04-03T13:06:59.999Z</time></trkpt><trkpt lat="45.89898241245619" lon="9.19507501290918"><ele>914.0</ele><time>2026-04-03T13:07:00.999Z</time></trkpt><trkpt lat="45.89906066850534" lon="9.194896671555284"><ele>914.0</ele><time>2026-04-03T13:07:01.999Z</time></trkpt><trkpt lat="45.899159574042436" lon="9.194728043543702"><ele>914.0</ele><time>2026-04-03T13:07:02.999Z</time></trkpt><trkpt lat="45.89923369814915" lon="9.194551415171098"><ele>914.0</ele><time>2026-04-03T13:07:03.999Z</time></trkpt><trkpt lat="45.89926596452074" lon="9.194352324983733"><ele>914.25</ele><time>2026-04-03T13:07:04.999Z</time></trkpt><trkpt lat="45.89927344487581" lon="9.194128666255072"><ele>914.5</ele><time>2026-04-03T13:07:05.999Z</time></trkpt><trkpt lat="45.89928396878236" lon="9.193930192667205"><ele>914.75</ele><time>2026-04-03T13:07:06.999Z</time></trkpt><trkpt lat="45.89931234882301" lon="9.193754728711697"><ele>915.0</ele><time>2026-04-03T13:07:07.999Z</time></trkpt><trkpt lat="45.89937165962249" lon="9.193592859448783"><ele>915.0</ele><time>2026-04-03T13:07:08.999Z</time></trkpt><trkpt lat="45.89945984920623" lon="9.193407743623146"><ele>915.0</ele><time>2026-04-03T13:07:09.999Z</time></trkpt><trkpt lat="45.899538415618295" lon="9.193190963110618"><ele>915.0</ele><time>2026-04-03T13:07:10.999Z</time></trkpt><trkpt lat="45.899586534261" lon="9.192942329001692"><ele>911.25</ele><time>2026-04-03T13:07:11.999Z</time></trkpt><trkpt lat="45.89961611793643" lon="9.192725521893639"><ele>907.5</ele><time>2026-04-03T13:07:12.999Z</time></trkpt><trkpt lat="45.89964251292577" lon="9.192541638769907"><ele>903.75</ele><time>2026-04-03T13:07:13.999Z</time></trkpt><trkpt lat="45.89967033928555" lon="9.192395522806146"><ele>900.0</ele><time>2026-04-03T13:07:14.999Z</time></trkpt><trkpt lat="45.899718385212616" lon="9.19227167374331"><ele>895.75</ele><time>2026-04-03T13:07:15.999Z</time></trkpt><trkpt lat="45.89980571544993" lon="9.1921583682777"><ele>891.5</ele><time>2026-04-03T13:07:16.999Z</time></trkpt><trkpt lat="45.89993379161341" lon="9.192062005497785"><ele>887.25</ele><time>2026-04-03T13:07:17.999Z</time></trkpt><trkpt lat="45.900046357344266" lon="9.191943824043516"><ele>883.0</ele><time>2026-04-03T13:07:18.999Z</time></trkpt><trkpt lat="45.900120375170445" lon="9.191750533311179"><ele>892.0</ele><time>2026-04-03T13:07:19.999Z</time></trkpt><trkpt lat="45.900164627345134" lon="9.191530888076331"><ele>901.0</ele><time>2026-04-03T13:07:20.999Z</time></trkpt><trkpt lat="45.90018212646931" lon="9.191316880816979"><ele>910.0</ele><time>2026-04-03T13:07:21.999Z</time></trkpt><trkpt lat="45.900169736216554" lon="9.191067005631316"><ele>910.0</ele><time>2026-04-03T13:07:22.998Z</time></trkpt><trkpt lat="45.90015870485363" lon="9.190828980654429"><ele>910.0</ele><time>2026-04-03T13:07:23.998Z</time></trkpt><trkpt lat="45.900157510889734" lon="9.190609094057034"><ele>910.0</ele><time>2026-04-03T13:07:24.998Z</time></trkpt><trkpt lat="45.90015629824626" lon="9.190402460131962"><ele>907.5</ele><time>2026-04-03T13:07:25.998Z</time></trkpt><trkpt lat="45.90015680024926" lon="9.190196121299534"><ele>905.0</ele><time>2026-04-03T13:07:27.001Z</time></trkpt><trkpt lat="45.90017259553703" lon="9.189985918128052"><ele>902.5</ele><time>2026-04-03T13:07:28.001Z</time></trkpt><trkpt lat="45.90019020428216" lon="9.189790838579423"><ele>900.0</ele><time>2026-04-03T13:07:29.001Z</time></trkpt><trkpt lat="45.90020399736522" lon="9.189608911199263"><ele>895.25</ele><time>2026-04-03T13:07:30.001Z</time></trkpt><trkpt lat="45.900236701721084" lon="9.189430167300676"><ele>890.5</ele><time>2026-04-03T13:07:31.001Z</time></trkpt><trkpt lat="45.900296387418386" lon="9.189246323331265"><ele>885.75</ele><time>2026-04-03T13:07:32.001Z</time></trkpt><trkpt lat="45.90037665954141" lon="9.189076390900379"><ele>881.0</ele><time>2026-04-03T13:07:33.001Z</time></trkpt><trkpt lat="45.90046524762186" lon="9.18891851211706"><ele>874.3333333333334</ele><time>2026-04-03T13:07:34.001Z</time></trkpt><trkpt lat="45.90055817414764" lon="9.18876832653554"><ele>867.6666666666667</ele><time>2026-04-03T13:07:35.001Z</time></trkpt><trkpt lat="45.900676841641854" lon="9.188616759923372"><ele>861.0</ele><time>2026-04-03T13:07:36.001Z</time></trkpt><trkpt lat="45.90081327850739" lon="9.18845349265268"><ele>862.0</ele><time>2026-04-03T13:07:37.001Z</time></trkpt><trkpt lat="45.90095348925925" lon="9.188270591871294"><ele>863.0</ele><time>2026-04-03T13:07:38.001Z</time></trkpt><trkpt lat="45.90109102519164" lon="9.188057044003761"><ele>864.0</ele><time>2026-04-03T13:07:39.001Z</time></trkpt><trkpt lat="45.90122694093103" lon="9.18782495206168"><ele>864.0</ele><time>2026-04-03T13:07:40.001Z</time></trkpt><trkpt lat="45.901366991216186" lon="9.187588993703528"><ele>864.0</ele><time>2026-04-03T13:07:41.001Z</time></trkpt><trkpt lat="45.90150629145344" lon="9.187349244523556"><ele>864.0</ele><time>2026-04-03T13:07:42.001Z</time></trkpt><trkpt lat="45.901640879171616" lon="9.18710056625987"><ele>865.6666666666667</ele><time>2026-04-03T13:07:43.001Z</time></trkpt><trkpt lat="45.90176752972996" lon="9.186845772833303"><ele>867.3333333333334</ele><time>2026-04-03T13:07:44.001Z</time></trkpt><trkpt lat="45.901880290810716" lon="9.18657254009969"><ele>869.0</ele><time>2026-04-03T13:07:45.001Z</time></trkpt><trkpt lat="45.90197041565925" lon="9.186316848861717"><ele>869.0</ele><time>2026-04-03T13:07:46.001Z</time></trkpt><trkpt lat="45.90204599656212" lon="9.186089271866498"><ele>869.0</ele><time>2026-04-03T13:07:47Z</time></trkpt><trkpt lat="45.90212034350109" lon="9.18587656942962"><ele>869.0</ele><time>2026-04-03T13:07:48Z</time></trkpt><trkpt lat="45.90218986207138" lon="9.185681663806939"><ele>866.0</ele><time>2026-04-03T13:07:49Z</time></trkpt><trkpt lat="45.90225779763093" lon="9.185512427406023"><ele>863.0</ele><time>2026-04-03T13:07:50Z</time></trkpt><trkpt lat="45.90232821558123" lon="9.185363911757966"><ele>860.0</ele><time>2026-04-03T13:07:51Z</time></trkpt><trkpt lat="45.90239893479598" lon="9.185216737522067"><ele>857.0</ele><time>2026-04-03T13:07:52Z</time></trkpt><trkpt lat="45.902454174247445" lon="9.185059034986034"><ele>857.0</ele><time>2026-04-03T13:07:53Z</time></trkpt><trkpt lat="45.90249179690249" lon="9.184882819764963"><ele>857.0</ele><time>2026-04-03T13:07:54Z</time></trkpt><trkpt lat="45.90251676251068" lon="9.184707821231079"><ele>857.0</ele><time>2026-04-03T13:07:55Z</time></trkpt><trkpt lat="45.90253974633357" lon="9.184544645994412"><ele>857.0</ele><time>2026-04-03T13:07:56Z</time></trkpt><trkpt lat="45.90257454560717" lon="9.184394898956091"><ele>859.5</ele><time>2026-04-03T13:07:57Z</time></trkpt><trkpt lat="45.90262616085406" lon="9.184254096598677"><ele>862.0</ele><time>2026-04-03T13:07:58Z</time></trkpt><trkpt lat="45.90269039640408" lon="9.184115239160052"><ele>864.5</ele><time>2026-04-03T13:07:59Z</time></trkpt><trkpt lat="45.902752746498656" lon="9.183969051692147"><ele>867.0</ele><time>2026-04-03T13:08:00Z</time></trkpt><trkpt lat="45.90281399122098" lon="9.183817231216988"><ele>861.25</ele><time>2026-04-03T13:08:01Z</time></trkpt><trkpt lat="45.90288071871502" lon="9.18366171312873"><ele>855.5</ele><time>2026-04-03T13:08:02Z</time></trkpt><trkpt lat="45.902948590149926" lon="9.183501696117897"><ele>849.75</ele><time>2026-04-03T13:08:03Z</time></trkpt><trkpt lat="45.9030194274322" lon="9.183355115332734"><ele>844.0</ele><time>2026-04-03T13:08:04Z</time></trkpt><trkpt lat="45.90309379474076" lon="9.18322030549341"><ele>839.75</ele><time>2026-04-03T13:08:05Z</time></trkpt><trkpt lat="45.90317204042709" lon="9.183094411263511"><ele>835.5</ele><time>2026-04-03T13:08:06Z</time></trkpt><trkpt lat="45.90325401131109" lon="9.182982508984189"><ele>831.25</ele><time>2026-04-03T13:08:07Z</time></trkpt><trkpt lat="45.90333345344865" lon="9.182873593013088"><ele>827.0</ele><time>2026-04-03T13:08:08Z</time></trkpt><trkpt lat="45.903477836775814" lon="9.182651598094727"><ele>827.0</ele><time>2026-04-03T13:08:10Z</time></trkpt><trkpt lat="45.90354240807638" lon="9.182542852724337"><ele>827.0</ele><time>2026-04-03T13:08:11Z</time></trkpt><trkpt lat="45.903599077809126" lon="9.182432161263534"><ele>827.0</ele><time>2026-04-03T13:08:12Z</time></trkpt><trkpt lat="45.90366380560672" lon="9.182329517988052"><ele>827.0</ele><time>2026-04-03T13:08:13Z</time></trkpt><trkpt lat="45.903745115260485" lon="9.18224902781226"><ele>827.0</ele><time>2026-04-03T13:08:14Z</time></trkpt><trkpt lat="45.90383541771131" lon="9.182198496609473"><ele>823.6</ele><time>2026-04-03T13:08:15Z</time></trkpt><trkpt lat="45.903928598621356" lon="9.182168809060832"><ele>820.2</ele><time>2026-04-03T13:08:16Z</time></trkpt><trkpt lat="45.90402658296851" lon="9.182166976409386"><ele>816.8</ele><time>2026-04-03T13:08:17Z</time></trkpt><trkpt lat="45.904109188509885" lon="9.182178042023374"><ele>813.4</ele><time>2026-04-03T13:08:18Z</time></trkpt><trkpt lat="45.90417465497197" lon="9.182187223154916"><ele>810.0</ele><time>2026-04-03T13:08:19Z</time></trkpt><trkpt lat="45.904284547649155" lon="9.182204144725933"><ele>809.3333333333334</ele><time>2026-04-03T13:08:21Z</time></trkpt><trkpt lat="45.904410080537495" lon="9.18222642962477"><ele>808.6666666666667</ele><time>2026-04-03T13:08:23Z</time></trkpt><trkpt lat="45.90448383978507" lon="9.182247815333696"><ele>808.0</ele><time>2026-04-03T13:08:24Z</time></trkpt><trkpt lat="45.90455366407335" lon="9.182281574324822"><ele>807.3333333333334</ele><time>2026-04-03T13:08:25Z</time></trkpt><trkpt lat="45.90462804433818" lon="9.182333305251278"><ele>806.6666666666667</ele><time>2026-04-03T13:08:26Z</time></trkpt><trkpt lat="45.90469474181843" lon="9.182406984427509"><ele>806.0</ele><time>2026-04-03T13:08:27Z</time></trkpt><trkpt lat="45.90477404186273" lon="9.182486531346262"><ele>806.0000000000001</ele><time>2026-04-03T13:08:28Z</time></trkpt><trkpt lat="45.90482855695553" lon="9.18256651928096"><ele>806.0</ele><time>2026-04-03T13:08:29Z</time></trkpt><trkpt lat="45.90487420425891" lon="9.18265344068014"><ele>806.0</ele><time>2026-04-03T13:08:29.999Z</time></trkpt><trkpt lat="45.90490520710115" lon="9.182737994621863"><ele>806.0</ele><time>2026-04-03T13:08:30.999Z</time></trkpt><trkpt lat="45.90496293534085" lon="9.182872927230541"><ele>806.0000000000001</ele><time>2026-04-03T13:08:32.999Z</time></trkpt><trkpt lat="45.90505407622803" lon="9.182866659112925"><ele>806.0</ele><time>2026-04-03T13:08:34.999Z</time></trkpt><trkpt lat="45.905091360694115" lon="9.182742342100116"><ele>806.0000000000001</ele><time>2026-04-03T13:08:36.999Z</time></trkpt><trkpt lat="45.90508120714966" lon="9.182648640360938"><ele>806.0</ele><time>2026-04-03T13:08:37.999Z</time></trkpt><trkpt lat="45.9050491515484" lon="9.182539436285476"><ele>806.0</ele><time>2026-04-03T13:08:38.999Z</time></trkpt><trkpt lat="45.90501977173631" lon="9.182421300534218"><ele>806.0</ele><time>2026-04-03T13:08:39.999Z</time></trkpt><trkpt lat="45.9050161266718" lon="9.182293573326207"><ele>806.0000000000001</ele><time>2026-04-03T13:08:40.999Z</time></trkpt><trkpt lat="45.90503220543498" lon="9.182153808800154"><ele>806.0</ele><time>2026-04-03T13:08:41.999Z</time></trkpt><trkpt lat="45.90503985160978" lon="9.18200835163861"><ele>803.1999999999999</ele><time>2026-04-03T13:08:42.999Z</time></trkpt><trkpt lat="45.905026661010645" lon="9.181870162282555"><ele>800.4</ele><time>2026-04-03T13:08:43.999Z</time></trkpt><trkpt lat="45.905017708481736" lon="9.181734394329773"><ele>797.6</ele><time>2026-04-03T13:08:44.999Z</time></trkpt><trkpt lat="45.90499757994499" lon="9.181598318690543"><ele>794.8</ele><time>2026-04-03T13:08:45.999Z</time></trkpt><trkpt lat="45.90496874259425" lon="9.181460615273005"><ele>792.0</ele><time>2026-04-03T13:08:46.999Z</time></trkpt><trkpt lat="45.90493892104677" lon="9.181316580661624"><ele>791.3333333333334</ele><time>2026-04-03T13:08:47.999Z</time></trkpt><trkpt lat="45.904911497803575" lon="9.181174826461529"><ele>790.6666666666667</ele><time>2026-04-03T13:08:48.999Z</time></trkpt><trkpt lat="45.904882584725264" lon="9.181048730445566"><ele>790.0</ele><time>2026-04-03T13:08:49.999Z</time></trkpt><trkpt lat="45.904859636339786" lon="9.180932243189908"><ele>789.3333333333334</ele><time>2026-04-03T13:08:50.999Z</time></trkpt><trkpt lat="45.90485092737969" lon="9.180815937929161"><ele>788.6666666666667</ele><time>2026-04-03T13:08:51.999Z</time></trkpt><trkpt lat="45.90486062898091" lon="9.180702129411417"><ele>788.0</ele><time>2026-04-03T13:08:52.999Z</time></trkpt><trkpt lat="45.90488265768716" lon="9.180595118029172"><ele>787.0000000000001</ele><time>2026-04-03T13:08:53.999Z</time></trkpt><trkpt lat="45.90491222256376" lon="9.1804889445314"><ele>786.0</ele><time>2026-04-03T13:08:54.999Z</time></trkpt><trkpt lat="45.90494145043036" lon="9.180383600235142"><ele>785.0</ele><time>2026-04-03T13:08:55.999Z</time></trkpt><trkpt lat="45.904970223860445" lon="9.180279041940713"><ele>784.0</ele><time>2026-04-03T13:08:56.999Z</time></trkpt><trkpt lat="45.904999302715744" lon="9.180171375347356"><ele>783.0000000000001</ele><time>2026-04-03T13:08:57.999Z</time></trkpt><trkpt lat="45.90503015703647" lon="9.180057359756782"><ele>782.0</ele><time>2026-04-03T13:08:58.999Z</time></trkpt><trkpt lat="45.905058611865364" lon="9.179945074674862"><ele>777.8333333333334</ele><time>2026-04-03T13:08:59.999Z</time></trkpt><trkpt lat="45.90508432374774" lon="9.179844516806302"><ele>773.6666666666667</ele><time>2026-04-03T13:09:00.999Z</time></trkpt><trkpt lat="45.90510768753584" lon="9.179753778202633"><ele>769.5</ele><time>2026-04-03T13:09:01.999Z</time></trkpt><trkpt lat="45.90514482720483" lon="9.179606165069131"><ele>765.3333333333334</ele><time>2026-04-03T13:09:03.999Z</time></trkpt><trkpt lat="45.905181514370405" lon="9.179496768133788"><ele>761.1666666666667</ele><time>2026-04-03T13:09:05.999Z</time></trkpt><trkpt lat="45.90521489394672" lon="9.179370683445839"><ele>757.0</ele><time>2026-04-03T13:09:07.999Z</time></trkpt><trkpt lat="45.9052888354141" lon="9.179307124896448"><ele>757.0</ele><time>2026-04-03T13:09:09.999Z</time></trkpt><trkpt lat="45.90535161489982" lon="9.179416180668325"><ele>757.0</ele><time>2026-04-03T13:09:11.999Z</time></trkpt><trkpt lat="45.90533897654935" lon="9.17953981049588"><ele>757.0</ele><time>2026-04-03T13:09:12.999Z</time></trkpt><trkpt lat="45.90532875008426" lon="9.179687123323182"><ele>757.0</ele><time>2026-04-03T13:09:13.999Z</time></trkpt><trkpt lat="45.905335286485396" lon="9.179857352509652"><ele>757.0</ele><time>2026-04-03T13:09:14.999Z</time></trkpt><trkpt lat="45.90535717047061" lon="9.180038272275869"><ele>757.5</ele><time>2026-04-03T13:09:15.999Z</time></trkpt><trkpt lat="45.90537377979767" lon="9.180240751819928"><ele>758.0</ele><time>2026-04-03T13:09:16.999Z</time></trkpt><trkpt lat="45.90538852961619" lon="9.180449562078703"><ele>758.5</ele><time>2026-04-03T13:09:17.999Z</time></trkpt><trkpt lat="45.90539795653912" lon="9.180655442518955"><ele>759.0</ele><time>2026-04-03T13:09:18.999Z</time></trkpt><trkpt lat="45.905417928814266" lon="9.180856995991258"><ele>759.0</ele><time>2026-04-03T13:09:19.998Z</time></trkpt><trkpt lat="45.90543668252745" lon="9.181052959521864"><ele>759.0</ele><time>2026-04-03T13:09:20.998Z</time></trkpt><trkpt lat="45.905452327237555" lon="9.181245714204197"><ele>759.0</ele><time>2026-04-03T13:09:21.998Z</time></trkpt><trkpt lat="45.90546735154468" lon="9.1814324891186"><ele>759.0</ele><time>2026-04-03T13:09:22.998Z</time></trkpt><trkpt lat="45.90547829255598" lon="9.181612919706195"><ele>760.2</ele><time>2026-04-03T13:09:23.998Z</time></trkpt><trkpt lat="45.905490196945024" lon="9.181783271194812"><ele>761.4000000000001</ele><time>2026-04-03T13:09:24.998Z</time></trkpt><trkpt lat="45.905491677905296" lon="9.181949846957187"><ele>762.6</ele><time>2026-04-03T13:09:25.998Z</time></trkpt><trkpt lat="45.905489781328484" lon="9.18210134946547"><ele>763.8</ele><time>2026-04-03T13:09:26.998Z</time></trkpt><trkpt lat="45.90548883087389" lon="9.18222589563945"><ele>765.0</ele><time>2026-04-03T13:09:27.998Z</time></trkpt><trkpt lat="45.90549507901677" lon="9.1823169654077"><ele>765.0</ele><time>2026-04-03T13:09:28.998Z</time></trkpt><trkpt lat="45.90556027532257" lon="9.182427753577826"><ele>765.0</ele><time>2026-04-03T13:09:30.998Z</time></trkpt><trkpt lat="45.905627510514854" lon="9.182410034579918"><ele>765.0</ele><time>2026-04-03T13:09:31.998Z</time></trkpt><trkpt lat="45.90567724487319" lon="9.18233533536387"><ele>765.0</ele><time>2026-04-03T13:09:33Z</time></trkpt><trkpt lat="45.90563515739445" lon="9.182213697206244"><ele>765.0</ele><time>2026-04-03T13:09:35Z</time></trkpt><trkpt lat="45.905621427313875" lon="9.182110608370628"><ele>765.0</ele><time>2026-04-03T13:09:36Z</time></trkpt><trkpt lat="45.90572151236563" lon="9.18198341575156"><ele>765.0</ele><time>2026-04-03T13:09:38Z</time></trkpt><trkpt lat="45.905800531372876" lon="9.182012393247835"><ele>765.0</ele><time>2026-04-03T13:09:39Z</time></trkpt><trkpt lat="45.90588320556175" lon="9.182071042976869"><ele>765.0</ele><time>2026-04-03T13:09:40Z</time></trkpt><trkpt lat="45.90598210068148" lon="9.182069296508232"><ele>765.0</ele><time>2026-04-03T13:09:42Z</time></trkpt><trkpt lat="45.90609921528535" lon="9.181967354442763"><ele>765.0</ele><time>2026-04-03T13:09:44Z</time></trkpt><trkpt lat="45.9061802418911" lon="9.181848285573016"><ele>765.75</ele><time>2026-04-03T13:09:45Z</time></trkpt><trkpt lat="45.906268001661736" lon="9.181719699504807"><ele>766.5</ele><time>2026-04-03T13:09:46Z</time></trkpt><trkpt lat="45.906327405689844" lon="9.181604162637838"><ele>767.25</ele><time>2026-04-03T13:09:47Z</time></trkpt><trkpt lat="45.906372961093886" lon="9.181458170708485"><ele>768.0</ele><time>2026-04-03T13:09:48Z</time></trkpt><trkpt lat="45.90641268922975" lon="9.18127752681623"><ele>762.5</ele><time>2026-04-03T13:09:49Z</time></trkpt><trkpt lat="45.90646592092883" lon="9.181109919490854"><ele>757.0</ele><time>2026-04-03T13:09:50Z</time></trkpt><trkpt lat="45.90654724254195" lon="9.180943691916072"><ele>751.5</ele><time>2026-04-03T13:09:51Z</time></trkpt><trkpt lat="45.906631710246444" lon="9.180773696444334"><ele>746.0</ele><time>2026-04-03T13:09:52Z</time></trkpt><trkpt lat="45.90671150659457" lon="9.18060167292025"><ele>748.5</ele><time>2026-04-03T13:09:53Z</time></trkpt><trkpt lat="45.90679567596985" lon="9.180446506099695"><ele>751.0</ele><time>2026-04-03T13:09:54Z</time></trkpt><trkpt lat="45.90686278600565" lon="9.18030283814505"><ele>753.5</ele><time>2026-04-03T13:09:55Z</time></trkpt><trkpt lat="45.90690978412279" lon="9.180144002729362"><ele>756.0</ele><time>2026-04-03T13:09:56Z</time></trkpt><trkpt lat="45.90695019400885" lon="9.180006061138512"><ele>756.0</ele><time>2026-04-03T13:09:57Z</time></trkpt><trkpt lat="45.90696471055981" lon="9.179895584847086"><ele>756.0</ele><time>2026-04-03T13:09:58Z</time></trkpt><trkpt lat="45.907036683554054" lon="9.179803169423256"><ele>756.0</ele><time>2026-04-03T13:09:59Z</time></trkpt><trkpt lat="45.907140189964615" lon="9.179703496350077"><ele>756.0</ele><time>2026-04-03T13:10:00Z</time></trkpt><trkpt lat="45.90727917549914" lon="9.179611553119315"><ele>749.25</ele><time>2026-04-03T13:10:01Z</time></trkpt><trkpt lat="45.90740216737758" lon="9.17952441027615"><ele>742.5</ele><time>2026-04-03T13:10:02Z</time></trkpt><trkpt lat="45.907493289626046" lon="9.179453719350825"><ele>735.75</ele><time>2026-04-03T13:10:03Z</time></trkpt><trkpt lat="45.90755140124977" lon="9.179339472682111"><ele>729.0</ele><time>2026-04-03T13:10:04Z</time></trkpt><trkpt lat="45.90756964665599" lon="9.17913869093684"><ele>734.0</ele><time>2026-04-03T13:10:05Z</time></trkpt><trkpt lat="45.907594070435884" lon="9.17892030779115"><ele>739.0</ele><time>2026-04-03T13:10:06Z</time></trkpt><trkpt lat="45.907630110519705" lon="9.178748944536428"><ele>744.0</ele><time>2026-04-03T13:10:07Z</time></trkpt><trkpt lat="45.907697451916285" lon="9.178563116068462"><ele>749.0</ele><time>2026-04-03T13:10:08Z</time></trkpt><trkpt lat="45.907759155594974" lon="9.178398301874163"><ele>749.0</ele><time>2026-04-03T13:10:09Z</time></trkpt><trkpt lat="45.9078197960587" lon="9.178236120496305"><ele>749.0</ele><time>2026-04-03T13:10:10Z</time></trkpt><trkpt lat="45.90786922587522" lon="9.178089939855326"><ele>749.0</ele><time>2026-04-03T13:10:11Z</time></trkpt><trkpt lat="45.90792375766199" lon="9.177961999131002"><ele>749.0</ele><time>2026-04-03T13:10:12Z</time></trkpt><trkpt lat="45.90799210245094" lon="9.177859160267332"><ele>749.0</ele><time>2026-04-03T13:10:13Z</time></trkpt><trkpt lat="45.908048001268675" lon="9.177753152694184"><ele>744.4000000000001</ele><time>2026-04-03T13:10:14Z</time></trkpt><trkpt lat="45.90811857596495" lon="9.177677292199707"><ele>739.8</ele><time>2026-04-03T13:10:15Z</time></trkpt><trkpt lat="45.908201295846496" lon="9.177597976961101"><ele>735.2</ele><time>2026-04-03T13:10:16Z</time></trkpt><trkpt lat="45.90831069825081" lon="9.177543983953566"><ele>730.5999999999999</ele><time>2026-04-03T13:10:17Z</time></trkpt><trkpt lat="45.908404413180826" lon="9.177456932079085"><ele>726.0</ele><time>2026-04-03T13:10:18Z</time></trkpt><trkpt lat="45.9084877869806" lon="9.177311028541727"><ele>726.0</ele><time>2026-04-03T13:10:19Z</time></trkpt><trkpt lat="45.90858087880615" lon="9.177135198881718"><ele>726.0</ele><time>2026-04-03T13:10:20Z</time></trkpt><trkpt lat="45.90867885946877" lon="9.176972205068568"><ele>726.0</ele><time>2026-04-03T13:10:21Z</time></trkpt><trkpt lat="45.908771611084774" lon="9.176804582306131"><ele>726.0</ele><time>2026-04-03T13:10:22Z</time></trkpt><trkpt lat="45.90887541641692" lon="9.176650413828856"><ele>726.0</ele><time>2026-04-03T13:10:23Z</time></trkpt><trkpt lat="45.9089649112214" lon="9.176489025931929"><ele>726.0</ele><time>2026-04-03T13:10:24Z</time></trkpt><trkpt lat="45.90905400884642" lon="9.176334006594397"><ele>726.0</ele><time>2026-04-03T13:10:24.999Z</time></trkpt><trkpt lat="45.90914564409409" lon="9.176194351384618"><ele>725.0</ele><time>2026-04-03T13:10:25.999Z</time></trkpt><trkpt lat="45.909230355307244" lon="9.176060940947428"><ele>724.0</ele><time>2026-04-03T13:10:26.999Z</time></trkpt><trkpt lat="45.90929273334868" lon="9.175921993616708"><ele>723.0</ele><time>2026-04-03T13:10:27.999Z</time></trkpt><trkpt lat="45.90932243621248" lon="9.175738610146025"><ele>722.0</ele><time>2026-04-03T13:10:28.999Z</time></trkpt><trkpt lat="45.90933508378975" lon="9.17554163146147"><ele>716.8</ele><time>2026-04-03T13:10:29.999Z</time></trkpt><trkpt lat="45.90934641398873" lon="9.17538497686827"><ele>711.6</ele><time>2026-04-03T13:10:30.999Z</time></trkpt><trkpt lat="45.90937265963928" lon="9.17526728913729"><ele>706.4</ele><time>2026-04-03T13:10:31.999Z</time></trkpt><trkpt lat="45.909416002518626" lon="9.175168400065965"><ele>701.1999999999999</ele><time>2026-04-03T13:10:32.999Z</time></trkpt><trkpt lat="45.90953357354685" lon="9.175099265430584"><ele>696.0</ele><time>2026-04-03T13:10:34.999Z</time></trkpt><trkpt lat="45.90961355996951" lon="9.175132536605979"><ele>696.0</ele><time>2026-04-03T13:10:35.999Z</time></trkpt><trkpt lat="45.90969446101153" lon="9.175204726621793"><ele>696.0</ele><time>2026-04-03T13:10:36.999Z</time></trkpt><trkpt lat="45.90975212747994" lon="9.175279474007963"><ele>696.0</ele><time>2026-04-03T13:10:37.999Z</time></trkpt><trkpt lat="45.90986078326087" lon="9.17520978032061"><ele>696.0</ele><time>2026-04-03T13:10:39.999Z</time></trkpt><trkpt lat="45.90989718654781" lon="9.175091353125511"><ele>696.0</ele><time>2026-04-03T13:10:40.999Z</time></trkpt><trkpt lat="45.90993038901872" lon="9.174951966287757"><ele>695.5</ele><time>2026-04-03T13:10:41.999Z</time></trkpt><trkpt lat="45.9099578305494" lon="9.17483139188048"><ele>695.0</ele><time>2026-04-03T13:10:42.999Z</time></trkpt><trkpt lat="45.909987782281135" lon="9.174744285025598"><ele>694.5</ele><time>2026-04-03T13:10:43.999Z</time></trkpt><trkpt lat="45.91002590035135" lon="9.174633441785165"><ele>694.0</ele><time>2026-04-03T13:10:45.999Z</time></trkpt><trkpt lat="45.91000617688272" lon="9.174522896015588"><ele>693.5</ele><time>2026-04-03T13:10:47.999Z</time></trkpt><trkpt lat="45.90995702845662" lon="9.174455691151076"><ele>693.0</ele><time>2026-04-03T13:10:48.999Z</time></trkpt><trkpt lat="45.909892430307664" lon="9.174374022984914"><ele>693.0</ele><time>2026-04-03T13:10:49.999Z</time></trkpt><trkpt lat="45.90983109542917" lon="9.174271683678635"><ele>693.0</ele><time>2026-04-03T13:10:50.999Z</time></trkpt><trkpt lat="45.90975934347919" lon="9.17416545665909"><ele>693.0</ele><time>2026-04-03T13:10:51.999Z</time></trkpt><trkpt lat="45.90967216191437" lon="9.174072685924472"><ele>693.0</ele><time>2026-04-03T13:10:52.999Z</time></trkpt><trkpt lat="45.90956797426256" lon="9.173992503467618"><ele>693.0</ele><time>2026-04-03T13:10:53.999Z</time></trkpt><trkpt lat="45.909467704723866" lon="9.173916501791451"><ele>695.75</ele><time>2026-04-03T13:10:54.999Z</time></trkpt><trkpt lat="45.90937039828735" lon="9.173826440937274"><ele>698.5</ele><time>2026-04-03T13:10:55.999Z</time></trkpt><trkpt lat="45.90926939883239" lon="9.173718014909852"><ele>701.25</ele><time>2026-04-03T13:10:56.999Z</time></trkpt><trkpt lat="45.90917090119506" lon="9.173588659987564"><ele>704.0</ele><time>2026-04-03T13:10:57.999Z</time></trkpt><trkpt lat="45.90909382006223" lon="9.173458823199274"><ele>698.6</ele><time>2026-04-03T13:10:58.999Z</time></trkpt><trkpt lat="45.90904076265337" lon="9.173349191722755"><ele>693.2</ele><time>2026-04-03T13:10:59.999Z</time></trkpt><trkpt lat="45.90900747073616" lon="9.173251877467692"><ele>687.8000000000001</ele><time>2026-04-03T13:11:00.999Z</time></trkpt><trkpt lat="45.90899711537381" lon="9.173135075681357"><ele>682.4000000000001</ele><time>2026-04-03T13:11:01.999Z</time></trkpt><trkpt lat="45.909018304343284" lon="9.172973748374229"><ele>677.0</ele><time>2026-04-03T13:11:02.999Z</time></trkpt><trkpt lat="45.909063952678935" lon="9.172794095701635"><ele>675.3333333333333</ele><time>2026-04-03T13:11:03.999Z</time></trkpt><trkpt lat="45.90907056090515" lon="9.172593138280135"><ele>673.6666666666666</ele><time>2026-04-03T13:11:04.999Z</time></trkpt><trkpt lat="45.90902004327259" lon="9.172362555971496"><ele>672.0</ele><time>2026-04-03T13:11:05.999Z</time></trkpt><trkpt lat="45.90896016755704" lon="9.172157121121629"><ele>671.4000000000001</ele><time>2026-04-03T13:11:06.999Z</time></trkpt><trkpt lat="45.908917724519796" lon="9.17198769079546"><ele>670.8000000000001</ele><time>2026-04-03T13:11:07.999Z</time></trkpt><trkpt lat="45.908895318863046" lon="9.171825498791822"><ele>670.2</ele><time>2026-04-03T13:11:08.999Z</time></trkpt><trkpt lat="45.908874915610504" lon="9.171681387215056"><ele>669.6</ele><time>2026-04-03T13:11:09.999Z</time></trkpt><trkpt lat="45.9088846790052" lon="9.171529205241775"><ele>669.0</ele><time>2026-04-03T13:11:10.999Z</time></trkpt><trkpt lat="45.90892936738584" lon="9.17134207617689"><ele>665.6666666666666</ele><time>2026-04-03T13:11:11.999Z</time></trkpt><trkpt lat="45.90898451258888" lon="9.171133534837514"><ele>662.3333333333333</ele><time>2026-04-03T13:11:12.999Z</time></trkpt><trkpt lat="45.90902670846169" lon="9.170913680696758"><ele>659.0</ele><time>2026-04-03T13:11:13.999Z</time></trkpt><trkpt lat="45.90905865645602" lon="9.170701912691344"><ele>655.25</ele><time>2026-04-03T13:11:14.998Z</time></trkpt><trkpt lat="45.909096228045556" lon="9.170511981693151"><ele>651.5</ele><time>2026-04-03T13:11:15.998Z</time></trkpt><trkpt lat="45.90913300111026" lon="9.170341745523665"><ele>647.75</ele><time>2026-04-03T13:11:16.998Z</time></trkpt><trkpt lat="45.90916702859025" lon="9.170168288348815"><ele>644.0</ele><time>2026-04-03T13:11:17.998Z</time></trkpt><trkpt lat="45.90919595631108" lon="9.170017061123271"><ele>644.0</ele><time>2026-04-03T13:11:18.998Z</time></trkpt><trkpt lat="45.90922212071582" lon="9.16988147003026"><ele>644.0</ele><time>2026-04-03T13:11:19.998Z</time></trkpt><trkpt lat="45.90925162901236" lon="9.169743702964437"><ele>644.0</ele><time>2026-04-03T13:11:20.998Z</time></trkpt><trkpt lat="45.90929985149229" lon="9.169597806530222"><ele>644.0</ele><time>2026-04-03T13:11:21.998Z</time></trkpt><trkpt lat="45.9093703371133" lon="9.169439246153404"><ele>644.0</ele><time>2026-04-03T13:11:22.998Z</time></trkpt><trkpt lat="45.90944092876669" lon="9.169262312097672"><ele>647.25</ele><time>2026-04-03T13:11:23.998Z</time></trkpt><trkpt lat="45.90950714042363" lon="9.169072279111173"><ele>650.5</ele><time>2026-04-03T13:11:24.998Z</time></trkpt><trkpt lat="45.90956588509695" lon="9.16887332340012"><ele>653.75</ele><time>2026-04-03T13:11:25.998Z</time></trkpt><trkpt lat="45.90962250119368" lon="9.168675513760942"><ele>657.0</ele><time>2026-04-03T13:11:26.998Z</time></trkpt><trkpt lat="45.909681191530744" lon="9.168481210885606"><ele>657.0</ele><time>2026-04-03T13:11:27.998Z</time></trkpt><trkpt lat="45.90974514364704" lon="9.168295256145884"><ele>657.0</ele><time>2026-04-03T13:11:28.998Z</time></trkpt><trkpt lat="45.90981605005937" lon="9.168113799423175"><ele>657.0</ele><time>2026-04-03T13:11:29.998Z</time></trkpt><trkpt lat="45.909878380502235" lon="9.167939894939195"><ele>657.0</ele><time>2026-04-03T13:11:30.998Z</time></trkpt><trkpt lat="45.909926737337294" lon="9.167778997638798"><ele>652.4</ele><time>2026-04-03T13:11:31.998Z</time></trkpt><trkpt lat="45.90997508137401" lon="9.167631012584128"><ele>647.8000000000001</ele><time>2026-04-03T13:11:32.998Z</time></trkpt><trkpt lat="45.9100230617872" lon="9.167498930936372"><ele>643.2</ele><time>2026-04-03T13:11:33.998Z</time></trkpt><trkpt lat="45.91007013535308" lon="9.167389944547056"><ele>638.6</ele><time>2026-04-03T13:11:34.998Z</time></trkpt><trkpt lat="45.91013334253454" lon="9.167302674604507"><ele>634.0</ele><time>2026-04-03T13:11:35.998Z</time></trkpt><trkpt lat="45.910216335443494" lon="9.167255770465685"><ele>635.6</ele><time>2026-04-03T13:11:36.998Z</time></trkpt><trkpt lat="45.91032124979442" lon="9.167245398823011"><ele>637.2</ele><time>2026-04-03T13:11:37.998Z</time></trkpt><trkpt lat="45.910426218296394" lon="9.167280380349883"><ele>638.8000000000001</ele><time>2026-04-03T13:11:39Z</time></trkpt><trkpt lat="45.91050570527386" lon="9.16735947285874"><ele>640.4</ele><time>2026-04-03T13:11:40Z</time></trkpt><trkpt lat="45.91055805967945" lon="9.167485053461846"><ele>642.0</ele><time>2026-04-03T13:11:41Z</time></trkpt><trkpt lat="45.910603274430265" lon="9.167625690742772"><ele>642.0</ele><time>2026-04-03T13:11:42Z</time></trkpt><trkpt lat="45.91066812044628" lon="9.1677281963121"><ele>642.0</ele><time>2026-04-03T13:11:43Z</time></trkpt><trkpt lat="45.91078516986383" lon="9.167767721200939"><ele>642.0</ele><time>2026-04-03T13:11:44Z</time></trkpt><trkpt lat="45.910917576803165" lon="9.167797025104877"><ele>642.0</ele><time>2026-04-03T13:11:45Z</time></trkpt><trkpt lat="45.91104197831043" lon="9.167837771701949"><ele>636.4</ele><time>2026-04-03T13:11:46Z</time></trkpt><trkpt lat="45.91117312872071" lon="9.167843254340276"><ele>630.8000000000001</ele><time>2026-04-03T13:11:47Z</time></trkpt><trkpt lat="45.9112682467681" lon="9.167836799166288"><ele>625.2</ele><time>2026-04-03T13:11:48Z</time></trkpt><trkpt lat="45.91136127944637" lon="9.16785060954608"><ele>619.6</ele><time>2026-04-03T13:11:49Z</time></trkpt><trkpt lat="45.91144961349127" lon="9.167875695804549"><ele>614.0</ele><time>2026-04-03T13:11:50Z</time></trkpt><trkpt lat="45.91154574075371" lon="9.16793336271314"><ele>614.0</ele><time>2026-04-03T13:11:51Z</time></trkpt><trkpt lat="45.911642562701836" lon="9.168039239713181"><ele>614.0</ele><time>2026-04-03T13:11:52Z</time></trkpt><trkpt lat="45.911746921709685" lon="9.168132352482784"><ele>614.0</ele><time>2026-04-03T13:11:53Z</time></trkpt><trkpt lat="45.9118583740771" lon="9.168221419277911"><ele>614.0</ele><time>2026-04-03T13:11:54Z</time></trkpt><trkpt lat="45.91199071844299" lon="9.168343239505141"><ele>617.25</ele><time>2026-04-03T13:11:55Z</time></trkpt><trkpt lat="45.912107152337555" lon="9.16845514562481"><ele>620.5</ele><time>2026-04-03T13:11:56Z</time></trkpt><trkpt lat="45.91220716677685" lon="9.168552421988622"><ele>623.75</ele><time>2026-04-03T13:11:57Z</time></trkpt><trkpt lat="45.912307377158086" lon="9.16862758269797"><ele>627.0</ele><time>2026-04-03T13:11:58Z</time></trkpt><trkpt lat="45.91241866457424" lon="9.168674709721273"><ele>627.0</ele><time>2026-04-03T13:11:59Z</time></trkpt><trkpt lat="45.912544496792606" lon="9.168706119603526"><ele>627.0</ele><time>2026-04-03T13:12:00Z</time></trkpt><trkpt lat="45.91267222560677" lon="9.168729090831153"><ele>627.0</ele><time>2026-04-03T13:12:01Z</time></trkpt><trkpt lat="45.91279554249792" lon="9.16872837533351"><ele>627.0</ele><time>2026-04-03T13:12:02Z</time></trkpt><trkpt lat="45.91291321810021" lon="9.16871508713346"><ele>630.0</ele><time>2026-04-03T13:12:03Z</time></trkpt><trkpt lat="45.91301812259938" lon="9.16869288613931"><ele>633.0</ele><time>2026-04-03T13:12:04Z</time></trkpt><trkpt lat="45.91311087700518" lon="9.168667408794747"><ele>636.0</ele><time>2026-04-03T13:12:05Z</time></trkpt><trkpt lat="45.9131749851167" lon="9.168599069216283"><ele>639.0</ele><time>2026-04-03T13:12:06Z</time></trkpt><trkpt lat="45.91321177129402" lon="9.168489005727528"><ele>642.0</ele><time>2026-04-03T13:12:07Z</time></trkpt><trkpt lat="45.913228835325235" lon="9.168362088001583"><ele>642.0</ele><time>2026-04-03T13:12:08Z</time></trkpt><trkpt lat="45.913243035452" lon="9.168223854233633"><ele>642.0</ele><time>2026-04-03T13:12:09Z</time></trkpt><trkpt lat="45.91326358614621" lon="9.168085202173538"><ele>642.0</ele><time>2026-04-03T13:12:10Z</time></trkpt><trkpt lat="45.91330971943389" lon="9.167923511796939"><ele>642.0</ele><time>2026-04-03T13:12:11Z</time></trkpt><trkpt lat="45.913311770432806" lon="9.167775779938815"><ele>642.0</ele><time>2026-04-03T13:12:12Z</time></trkpt><trkpt lat="45.91327522106803" lon="9.167608492900207"><ele>638.75</ele><time>2026-04-03T13:12:13Z</time></trkpt><trkpt lat="45.913196706133505" lon="9.167437554370302"><ele>635.5</ele><time>2026-04-03T13:12:14Z</time></trkpt><trkpt lat="45.91314302510017" lon="9.167263482627149"><ele>632.25</ele><time>2026-04-03T13:12:15Z</time></trkpt><trkpt lat="45.91313587340096" lon="9.167047072245182"><ele>629.0</ele><time>2026-04-03T13:12:16Z</time></trkpt><trkpt lat="45.91312417332478" lon="9.16684601317604"><ele>629.0</ele><time>2026-04-03T13:12:17Z</time></trkpt><trkpt lat="45.91310143301967" lon="9.166665313940038"><ele>629.0</ele><time>2026-04-03T13:12:18Z</time></trkpt><trkpt lat="45.91307619732349" lon="9.166490872412075"><ele>629.0</ele><time>2026-04-03T13:12:19Z</time></trkpt><trkpt lat="45.91303933364191" lon="9.166319238816131"><ele>629.0</ele><time>2026-04-03T13:12:20Z</time></trkpt><trkpt lat="45.912974787082504" lon="9.16615491857882"><ele>627.5</ele><time>2026-04-03T13:12:21Z</time></trkpt><trkpt lat="45.91291967941082" lon="9.166017312501223"><ele>626.0</ele><time>2026-04-03T13:12:22Z</time></trkpt><trkpt lat="45.91289217398222" lon="9.165881287725483"><ele>624.5</ele><time>2026-04-03T13:12:23Z</time></trkpt><trkpt lat="45.9128900188682" lon="9.165713814654813"><ele>623.0</ele><time>2026-04-03T13:12:23.999Z</time></trkpt><trkpt lat="45.91290279618679" lon="9.165526196476744"><ele>620.8</ele><time>2026-04-03T13:12:24.999Z</time></trkpt><trkpt lat="45.912907216885365" lon="9.165364601041338"><ele>618.5999999999999</ele><time>2026-04-03T13:12:25.999Z</time></trkpt><trkpt lat="45.91291937121222" lon="9.16522399180695"><ele>616.4000000000001</ele><time>2026-04-03T13:12:26.999Z</time></trkpt><trkpt lat="45.91295635062827" lon="9.165082988702656"><ele>614.2</ele><time>2026-04-03T13:12:27.999Z</time></trkpt><trkpt lat="45.91302413395922" lon="9.164924260060126"><ele>612.0</ele><time>2026-04-03T13:12:28.999Z</time></trkpt><trkpt lat="45.91309506521419" lon="9.164754567663687"><ele>606.75</ele><time>2026-04-03T13:12:29.999Z</time></trkpt><trkpt lat="45.913158210108044" lon="9.164587811510195"><ele>601.5</ele><time>2026-04-03T13:12:30.999Z</time></trkpt><trkpt lat="45.913233131855634" lon="9.16443692547747"><ele>596.25</ele><time>2026-04-03T13:12:31.999Z</time></trkpt><trkpt lat="45.913318958410024" lon="9.164300506160439"><ele>591.0</ele><time>2026-04-03T13:12:32.999Z</time></trkpt><trkpt lat="45.91339909911297" lon="9.164164747428426"><ele>589.75</ele><time>2026-04-03T13:12:33.999Z</time></trkpt><trkpt lat="45.91348487251641" lon="9.164029589262805"><ele>588.5</ele><time>2026-04-03T13:12:34.999Z</time></trkpt><trkpt lat="45.91358585409601" lon="9.16390704714933"><ele>587.25</ele><time>2026-04-03T13:12:35.999Z</time></trkpt><trkpt lat="45.91369742901592" lon="9.163798187723879"><ele>586.0</ele><time>2026-04-03T13:12:36.999Z</time></trkpt><trkpt lat="45.91380527807041" lon="9.16371365331373"><ele>586.0</ele><time>2026-04-03T13:12:37.999Z</time></trkpt><trkpt lat="45.91390116458618" lon="9.16363157910537"><ele>586.0</ele><time>2026-04-03T13:12:38.999Z</time></trkpt><trkpt lat="45.913979209883856" lon="9.163555925345458"><ele>586.0</ele><time>2026-04-03T13:12:39.999Z</time></trkpt><trkpt lat="45.914046360483574" lon="9.16349732832038"><ele>586.0</ele><time>2026-04-03T13:12:40.999Z</time></trkpt><trkpt lat="45.91410746935761" lon="9.163467927956958"><ele>586.0</ele><time>2026-04-03T13:12:41.999Z</time></trkpt><trkpt lat="45.91416732299137" lon="9.163355108003875"><ele>586.0</ele><time>2026-04-03T13:12:43.999Z</time></trkpt><trkpt lat="45.914129455794175" lon="9.163281049914533"><ele>586.0</ele><time>2026-04-03T13:12:44.999Z</time></trkpt><trkpt lat="45.914060124487335" lon="9.163265052359058"><ele>586.0</ele><time>2026-04-03T13:12:45.999Z</time></trkpt><trkpt lat="45.913985834675024" lon="9.163316516999073"><ele>586.0</ele><time>2026-04-03T13:12:46.999Z</time></trkpt><trkpt lat="45.91391770427047" lon="9.16341963404817"><ele>586.0</ele><time>2026-04-03T13:12:47.999Z</time></trkpt><trkpt lat="45.91384120806934" lon="9.163512702978343"><ele>586.0</ele><time>2026-04-03T13:12:48.999Z</time></trkpt><trkpt lat="45.91374125471242" lon="9.163559116672403"><ele>586.0</ele><time>2026-04-03T13:12:49.999Z</time></trkpt><trkpt lat="45.913639105887036" lon="9.163604578115757"><ele>586.0</ele><time>2026-04-03T13:12:50.999Z</time></trkpt><trkpt lat="45.91352893840136" lon="9.163653321338014"><ele>586.0</ele><time>2026-04-03T13:12:51.999Z</time></trkpt><trkpt lat="45.91341982494211" lon="9.163707104920507"><ele>586.0</ele><time>2026-04-03T13:12:52.999Z</time></trkpt><trkpt lat="45.913329038380134" lon="9.163763695451715"><ele>586.0</ele><time>2026-04-03T13:12:53.999Z</time></trkpt><trkpt lat="45.9132271597641" lon="9.163820722732265"><ele>587.0</ele><time>2026-04-03T13:12:54.999Z</time></trkpt><trkpt lat="45.91311245495482" lon="9.163903736561833"><ele>588.0</ele><time>2026-04-03T13:12:55.999Z</time></trkpt><trkpt lat="45.91301399914023" lon="9.164034740686148"><ele>589.0</ele><time>2026-04-03T13:12:56.999Z</time></trkpt><trkpt lat="45.91294912337027" lon="9.164126468049899"><ele>590.0</ele><time>2026-04-03T13:12:57.999Z</time></trkpt><trkpt lat="45.91289615716347" lon="9.164212554127827"><ele>591.0</ele><time>2026-04-03T13:12:58.999Z</time></trkpt><trkpt lat="45.91286245773772" lon="9.164291376188684"><ele>591.0</ele><time>2026-04-03T13:12:59.999Z</time></trkpt><trkpt lat="45.912786415962394" lon="9.164356436486846"><ele>591.0</ele><time>2026-04-03T13:13:01.999Z</time></trkpt><trkpt lat="45.91275107509833" lon="9.164210482287503"><ele>591.0</ele><time>2026-04-03T13:13:03.999Z</time></trkpt><trkpt lat="45.9128104987049" lon="9.164123545665221"><ele>591.0</ele><time>2026-04-03T13:13:04.999Z</time></trkpt><trkpt lat="45.912905009342694" lon="9.16404300364358"><ele>591.0</ele><time>2026-04-03T13:13:05.999Z</time></trkpt><trkpt lat="45.91299627267971" lon="9.163939945362682"><ele>583.25</ele><time>2026-04-03T13:13:06.999Z</time></trkpt><trkpt lat="45.913061797004275" lon="9.163802582782518"><ele>575.5</ele><time>2026-04-03T13:13:07.999Z</time></trkpt><trkpt lat="45.913135369397224" lon="9.163654508504987"><ele>567.75</ele><time>2026-04-03T13:13:08.999Z</time></trkpt><trkpt lat="45.91321632175946" lon="9.163528845297781"><ele>560.0</ele><time>2026-04-03T13:13:09.999Z</time></trkpt><trkpt lat="45.91331164045559" lon="9.163431097812158"><ele>556.75</ele><time>2026-04-03T13:13:10.999Z</time></trkpt><trkpt lat="45.913436863103335" lon="9.163350675982379"><ele>553.5</ele><time>2026-04-03T13:13:11.999Z</time></trkpt><trkpt lat="45.913579215879714" lon="9.163263785744913"><ele>550.25</ele><time>2026-04-03T13:13:12.999Z</time></trkpt><trkpt lat="45.913709904292" lon="9.163166332444687"><ele>547.0</ele><time>2026-04-03T13:13:13.998Z</time></trkpt><trkpt lat="45.913820627852814" lon="9.163078344835881"><ele>547.0</ele><time>2026-04-03T13:13:14.998Z</time></trkpt><trkpt lat="45.913925259437654" lon="9.163001013607484"><ele>547.0</ele><time>2026-04-03T13:13:15.998Z</time></trkpt><trkpt lat="45.914024889092964" lon="9.162932971633019"><ele>547.0</ele><time>2026-04-03T13:13:16.998Z</time></trkpt><trkpt lat="45.91411807705464" lon="9.162863928901848"><ele>547.0</ele><time>2026-04-03T13:13:17.998Z</time></trkpt><trkpt lat="45.914206490369224" lon="9.1628168292056"><ele>547.0</ele><time>2026-04-03T13:13:18.998Z</time></trkpt><trkpt lat="45.91430396556542" lon="9.162788435695372"><ele>548.5</ele><time>2026-04-03T13:13:19.998Z</time></trkpt><trkpt lat="45.91441514182043" lon="9.162784658197905"><ele>550.0</ele><time>2026-04-03T13:13:20.998Z</time></trkpt><trkpt lat="45.91453170313436" lon="9.162802860495733"><ele>551.5</ele><time>2026-04-03T13:13:21.998Z</time></trkpt><trkpt lat="45.914658677749244" lon="9.162772009435153"><ele>553.0</ele><time>2026-04-03T13:13:22.998Z</time></trkpt><trkpt lat="45.91479674515949" lon="9.162685559073926"><ele>553.0</ele><time>2026-04-03T13:13:23.998Z</time></trkpt><trkpt lat="45.9149349167456" lon="9.162571940589228"><ele>553.0</ele><time>2026-04-03T13:13:24.998Z</time></trkpt><trkpt lat="45.91507704375344" lon="9.162474881810866"><ele>553.0</ele><time>2026-04-03T13:13:25.998Z</time></trkpt><trkpt lat="45.91520496085095" lon="9.162400818068878"><ele>547.0</ele><time>2026-04-03T13:13:26.998Z</time></trkpt><trkpt lat="45.915323578883886" lon="9.16234138847097"><ele>541.0</ele><time>2026-04-03T13:13:27.998Z</time></trkpt><trkpt lat="45.915429004619014" lon="9.162293816459995"><ele>535.0</ele><time>2026-04-03T13:13:28.998Z</time></trkpt><trkpt lat="45.91552530175421" lon="9.162258048587208"><ele>529.0</ele><time>2026-04-03T13:13:29.998Z</time></trkpt><trkpt lat="45.915605889579325" lon="9.162254388986913"><ele>523.0</ele><time>2026-04-03T13:13:30.998Z</time></trkpt><trkpt lat="45.91569882864704" lon="9.162188427570161"><ele>523.0</ele><time>2026-04-03T13:13:32.998Z</time></trkpt><trkpt lat="45.91565272564009" lon="9.16205089158166"><ele>523.0</ele><time>2026-04-03T13:13:34.998Z</time></trkpt><trkpt lat="45.9155792902764" lon="9.162052496950631"><ele>523.0</ele><time>2026-04-03T13:13:35.998Z</time></trkpt><trkpt lat="45.91549058952071" lon="9.162135370616458"><ele>523.0</ele><time>2026-04-03T13:13:36.998Z</time></trkpt><trkpt lat="45.91539928541773" lon="9.162255169690303"><ele>523.0</ele><time>2026-04-03T13:13:37.998Z</time></trkpt><trkpt lat="45.91529388962795" lon="9.162317084336678"><ele>523.0</ele><time>2026-04-03T13:13:38.998Z</time></trkpt><trkpt lat="45.91516332621513" lon="9.162349157445748"><ele>523.0</ele><time>2026-04-03T13:13:39.998Z</time></trkpt><trkpt lat="45.91503321607092" lon="9.162394659241757"><ele>523.0</ele><time>2026-04-03T13:13:40.998Z</time></trkpt><trkpt lat="45.91491062361897" lon="9.162313592004432"><ele>523.0</ele><time>2026-04-03T13:13:41.998Z</time></trkpt><trkpt lat="45.914779247904626" lon="9.162331894141289"><ele>521.0</ele><time>2026-04-03T13:13:42.998Z</time></trkpt><trkpt lat="45.91468171400388" lon="9.162366485282524"><ele>519.0</ele><time>2026-04-03T13:13:43.998Z</time></trkpt><trkpt lat="45.914590426947356" lon="9.162383373324493"><ele>517.0</ele><time>2026-04-03T13:13:45Z</time></trkpt><trkpt lat="45.914496592100114" lon="9.162380253197858"><ele>515.0</ele><time>2026-04-03T13:13:46Z</time></trkpt><trkpt lat="45.914387781128376" lon="9.162318438920895"><ele>513.0</ele><time>2026-04-03T13:13:47Z</time></trkpt><trkpt lat="45.914258860442494" lon="9.16223206127155"><ele>512.4</ele><time>2026-04-03T13:13:48Z</time></trkpt><trkpt lat="45.91415345076584" lon="9.16213483777494"><ele>511.79999999999995</ele><time>2026-04-03T13:13:49Z</time></trkpt><trkpt lat="45.914069937786735" lon="9.162062703961514"><ele>511.2</ele><time>2026-04-03T13:13:50Z</time></trkpt><trkpt lat="45.913970758068274" lon="9.162049681713594"><ele>510.6</ele><time>2026-04-03T13:13:51Z</time></trkpt><trkpt lat="45.913900654491755" lon="9.162031443218519"><ele>510.0</ele><time>2026-04-03T13:13:52Z</time></trkpt><trkpt lat="45.91382345911592" lon="9.162087996630547"><ele>510.0</ele><time>2026-04-03T13:13:53Z</time></trkpt><trkpt lat="45.91375629036642" lon="9.162176508728534"><ele>510.0</ele><time>2026-04-03T13:13:55Z</time></trkpt><trkpt lat="45.91372421168555" lon="9.162042138032065"><ele>510.0</ele><time>2026-04-03T13:13:57Z</time></trkpt><trkpt lat="45.913779156780336" lon="9.161975447125648"><ele>510.0</ele><time>2026-04-03T13:13:58Z</time></trkpt><trkpt lat="45.913856303085055" lon="9.161948434912208"><ele>510.0</ele><time>2026-04-03T13:13:59Z</time></trkpt><trkpt lat="45.913930303421" lon="9.161961780586482"><ele>510.0</ele><time>2026-04-03T13:14:00Z</time></trkpt><trkpt lat="45.91401475533293" lon="9.161946589178015"><ele>510.0</ele><time>2026-04-03T13:14:01Z</time></trkpt><trkpt lat="45.91413528377113" lon="9.16195706648657"><ele>510.0</ele><time>2026-04-03T13:14:02Z</time></trkpt><trkpt lat="45.9142605558801" lon="9.16199138864182"><ele>510.0</ele><time>2026-04-03T13:14:03Z</time></trkpt><trkpt lat="45.91433722970697" lon="9.162047278953851"><ele>510.0</ele><time>2026-04-03T13:14:04Z</time></trkpt><trkpt lat="45.91445302819353" lon="9.162055143003208"><ele>511.0</ele><time>2026-04-03T13:14:05Z</time></trkpt><trkpt lat="45.91460336390424" lon="9.161988390156452"><ele>512.0</ele><time>2026-04-03T13:14:06Z</time></trkpt><trkpt lat="45.914751115532084" lon="9.161915138758426"><ele>513.0</ele><time>2026-04-03T13:14:07Z</time></trkpt><trkpt lat="45.91489444287077" lon="9.161851575436378"><ele>513.0</ele><time>2026-04-03T13:14:08Z</time></trkpt><trkpt lat="45.91504391217438" lon="9.161782043058137"><ele>513.0</ele><time>2026-04-03T13:14:09Z</time></trkpt><trkpt lat="45.915192204900826" lon="9.1617101188475"><ele>513.0</ele><time>2026-04-03T13:14:10Z</time></trkpt><trkpt lat="45.91534405599095" lon="9.16164926260193"><ele>515.5</ele><time>2026-04-03T13:14:11Z</time></trkpt><trkpt lat="45.91548597690941" lon="9.161588596544181"><ele>518.0</ele><time>2026-04-03T13:14:12Z</time></trkpt><trkpt lat="45.91561125440464" lon="9.161521077800973"><ele>520.5</ele><time>2026-04-03T13:14:13Z</time></trkpt><trkpt lat="45.91572580167766" lon="9.161454716154969"><ele>523.0</ele><time>2026-04-03T13:14:14Z</time></trkpt><trkpt lat="45.91583546170278" lon="9.161410831984593"><ele>518.0</ele><time>2026-04-03T13:14:15Z</time></trkpt><trkpt lat="45.91594130256902" lon="9.161376889448864"><ele>513.0</ele><time>2026-04-03T13:14:16Z</time></trkpt><trkpt lat="45.916061225349715" lon="9.16136130998904"><ele>508.0</ele><time>2026-04-03T13:14:17Z</time></trkpt><trkpt lat="45.9162005267273" lon="9.16137584631977"><ele>503.0</ele><time>2026-04-03T13:14:18Z</time></trkpt><trkpt lat="45.91632838682283" lon="9.161390088934525"><ele>503.0</ele><time>2026-04-03T13:14:19Z</time></trkpt><trkpt lat="45.916439964590865" lon="9.161393044652922"><ele>502.99999999999994</ele><time>2026-04-03T13:14:20Z</time></trkpt><trkpt lat="45.91651788908218" lon="9.161347636295531"><ele>502.99999999999994</ele><time>2026-04-03T13:14:21Z</time></trkpt><trkpt lat="45.91658642388706" lon="9.161236091904179"><ele>503.0</ele><time>2026-04-03T13:14:22Z</time></trkpt><trkpt lat="45.91667218352865" lon="9.16106524176116"><ele>503.0</ele><time>2026-04-03T13:14:22.999Z</time></trkpt><trkpt lat="45.9167822045259" lon="9.160877540281056"><ele>502.0</ele><time>2026-04-03T13:14:23.999Z</time></trkpt><trkpt lat="45.916910357653734" lon="9.160720244063741"><ele>501.0</ele><time>2026-04-03T13:14:24.999Z</time></trkpt><trkpt lat="45.91703787962144" lon="9.160581560912014"><ele>500.0</ele><time>2026-04-03T13:14:25.999Z</time></trkpt><trkpt lat="45.91716089408026" lon="9.160443914673566"><ele>500.0</ele><time>2026-04-03T13:14:26.999Z</time></trkpt><trkpt lat="45.91726732874275" lon="9.160289599871689"><ele>500.0</ele><time>2026-04-03T13:14:27.999Z</time></trkpt><trkpt lat="45.91735526703862" lon="9.160111715946698"><ele>500.0</ele><time>2026-04-03T13:14:28.999Z</time></trkpt><trkpt lat="45.91742328483375" lon="9.159978622723557"><ele>500.0</ele><time>2026-04-03T13:14:29.999Z</time></trkpt><trkpt lat="45.91750159533146" lon="9.159845527582405"><ele>496.3333333333333</ele><time>2026-04-03T13:14:30.999Z</time></trkpt><trkpt lat="45.91759242272316" lon="9.159744412918819"><ele>492.66666666666663</ele><time>2026-04-03T13:14:31.999Z</time></trkpt><trkpt lat="45.91768566827779" lon="9.159694557237161"><ele>489.0</ele><time>2026-04-03T13:14:32.999Z</time></trkpt><trkpt lat="45.91776191784221" lon="9.159689489943567"><ele>485.33333333333337</ele><time>2026-04-03T13:14:33.999Z</time></trkpt><trkpt lat="45.91782394508044" lon="9.159604458464612"><ele>481.6666666666667</ele><time>2026-04-03T13:14:35.999Z</time></trkpt><trkpt lat="45.91777847525876" lon="9.159539754887039"><ele>478.0</ele><time>2026-04-03T13:14:36.999Z</time></trkpt><trkpt lat="45.917701142448415" lon="9.159527907599205"><ele>478.0</ele><time>2026-04-03T13:14:37.999Z</time></trkpt><trkpt lat="45.917626472232875" lon="9.159571406410784"><ele>477.99999999999994</ele><time>2026-04-03T13:14:38.999Z</time></trkpt><trkpt lat="45.91757694511949" lon="9.159667222291203"><ele>477.99999999999994</ele><time>2026-04-03T13:14:39.999Z</time></trkpt><trkpt lat="45.91750171088142" lon="9.159772051900767"><ele>478.0</ele><time>2026-04-03T13:14:40.999Z</time></trkpt><trkpt lat="45.91739520897835" lon="9.159865994598874"><ele>478.0</ele><time>2026-04-03T13:14:41.999Z</time></trkpt><trkpt lat="45.917290041842506" lon="9.159965447688688"><ele>483.5</ele><time>2026-04-03T13:14:42.999Z</time></trkpt><trkpt lat="45.91718890395419" lon="9.160069454678345"><ele>489.0</ele><time>2026-04-03T13:14:43.999Z</time></trkpt><trkpt lat="45.917091110826874" lon="9.160165740676247"><ele>494.5</ele><time>2026-04-03T13:14:44.999Z</time></trkpt><trkpt lat="45.91699339831929" lon="9.160241473989668"><ele>500.0</ele><time>2026-04-03T13:14:45.999Z</time></trkpt><trkpt lat="45.91689457885276" lon="9.160294449504928"><ele>500.0</ele><time>2026-04-03T13:14:46.999Z</time></trkpt><trkpt lat="45.91680377186228" lon="9.1603387314058"><ele>500.0</ele><time>2026-04-03T13:14:47.999Z</time></trkpt><trkpt lat="45.91669936923688" lon="9.160378596136095"><ele>500.0</ele><time>2026-04-03T13:14:48.999Z</time></trkpt><trkpt lat="45.916598433301424" lon="9.16044416942552"><ele>500.0</ele><time>2026-04-03T13:14:49.999Z</time></trkpt><trkpt lat="45.91649615216447" lon="9.160530864315126"><ele>500.0</ele><time>2026-04-03T13:14:50.999Z</time></trkpt><trkpt lat="45.916414092716785" lon="9.160624057509779"><ele>500.6</ele><time>2026-04-03T13:14:51.999Z</time></trkpt><trkpt lat="45.91633618949931" lon="9.160703212424757"><ele>501.2</ele><time>2026-04-03T13:14:52.999Z</time></trkpt><trkpt lat="45.916263130527796" lon="9.160762203399788"><ele>501.79999999999995</ele><time>2026-04-03T13:14:53.999Z</time></trkpt><trkpt lat="45.91618252107485" lon="9.160803673601277"><ele>502.4</ele><time>2026-04-03T13:14:54.999Z</time></trkpt><trkpt lat="45.916084718773426" lon="9.160804661412737"><ele>503.0</ele><time>2026-04-03T13:14:55.999Z</time></trkpt><trkpt lat="45.915963270240944" lon="9.160765206608696"><ele>484.66666666666663</ele><time>2026-04-03T13:14:56.999Z</time></trkpt><trkpt lat="45.91583172913874" lon="9.160681054664957"><ele>466.33333333333337</ele><time>2026-04-03T13:14:57.999Z</time></trkpt><trkpt lat="45.915690076804964" lon="9.160607659052637"><ele>448.0</ele><time>2026-04-03T13:14:58.999Z</time></trkpt><trkpt lat="45.91553079796631" lon="9.160572821471522"><ele>448.0</ele><time>2026-04-03T13:14:59.999Z</time></trkpt><trkpt lat="45.91537083110536" lon="9.16056881149933"><ele>448.0</ele><time>2026-04-03T13:15:00.999Z</time></trkpt><trkpt lat="45.91521560603178" lon="9.160555479405266"><ele>448.0</ele><time>2026-04-03T13:15:01.999Z</time></trkpt><trkpt lat="45.91506571359508" lon="9.160513224330861"><ele>446.2</ele><time>2026-04-03T13:15:02.999Z</time></trkpt><trkpt lat="45.914954381935594" lon="9.160527098439198"><ele>444.4</ele><time>2026-04-03T13:15:03.999Z</time></trkpt><trkpt lat="45.91483933058704" lon="9.160474372487364"><ele>442.59999999999997</ele><time>2026-04-03T13:15:04.999Z</time></trkpt><trkpt lat="45.91474131609612" lon="9.160461283996467"><ele>440.79999999999995</ele><time>2026-04-03T13:15:05.999Z</time></trkpt><trkpt lat="45.914652911055086" lon="9.16046448225627"><ele>439.0</ele><time>2026-04-03T13:15:06.999Z</time></trkpt><trkpt lat="45.914586209116955" lon="9.160493083316066"><ele>439.00000000000006</ele><time>2026-04-03T13:15:07.999Z</time></trkpt><trkpt lat="45.91450321147587" lon="9.160439969362299"><ele>439.0</ele><time>2026-04-03T13:15:09.999Z</time></trkpt><trkpt lat="45.91451231545404" lon="9.160350002000664"><ele>439.0</ele><time>2026-04-03T13:15:10.999Z</time></trkpt><trkpt lat="45.91460260461107" lon="9.160305978563557"><ele>439.0</ele><time>2026-04-03T13:15:11.999Z</time></trkpt><trkpt lat="45.91468440904058" lon="9.16032016218226"><ele>439.00000000000006</ele><time>2026-04-03T13:15:12.999Z</time></trkpt><trkpt lat="45.91477866494664" lon="9.16037802619864"><ele>439.0</ele><time>2026-04-03T13:15:13.999Z</time></trkpt><trkpt lat="45.91487918792885" lon="9.16042095775088"><ele>439.0</ele><time>2026-04-03T13:15:14.998Z</time></trkpt><trkpt lat="45.91501508405291" lon="9.160395521318335"><ele>439.0</ele><time>2026-04-03T13:15:15.998Z</time></trkpt><trkpt lat="45.9151690460867" lon="9.16034440319357"><ele>439.0</ele><time>2026-04-03T13:15:16.998Z</time></trkpt><trkpt lat="45.91531702755794" lon="9.160308728514556"><ele>439.0</ele><time>2026-04-03T13:15:17.998Z</time></trkpt><trkpt lat="45.91544462404249" lon="9.160290844877885"><ele>441.25</ele><time>2026-04-03T13:15:18.998Z</time></trkpt><trkpt lat="45.915562146278894" lon="9.160288064628055"><ele>443.5</ele><time>2026-04-03T13:15:19.998Z</time></trkpt><trkpt lat="45.915693687551226" lon="9.16030026796938"><ele>445.75</ele><time>2026-04-03T13:15:20.998Z</time></trkpt><trkpt lat="45.91582100483047" lon="9.160304207584911"><ele>448.0</ele><time>2026-04-03T13:15:21.998Z</time></trkpt><trkpt lat="45.915924658192736" lon="9.160314741101358"><ele>450.83333333333337</ele><time>2026-04-03T13:15:22.998Z</time></trkpt><trkpt lat="45.91600955728474" lon="9.16031131380882"><ele>453.6666666666667</ele><time>2026-04-03T13:15:23.998Z</time></trkpt><trkpt lat="45.91607565908591" lon="9.16024505178798"><ele>456.5</ele><time>2026-04-03T13:15:24.998Z</time></trkpt><trkpt lat="45.91611172278177" lon="9.16013728357451"><ele>459.33333333333337</ele><time>2026-04-03T13:15:25.998Z</time></trkpt><trkpt lat="45.91614605844581" lon="9.160035529753971"><ele>462.1666666666667</ele><time>2026-04-03T13:15:26.998Z</time></trkpt><trkpt lat="45.91621407577677" lon="9.159967294095411"><ele>465.0</ele><time>2026-04-03T13:15:27.998Z</time></trkpt><trkpt lat="45.9163296036829" lon="9.159922136812382"><ele>465.0</ele><time>2026-04-03T13:15:28.998Z</time></trkpt><trkpt lat="45.916465630117564" lon="9.159870795475321"><ele>465.0</ele><time>2026-04-03T13:15:29.998Z</time></trkpt><trkpt lat="45.91658331595814" lon="9.15977556358501"><ele>465.0</ele><time>2026-04-03T13:15:30.998Z</time></trkpt><trkpt lat="45.91668149413097" lon="9.1596426828875"><ele>465.0</ele><time>2026-04-03T13:15:31.998Z</time></trkpt><trkpt lat="45.91676414598487" lon="9.159511159383369"><ele>465.2</ele><time>2026-04-03T13:15:32.998Z</time></trkpt><trkpt lat="45.91684483094279" lon="9.159412588516728"><ele>465.4</ele><time>2026-04-03T13:15:33.998Z</time></trkpt><trkpt lat="45.91692253199388" lon="9.159327878642955"><ele>465.6</ele><time>2026-04-03T13:15:34.998Z</time></trkpt><trkpt lat="45.91697476517216" lon="9.159244749443129"><ele>465.8</ele><time>2026-04-03T13:15:35.998Z</time></trkpt><trkpt lat="45.916992933219596" lon="9.159138069654112"><ele>466.0</ele><time>2026-04-03T13:15:36.998Z</time></trkpt><trkpt lat="45.91695686756361" lon="9.15898402294296"><ele>461.4</ele><time>2026-04-03T13:15:37.998Z</time></trkpt><trkpt lat="45.91687938288937" lon="9.158832429754389"><ele>456.8</ele><time>2026-04-03T13:15:38.998Z</time></trkpt><trkpt lat="45.91684035651301" lon="9.158712367651978"><ele>452.19999999999993</ele><time>2026-04-03T13:15:39.998Z</time></trkpt><trkpt lat="45.916865249249234" lon="9.15858334734295"><ele>447.59999999999997</ele><time>2026-04-03T13:15:40.998Z</time></trkpt><trkpt lat="45.91689746800668" lon="9.15844664951528"><ele>443.0</ele><time>2026-04-03T13:15:41.998Z</time></trkpt><trkpt lat="45.91690717309307" lon="9.158319113485073"><ele>435.25</ele><time>2026-04-03T13:15:42.998Z</time></trkpt><trkpt lat="45.91693686421154" lon="9.158197057838743"><ele>427.5</ele><time>2026-04-03T13:15:43.998Z</time></trkpt><trkpt lat="45.917008650428734" lon="9.158024053004613"><ele>419.75</ele><time>2026-04-03T13:15:44.998Z</time></trkpt><trkpt lat="45.91711017438195" lon="9.157947469612962"><ele>412.0</ele><time>2026-04-03T13:15:45.998Z</time></trkpt><trkpt lat="45.917218399947714" lon="9.157918654542419"><ele>412.0</ele><time>2026-04-03T13:15:46.998Z</time></trkpt><trkpt lat="45.91733085985923" lon="9.15790537070132"><ele>412.0</ele><time>2026-04-03T13:15:47.998Z</time></trkpt><trkpt lat="45.91743991288811" lon="9.157899775164188"><ele>412.0</ele><time>2026-04-03T13:15:48.998Z</time></trkpt><trkpt lat="45.917549658997345" lon="9.157880339579698"><ele>412.0</ele><time>2026-04-03T13:15:49.998Z</time></trkpt><trkpt lat="45.917664456665236" lon="9.157840758566538"><ele>409.6</ele><time>2026-04-03T13:15:51Z</time></trkpt><trkpt lat="45.917762540620274" lon="9.157836945164117"><ele>407.20000000000005</ele><time>2026-04-03T13:15:52Z</time></trkpt><trkpt lat="45.91782958132564" lon="9.15780968397421"><ele>404.8</ele><time>2026-04-03T13:15:53Z</time></trkpt><trkpt lat="45.91792463700137" lon="9.157877063211956"><ele>402.4</ele><time>2026-04-03T13:15:54Z</time></trkpt><trkpt lat="45.91799249779988" lon="9.157934014437147"><ele>400.0</ele><time>2026-04-03T13:15:55Z</time></trkpt><trkpt lat="45.91808181095773" lon="9.158040064704691"><ele>400.0</ele><time>2026-04-03T13:15:57Z</time></trkpt><trkpt lat="45.91817016415629" lon="9.157986835508366"><ele>400.0</ele><time>2026-04-03T13:15:59Z</time></trkpt><trkpt lat="45.91812029511978" lon="9.157844222739527"><ele>400.0</ele><time>2026-04-03T13:16:01Z</time></trkpt><trkpt lat="45.91804886935357" lon="9.157817300174006"><ele>400.0</ele><time>2026-04-03T13:16:02Z</time></trkpt><trkpt lat="45.91796233116967" lon="9.157816691669874"><ele>400.0</ele><time>2026-04-03T13:16:03Z</time></trkpt><trkpt lat="45.917863409722145" lon="9.157789029659591"><ele>400.0</ele><time>2026-04-03T13:16:04Z</time></trkpt><trkpt lat="45.91777350392036" lon="9.157719967604997"><ele>400.0</ele><time>2026-04-03T13:16:05Z</time></trkpt><trkpt lat="45.91770207233516" lon="9.157636444675598"><ele>400.0</ele><time>2026-04-03T13:16:06Z</time></trkpt><trkpt lat="45.91762811241389" lon="9.15758902018213"><ele>400.0</ele><time>2026-04-03T13:16:07Z</time></trkpt><trkpt lat="45.91751340416089" lon="9.157592777171077"><ele>400.0</ele><time>2026-04-03T13:16:08Z</time></trkpt><trkpt lat="45.917369715643716" lon="9.157608968815945"><ele>402.4</ele><time>2026-04-03T13:16:09Z</time></trkpt><trkpt lat="45.91724563246888" lon="9.157615256952795"><ele>404.8</ele><time>2026-04-03T13:16:10Z</time></trkpt><trkpt lat="45.917144937336424" lon="9.157602264593999"><ele>407.20000000000005</ele><time>2026-04-03T13:16:11Z</time></trkpt><trkpt lat="45.91704644985902" lon="9.1576063886236"><ele>409.6</ele><time>2026-04-03T13:16:12Z</time></trkpt><trkpt lat="45.916945774178245" lon="9.157650730980079"><ele>412.0</ele><time>2026-04-03T13:16:13Z</time></trkpt><trkpt lat="45.91684030999314" lon="9.157712340476744"><ele>407.20000000000005</ele><time>2026-04-03T13:16:14Z</time></trkpt><trkpt lat="45.91673542662033" lon="9.157794253337325"><ele>402.4</ele><time>2026-04-03T13:16:15Z</time></trkpt><trkpt lat="45.916645594130614" lon="9.157882468851064"><ele>397.6</ele><time>2026-04-03T13:16:16Z</time></trkpt><trkpt lat="45.91656536264744" lon="9.157997850836297"><ele>392.79999999999995</ele><time>2026-04-03T13:16:17Z</time></trkpt><trkpt lat="45.916492873795995" lon="9.158093135912168"><ele>388.0</ele><time>2026-04-03T13:16:18Z</time></trkpt><trkpt lat="45.91643376146075" lon="9.158201468239104"><ele>395.0</ele><time>2026-04-03T13:16:19Z</time></trkpt><trkpt lat="45.9163948314468" lon="9.158373057443217"><ele>402.0</ele><time>2026-04-03T13:16:20Z</time></trkpt><trkpt lat="45.91635238087391" lon="9.158550294313105"><ele>409.0</ele><time>2026-04-03T13:16:21Z</time></trkpt><trkpt lat="45.91630795832643" lon="9.158685362176598"><ele>416.0</ele><time>2026-04-03T13:16:22Z</time></trkpt><trkpt lat="45.916262018291675" lon="9.158796611203943"><ele>416.0</ele><time>2026-04-03T13:16:22.999Z</time></trkpt><trkpt lat="45.91617839418714" lon="9.15887214583887"><ele>416.0</ele><time>2026-04-03T13:16:23.999Z</time></trkpt><trkpt lat="45.91606190660822" lon="9.158892871990911"><ele>416.0</ele><time>2026-04-03T13:16:24.999Z</time></trkpt><trkpt lat="45.9159246433489" lon="9.15885801459902"><ele>416.0</ele><time>2026-04-03T13:16:25.999Z</time></trkpt><trkpt lat="45.915796092346845" lon="9.158812330635259"><ele>408.75</ele><time>2026-04-03T13:16:26.999Z</time></trkpt><trkpt lat="45.915691357509935" lon="9.158752484969922"><ele>401.5</ele><time>2026-04-03T13:16:27.999Z</time></trkpt><trkpt lat="45.91559287906162" lon="9.158649382829468"><ele>394.25</ele><time>2026-04-03T13:16:28.999Z</time></trkpt><trkpt lat="45.91551019797736" lon="9.158513021609137"><ele>387.0</ele><time>2026-04-03T13:16:29.999Z</time></trkpt><trkpt lat="45.91543979692259" lon="9.158411716905842"><ele>387.0</ele><time>2026-04-03T13:16:30.999Z</time></trkpt><trkpt lat="45.915335013150695" lon="9.158369331822698"><ele>387.0</ele><time>2026-04-03T13:16:31.999Z</time></trkpt><trkpt lat="45.91522200516274" lon="9.158367647344749"><ele>387.0</ele><time>2026-04-03T13:16:32.999Z</time></trkpt><trkpt lat="45.91509114517761" lon="9.158445819882592"><ele>387.0</ele><time>2026-04-03T13:16:33.999Z</time></trkpt><trkpt lat="45.91497214685394" lon="9.158520046256221"><ele>386.8333333333333</ele><time>2026-04-03T13:16:34.999Z</time></trkpt><trkpt lat="45.91488981146987" lon="9.158580964822166"><ele>386.66666666666663</ele><time>2026-04-03T13:16:35.999Z</time></trkpt><trkpt lat="45.91481188281358" lon="9.158578160997964"><ele>386.5</ele><time>2026-04-03T13:16:36.999Z</time></trkpt><trkpt lat="45.91473726123778" lon="9.158546806566314"><ele>386.3333333333333</ele><time>2026-04-03T13:16:37.999Z</time></trkpt><trkpt lat="45.914658110243785" lon="9.15847079713834"><ele>386.16666666666663</ele><time>2026-04-03T13:16:38.999Z</time></trkpt><trkpt lat="45.914587704325456" lon="9.158400538589301"><ele>386.0</ele><time>2026-04-03T13:16:39.999Z</time></trkpt><trkpt lat="45.914506885331484" lon="9.158384483472865"><ele>386.0</ele><time>2026-04-03T13:16:40.999Z</time></trkpt><trkpt lat="45.91440363960907" lon="9.158420487443477"><ele>386.0</ele><time>2026-04-03T13:16:41.999Z</time></trkpt><trkpt lat="45.914281915387576" lon="9.158497466507939"><ele>386.0</ele><time>2026-04-03T13:16:42.999Z</time></trkpt><trkpt lat="45.914154659235805" lon="9.15857325052196"><ele>386.0</ele><time>2026-04-03T13:16:43.999Z</time></trkpt><trkpt lat="45.91402996232009" lon="9.158637328584351"><ele>383.6</ele><time>2026-04-03T13:16:44.999Z</time></trkpt><trkpt lat="45.913917654285775" lon="9.158696860964346"><ele>381.20000000000005</ele><time>2026-04-03T13:16:45.999Z</time></trkpt><trkpt lat="45.91381784320955" lon="9.158731461450186"><ele>378.79999999999995</ele><time>2026-04-03T13:16:46.999Z</time></trkpt><trkpt lat="45.91371627009042" lon="9.158737644557498"><ele>376.4</ele><time>2026-04-03T13:16:47.999Z</time></trkpt><trkpt lat="45.91360765105781" lon="9.158697302678926"><ele>374.0</ele><time>2026-04-03T13:16:48.999Z</time></trkpt><trkpt lat="45.91349085952931" lon="9.158622284947294"><ele>372.5</ele><time>2026-04-03T13:16:49.999Z</time></trkpt><trkpt lat="45.913381408864225" lon="9.158558675889733"><ele>371.0</ele><time>2026-04-03T13:16:50.999Z</time></trkpt><trkpt lat="45.91326534741444" lon="9.158533174698867"><ele>369.5</ele><time>2026-04-03T13:16:51.999Z</time></trkpt><trkpt lat="45.91313653295771" lon="9.15854110832081"><ele>368.0</ele><time>2026-04-03T13:16:52.999Z</time></trkpt><trkpt lat="45.91299940077725" lon="9.158561802132796"><ele>368.0</ele><time>2026-04-03T13:16:53.999Z</time></trkpt><trkpt lat="45.912854412935275" lon="9.158602500869511"><ele>368.0</ele><time>2026-04-03T13:16:54.999Z</time></trkpt><trkpt lat="45.912708562358844" lon="9.158648968849583"><ele>368.0</ele><time>2026-04-03T13:16:55.999Z</time></trkpt><trkpt lat="45.91257722849679" lon="9.158673477478777"><ele>368.0</ele><time>2026-04-03T13:16:56.999Z</time></trkpt><trkpt lat="45.91247013856747" lon="9.158703228139052"><ele>366.0</ele><time>2026-04-03T13:16:57.999Z</time></trkpt><trkpt lat="45.912380990501646" lon="9.158730532187677"><ele>364.0</ele><time>2026-04-03T13:16:58.999Z</time></trkpt><trkpt lat="45.91229104571087" lon="9.158760574381905"><ele>362.0</ele><time>2026-04-03T13:16:59.999Z</time></trkpt><trkpt lat="45.91219770806058" lon="9.158794606559347"><ele>360.0</ele><time>2026-04-03T13:17:00.999Z</time></trkpt><trkpt lat="45.91209844491976" lon="9.158867988012817"><ele>358.0</ele><time>2026-04-03T13:17:01.999Z</time></trkpt><trkpt lat="45.9119868865288" lon="9.158947588241958"><ele>359.0</ele><time>2026-04-03T13:17:02.999Z</time></trkpt><trkpt lat="45.91186761357666" lon="9.159042369383911"><ele>360.0</ele><time>2026-04-03T13:17:03.999Z</time></trkpt><trkpt lat="45.91175089881254" lon="9.159125151363744"><ele>361.0</ele><time>2026-04-03T13:17:04.999Z</time></trkpt><trkpt lat="45.91164041149155" lon="9.159192486109195"><ele>362.0</ele><time>2026-04-03T13:17:05.999Z</time></trkpt><trkpt lat="45.91153848321453" lon="9.159241372069806"><ele>362.0</ele><time>2026-04-03T13:17:06.999Z</time></trkpt><trkpt lat="45.91144023261711" lon="9.159277182228937"><ele>362.0</ele><time>2026-04-03T13:17:07.999Z</time></trkpt><trkpt lat="45.9113525724717" lon="9.159308546624418"><ele>362.0</ele><time>2026-04-03T13:17:08.999Z</time></trkpt><trkpt lat="45.91125837295582" lon="9.159325194234459"><ele>362.0</ele><time>2026-04-03T13:17:09.999Z</time></trkpt><trkpt lat="45.9111677477194" lon="9.159319122987275"><ele>362.0</ele><time>2026-04-03T13:17:10.999Z</time></trkpt><trkpt lat="45.91107551815557" lon="9.159292096659183"><ele>362.0</ele><time>2026-04-03T13:17:11.999Z</time></trkpt><trkpt lat="45.910998692406864" lon="9.159237066273647"><ele>362.0</ele><time>2026-04-03T13:17:12.999Z</time></trkpt><trkpt lat="45.91092240115147" lon="9.159176120986373"><ele>362.0</ele><time>2026-04-03T13:17:13.999Z</time></trkpt><trkpt lat="45.910826708417" lon="9.159143013696212"><ele>362.0</ele><time>2026-04-03T13:17:14.999Z</time></trkpt><trkpt lat="45.91072457821449" lon="9.15914428631931"><ele>362.0</ele><time>2026-04-03T13:17:15.999Z</time></trkpt><trkpt lat="45.91064049222068" lon="9.15917425938704"><ele>359.8</ele><time>2026-04-03T13:17:16.998Z</time></trkpt><trkpt lat="45.91057746051911" lon="9.159229235305176"><ele>357.6</ele><time>2026-04-03T13:17:17.998Z</time></trkpt><trkpt lat="45.91049830771464" lon="9.15927489349778"><ele>355.40000000000003</ele><time>2026-04-03T13:17:19.998Z</time></trkpt><trkpt lat="45.910482084620575" lon="9.15914824264808"><ele>353.20000000000005</ele><time>2026-04-03T13:17:21.998Z</time></trkpt><trkpt lat="45.910600511522325" lon="9.159078096034976"><ele>351.0</ele><time>2026-04-03T13:17:23.998Z</time></trkpt><trkpt lat="45.91067329866576" lon="9.159050746727544"><ele>349.0</ele><time>2026-04-03T13:17:24.998Z</time></trkpt><trkpt lat="45.91076211113015" lon="9.159011835347323"><ele>347.0</ele><time>2026-04-03T13:17:25.998Z</time></trkpt><trkpt lat="45.91086506448907" lon="9.158963760730227"><ele>345.0</ele><time>2026-04-03T13:17:26.998Z</time></trkpt><trkpt lat="45.910976828489424" lon="9.158906471787914"><ele>343.0</ele><time>2026-04-03T13:17:27.998Z</time></trkpt><trkpt lat="45.91109144472441" lon="9.158846943001581"><ele>341.0</ele><time>2026-04-03T13:17:28.998Z</time></trkpt><trkpt lat="45.91120703211843" lon="9.158785177300265"><ele>341.0</ele><time>2026-04-03T13:17:29.998Z</time></trkpt><trkpt lat="45.911327567109474" lon="9.15872581187455"><ele>341.0</ele><time>2026-04-03T13:17:30.998Z</time></trkpt><trkpt lat="45.91144492460325" lon="9.158669151966087"><ele>341.0</ele><time>2026-04-03T13:17:31.998Z</time></trkpt><trkpt lat="45.911557570044195" lon="9.15860210211875"><ele>341.0</ele><time>2026-04-03T13:17:32.998Z</time></trkpt><trkpt lat="45.911660956102544" lon="9.158532429420825"><ele>339.75</ele><time>2026-04-03T13:17:33.998Z</time></trkpt><trkpt lat="45.91175216519012" lon="9.15845878001087"><ele>338.5</ele><time>2026-04-03T13:17:34.998Z</time></trkpt><trkpt lat="45.91184348479277" lon="9.158380457831539"><ele>337.25</ele><time>2026-04-03T13:17:35.998Z</time></trkpt><trkpt lat="45.91193718882021" lon="9.158281336083808"><ele>336.0</ele><time>2026-04-03T13:17:36.998Z</time></trkpt><trkpt lat="45.912025065151276" lon="9.158153705831133"><ele>336.0</ele><time>2026-04-03T13:17:37.998Z</time></trkpt><trkpt lat="45.91210919633151" lon="9.158026676915723"><ele>336.0</ele><time>2026-04-03T13:17:38.998Z</time></trkpt><trkpt lat="45.91219388337759" lon="9.15789419074326"><ele>336.0</ele><time>2026-04-03T13:17:39.998Z</time></trkpt><trkpt lat="45.91228089913175" lon="9.157771206039085"><ele>336.0</ele><time>2026-04-03T13:17:40.998Z</time></trkpt><trkpt lat="45.912353860783284" lon="9.157654257555716"><ele>336.0</ele><time>2026-04-03T13:17:41.998Z</time></trkpt><trkpt lat="45.912419587323626" lon="9.15755601202368"><ele>336.0</ele><time>2026-04-03T13:17:42.998Z</time></trkpt><trkpt lat="45.91247431930623" lon="9.157465715777919"><ele>336.0</ele><time>2026-04-03T13:17:43.998Z</time></trkpt><trkpt lat="45.912522394169336" lon="9.157393835533135"><ele>336.0</ele><time>2026-04-03T13:17:44.998Z</time></trkpt><trkpt lat="45.9125977985453" lon="9.157326516970624"><ele>336.0</ele><time>2026-04-03T13:17:46.998Z</time></trkpt><trkpt lat="45.91258748782633" lon="9.157234981860569"><ele>336.0</ele><time>2026-04-03T13:17:53.998Z</time></trkpt><trkpt lat="45.912507661146186" lon="9.157250611082974"><ele>336.0</ele><time>2026-04-03T13:17:57Z</time></trkpt><trkpt lat="45.912454273262846" lon="9.157330088666875"><ele>336.0</ele><time>2026-04-03T13:17:58Z</time></trkpt><trkpt lat="45.91240295695659" lon="9.157444078438342"><ele>336.0</ele><time>2026-04-03T13:17:59Z</time></trkpt><trkpt lat="45.91234578697851" lon="9.157533570661583"><ele>336.0</ele><time>2026-04-03T13:18:00Z</time></trkpt><trkpt lat="45.912290244491416" lon="9.157592356214522"><ele>336.0</ele><time>2026-04-03T13:18:01Z</time></trkpt><trkpt lat="45.912199557951574" lon="9.15765849844056"><ele>336.0</ele><time>2026-04-03T13:18:03Z</time></trkpt><trkpt lat="45.91207632125824" lon="9.15768172307472"><ele>336.0</ele><time>2026-04-03T13:18:05Z</time></trkpt><trkpt lat="45.91198955590586" lon="9.157672360148275"><ele>336.0</ele><time>2026-04-03T13:18:06Z</time></trkpt><trkpt lat="45.911917898555316" lon="9.15765072661086"><ele>336.0</ele><time>2026-04-03T13:18:07Z</time></trkpt><trkpt lat="45.91185141128063" lon="9.157618562681616"><ele>336.0</ele><time>2026-04-03T13:18:08Z</time></trkpt><trkpt lat="45.91177527062868" lon="9.157586326580757"><ele>336.0</ele><time>2026-04-03T13:18:09Z</time></trkpt><trkpt lat="45.91170322166278" lon="9.157554607078968"><ele>336.0</ele><time>2026-04-03T13:18:10Z</time></trkpt><trkpt lat="45.91164217682941" lon="9.157515427688711"><ele>333.8333333333333</ele><time>2026-04-03T13:18:11Z</time></trkpt><trkpt lat="45.91158549513917" lon="9.157465985773912"><ele>331.6666666666667</ele><time>2026-04-03T13:18:12Z</time></trkpt><trkpt lat="45.91151665924941" lon="9.157387961880914"><ele>329.5</ele><time>2026-04-03T13:18:14Z</time></trkpt><trkpt lat="45.91141935458606" lon="9.157298067006383"><ele>327.33333333333337</ele><time>2026-04-03T13:18:17Z</time></trkpt><trkpt lat="45.91132783327244" lon="9.15723816461889"><ele>325.1666666666667</ele><time>2026-04-03T13:18:19Z</time></trkpt><trkpt lat="45.91128423903324" lon="9.157172692566785"><ele>323.0</ele><time>2026-04-03T13:18:21Z</time></trkpt><trkpt lat="45.911301794257035" lon="9.157068261739578"><ele>322.33333333333337</ele><time>2026-04-03T13:18:23Z</time></trkpt><trkpt lat="45.91136052240423" lon="9.156952047278747"><ele>321.6666666666667</ele><time>2026-04-03T13:18:25Z</time></trkpt><trkpt lat="45.911398726531495" lon="9.156871954221245"><ele>321.0</ele><time>2026-04-03T13:18:26.999Z</time></trkpt><trkpt lat="45.911447854547596" lon="9.156788471594371"><ele>320.3333333333333</ele><time>2026-04-03T13:18:28.999Z</time></trkpt><trkpt lat="45.911532761928186" lon="9.156723317126362"><ele>319.66666666666663</ele><time>2026-04-03T13:18:30.999Z</time></trkpt><trkpt lat="45.91163493299528" lon="9.156677893875834"><ele>319.0</ele><time>2026-04-03T13:18:32.999Z</time></trkpt><trkpt lat="45.91174751275248" lon="9.156614018215508"><ele>314.4</ele><time>2026-04-03T13:18:34.999Z</time></trkpt><trkpt lat="45.91183552534888" lon="9.156508285557953"><ele>309.79999999999995</ele><time>2026-04-03T13:18:36.999Z</time></trkpt><trkpt lat="45.91190130306801" lon="9.156415329717028"><ele>305.20000000000005</ele><time>2026-04-03T13:18:38.999Z</time></trkpt><trkpt lat="45.911962563254825" lon="9.156332887987816"><ele>300.6</ele><time>2026-04-03T13:18:40.999Z</time></trkpt><trkpt lat="45.91204815005799" lon="9.156232480668054"><ele>296.0</ele><time>2026-04-03T13:18:42.999Z</time></trkpt><trkpt lat="45.912121697579444" lon="9.156128724446093"><ele>296.0</ele><time>2026-04-03T13:18:44.999Z</time></trkpt><trkpt lat="45.9122032358617" lon="9.156012139509219"><ele>296.0</ele><time>2026-04-03T13:18:46.999Z</time></trkpt><trkpt lat="45.912280597527136" lon="9.155912548611367"><ele>296.0</ele><time>2026-04-03T13:18:48.999Z</time></trkpt><trkpt lat="45.91235462333444" lon="9.155847341841342"><ele>296.0</ele><time>2026-04-03T13:18:50.999Z</time></trkpt><trkpt lat="45.91242236773523" lon="9.155815133301315"><ele>296.0</ele><time>2026-04-03T13:18:52.999Z</time></trkpt><trkpt lat="45.912506678106645" lon="9.1558171040782"><ele>298.2</ele><time>2026-04-03T13:18:54.999Z</time></trkpt><trkpt lat="45.91261135271545" lon="9.155860742327011"><ele>300.40000000000003</ele><time>2026-04-03T13:18:56.999Z</time></trkpt><trkpt lat="45.912696287827785" lon="9.155861672521551"><ele>302.6</ele><time>2026-04-03T13:18:58.999Z</time></trkpt><trkpt lat="45.91275664000278" lon="9.155771523536515"><ele>304.8</ele><time>2026-04-03T13:19:00.999Z</time></trkpt><trkpt lat="45.912815973618784" lon="9.155645523770499"><ele>307.0</ele><time>2026-04-03T13:19:02.999Z</time></trkpt><trkpt lat="45.91288780611374" lon="9.155512074459008"><ele>301.0</ele><time>2026-04-03T13:19:04.999Z</time></trkpt><trkpt lat="45.912924586194165" lon="9.155436487453752"><ele>295.0</ele><time>2026-04-03T13:19:05.999Z</time></trkpt><trkpt lat="45.91302893791653" lon="9.155223155842512"><ele>289.0</ele><time>2026-04-03T13:19:08.999Z</time></trkpt><trkpt lat="45.91310533047974" lon="9.15510701950746"><ele>283.0</ele><time>2026-04-03T13:19:10.999Z</time></trkpt><trkpt lat="45.91319699252494" lon="9.15503551997511"><ele>283.0</ele><time>2026-04-03T13:19:12.999Z</time></trkpt><trkpt lat="45.91328116358534" lon="9.154995624193184"><ele>283.0</ele><time>2026-04-03T13:19:14.999Z</time></trkpt><trkpt lat="45.913399968434774" lon="9.154972504392548"><ele>283.0</ele><time>2026-04-03T13:19:16.999Z</time></trkpt><trkpt lat="45.9135242243668" lon="9.154944235527928"><ele>283.0</ele><time>2026-04-03T13:19:18.999Z</time></trkpt><trkpt lat="45.913586365943395" lon="9.154925821119056"><ele>283.0</ele><time>2026-04-03T13:19:19.999Z</time></trkpt><trkpt lat="45.913709089137654" lon="9.154895262162432"><ele>283.4</ele><time>2026-04-03T13:19:21.999Z</time></trkpt><trkpt lat="45.91382806200681" lon="9.154894003054617"><ele>283.8</ele><time>2026-04-03T13:19:23.998Z</time></trkpt><trkpt lat="45.913949642728994" lon="9.15490535163282"><ele>284.2</ele><time>2026-04-03T13:19:25.998Z</time></trkpt><trkpt lat="45.91401243982619" lon="9.154895673943471"><ele>284.6</ele><time>2026-04-03T13:19:26.998Z</time></trkpt><trkpt lat="45.914073257602276" lon="9.154870825560344"><ele>285.0</ele><time>2026-04-03T13:19:27.998Z</time></trkpt><trkpt lat="45.91417761327267" lon="9.154824110533156"><ele>284.8</ele><time>2026-04-03T13:19:29.998Z</time></trkpt><trkpt lat="45.91427060518846" lon="9.15477566731754"><ele>284.6</ele><time>2026-04-03T13:19:31.998Z</time></trkpt><trkpt lat="45.91436989239125" lon="9.154798494922375"><ele>284.4</ele><time>2026-04-03T13:19:33.998Z</time></trkpt><trkpt lat="45.91446734726895" lon="9.15487939906246"><ele>284.2</ele><time>2026-04-03T13:19:35.998Z</time></trkpt><trkpt lat="45.914549966263884" lon="9.154937310263456"><ele>284.0</ele><time>2026-04-03T13:19:37.998Z</time></trkpt><trkpt lat="45.914604998211125" lon="9.154849674065055"><ele>279.4</ele><time>2026-04-03T13:19:43.998Z</time></trkpt><trkpt lat="45.91453123168391" lon="9.154742132050755"><ele>274.79999999999995</ele><time>2026-04-03T13:19:45.998Z</time></trkpt><trkpt lat="45.9144287907581" lon="9.154650013302176"><ele>270.20000000000005</ele><time>2026-04-03T13:19:47.998Z</time></trkpt><trkpt lat="45.91436607125467" lon="9.15460679677091"><ele>265.6</ele><time>2026-04-03T13:19:48.998Z</time></trkpt><trkpt lat="45.914304555751144" lon="9.154583342652623"><ele>261.0</ele><time>2026-04-03T13:19:49.998Z</time></trkpt><trkpt lat="45.91419443171622" lon="9.154530204113744"><ele>260.25</ele><time>2026-04-03T13:19:51.998Z</time></trkpt><trkpt lat="45.91409919360814" lon="9.154505099642897"><ele>259.5</ele><time>2026-04-03T13:19:53.998Z</time></trkpt><trkpt lat="45.913955427792956" lon="9.154412598094066"><ele>258.75</ele><time>2026-04-03T13:19:55.998Z</time></trkpt><trkpt lat="45.91385820809952" lon="9.154358995836036"><ele>258.0</ele><time>2026-04-03T13:19:57.998Z</time></trkpt><trkpt lat="45.91374275261846" lon="9.154299721703776"><ele>258.0</ele><time>2026-04-03T13:19:59.998Z</time></trkpt><trkpt lat="45.91365599004524" lon="9.154288794947812"><ele>258.0</ele><time>2026-04-03T13:20:00.998Z</time></trkpt><trkpt lat="45.913556717069326" lon="9.154312196422296"><ele>258.0</ele><time>2026-04-03T13:20:01.999Z</time></trkpt><trkpt lat="45.913466657707325" lon="9.154348951068402"><ele>258.0</ele><time>2026-04-03T13:20:02.999Z</time></trkpt><trkpt lat="45.91336603719135" lon="9.154384085863569"><ele>258.0</ele><time>2026-04-03T13:20:03.999Z</time></trkpt><trkpt lat="45.913267479270665" lon="9.154430256127366"><ele>256.0</ele><time>2026-04-03T13:20:04.999Z</time></trkpt><trkpt lat="45.91316793591209" lon="9.154503894187059"><ele>254.0</ele><time>2026-04-03T13:20:05.999Z</time></trkpt><trkpt lat="45.91307089270058" lon="9.154588565367458"><ele>252.0</ele><time>2026-04-03T13:20:06.999Z</time></trkpt><trkpt lat="45.91297027281695" lon="9.1546693117074"><ele>250.0</ele><time>2026-04-03T13:20:07.999Z</time></trkpt><trkpt lat="45.91287417797355" lon="9.15475542678137"><ele>250.0</ele><time>2026-04-03T13:20:08.999Z</time></trkpt><trkpt lat="45.912779155497105" lon="9.154835358077726"><ele>250.0</ele><time>2026-04-03T13:20:09.999Z</time></trkpt><trkpt lat="45.91269173193462" lon="9.15491466639447"><ele>250.0</ele><time>2026-04-03T13:20:10.999Z</time></trkpt><trkpt lat="45.912612847968326" lon="9.154987979582012"><ele>250.0</ele><time>2026-04-03T13:20:12Z</time></trkpt><trkpt lat="45.912533303475946" lon="9.1550575111389"><ele>250.0</ele><time>2026-04-03T13:20:12.999Z</time></trkpt><trkpt lat="45.91244872047032" lon="9.155105456246666"><ele>252.8</ele><time>2026-04-03T13:20:14Z</time></trkpt><trkpt lat="45.91236411551331" lon="9.155132516643778"><ele>255.6</ele><time>2026-04-03T13:20:15Z</time></trkpt><trkpt lat="45.91228604699832" lon="9.155156460062363"><ele>258.4</ele><time>2026-04-03T13:20:16Z</time></trkpt><trkpt lat="45.912175207001226" lon="9.155202943982122"><ele>261.2</ele><time>2026-04-03T13:20:18Z</time></trkpt><trkpt lat="45.912090482131276" lon="9.15522408123823"><ele>264.0</ele><time>2026-04-03T13:20:20.999Z</time></trkpt><trkpt lat="45.91202007749503" lon="9.155158712869929"><ele>264.0</ele><time>2026-04-03T13:20:28.999Z</time></trkpt><trkpt lat="45.91194682931961" lon="9.155186909774436"><ele>264.0</ele><time>2026-04-03T13:20:31.999Z</time></trkpt><trkpt lat="45.9118371566323" lon="9.155232385976873"><ele>264.0</ele><time>2026-04-03T13:21:08.999Z</time></trkpt><trkpt lat="45.91176140925485" lon="9.15526142073105"><ele>264.0</ele><time>2026-04-03T13:21:09.999Z</time></trkpt><trkpt lat="45.9116817325926" lon="9.15528922950583"><ele>264.0</ele><time>2026-04-03T13:21:10.999Z</time></trkpt><trkpt lat="45.9115918164112" lon="9.15529163363022"><ele>264.0</ele><time>2026-04-03T13:21:11.999Z</time></trkpt><trkpt lat="45.91150500760641" lon="9.155280919537642"><ele>259.5</ele><time>2026-04-03T13:21:12.999Z</time></trkpt><trkpt lat="45.911423291446134" lon="9.155293727237002"><ele>255.0</ele><time>2026-04-03T13:21:13.999Z</time></trkpt><trkpt lat="45.91135661910825" lon="9.15532098161633"><ele>250.5</ele><time>2026-04-03T13:21:14.999Z</time></trkpt><trkpt lat="45.91125689438854" lon="9.155377258601085"><ele>246.0</ele><time>2026-04-03T13:21:16.999Z</time></trkpt><trkpt lat="45.91117546700645" lon="9.155437680651772"><ele>241.5</ele><time>2026-04-03T13:21:18.999Z</time></trkpt><trkpt lat="45.91108986593873" lon="9.15549338916062"><ele>237.0</ele><time>2026-04-03T13:21:20.999Z</time></trkpt><trkpt lat="45.91100974100644" lon="9.15554865500471"><ele>237.0</ele><time>2026-04-03T13:21:22.999Z</time></trkpt><trkpt lat="45.91094356975763" lon="9.1555980392011"><ele>237.0</ele><time>2026-04-03T13:21:24.999Z</time></trkpt><trkpt lat="45.910865741067276" lon="9.155650158920468"><ele>237.0</ele><time>2026-04-03T13:21:26.998Z</time></trkpt><trkpt lat="45.910772551158935" lon="9.155698512820504"><ele>237.0</ele><time>2026-04-03T13:21:28.998Z</time></trkpt><trkpt lat="45.91066811725656" lon="9.155710542160262"><ele>237.0</ele><time>2026-04-03T13:21:30.998Z</time></trkpt><trkpt lat="45.910573645051805" lon="9.15573425669809"><ele>241.28571428571425</ele><time>2026-04-03T13:21:32.998Z</time></trkpt><trkpt lat="45.91049393050985" lon="9.15574851022548"><ele>245.57142857142856</ele><time>2026-04-03T13:21:34.998Z</time></trkpt><trkpt lat="45.91043105787393" lon="9.155764306496202"><ele>249.85714285714286</ele><time>2026-04-03T13:21:36.998Z</time></trkpt><trkpt lat="45.910354507756395" lon="9.155794922017192"><ele>254.14285714285714</ele><time>2026-04-03T13:21:46.998Z</time></trkpt><trkpt lat="45.910285064046576" lon="9.155835324202762"><ele>258.42857142857144</ele><time>2026-04-03T13:21:56.998Z</time></trkpt><trkpt lat="45.91021773513588" lon="9.155864100421"><ele>262.7142857142857</ele><time>2026-04-03T13:22:06.998Z</time></trkpt><trkpt lat="45.910145480981534" lon="9.155847778228601"><ele>267.0</ele><time>2026-04-03T13:22:13.999Z</time></trkpt><trkpt lat="45.910081613930686" lon="9.155816016639788"><ele>266.6666666666667</ele><time>2026-04-03T13:22:26.999Z</time></trkpt><trkpt lat="45.90999999575029" lon="9.155787491042165"><ele>266.3333333333333</ele><time>2026-04-03T13:22:56.999Z</time></trkpt><trkpt lat="45.90993818548611" lon="9.155751477344298"><ele>266.0</ele><time>2026-04-03T13:22:59.999Z</time></trkpt><trkpt lat="45.90988694105961" lon="9.155689202048922"><ele>265.66666666666663</ele><time>2026-04-03T13:23:24.999Z</time></trkpt><trkpt lat="45.909853661188" lon="9.155560357551023"><ele>265.3333333333333</ele><time>2026-04-03T13:23:27.999Z</time></trkpt><trkpt lat="45.909823482873215" lon="9.155461873161276"><ele>265.0</ele><time>2026-04-03T13:23:29.999Z</time></trkpt><trkpt lat="45.90979659639304" lon="9.155377184429497"><ele>263.16666666666663</ele><time>2026-04-03T13:23:31.999Z</time></trkpt><trkpt lat="45.90977536333973" lon="9.155284087838398"><ele>261.3333333333333</ele><time>2026-04-03T13:23:35.998Z</time></trkpt><trkpt lat="45.90978089479223" lon="9.15516831451425"><ele>259.5</ele><time>2026-04-03T13:23:51.998Z</time></trkpt><trkpt lat="45.909756575305266" lon="9.155064461545201"><ele>257.6666666666667</ele><time>2026-04-03T13:23:55.998Z</time></trkpt><trkpt lat="45.90972409618214" lon="9.154953481675921"><ele>255.83333333333334</ele><time>2026-04-03T13:24:04.998Z</time></trkpt><trkpt lat="45.909696257296545" lon="9.15486722487241"><ele>254.0</ele><time>2026-04-03T13:24:06.998Z</time></trkpt><trkpt lat="45.909641586646714" lon="9.154787430029177"><ele>253.33333333333334</ele><time>2026-04-03T13:24:09.998Z</time></trkpt><trkpt lat="45.90958035602328" lon="9.154740105925029"><ele>252.66666666666669</ele><time>2026-04-03T13:24:11.998Z</time></trkpt><trkpt lat="45.909499252049244" lon="9.154697427306525"><ele>252.0</ele><time>2026-04-03T13:24:13.999Z</time></trkpt><trkpt lat="45.909376603616934" lon="9.154638572439708"><ele>251.33333333333331</ele><time>2026-04-03T13:24:15.999Z</time></trkpt><trkpt lat="45.90931279591852" lon="9.15461550102949"><ele>250.66666666666666</ele><time>2026-04-03T13:24:16.999Z</time></trkpt><trkpt lat="45.909237790255446" lon="9.154593422026947"><ele>250.0</ele><time>2026-04-03T13:24:17.999Z</time></trkpt><trkpt lat="45.90915211556827" lon="9.154593725343636"><ele>250.0</ele><time>2026-04-03T13:24:18.999Z</time></trkpt><trkpt lat="45.90906117379066" lon="9.154614269854479"><ele>250.0</ele><time>2026-04-03T13:24:19.999Z</time></trkpt><trkpt lat="45.90897555121332" lon="9.154639554570801"><ele>250.0</ele><time>2026-04-03T13:24:20.999Z</time></trkpt><trkpt lat="45.90889412785255" lon="9.154744819986409"><ele>250.0</ele><time>2026-04-03T13:24:21.999Z</time></trkpt><trkpt lat="45.908818162324714" lon="9.154792067242722"><ele>250.0</ele><time>2026-04-03T13:24:22.999Z</time></trkpt><trkpt lat="45.9087244636963" lon="9.154779032011803"><ele>250.0</ele><time>2026-04-03T13:24:23.999Z</time></trkpt><trkpt lat="45.90861559925701" lon="9.154704878474458"><ele>250.0</ele><time>2026-04-03T13:24:24.999Z</time></trkpt><trkpt lat="45.908519993352314" lon="9.154618533301752"><ele>250.0</ele><time>2026-04-03T13:24:25.999Z</time></trkpt><trkpt lat="45.90842975701914" lon="9.154567801640011"><ele>250.0</ele><time>2026-04-03T13:24:26.999Z</time></trkpt><trkpt lat="45.90833322206543" lon="9.154543727649752"><ele>250.0</ele><time>2026-04-03T13:24:27.999Z</time></trkpt><trkpt lat="45.90823884999245" lon="9.154542583758143"><ele>251.0</ele><time>2026-04-03T13:24:28.999Z</time></trkpt><trkpt lat="45.90815417374357" lon="9.154562514747317"><ele>252.0</ele><time>2026-04-03T13:24:29.999Z</time></trkpt><trkpt lat="45.9080686733391" lon="9.154621455850073"><ele>253.0</ele><time>2026-04-03T13:24:30.999Z</time></trkpt><trkpt lat="45.90797314763562" lon="9.15467838286922"><ele>254.0</ele><time>2026-04-03T13:24:31.999Z</time></trkpt><trkpt lat="45.9078740419643" lon="9.154698059018248"><ele>255.0</ele><time>2026-04-03T13:24:32.999Z</time></trkpt><trkpt lat="45.9077773752063" lon="9.154676109410769"><ele>255.0</ele><time>2026-04-03T13:24:33.999Z</time></trkpt><trkpt lat="45.9076857379168" lon="9.154655219447053"><ele>255.0</ele><time>2026-04-03T13:24:34.999Z</time></trkpt><trkpt lat="45.90759628988122" lon="9.154644909396827"><ele>255.0</ele><time>2026-04-03T13:24:35.999Z</time></trkpt><trkpt lat="45.907487355759265" lon="9.154636046121839"><ele>255.0</ele><time>2026-04-03T13:24:36.999Z</time></trkpt><trkpt lat="45.907378462827914" lon="9.15462390059186"><ele>255.0</ele><time>2026-04-03T13:24:37.999Z</time></trkpt><trkpt lat="45.90727821390948" lon="9.154606920654352"><ele>253.25</ele><time>2026-04-03T13:24:38.999Z</time></trkpt><trkpt lat="45.907164173018806" lon="9.15459963470887"><ele>251.5</ele><time>2026-04-03T13:24:39.999Z</time></trkpt><trkpt lat="45.90704392980677" lon="9.154589982846513"><ele>249.75</ele><time>2026-04-03T13:24:40.999Z</time></trkpt><trkpt lat="45.90692162350714" lon="9.154585507151609"><ele>248.0</ele><time>2026-04-03T13:24:41.999Z</time></trkpt><trkpt lat="45.906802348337436" lon="9.154589889788147"><ele>250.0</ele><time>2026-04-03T13:24:42.999Z</time></trkpt><trkpt lat="45.90669378059539" lon="9.154598021931452"><ele>252.0</ele><time>2026-04-03T13:24:43.999Z</time></trkpt><trkpt lat="45.90659117301894" lon="9.154629164313485"><ele>254.0</ele><time>2026-04-03T13:24:44.999Z</time></trkpt><trkpt lat="45.90644347984543" lon="9.15464150651636"><ele>256.0</ele><time>2026-04-03T13:24:45.999Z</time></trkpt><trkpt lat="45.90634629288865" lon="9.154706604871574"><ele>256.0</ele><time>2026-04-03T13:24:46.999Z</time></trkpt><trkpt lat="45.90622701071706" lon="9.15476966705946"><ele>256.0</ele><time>2026-04-03T13:24:47.999Z</time></trkpt><trkpt lat="45.906112164292296" lon="9.154814592846659"><ele>256.0</ele><time>2026-04-03T13:24:48.999Z</time></trkpt><trkpt lat="45.90600611320818" lon="9.15484216652559"><ele>256.0</ele><time>2026-04-03T13:24:49.999Z</time></trkpt><trkpt lat="45.90590060316897" lon="9.154861945543933"><ele>263.2</ele><time>2026-04-03T13:24:50.999Z</time></trkpt><trkpt lat="45.90579046001471" lon="9.154879127418232"><ele>270.40000000000003</ele><time>2026-04-03T13:24:51.999Z</time></trkpt><trkpt lat="45.905675248947716" lon="9.154892469435078"><ele>277.6</ele><time>2026-04-03T13:24:52.999Z</time></trkpt><trkpt lat="45.90556290925872" lon="9.154917545818572"><ele>284.8</ele><time>2026-04-03T13:24:53.999Z</time></trkpt><trkpt lat="45.90545852988206" lon="9.154945463517375"><ele>292.0</ele><time>2026-04-03T13:24:54.999Z</time></trkpt><trkpt lat="45.90535399268929" lon="9.15499662489519"><ele>292.0</ele><time>2026-04-03T13:24:55.999Z</time></trkpt><trkpt lat="45.90524716204578" lon="9.155085412905276"><ele>292.0</ele><time>2026-04-03T13:24:56.999Z</time></trkpt><trkpt lat="45.90515540616145" lon="9.155207925224033"><ele>292.0</ele><time>2026-04-03T13:24:57.999Z</time></trkpt><trkpt lat="45.90508527765172" lon="9.155316131170606"><ele>292.0</ele><time>2026-04-03T13:24:58.999Z</time></trkpt><trkpt lat="45.90502177521497" lon="9.155457723548905"><ele>290.25</ele><time>2026-04-03T13:24:59.999Z</time></trkpt><trkpt lat="45.90486260614963" lon="9.155139098991365"><ele>288.5</ele><time>2026-04-03T13:25:00.999Z</time></trkpt><trkpt lat="45.90479718625935" lon="9.155103942478824"><ele>286.75</ele><time>2026-04-03T13:25:01.999Z</time></trkpt><trkpt lat="45.90472934159195" lon="9.155050627876058"><ele>285.0</ele><time>2026-04-03T13:25:03.999Z</time></trkpt><trkpt lat="45.904662898321945" lon="9.155055291045063"><ele>285.0</ele><time>2026-04-03T13:25:06.999Z</time></trkpt><trkpt lat="45.90465656310578" lon="9.154963898314326"><ele>285.0</ele><time>2026-04-03T13:27:20.999Z</time></trkpt><trkpt lat="45.904624356102815" lon="9.155052982040143"><ele>285.0</ele><time>2026-04-03T13:40:26.998Z</time></trkpt><trkpt lat="45.904560979568735" lon="9.155047985212704"><ele>285.0</ele><time>2026-04-03T13:40:27.998Z</time></trkpt><trkpt lat="45.9044835216997" lon="9.155043191845435"><ele>285.0</ele><time>2026-04-03T13:40:28.998Z</time></trkpt><trkpt lat="45.90440710046819" lon="9.155037377042529"><ele>285.0</ele><time>2026-04-03T13:40:29.998Z</time></trkpt><trkpt lat="45.9043271296615" lon="9.155041545634386"><ele>285.0</ele><time>2026-04-03T13:40:30.998Z</time></trkpt><trkpt lat="45.90424028319767" lon="9.155048052518046"><ele>285.6</ele><time>2026-04-03T13:40:31.998Z</time></trkpt><trkpt lat="45.904145927919416" lon="9.15504834468848"><ele>286.2</ele><time>2026-04-03T13:40:32.998Z</time></trkpt><trkpt lat="45.9040471866121" lon="9.155041615192536"><ele>286.8</ele><time>2026-04-03T13:40:33.998Z</time></trkpt><trkpt lat="45.90392926695413" lon="9.155035274134462"><ele>287.4</ele><time>2026-04-03T13:40:34.998Z</time></trkpt><trkpt lat="45.903805592011786" lon="9.155022683904328"><ele>288.0</ele><time>2026-04-03T13:40:35.998Z</time></trkpt><trkpt lat="45.90368346707566" lon="9.155009606318636"><ele>288.0</ele><time>2026-04-03T13:40:36.998Z</time></trkpt><trkpt lat="45.90355366681032" lon="9.155002570822319"><ele>288.0</ele><time>2026-04-03T13:40:37.998Z</time></trkpt><trkpt lat="45.9034272205573" lon="9.154984872656458"><ele>288.0</ele><time>2026-04-03T13:40:38.998Z</time></trkpt><trkpt lat="45.90330511811506" lon="9.15494639936334"><ele>288.0</ele><time>2026-04-03T13:40:39.998Z</time></trkpt><trkpt lat="45.90318084124963" lon="9.154885727389816"><ele>277.5</ele><time>2026-04-03T13:40:40.998Z</time></trkpt><trkpt lat="45.903053760662516" lon="9.15482727058561"><ele>267.0</ele><time>2026-04-03T13:40:41.998Z</time></trkpt><trkpt lat="45.902924739260364" lon="9.154776717466826"><ele>256.5</ele><time>2026-04-03T13:40:42.998Z</time></trkpt><trkpt lat="45.90279365351123" lon="9.154724740549746"><ele>246.0</ele><time>2026-04-03T13:40:43.998Z</time></trkpt><trkpt lat="45.9026645381006" lon="9.154663956465093"><ele>252.25</ele><time>2026-04-03T13:40:44.998Z</time></trkpt><trkpt lat="45.902536405530135" lon="9.154601704096855"><ele>258.5</ele><time>2026-04-03T13:40:45.998Z</time></trkpt><trkpt lat="45.90241352805777" lon="9.154532347016065"><ele>264.75</ele><time>2026-04-03T13:40:46.998Z</time></trkpt><trkpt lat="45.90229972612416" lon="9.154459123494675"><ele>271.0</ele><time>2026-04-03T13:40:47.998Z</time></trkpt><trkpt lat="45.9021991854434" lon="9.15437796197779"><ele>271.0</ele><time>2026-04-03T13:40:48.998Z</time></trkpt><trkpt lat="45.90210550949067" lon="9.154302383037088"><ele>271.0</ele><time>2026-04-03T13:40:49.998Z</time></trkpt><trkpt lat="45.901997892731586" lon="9.15426095554639"><ele>271.0</ele><time>2026-04-03T13:40:50.998Z</time></trkpt><trkpt lat="45.90187205362548" lon="9.154248391839173"><ele>271.0</ele><time>2026-04-03T13:40:51.998Z</time></trkpt><trkpt lat="45.90174121526904" lon="9.154266713501826"><ele>272.40000000000003</ele><time>2026-04-03T13:40:52.998Z</time></trkpt><trkpt lat="45.90163982216107" lon="9.154269343385442"><ele>273.8</ele><time>2026-04-03T13:40:53.998Z</time></trkpt><trkpt lat="45.901550341981235" lon="9.154250049276524"><ele>275.20000000000005</ele><time>2026-04-03T13:40:54.998Z</time></trkpt><trkpt lat="45.90146956031216" lon="9.154188102130716"><ele>276.6</ele><time>2026-04-03T13:40:55.998Z</time></trkpt><trkpt lat="45.90139628976204" lon="9.154085233008875"><ele>278.0</ele><time>2026-04-03T13:40:56.998Z</time></trkpt><trkpt lat="45.901347588873925" lon="9.153940691547982"><ele>271.6</ele><time>2026-04-03T13:40:57.998Z</time></trkpt><trkpt lat="45.90130191343943" lon="9.153792071682128"><ele>265.20000000000005</ele><time>2026-04-03T13:40:58.999Z</time></trkpt><trkpt lat="45.90125588465607" lon="9.153660621456172"><ele>258.8</ele><time>2026-04-03T13:40:59.999Z</time></trkpt><trkpt lat="45.90119885313896" lon="9.153536940158492"><ele>252.4</ele><time>2026-04-03T13:41:00.999Z</time></trkpt><trkpt lat="45.90113859198265" lon="9.153435074743593"><ele>246.0</ele><time>2026-04-03T13:41:01.999Z</time></trkpt><trkpt lat="45.901070539737574" lon="9.153353112607538"><ele>246.0</ele><time>2026-04-03T13:41:02.999Z</time></trkpt><trkpt lat="45.90099740767259" lon="9.1532946486103"><ele>246.0</ele><time>2026-04-03T13:41:03.999Z</time></trkpt><trkpt lat="45.900924556001314" lon="9.153269816294767"><ele>246.0</ele><time>2026-04-03T13:41:04.999Z</time></trkpt><trkpt lat="45.90084837642289" lon="9.153273261171169"><ele>246.0</ele><time>2026-04-03T13:41:05.999Z</time></trkpt><trkpt lat="45.900753951519526" lon="9.15328080473262"><ele>246.0</ele><time>2026-04-03T13:41:06.999Z</time></trkpt><trkpt lat="45.900636565099774" lon="9.15329317660792"><ele>246.0</ele><time>2026-04-03T13:41:07.999Z</time></trkpt><trkpt lat="45.900505566329144" lon="9.153318563032952"><ele>250.0</ele><time>2026-04-03T13:41:08.999Z</time></trkpt><trkpt lat="45.900367516523325" lon="9.153316344563043"><ele>254.0</ele><time>2026-04-03T13:41:09.999Z</time></trkpt><trkpt lat="45.900226806785824" lon="9.153298326025324"><ele>258.0</ele><time>2026-04-03T13:41:10.999Z</time></trkpt><trkpt lat="45.90010907411575" lon="9.15328819406803"><ele>262.0</ele><time>2026-04-03T13:41:11.999Z</time></trkpt><trkpt lat="45.899984089558934" lon="9.153273922867712"><ele>262.0</ele><time>2026-04-03T13:41:12.999Z</time></trkpt><trkpt lat="45.89990520171179" lon="9.153404355850244"><ele>262.0</ele><time>2026-04-03T13:41:13.999Z</time></trkpt><trkpt lat="45.89981385828204" lon="9.15347259978286"><ele>262.0</ele><time>2026-04-03T13:41:14.999Z</time></trkpt><trkpt lat="45.899723321127865" lon="9.153593359041002"><ele>262.0</ele><time>2026-04-03T13:41:15.999Z</time></trkpt><trkpt lat="45.899653553643184" lon="9.153758773304363"><ele>262.0</ele><time>2026-04-03T13:41:16.999Z</time></trkpt><trkpt lat="45.89959971342449" lon="9.153890439603208"><ele>262.0</ele><time>2026-04-03T13:41:17.999Z</time></trkpt><trkpt lat="45.899521396585925" lon="9.153973884945515"><ele>262.0</ele><time>2026-04-03T13:41:18.999Z</time></trkpt><trkpt lat="45.89940932864065" lon="9.154029975907514"><ele>262.0</ele><time>2026-04-03T13:41:19.999Z</time></trkpt><trkpt lat="45.899280679260514" lon="9.15406910871474"><ele>264.75</ele><time>2026-04-03T13:41:20.999Z</time></trkpt><trkpt lat="45.89915461950599" lon="9.154131863849447"><ele>267.5</ele><time>2026-04-03T13:41:21.999Z</time></trkpt><trkpt lat="45.89902431191466" lon="9.15420025557236"><ele>270.25</ele><time>2026-04-03T13:41:22.999Z</time></trkpt><trkpt lat="45.89889582465386" lon="9.154265519063017"><ele>273.0</ele><time>2026-04-03T13:41:23.999Z</time></trkpt><trkpt lat="45.898758637149506" lon="9.154328992685876"><ele>273.0</ele><time>2026-04-03T13:41:24.999Z</time></trkpt><trkpt lat="45.898633790424235" lon="9.154383256395894"><ele>273.0</ele><time>2026-04-03T13:41:25.999Z</time></trkpt><trkpt lat="45.89851578176649" lon="9.154404298507195"><ele>273.0</ele><time>2026-04-03T13:41:26.999Z</time></trkpt><trkpt lat="45.898396526419354" lon="9.154389790062789"><ele>273.0</ele><time>2026-04-03T13:41:27.999Z</time></trkpt><trkpt lat="45.89827199204227" lon="9.154334096432306"><ele>271.75</ele><time>2026-04-03T13:41:28.999Z</time></trkpt><trkpt lat="45.89813951575952" lon="9.154268919692061"><ele>270.5</ele><time>2026-04-03T13:41:29.999Z</time></trkpt><trkpt lat="45.898012425046346" lon="9.154217890129848"><ele>269.25</ele><time>2026-04-03T13:41:30.999Z</time></trkpt><trkpt lat="45.897896945266" lon="9.154162343884256"><ele>268.0</ele><time>2026-04-03T13:41:31.999Z</time></trkpt><trkpt lat="45.89778737137968" lon="9.154123619718998"><ele>268.0</ele><time>2026-04-03T13:41:32.999Z</time></trkpt><trkpt lat="45.897686771671935" lon="9.154093554935821"><ele>268.0</ele><time>2026-04-03T13:41:33.999Z</time></trkpt><trkpt lat="45.89758432924321" lon="9.154071620693129"><ele>268.0</ele><time>2026-04-03T13:41:34.999Z</time></trkpt><trkpt lat="45.89747785376602" lon="9.154094159860625"><ele>268.0</ele><time>2026-04-03T13:41:35.999Z</time></trkpt><trkpt lat="45.89737105464135" lon="9.154174782431616"><ele>268.0</ele><time>2026-04-03T13:41:36.999Z</time></trkpt><trkpt lat="45.897277023527394" lon="9.154291711702612"><ele>266.0</ele><time>2026-04-03T13:41:37.999Z</time></trkpt><trkpt lat="45.89719934722427" lon="9.154434666463507"><ele>264.0</ele><time>2026-04-03T13:41:38.999Z</time></trkpt><trkpt lat="45.89713407013804" lon="9.15458409039601"><ele>262.0</ele><time>2026-04-03T13:41:39.999Z</time></trkpt><trkpt lat="45.89703912538759" lon="9.154686386854106"><ele>260.0</ele><time>2026-04-03T13:41:40.999Z</time></trkpt><trkpt lat="45.8969247586959" lon="9.154738349263164"><ele>260.0</ele><time>2026-04-03T13:41:41.999Z</time></trkpt><trkpt lat="45.89683361268907" lon="9.154761314713237"><ele>260.0</ele><time>2026-04-03T13:41:42.999Z</time></trkpt><trkpt lat="45.896762583429265" lon="9.154806031156742"><ele>260.0</ele><time>2026-04-03T13:41:43.999Z</time></trkpt><trkpt lat="45.896700834676096" lon="9.15484537122798"><ele>260.0</ele><time>2026-04-03T13:41:44.999Z</time></trkpt><trkpt lat="45.89659067997907" lon="9.154913643367616"><ele>260.0</ele><time>2026-04-03T13:41:46.999Z</time></trkpt><trkpt lat="45.89648243923735" lon="9.15500303691264"><ele>263.1666666666667</ele><time>2026-04-03T13:41:48.999Z</time></trkpt><trkpt lat="45.8964214762648" lon="9.155052542916758"><ele>266.33333333333337</ele><time>2026-04-03T13:41:49.999Z</time></trkpt><trkpt lat="45.89635339235161" lon="9.155092291018416"><ele>269.5</ele><time>2026-04-03T13:41:50.999Z</time></trkpt><trkpt lat="45.89627466493857" lon="9.15511730860599"><ele>272.6666666666667</ele><time>2026-04-03T13:41:51.999Z</time></trkpt><trkpt lat="45.896190757593516" lon="9.155117061685502"><ele>275.8333333333333</ele><time>2026-04-03T13:41:52.999Z</time></trkpt><trkpt lat="45.89611132611863" lon="9.155096501848606"><ele>279.0</ele><time>2026-04-03T13:41:53.999Z</time></trkpt><trkpt lat="45.89603530107076" lon="9.155077746736744"><ele>279.0</ele><time>2026-04-03T13:41:54.999Z</time></trkpt><trkpt lat="45.89592099201211" lon="9.155066615482776"><ele>279.0</ele><time>2026-04-03T13:41:56.999Z</time></trkpt><trkpt lat="45.895850096083414" lon="9.155072618969296"><ele>279.0</ele><time>2026-04-03T13:41:59.999Z</time></trkpt><trkpt lat="45.895782237071636" lon="9.1550643946583"><ele>279.0</ele><time>2026-04-03T13:42:36.998Z</time></trkpt><trkpt lat="45.895712020730166" lon="9.155077592534095"><ele>279.0</ele><time>2026-04-03T13:42:38.998Z</time></trkpt><trkpt lat="45.895592687601024" lon="9.155114284304508"><ele>279.0</ele><time>2026-04-03T13:42:40.998Z</time></trkpt><trkpt lat="45.89553373055067" lon="9.15515112377563"><ele>276.6666666666667</ele><time>2026-04-03T13:42:41.998Z</time></trkpt><trkpt lat="45.89547854925217" lon="9.155205487626224"><ele>274.3333333333333</ele><time>2026-04-03T13:42:42.998Z</time></trkpt><trkpt lat="45.89542398065407" lon="9.15528156526905"><ele>272.0</ele><time>2026-04-03T13:42:43.998Z</time></trkpt><trkpt lat="45.8953755274699" lon="9.155373705175164"><ele>269.66666666666663</ele><time>2026-04-03T13:42:44.998Z</time></trkpt><trkpt lat="45.89533179294779" lon="9.155472573085113"><ele>267.3333333333333</ele><time>2026-04-03T13:42:45.998Z</time></trkpt><trkpt lat="45.89527836038559" lon="9.155557450745068"><ele>265.0</ele><time>2026-04-03T13:42:46.998Z</time></trkpt><trkpt lat="45.8952080541581" lon="9.155613911197008"><ele>265.0</ele><time>2026-04-03T13:42:47.998Z</time></trkpt><trkpt lat="45.895126603801074" lon="9.155628503582042"><ele>265.0</ele><time>2026-04-03T13:42:48.998Z</time></trkpt><trkpt lat="45.89504627296515" lon="9.155608928944652"><ele>265.0</ele><time>2026-04-03T13:42:49.998Z</time></trkpt><trkpt lat="45.894966979950105" lon="9.155563870863583"><ele>265.0</ele><time>2026-04-03T13:42:50.998Z</time></trkpt><trkpt lat="45.89489558747485" lon="9.155495884664713"><ele>265.0</ele><time>2026-04-03T13:42:51.998Z</time></trkpt><trkpt lat="45.89482128885133" lon="9.155415748595885"><ele>265.0</ele><time>2026-04-03T13:42:52.998Z</time></trkpt><trkpt lat="45.894740700404554" lon="9.155339073101477"><ele>264.6</ele><time>2026-04-03T13:42:53.998Z</time></trkpt><trkpt lat="45.89465504086248" lon="9.155271439409306"><ele>264.2</ele><time>2026-04-03T13:42:54.998Z</time></trkpt><trkpt lat="45.8945733517987" lon="9.155190011855305"><ele>263.8</ele><time>2026-04-03T13:42:55.998Z</time></trkpt><trkpt lat="45.894499754418696" lon="9.155086541324312"><ele>263.4</ele><time>2026-04-03T13:42:56.998Z</time></trkpt><trkpt lat="45.89443604271496" lon="9.154957855134063"><ele>263.0</ele><time>2026-04-03T13:42:57.998Z</time></trkpt><trkpt lat="45.89438525656622" lon="9.154814179128788"><ele>263.8</ele><time>2026-04-03T13:42:58.998Z</time></trkpt><trkpt lat="45.89434767867905" lon="9.15466976439142"><ele>264.6</ele><time>2026-04-03T13:42:59.998Z</time></trkpt><trkpt lat="45.89430187495954" lon="9.15453263561585"><ele>265.4</ele><time>2026-04-03T13:43:00.998Z</time></trkpt><trkpt lat="45.89425021255479" lon="9.154408013567778"><ele>266.2</ele><time>2026-04-03T13:43:01.997Z</time></trkpt><trkpt lat="45.89418236370806" lon="9.154304596683753"><ele>267.0</ele><time>2026-04-03T13:43:02.997Z</time></trkpt><trkpt lat="45.89409003477908" lon="9.154229012588992"><ele>267.0</ele><time>2026-04-03T13:43:03.997Z</time></trkpt><trkpt lat="45.89398119338028" lon="9.154190638630563"><ele>267.0</ele><time>2026-04-03T13:43:04.999Z</time></trkpt><trkpt lat="45.89386441691105" lon="9.154201353324527"><ele>267.0</ele><time>2026-04-03T13:43:05.999Z</time></trkpt><trkpt lat="45.89375376648144" lon="9.154262275373226"><ele>267.0</ele><time>2026-04-03T13:43:06.999Z</time></trkpt><trkpt lat="45.89364522147485" lon="9.154375255977241"><ele>267.0</ele><time>2026-04-03T13:43:07.999Z</time></trkpt><trkpt lat="45.893551067172545" lon="9.154521857377489"><ele>267.0</ele><time>2026-04-03T13:43:08.999Z</time></trkpt><trkpt lat="45.8934635402813" lon="9.154656719097344"><ele>267.0</ele><time>2026-04-03T13:43:09.999Z</time></trkpt><trkpt lat="45.893376500769214" lon="9.154771395796011"><ele>267.0</ele><time>2026-04-03T13:43:10.999Z</time></trkpt><trkpt lat="45.893307233364744" lon="9.154876941942002"><ele>270.0</ele><time>2026-04-03T13:43:11.999Z</time></trkpt><trkpt lat="45.89324204745855" lon="9.154964878491189"><ele>273.0</ele><time>2026-04-03T13:43:12.999Z</time></trkpt><trkpt lat="45.89317018341621" lon="9.155022396630283"><ele>276.0</ele><time>2026-04-03T13:43:13.999Z</time></trkpt><trkpt lat="45.893068539731644" lon="9.155043868544253"><ele>279.0</ele><time>2026-04-03T13:43:14.999Z</time></trkpt><trkpt lat="45.89295173542236" lon="9.155039061196744"><ele>282.0</ele><time>2026-04-03T13:43:15.999Z</time></trkpt><trkpt lat="45.89283619333341" lon="9.155042023929484"><ele>282.0</ele><time>2026-04-03T13:43:16.999Z</time></trkpt><trkpt lat="45.89271816430419" lon="9.155052856436463"><ele>282.0</ele><time>2026-04-03T13:43:17.999Z</time></trkpt><trkpt lat="45.89260447662782" lon="9.155059973234211"><ele>282.0</ele><time>2026-04-03T13:43:18.999Z</time></trkpt><trkpt lat="45.89248848140532" lon="9.15506485014871"><ele>282.0</ele><time>2026-04-03T13:43:19.999Z</time></trkpt><trkpt lat="45.892373032795376" lon="9.155070247749881"><ele>281.8</ele><time>2026-04-03T13:43:20.999Z</time></trkpt><trkpt lat="45.89226076411136" lon="9.155076872297972"><ele>281.6</ele><time>2026-04-03T13:43:21.999Z</time></trkpt><trkpt lat="45.89215772038767" lon="9.155084989536917"><ele>281.40000000000003</ele><time>2026-04-03T13:43:22.999Z</time></trkpt><trkpt lat="45.892060447478705" lon="9.155090638889467"><ele>281.2</ele><time>2026-04-03T13:43:23.999Z</time></trkpt><trkpt lat="45.89196039060835" lon="9.155101596368649"><ele>281.0</ele><time>2026-04-03T13:43:24.999Z</time></trkpt><trkpt lat="45.89185758218166" lon="9.155133175157628"><ele>279.2</ele><time>2026-04-03T13:43:25.999Z</time></trkpt><trkpt lat="45.891755503546996" lon="9.155174124882285"><ele>277.40000000000003</ele><time>2026-04-03T13:43:26.999Z</time></trkpt><trkpt lat="45.891658310135654" lon="9.155219621890469"><ele>275.6</ele><time>2026-04-03T13:43:27.999Z</time></trkpt><trkpt lat="45.89154932289987" lon="9.155248199233066"><ele>273.8</ele><time>2026-04-03T13:43:28.999Z</time></trkpt><trkpt lat="45.89143435793731" lon="9.155273190344733"><ele>272.0</ele><time>2026-04-03T13:43:29.999Z</time></trkpt><trkpt lat="45.891322815531616" lon="9.155302760076989"><ele>272.0</ele><time>2026-04-03T13:43:30.999Z</time></trkpt><trkpt lat="45.89121484215247" lon="9.155359259026753"><ele>272.0</ele><time>2026-04-03T13:43:31.999Z</time></trkpt><trkpt lat="45.89110955575438" lon="9.155464412313233"><ele>272.0</ele><time>2026-04-03T13:43:32.999Z</time></trkpt><trkpt lat="45.89101214999885" lon="9.155596853469017"><ele>272.0</ele><time>2026-04-03T13:43:33.999Z</time></trkpt><trkpt lat="45.890918931558225" lon="9.155702440318866"><ele>276.4</ele><time>2026-04-03T13:43:34.999Z</time></trkpt><trkpt lat="45.89082528835916" lon="9.15577422129062"><ele>280.79999999999995</ele><time>2026-04-03T13:43:35.999Z</time></trkpt><trkpt lat="45.8907486018839" lon="9.155858531717612"><ele>285.2</ele><time>2026-04-03T13:43:36.999Z</time></trkpt><trkpt lat="45.8906875599579" lon="9.155961253478313"><ele>289.59999999999997</ele><time>2026-04-03T13:43:37.999Z</time></trkpt><trkpt lat="45.890630496833175" lon="9.15606228198737"><ele>294.0</ele><time>2026-04-03T13:43:38.999Z</time></trkpt><trkpt lat="45.890565044091886" lon="9.156150109716322"><ele>294.0</ele><time>2026-04-03T13:43:39.999Z</time></trkpt><trkpt lat="45.89048773595306" lon="9.1562018765707"><ele>294.0</ele><time>2026-04-03T13:43:40.999Z</time></trkpt><trkpt lat="45.890390350885085" lon="9.156200791712674"><ele>294.0</ele><time>2026-04-03T13:43:41.999Z</time></trkpt><trkpt lat="45.89028558793506" lon="9.156152485685402"><ele>294.0</ele><time>2026-04-03T13:43:42.999Z</time></trkpt><trkpt lat="45.890191214621886" lon="9.156087127527051"><ele>294.0</ele><time>2026-04-03T13:43:43.999Z</time></trkpt><trkpt lat="45.890106031466054" lon="9.156040156960769"><ele>291.3333333333333</ele><time>2026-04-03T13:43:44.999Z</time></trkpt><trkpt lat="45.89002680019" lon="9.15601319246563"><ele>288.6666666666667</ele><time>2026-04-03T13:43:45.999Z</time></trkpt><trkpt lat="45.88994153308306" lon="9.155992849532206"><ele>286.0</ele><time>2026-04-03T13:43:46.999Z</time></trkpt><trkpt lat="45.8898601382141" lon="9.155984302849141"><ele>283.33333333333337</ele><time>2026-04-03T13:43:47.999Z</time></trkpt><trkpt lat="45.88977491721789" lon="9.155982521905727"><ele>280.6666666666667</ele><time>2026-04-03T13:43:48.999Z</time></trkpt><trkpt lat="45.88968659154405" lon="9.155995160304654"><ele>278.0</ele><time>2026-04-03T13:43:49.999Z</time></trkpt><trkpt lat="45.88960322804364" lon="9.156027528384797"><ele>278.0</ele><time>2026-04-03T13:43:50.999Z</time></trkpt><trkpt lat="45.88952966991262" lon="9.1560734557146"><ele>278.0</ele><time>2026-04-03T13:43:51.999Z</time></trkpt><trkpt lat="45.88946623669091" lon="9.156113222932783"><ele>278.0</ele><time>2026-04-03T13:43:52.999Z</time></trkpt><trkpt lat="45.889352687199995" lon="9.15617567783219"><ele>278.0</ele><time>2026-04-03T13:43:54.999Z</time></trkpt><trkpt lat="45.88928450976575" lon="9.156203261239783"><ele>278.0</ele><time>2026-04-03T13:43:55.999Z</time></trkpt><trkpt lat="45.88919890680085" lon="9.156193067569165"><ele>278.0</ele><time>2026-04-03T13:43:56.999Z</time></trkpt><trkpt lat="45.88911108653878" lon="9.156154990094386"><ele>277.6</ele><time>2026-04-03T13:43:57.999Z</time></trkpt><trkpt lat="45.88901987124736" lon="9.156113581829716"><ele>277.20000000000005</ele><time>2026-04-03T13:43:58.999Z</time></trkpt><trkpt lat="45.88892838549546" lon="9.156094956362853"><ele>276.8</ele><time>2026-04-03T13:43:59.998Z</time></trkpt><trkpt lat="45.88883363190188" lon="9.156080334982667"><ele>276.40000000000003</ele><time>2026-04-03T13:44:00.998Z</time></trkpt><trkpt lat="45.888738452279526" lon="9.156061132506558"><ele>276.0</ele><time>2026-04-03T13:44:01.998Z</time></trkpt><trkpt lat="45.88864676089035" lon="9.156039496848807"><ele>276.0</ele><time>2026-04-03T13:44:02.998Z</time></trkpt><trkpt lat="45.88856114263463" lon="9.156025138268"><ele>276.0</ele><time>2026-04-03T13:44:03.998Z</time></trkpt><trkpt lat="45.88848046060878" lon="9.156021801640676"><ele>276.0</ele><time>2026-04-03T13:44:04.998Z</time></trkpt><trkpt lat="45.88840335388147" lon="9.156028195386064"><ele>276.0</ele><time>2026-04-03T13:44:05.998Z</time></trkpt><trkpt lat="45.88832852607034" lon="9.156035379348772"><ele>276.0</ele><time>2026-04-03T13:44:06.998Z</time></trkpt><trkpt lat="45.888253799312174" lon="9.15603793051609"><ele>276.0</ele><time>2026-04-03T13:44:07.998Z</time></trkpt><trkpt lat="45.88817140342673" lon="9.156063931887557"><ele>272.6</ele><time>2026-04-03T13:44:08.998Z</time></trkpt><trkpt lat="45.888092744837465" lon="9.156132040663019"><ele>269.20000000000005</ele><time>2026-04-03T13:44:09.998Z</time></trkpt><trkpt lat="45.88802558764076" lon="9.15623367915088"><ele>265.79999999999995</ele><time>2026-04-03T13:44:10.998Z</time></trkpt><trkpt lat="45.887992633849116" lon="9.156367915830291"><ele>262.4</ele><time>2026-04-03T13:44:11.998Z</time></trkpt><trkpt lat="45.8879895666882" lon="9.156509158583296"><ele>259.0</ele><time>2026-04-03T13:44:12.998Z</time></trkpt><trkpt lat="45.88800131106463" lon="9.156628754585036"><ele>264.8333333333333</ele><time>2026-04-03T13:44:13.998Z</time></trkpt><trkpt lat="45.88799141065474" lon="9.156729864026211"><ele>270.66666666666663</ele><time>2026-04-03T13:44:14.998Z</time></trkpt><trkpt lat="45.88796069146057" lon="9.15682282640379"><ele>276.5</ele><time>2026-04-03T13:44:15.998Z</time></trkpt><trkpt lat="45.887930827273145" lon="9.156915482963056"><ele>282.3333333333333</ele><time>2026-04-03T13:44:16.998Z</time></trkpt><trkpt lat="45.88788393684378" lon="9.15706820854499"><ele>288.1666666666667</ele><time>2026-04-03T13:44:18.998Z</time></trkpt><trkpt lat="45.887851276372686" lon="9.157197641167128"><ele>294.0</ele><time>2026-04-03T13:44:20.998Z</time></trkpt><trkpt lat="45.887810789223394" lon="9.157323235480828"><ele>292.8</ele><time>2026-04-03T13:44:22.998Z</time></trkpt><trkpt lat="45.887761032978325" lon="9.1574541005376"><ele>291.59999999999997</ele><time>2026-04-03T13:44:24.998Z</time></trkpt><trkpt lat="45.8877161965771" lon="9.157591561103494"><ele>290.4</ele><time>2026-04-03T13:44:26.998Z</time></trkpt><trkpt lat="45.887663876766354" lon="9.15774984375643"><ele>289.2</ele><time>2026-04-03T13:44:28.998Z</time></trkpt><trkpt lat="45.88761700044021" lon="9.157810262596474"><ele>288.0</ele><time>2026-04-03T13:44:29.998Z</time></trkpt><trkpt lat="45.88754981771886" lon="9.157838635253917"><ele>288.0</ele><time>2026-04-03T13:44:30.998Z</time></trkpt><trkpt lat="45.88745335969152" lon="9.157803486333858"><ele>288.0</ele><time>2026-04-03T13:44:31.998Z</time></trkpt><trkpt lat="45.887362927292685" lon="9.157742414379484"><ele>288.0</ele><time>2026-04-03T13:44:32.998Z</time></trkpt><trkpt lat="45.88727685014033" lon="9.157654206403473"><ele>288.0</ele><time>2026-04-03T13:44:33.998Z</time></trkpt><trkpt lat="45.887209220684824" lon="9.157596725790862"><ele>288.0</ele><time>2026-04-03T13:44:34.998Z</time></trkpt><trkpt lat="45.88711288597674" lon="9.157517685371625"><ele>288.0</ele><time>2026-04-03T13:44:35.998Z</time></trkpt><trkpt lat="45.88701681484397" lon="9.15746832142776"><ele>288.0</ele><time>2026-04-03T13:44:37.998Z</time></trkpt><trkpt lat="45.886946448046864" lon="9.1574367359398"><ele>288.0</ele><time>2026-04-03T13:44:38.998Z</time></trkpt><trkpt lat="45.886882959599525" lon="9.157411522507056"><ele>288.0</ele><time>2026-04-03T13:44:39.998Z</time></trkpt><trkpt lat="45.88677509860774" lon="9.157375067931346"><ele>288.0</ele><time>2026-04-03T13:44:41.998Z</time></trkpt><trkpt lat="45.88667378795813" lon="9.157321189482104"><ele>281.0</ele><time>2026-04-03T13:44:43.998Z</time></trkpt><trkpt lat="45.88660733509606" lon="9.157286167242123"><ele>274.0</ele><time>2026-04-03T13:44:44.998Z</time></trkpt><trkpt lat="45.886524920546066" lon="9.157247671799533"><ele>267.0</ele><time>2026-04-03T13:44:45.998Z</time></trkpt><trkpt lat="45.886447041311165" lon="9.157217508227605"><ele>260.0</ele><time>2026-04-03T13:44:46.998Z</time></trkpt><trkpt lat="45.88636805087758" lon="9.15718063295664"><ele>253.0</ele><time>2026-04-03T13:44:47.998Z</time></trkpt><trkpt lat="45.88628881731755" lon="9.157146886446935"><ele>246.0</ele><time>2026-04-03T13:44:48.998Z</time></trkpt><trkpt lat="45.886212150337926" lon="9.157110436825175"><ele>246.0</ele><time>2026-04-03T13:44:49.998Z</time></trkpt><trkpt lat="45.88613881914339" lon="9.157075051805586"><ele>246.00000000000003</ele><time>2026-04-03T13:44:50.998Z</time></trkpt><trkpt lat="45.88607059662051" lon="9.157037883354395"><ele>246.00000000000003</ele><time>2026-04-03T13:44:51.998Z</time></trkpt><trkpt lat="45.886007177262194" lon="9.157011939017028"><ele>246.0</ele><time>2026-04-03T13:44:52.998Z</time></trkpt><trkpt lat="45.885888203789186" lon="9.156958657810895"><ele>246.0</ele><time>2026-04-03T13:44:54.998Z</time></trkpt><trkpt lat="45.885774978812336" lon="9.156891008578791"><ele>247.5</ele><time>2026-04-03T13:44:56.998Z</time></trkpt><trkpt lat="45.88570748145301" lon="9.156860687953031"><ele>249.0</ele><time>2026-04-03T13:44:57.998Z</time></trkpt><trkpt lat="45.88563277241398" lon="9.156834401520467"><ele>250.5</ele><time>2026-04-03T13:44:58.998Z</time></trkpt><trkpt lat="45.885556263351106" lon="9.156819852951761"><ele>252.0</ele><time>2026-04-03T13:44:59.998Z</time></trkpt><trkpt lat="45.885478226474156" lon="9.156819988302233"><ele>253.5</ele><time>2026-04-03T13:45:00.997Z</time></trkpt><trkpt lat="45.885400033590145" lon="9.156823688229768"><ele>255.0</ele><time>2026-04-03T13:45:01.997Z</time></trkpt><trkpt lat="45.885325845147705" lon="9.156820259904661"><ele>255.0</ele><time>2026-04-03T13:45:02.997Z</time></trkpt><trkpt lat="45.885251248683474" lon="9.156822501848488"><ele>255.0</ele><time>2026-04-03T13:45:03.997Z</time></trkpt><trkpt lat="45.88517729068141" lon="9.15682433076929"><ele>255.0</ele><time>2026-04-03T13:45:04.997Z</time></trkpt><trkpt lat="45.88510411262302" lon="9.156821477624128"><ele>255.0</ele><time>2026-04-03T13:45:05.997Z</time></trkpt><trkpt lat="45.88502961591609" lon="9.15682237498199"><ele>255.0</ele><time>2026-04-03T13:45:06.997Z</time></trkpt><trkpt lat="45.88494995311824" lon="9.15682471366954"><ele>255.0</ele><time>2026-04-03T13:45:07.997Z</time></trkpt><trkpt lat="45.88487179347831" lon="9.156826809311868"><ele>255.16666666666666</ele><time>2026-04-03T13:45:08.997Z</time></trkpt><trkpt lat="45.88479269761233" lon="9.156825714576367"><ele>255.33333333333331</ele><time>2026-04-03T13:45:09.997Z</time></trkpt><trkpt lat="45.88471292020967" lon="9.156820197505978"><ele>255.5</ele><time>2026-04-03T13:45:10.999Z</time></trkpt><trkpt lat="45.88463702811399" lon="9.156819569791983"><ele>255.66666666666666</ele><time>2026-04-03T13:45:11.999Z</time></trkpt><trkpt lat="45.884555718730596" lon="9.15682503445758"><ele>255.83333333333331</ele><time>2026-04-03T13:45:12.999Z</time></trkpt><trkpt lat="45.88447618891283" lon="9.156837965616537"><ele>256.0</ele><time>2026-04-03T13:45:13.999Z</time></trkpt><trkpt lat="45.88440254630624" lon="9.156863097880757"><ele>255.99999999999997</ele><time>2026-04-03T13:45:14.999Z</time></trkpt><trkpt lat="45.88433122019412" lon="9.156904613525617"><ele>256.0</ele><time>2026-04-03T13:45:15.999Z</time></trkpt><trkpt lat="45.884253411928476" lon="9.156954840940397"><ele>256.0</ele><time>2026-04-03T13:45:16.999Z</time></trkpt><trkpt lat="45.884192167792" lon="9.156998255795951"><ele>256.0</ele><time>2026-04-03T13:45:17.999Z</time></trkpt><trkpt lat="45.88412641111345" lon="9.157038501399203"><ele>255.99999999999997</ele><time>2026-04-03T13:45:18.999Z</time></trkpt><trkpt lat="45.88404602800585" lon="9.157077309165814"><ele>256.0</ele><time>2026-04-03T13:45:19.999Z</time></trkpt><trkpt lat="45.883972599682785" lon="9.157115493365025"><ele>254.33333333333331</ele><time>2026-04-03T13:45:20.999Z</time></trkpt><trkpt lat="45.88390036482292" lon="9.157160036443432"><ele>252.66666666666666</ele><time>2026-04-03T13:45:21.999Z</time></trkpt><trkpt lat="45.88382978867693" lon="9.157198551878437"><ele>251.0</ele><time>2026-04-03T13:45:22.999Z</time></trkpt><trkpt lat="45.88376159147018" lon="9.157237598004677"><ele>249.33333333333331</ele><time>2026-04-03T13:45:23.999Z</time></trkpt><trkpt lat="45.883693906099396" lon="9.157289133788753"><ele>247.66666666666666</ele><time>2026-04-03T13:45:24.999Z</time></trkpt><trkpt lat="45.88363521497787" lon="9.157366401667657"><ele>246.0</ele><time>2026-04-03T13:45:25.999Z</time></trkpt><trkpt lat="45.883588806218725" lon="9.157463110764061"><ele>247.83333333333334</ele><time>2026-04-03T13:45:26.999Z</time></trkpt><trkpt lat="45.88355858204521" lon="9.157583514275993"><ele>249.66666666666669</ele><time>2026-04-03T13:45:27.999Z</time></trkpt><trkpt lat="45.88354623923473" lon="9.157688967916203"><ele>251.5</ele><time>2026-04-03T13:45:28.999Z</time></trkpt><trkpt lat="45.883498540241455" lon="9.157853511420864"><ele>253.33333333333334</ele><time>2026-04-03T13:45:30.999Z</time></trkpt><trkpt lat="45.883442694205186" lon="9.15793234599342"><ele>255.16666666666669</ele><time>2026-04-03T13:45:31.999Z</time></trkpt><trkpt lat="45.88338019378762" lon="9.15798096698652"><ele>257.0</ele><time>2026-04-03T13:45:32.999Z</time></trkpt><trkpt lat="45.883296238118184" lon="9.157978398870238"><ele>257.0</ele><time>2026-04-03T13:45:33.999Z</time></trkpt><trkpt lat="45.88320933106747" lon="9.157951691149309"><ele>257.0</ele><time>2026-04-03T13:45:34.999Z</time></trkpt><trkpt lat="45.88312228721889" lon="9.157926482048879"><ele>257.0</ele><time>2026-04-03T13:45:35.999Z</time></trkpt><trkpt lat="45.88304212311446" lon="9.157919893719047"><ele>257.0</ele><time>2026-04-03T13:45:36.999Z</time></trkpt><trkpt lat="45.88296280805902" lon="9.157893934292185"><ele>257.0</ele><time>2026-04-03T13:45:37.999Z</time></trkpt><trkpt lat="45.8828938435073" lon="9.157816978860287"><ele>257.0</ele><time>2026-04-03T13:45:38.999Z</time></trkpt><trkpt lat="45.88285328728347" lon="9.157715437959913"><ele>257.0</ele><time>2026-04-03T13:45:39.999Z</time></trkpt><trkpt lat="45.882821699105435" lon="9.157595147248333"><ele>257.0</ele><time>2026-04-03T13:45:40.999Z</time></trkpt><trkpt lat="45.88278052646893" lon="9.157492543114547"><ele>257.0</ele><time>2026-04-03T13:45:41.999Z</time></trkpt><trkpt lat="45.882718392224554" lon="9.157417840479967"><ele>257.0</ele><time>2026-04-03T13:45:42.999Z</time></trkpt><trkpt lat="45.88264282958413" lon="9.157369159748946"><ele>257.0</ele><time>2026-04-03T13:45:43.999Z</time></trkpt><trkpt lat="45.882562812053536" lon="9.157330198953808"><ele>257.0</ele><time>2026-04-03T13:45:44.999Z</time></trkpt><trkpt lat="45.88247326691621" lon="9.157314316380814"><ele>252.39999999999998</ele><time>2026-04-03T13:45:45.999Z</time></trkpt><trkpt lat="45.882381644346175" lon="9.15731260956728"><ele>247.79999999999998</ele><time>2026-04-03T13:45:46.999Z</time></trkpt><trkpt lat="45.88228690448021" lon="9.157311060431944"><ele>243.2</ele><time>2026-04-03T13:45:47.999Z</time></trkpt><trkpt lat="45.882195274467236" lon="9.157302386239508"><ele>238.6</ele><time>2026-04-03T13:45:48.999Z</time></trkpt><trkpt lat="45.882100332714835" lon="9.157306062370406"><ele>234.0</ele><time>2026-04-03T13:45:49.999Z</time></trkpt><trkpt lat="45.88200727566994" lon="9.157333393729434"><ele>238.0</ele><time>2026-04-03T13:45:50.999Z</time></trkpt><trkpt lat="45.88191398234072" lon="9.157372447867115"><ele>242.0</ele><time>2026-04-03T13:45:51.999Z</time></trkpt><trkpt lat="45.881820924618545" lon="9.15741169414377"><ele>246.0</ele><time>2026-04-03T13:45:52.999Z</time></trkpt><trkpt lat="45.88173831592297" lon="9.157458394005175"><ele>250.0</ele><time>2026-04-03T13:45:53.999Z</time></trkpt><trkpt lat="45.88166953201887" lon="9.157523231891096"><ele>254.0</ele><time>2026-04-03T13:45:54.999Z</time></trkpt><trkpt lat="45.88161249147403" lon="9.157606478684453"><ele>258.0</ele><time>2026-04-03T13:45:55.999Z</time></trkpt><trkpt lat="45.88156381052926" lon="9.157701627702677"><ele>257.99999999999994</ele><time>2026-04-03T13:45:56.999Z</time></trkpt><trkpt lat="45.88152012539474" lon="9.157801083008328"><ele>258.0</ele><time>2026-04-03T13:45:57.999Z</time></trkpt><trkpt lat="45.88147622572377" lon="9.157879202831898"><ele>258.0</ele><time>2026-04-03T13:45:58.999Z</time></trkpt><trkpt lat="45.88141338899757" lon="9.157919937998821"><ele>258.0</ele><time>2026-04-03T13:46:00.999Z</time></trkpt><trkpt lat="45.881341618798906" lon="9.157919283356385"><ele>258.0</ele><time>2026-04-03T13:46:05.998Z</time></trkpt><trkpt lat="45.8812756721113" lon="9.15791102598176"><ele>257.99999999999994</ele><time>2026-04-03T13:46:07.998Z</time></trkpt><trkpt lat="45.881191593528044" lon="9.15789070002939"><ele>258.0</ele><time>2026-04-03T13:46:09.998Z</time></trkpt><trkpt lat="45.88110465109972" lon="9.15785628451201"><ele>258.0</ele><time>2026-04-03T13:46:11.998Z</time></trkpt><trkpt lat="45.880992779684526" lon="9.157792440024927"><ele>258.0</ele><time>2026-04-03T13:46:13.998Z</time></trkpt><trkpt lat="45.8809283659611" lon="9.157756733414951"><ele>258.0</ele><time>2026-04-03T13:46:14.998Z</time></trkpt><trkpt lat="45.88086132945227" lon="9.15772278376659"><ele>258.0</ele><time>2026-04-03T13:46:15.998Z</time></trkpt><trkpt lat="45.880789426920906" lon="9.157692668283026"><ele>258.0</ele><time>2026-04-03T13:46:16.998Z</time></trkpt><trkpt lat="45.88071002687973" lon="9.157666346137454"><ele>258.0</ele><time>2026-04-03T13:46:17.998Z</time></trkpt><trkpt lat="45.88062929779465" lon="9.157652434420926"><ele>257.3333333333333</ele><time>2026-04-03T13:46:18.998Z</time></trkpt><trkpt lat="45.88053897733259" lon="9.15763885748837"><ele>256.6666666666667</ele><time>2026-04-03T13:46:19.998Z</time></trkpt><trkpt lat="45.88045090724902" lon="9.157637042357175"><ele>256.0</ele><time>2026-04-03T13:46:20.998Z</time></trkpt><trkpt lat="45.880368572981" lon="9.157633408625163"><ele>255.33333333333334</ele><time>2026-04-03T13:46:21.998Z</time></trkpt><trkpt lat="45.88028674558988" lon="9.157631478771975"><ele>254.66666666666669</ele><time>2026-04-03T13:46:22.998Z</time></trkpt><trkpt lat="45.88020489676746" lon="9.1576224109045"><ele>254.0</ele><time>2026-04-03T13:46:23.998Z</time></trkpt><trkpt lat="45.88011902889851" lon="9.157610956376958"><ele>254.6</ele><time>2026-04-03T13:46:24.998Z</time></trkpt><trkpt lat="45.88003206021726" lon="9.157603443191794"><ele>255.2</ele><time>2026-04-03T13:46:25.998Z</time></trkpt><trkpt lat="45.87993880798177" lon="9.157610782230623"><ele>255.79999999999998</ele><time>2026-04-03T13:46:26.998Z</time></trkpt><trkpt lat="45.87984762912943" lon="9.15762492409871"><ele>256.4</ele><time>2026-04-03T13:46:27.998Z</time></trkpt><trkpt lat="45.87975740759539" lon="9.15765753044374"><ele>257.0</ele><time>2026-04-03T13:46:28.998Z</time></trkpt><trkpt lat="45.87967011794678" lon="9.157695655926869"><ele>257.0</ele><time>2026-04-03T13:46:29.998Z</time></trkpt><trkpt lat="45.879590881529275" lon="9.157731550321207"><ele>257.0</ele><time>2026-04-03T13:46:30.998Z</time></trkpt><trkpt lat="45.87951933846996" lon="9.157764369202626"><ele>257.0</ele><time>2026-04-03T13:46:31.998Z</time></trkpt><trkpt lat="45.87945755063398" lon="9.157798236764407"><ele>257.0</ele><time>2026-04-03T13:46:32.998Z</time></trkpt><trkpt lat="45.879387407782005" lon="9.15782409349659"><ele>257.0</ele><time>2026-04-03T13:46:33.998Z</time></trkpt><trkpt lat="45.87931942723845" lon="9.157859954523158"><ele>257.0</ele><time>2026-04-03T13:46:34.998Z</time></trkpt><trkpt lat="45.87924190760224" lon="9.15788867947687"><ele>257.0</ele><time>2026-04-03T13:46:35.998Z</time></trkpt><trkpt lat="45.87916661022614" lon="9.157923939653415"><ele>256.5</ele><time>2026-04-03T13:46:36.998Z</time></trkpt><trkpt lat="45.879081794507" lon="9.15795086567807"><ele>256.0</ele><time>2026-04-03T13:46:37.998Z</time></trkpt><trkpt lat="45.87901259908249" lon="9.1579748636951"><ele>255.5</ele><time>2026-04-03T13:46:38.998Z</time></trkpt><trkpt lat="45.878950483671645" lon="9.157994266752127"><ele>255.0</ele><time>2026-04-03T13:46:39.998Z</time></trkpt><trkpt lat="45.878868205347445" lon="9.158000260337495"><ele>254.50000000000003</ele><time>2026-04-03T13:46:40.998Z</time></trkpt><trkpt lat="45.87878471765399" lon="9.15799873912796"><ele>254.0</ele><time>2026-04-03T13:46:41.998Z</time></trkpt><trkpt lat="45.87870844476924" lon="9.157991324539179"><ele>254.00000000000003</ele><time>2026-04-03T13:46:42.998Z</time></trkpt><trkpt lat="45.87862799600142" lon="9.157973945340576"><ele>254.0</ele><time>2026-04-03T13:46:43.998Z</time></trkpt><trkpt lat="45.87855134698628" lon="9.157947799723717"><ele>254.0</ele><time>2026-04-03T13:46:44.998Z</time></trkpt><trkpt lat="45.87847363084039" lon="9.157919129141478"><ele>254.0</ele><time>2026-04-03T13:46:45.998Z</time></trkpt><trkpt lat="45.878399327400096" lon="9.157894646506575"><ele>254.00000000000003</ele><time>2026-04-03T13:46:46.998Z</time></trkpt><trkpt lat="45.878321592944" lon="9.157872669773557"><ele>254.0</ele><time>2026-04-03T13:46:47.998Z</time></trkpt><trkpt lat="45.87825132024328" lon="9.157857144386448"><ele>254.66666666666669</ele><time>2026-04-03T13:46:48.998Z</time></trkpt><trkpt lat="45.87817896985647" lon="9.157836368377398"><ele>255.33333333333334</ele><time>2026-04-03T13:46:49.998Z</time></trkpt><trkpt lat="45.878103624286936" lon="9.157813796304623"><ele>256.0</ele><time>2026-04-03T13:46:50.998Z</time></trkpt><trkpt lat="45.87802412576779" lon="9.15778642260484"><ele>256.6666666666667</ele><time>2026-04-03T13:46:51.998Z</time></trkpt><trkpt lat="45.877949867583126" lon="9.157758074686503"><ele>257.3333333333333</ele><time>2026-04-03T13:46:52.998Z</time></trkpt><trkpt lat="45.877870384472246" lon="9.157727591108236"><ele>258.0</ele><time>2026-04-03T13:46:53.998Z</time></trkpt><trkpt lat="45.87778521595851" lon="9.15770660739512"><ele>258.0</ele><time>2026-04-03T13:46:54.998Z</time></trkpt><trkpt lat="45.877694657785256" lon="9.15769729631386"><ele>258.0</ele><time>2026-04-03T13:46:55.998Z</time></trkpt><trkpt lat="45.87760466855005" lon="9.157701944258447"><ele>258.0</ele><time>2026-04-03T13:46:56.998Z</time></trkpt><trkpt lat="45.87750981440812" lon="9.15774425844086"><ele>258.0</ele><time>2026-04-03T13:46:57.998Z</time></trkpt><trkpt lat="45.8774175429337" lon="9.157808416921151"><ele>258.0</ele><time>2026-04-03T13:46:58.998Z</time></trkpt><trkpt lat="45.87733943012071" lon="9.15787961925765"><ele>259.0</ele><time>2026-04-03T13:46:59.998Z</time></trkpt><trkpt lat="45.87727999003294" lon="9.157949458115352"><ele>260.0</ele><time>2026-04-03T13:47:00.998Z</time></trkpt><trkpt lat="45.877189783887026" lon="9.158046960880723"><ele>261.0</ele><time>2026-04-03T13:47:02.998Z</time></trkpt><trkpt lat="45.877123443958425" lon="9.158131711695146"><ele>262.0</ele><time>2026-04-03T13:47:04.998Z</time></trkpt><trkpt lat="45.87702573765013" lon="9.158196044882201"><ele>263.0</ele><time>2026-04-03T13:47:06.998Z</time></trkpt><trkpt lat="45.87691328202126" lon="9.158176562307533"><ele>263.0</ele><time>2026-04-03T13:47:08.998Z</time></trkpt><trkpt lat="45.87682337726002" lon="9.15807900393208"><ele>263.0</ele><time>2026-04-03T13:47:10.998Z</time></trkpt><trkpt lat="45.87678382764453" lon="9.157979544940751"><ele>263.0</ele><time>2026-04-03T13:47:12.998Z</time></trkpt><trkpt lat="45.876760551036874" lon="9.15785354155264"><ele>263.0</ele><time>2026-04-03T13:47:14.997Z</time></trkpt><trkpt lat="45.876746844774345" lon="9.157726841946113"><ele>263.0</ele><time>2026-04-03T13:47:16.999Z</time></trkpt><trkpt lat="45.87672460588887" lon="9.157603426756017"><ele>262.0</ele><time>2026-04-03T13:47:19.999Z</time></trkpt><trkpt lat="45.87669540381081" lon="9.157489748316307"><ele>261.0</ele><time>2026-04-03T13:47:21.999Z</time></trkpt><trkpt lat="45.87664608046966" lon="9.157361150888127"><ele>260.0</ele><time>2026-04-03T13:47:23.999Z</time></trkpt><trkpt lat="45.87657114683173" lon="9.157240179078832"><ele>259.0</ele><time>2026-04-03T13:47:25.999Z</time></trkpt><trkpt lat="45.8764812452862" lon="9.1571485708819"><ele>258.0</ele><time>2026-04-03T13:47:27.999Z</time></trkpt><trkpt lat="45.87637165885355" lon="9.157078198776999"><ele>258.0</ele><time>2026-04-03T13:47:29.999Z</time></trkpt><trkpt lat="45.8763065339474" lon="9.157045732131884"><ele>258.0</ele><time>2026-04-03T13:47:30.999Z</time></trkpt><trkpt lat="45.876231031036184" lon="9.15701998069173"><ele>258.0</ele><time>2026-04-03T13:47:31.999Z</time></trkpt><trkpt lat="45.87616219508595" lon="9.15699988784105"><ele>258.0</ele><time>2026-04-03T13:47:32.999Z</time></trkpt><trkpt lat="45.87609869976066" lon="9.156980923811505"><ele>258.0</ele><time>2026-04-03T13:47:33.999Z</time></trkpt><trkpt lat="45.87603187639788" lon="9.156970155054204"><ele>258.0</ele><time>2026-04-03T13:47:34.999Z</time></trkpt><trkpt lat="45.87590791629615" lon="9.156976432317915"><ele>260.0</ele><time>2026-04-03T13:47:36.999Z</time></trkpt><trkpt lat="45.875842215499446" lon="9.156983958954305"><ele>262.0</ele><time>2026-04-03T13:47:37.999Z</time></trkpt><trkpt lat="45.87577163341086" lon="9.15699726352029"><ele>264.0</ele><time>2026-04-03T13:47:38.999Z</time></trkpt><trkpt lat="45.87568988775819" lon="9.157032106491583"><ele>266.0</ele><time>2026-04-03T13:47:39.999Z</time></trkpt><trkpt lat="45.87560486756417" lon="9.157073663668257"><ele>268.0</ele><time>2026-04-03T13:47:40.999Z</time></trkpt><trkpt lat="45.875509617617766" lon="9.157120307125485"><ele>270.0</ele><time>2026-04-03T13:47:41.999Z</time></trkpt><trkpt lat="45.875423010651026" lon="9.157167814326439"><ele>270.0</ele><time>2026-04-03T13:47:42.999Z</time></trkpt><trkpt lat="45.87531618912937" lon="9.157211787450855"><ele>270.0</ele><time>2026-04-03T13:47:43.999Z</time></trkpt><trkpt lat="45.87520346045971" lon="9.157258193558203"><ele>270.0</ele><time>2026-04-03T13:47:44.999Z</time></trkpt><trkpt lat="45.87509906046143" lon="9.157310227649072"><ele>270.0</ele><time>2026-04-03T13:47:45.999Z</time></trkpt><trkpt lat="45.87499989376251" lon="9.157364501277726"><ele>270.0</ele><time>2026-04-03T13:47:46.999Z</time></trkpt><trkpt lat="45.87490362402795" lon="9.157442041761605"><ele>273.25</ele><time>2026-04-03T13:47:47.999Z</time></trkpt><trkpt lat="45.874810349946635" lon="9.157551224800907"><ele>276.5</ele><time>2026-04-03T13:47:48.999Z</time></trkpt><trkpt lat="45.87472464657253" lon="9.157676620505379"><ele>279.75</ele><time>2026-04-03T13:47:49.999Z</time></trkpt><trkpt lat="45.8746504970827" lon="9.157789855750858"><ele>283.0</ele><time>2026-04-03T13:47:50.999Z</time></trkpt><trkpt lat="45.87457605536857" lon="9.157883551880458"><ele>283.0</ele><time>2026-04-03T13:47:51.999Z</time></trkpt><trkpt lat="45.87448154317115" lon="9.157941753375816"><ele>283.0</ele><time>2026-04-03T13:47:52.999Z</time></trkpt><trkpt lat="45.87437248096494" lon="9.157957341462625"><ele>283.0</ele><time>2026-04-03T13:47:53.999Z</time></trkpt><trkpt lat="45.87426893603089" lon="9.157909135355188"><ele>283.0</ele><time>2026-04-03T13:47:54.999Z</time></trkpt><trkpt lat="45.87415852235836" lon="9.15782729953342"><ele>283.0</ele><time>2026-04-03T13:47:55.999Z</time></trkpt><trkpt lat="45.87403209715032" lon="9.157806639849591"><ele>277.75</ele><time>2026-04-03T13:47:56.999Z</time></trkpt><trkpt lat="45.873890928603466" lon="9.157809699197738"><ele>272.5</ele><time>2026-04-03T13:47:57.999Z</time></trkpt><trkpt lat="45.873758828216836" lon="9.157831193644723"><ele>267.25</ele><time>2026-04-03T13:47:58.999Z</time></trkpt><trkpt lat="45.87363570878305" lon="9.15785593680727"><ele>262.0</ele><time>2026-04-03T13:47:59.999Z</time></trkpt><trkpt lat="45.873520723623336" lon="9.157908524191882"><ele>262.2</ele><time>2026-04-03T13:48:00.999Z</time></trkpt><trkpt lat="45.873405314518564" lon="9.157925120034221"><ele>262.4</ele><time>2026-04-03T13:48:01.999Z</time></trkpt><trkpt lat="45.87329763035949" lon="9.157949392689716"><ele>262.6</ele><time>2026-04-03T13:48:02.999Z</time></trkpt><trkpt lat="45.87320044740702" lon="9.157948417676636"><ele>262.8</ele><time>2026-04-03T13:48:03.999Z</time></trkpt><trkpt lat="45.873084668401034" lon="9.157977005255873"><ele>263.0</ele><time>2026-04-03T13:48:04.999Z</time></trkpt><trkpt lat="45.872959919163556" lon="9.157990191784943"><ele>263.0</ele><time>2026-04-03T13:48:05.999Z</time></trkpt><trkpt lat="45.872837656231106" lon="9.15800608923419"><ele>263.0</ele><time>2026-04-03T13:48:06.999Z</time></trkpt><trkpt lat="45.872711940312904" lon="9.158022605037027"><ele>263.0</ele><time>2026-04-03T13:48:07.999Z</time></trkpt><trkpt lat="45.87258393505739" lon="9.158016745168956"><ele>263.0</ele><time>2026-04-03T13:48:08.999Z</time></trkpt><trkpt lat="45.87245924111836" lon="9.15801123643537"><ele>262.2</ele><time>2026-04-03T13:48:09.999Z</time></trkpt><trkpt lat="45.87235895211312" lon="9.158050501754213"><ele>261.4</ele><time>2026-04-03T13:48:10.999Z</time></trkpt><trkpt lat="45.87225999180811" lon="9.158133135890271"><ele>260.59999999999997</ele><time>2026-04-03T13:48:11.999Z</time></trkpt><trkpt lat="45.872167620127186" lon="9.158243239000065"><ele>259.8</ele><time>2026-04-03T13:48:12.999Z</time></trkpt><trkpt lat="45.872105112919485" lon="9.158348125540742"><ele>259.0</ele><time>2026-04-03T13:48:13.999Z</time></trkpt><trkpt lat="45.87204959101677" lon="9.15841709698954"><ele>259.8333333333333</ele><time>2026-04-03T13:48:14.999Z</time></trkpt><trkpt lat="45.87196774129904" lon="9.158426162438142"><ele>260.66666666666663</ele><time>2026-04-03T13:48:15.999Z</time></trkpt><trkpt lat="45.8718906846115" lon="9.158388165052818"><ele>261.5</ele><time>2026-04-03T13:48:16.999Z</time></trkpt><trkpt lat="45.87181481973817" lon="9.158319120827286"><ele>262.3333333333333</ele><time>2026-04-03T13:48:17.999Z</time></trkpt><trkpt lat="45.87174664152168" lon="9.15826966811663"><ele>263.1666666666667</ele><time>2026-04-03T13:48:18.999Z</time></trkpt><trkpt lat="45.87167943341486" lon="9.158217130222164"><ele>264.0</ele><time>2026-04-03T13:48:19.999Z</time></trkpt><trkpt lat="45.87161308510904" lon="9.158178951898963"><ele>264.0</ele><time>2026-04-03T13:48:20.999Z</time></trkpt><trkpt lat="45.87154259987312" lon="9.158162405749456"><ele>264.0</ele><time>2026-04-03T13:48:21.998Z</time></trkpt><trkpt lat="45.87147983254" lon="9.158122242248327"><ele>264.0</ele><time>2026-04-03T13:48:22.998Z</time></trkpt><trkpt lat="45.871396363216505" lon="9.158085670859256"><ele>264.0</ele><time>2026-04-03T13:48:23.998Z</time></trkpt><trkpt lat="45.87130850201405" lon="9.158049480538514"><ele>264.0</ele><time>2026-04-03T13:48:24.998Z</time></trkpt><trkpt lat="45.87122509470952" lon="9.158011922356975"><ele>264.0</ele><time>2026-04-03T13:48:25.998Z</time></trkpt><trkpt lat="45.87114202409194" lon="9.157979593790204"><ele>264.0</ele><time>2026-04-03T13:48:26.998Z</time></trkpt><trkpt lat="45.871061911359725" lon="9.157951645980758"><ele>264.0</ele><time>2026-04-03T13:48:27.998Z</time></trkpt><trkpt lat="45.870984195599014" lon="9.157932699537708"><ele>264.0</ele><time>2026-04-03T13:48:28.998Z</time></trkpt><trkpt lat="45.87090900152587" lon="9.157912395828044"><ele>264.0</ele><time>2026-04-03T13:48:29.998Z</time></trkpt><trkpt lat="45.87083582706226" lon="9.15788946127449"><ele>264.0</ele><time>2026-04-03T13:48:30.998Z</time></trkpt><trkpt lat="45.87076541641343" lon="9.157866053773567"><ele>264.0</ele><time>2026-04-03T13:48:31.998Z</time></trkpt><trkpt lat="45.87069565211687" lon="9.157842457548986"><ele>266.5</ele><time>2026-04-03T13:48:32.998Z</time></trkpt><trkpt lat="45.87062394219744" lon="9.157825543076909"><ele>269.0</ele><time>2026-04-03T13:48:33.998Z</time></trkpt><trkpt lat="45.87054941835969" lon="9.157820444034861"><ele>271.5</ele><time>2026-04-03T13:48:34.998Z</time></trkpt><trkpt lat="45.87047554094161" lon="9.157817445867554"><ele>274.0</ele><time>2026-04-03T13:48:35.998Z</time></trkpt><trkpt lat="45.87039607782957" lon="9.157818805655625"><ele>276.5</ele><time>2026-04-03T13:48:36.998Z</time></trkpt><trkpt lat="45.870314477790885" lon="9.157828316041458"><ele>279.0</ele><time>2026-04-03T13:48:37.998Z</time></trkpt><trkpt lat="45.87023180531249" lon="9.15783899942558"><ele>279.0</ele><time>2026-04-03T13:48:38.998Z</time></trkpt><trkpt lat="45.87014834250463" lon="9.157841617595947"><ele>279.0</ele><time>2026-04-03T13:48:39.998Z</time></trkpt><trkpt lat="45.870056248805916" lon="9.157811272060831"><ele>279.0</ele><time>2026-04-03T13:48:40.998Z</time></trkpt><trkpt lat="45.86996422356825" lon="9.157742771228435"><ele>279.0</ele><time>2026-04-03T13:48:41.998Z</time></trkpt><trkpt lat="45.86987912988419" lon="9.15767128483217"><ele>279.0</ele><time>2026-04-03T13:48:42.998Z</time></trkpt><trkpt lat="45.86978871996549" lon="9.157649432545222"><ele>281.6666666666667</ele><time>2026-04-03T13:48:43.998Z</time></trkpt><trkpt lat="45.869692016666434" lon="9.157678974250983"><ele>284.3333333333333</ele><time>2026-04-03T13:48:44.998Z</time></trkpt><trkpt lat="45.86960350265675" lon="9.157732278038972"><ele>287.0</ele><time>2026-04-03T13:48:45.998Z</time></trkpt><trkpt lat="45.869533828416614" lon="9.157755275764474"><ele>289.66666666666663</ele><time>2026-04-03T13:48:46.998Z</time></trkpt><trkpt lat="45.869471989217864" lon="9.157725493275985"><ele>292.3333333333333</ele><time>2026-04-03T13:48:47.998Z</time></trkpt><trkpt lat="45.869411265867065" lon="9.157662973292314"><ele>295.0</ele><time>2026-04-03T13:48:48.998Z</time></trkpt><trkpt lat="45.869353076307306" lon="9.157586264403912"><ele>295.0</ele><time>2026-04-03T13:48:49.998Z</time></trkpt><trkpt lat="45.8693089836087" lon="9.157488121888397"><ele>295.0</ele><time>2026-04-03T13:48:50.998Z</time></trkpt><trkpt lat="45.86928095789168" lon="9.157384761696395"><ele>295.0</ele><time>2026-04-03T13:48:51.998Z</time></trkpt><trkpt lat="45.869257598296414" lon="9.157281304565501"><ele>295.0</ele><time>2026-04-03T13:48:52.998Z</time></trkpt><trkpt lat="45.86921264771873" lon="9.157176073491629"><ele>295.0</ele><time>2026-04-03T13:48:53.998Z</time></trkpt><trkpt lat="45.8691426967138" lon="9.157085921861889"><ele>295.0</ele><time>2026-04-03T13:48:54.998Z</time></trkpt><trkpt lat="45.86905298018226" lon="9.157018471067907"><ele>291.6</ele><time>2026-04-03T13:48:55.998Z</time></trkpt><trkpt lat="45.86895857989502" lon="9.156970292618253"><ele>288.2</ele><time>2026-04-03T13:48:56.998Z</time></trkpt><trkpt lat="45.86886416405934" lon="9.156940829875506"><ele>284.8</ele><time>2026-04-03T13:48:57.998Z</time></trkpt><trkpt lat="45.86877137122099" lon="9.156921585354107"><ele>281.4</ele><time>2026-04-03T13:48:58.998Z</time></trkpt><trkpt lat="45.868680802163404" lon="9.156895625839786"><ele>278.0</ele><time>2026-04-03T13:48:59.998Z</time></trkpt><trkpt lat="45.86859573516055" lon="9.156836609102006"><ele>278.0</ele><time>2026-04-03T13:49:00.998Z</time></trkpt><trkpt lat="45.868529508002" lon="9.156740398434208"><ele>278.0</ele><time>2026-04-03T13:49:01.998Z</time></trkpt><trkpt lat="45.868471818632614" lon="9.156631927591565"><ele>278.0</ele><time>2026-04-03T13:49:02.998Z</time></trkpt><trkpt lat="45.86841343565154" lon="9.156552595460704"><ele>278.0</ele><time>2026-04-03T13:49:03.998Z</time></trkpt><trkpt lat="45.86834551591294" lon="9.156511674291202"><ele>278.0</ele><time>2026-04-03T13:49:04.998Z</time></trkpt><trkpt lat="45.868286902526165" lon="9.1564702113795"><ele>278.0</ele><time>2026-04-03T13:49:05.998Z</time></trkpt><trkpt lat="45.86821782857181" lon="9.156407167690201"><ele>276.1666666666667</ele><time>2026-04-03T13:49:06.998Z</time></trkpt><trkpt lat="45.86814605017266" lon="9.156339665805158"><ele>274.33333333333337</ele><time>2026-04-03T13:49:07.998Z</time></trkpt><trkpt lat="45.868070930436986" lon="9.156278669172007"><ele>272.5</ele><time>2026-04-03T13:49:08.998Z</time></trkpt><trkpt lat="45.86799837725606" lon="9.156215012660175"><ele>270.6666666666667</ele><time>2026-04-03T13:49:09.998Z</time></trkpt><trkpt lat="45.867924989473536" lon="9.15615190993371"><ele>268.8333333333333</ele><time>2026-04-03T13:49:10.998Z</time></trkpt><trkpt lat="45.86784796829957" lon="9.156075786672655"><ele>267.0</ele><time>2026-04-03T13:49:11.998Z</time></trkpt><trkpt lat="45.86776990611208" lon="9.15599126230657"><ele>267.0</ele><time>2026-04-03T13:49:12.998Z</time></trkpt><trkpt lat="45.86768895412262" lon="9.155900468322205"><ele>267.0</ele><time>2026-04-03T13:49:13.998Z</time></trkpt><trkpt lat="45.867608493519754" lon="9.155799077222056"><ele>267.0</ele><time>2026-04-03T13:49:14.998Z</time></trkpt><trkpt lat="45.86752291049056" lon="9.155696316869143"><ele>267.0</ele><time>2026-04-03T13:49:15.998Z</time></trkpt><trkpt lat="45.867432724226795" lon="9.155596374555603"><ele>267.0</ele><time>2026-04-03T13:49:16.998Z</time></trkpt><trkpt lat="45.8673425950698" lon="9.155496865739627"><ele>266.0</ele><time>2026-04-03T13:49:17.998Z</time></trkpt><trkpt lat="45.86726091436117" lon="9.155396357017418"><ele>265.0</ele><time>2026-04-03T13:49:18.998Z</time></trkpt><trkpt lat="45.86718236334506" lon="9.155297805180442"><ele>264.0</ele><time>2026-04-03T13:49:19.998Z</time></trkpt><trkpt lat="45.867098293014514" lon="9.155209057063514"><ele>263.0</ele><time>2026-04-03T13:49:20.998Z</time></trkpt><trkpt lat="45.867011127611285" lon="9.15513116000727"><ele>262.0</ele><time>2026-04-03T13:49:21.998Z</time></trkpt><trkpt lat="45.866922740490224" lon="9.155057284954868"><ele>262.0</ele><time>2026-04-03T13:49:22.998Z</time></trkpt><trkpt lat="45.86682946900315" lon="9.154983199905763"><ele>262.0</ele><time>2026-04-03T13:49:23.998Z</time></trkpt><trkpt lat="45.86673499954177" lon="9.154911379527311"><ele>262.0</ele><time>2026-04-03T13:49:24.998Z</time></trkpt><trkpt lat="45.86663819115369" lon="9.15484079997478"><ele>262.0</ele><time>2026-04-03T13:49:25.998Z</time></trkpt><trkpt lat="45.86654519335218" lon="9.154768132413805"><ele>262.0</ele><time>2026-04-03T13:49:26.998Z</time></trkpt><trkpt lat="45.8664592125202" lon="9.154700286191181"><ele>259.4</ele><time>2026-04-03T13:49:27.998Z</time></trkpt><trkpt lat="45.86637593459323" lon="9.154631548928073"><ele>256.79999999999995</ele><time>2026-04-03T13:49:28.998Z</time></trkpt><trkpt lat="45.86629833971934" lon="9.15456054803618"><ele>254.2</ele><time>2026-04-03T13:49:29.998Z</time></trkpt><trkpt lat="45.866221589778995" lon="9.154481481688633"><ele>251.6</ele><time>2026-04-03T13:49:30.998Z</time></trkpt><trkpt lat="45.866151995489496" lon="9.15440003942723"><ele>249.0</ele><time>2026-04-03T13:49:31.998Z</time></trkpt><trkpt lat="45.86608412725201" lon="9.154329654853894"><ele>249.0</ele><time>2026-04-03T13:49:32.998Z</time></trkpt><trkpt lat="45.86602462635685" lon="9.154266620262693"><ele>248.99999999999997</ele><time>2026-04-03T13:49:33.998Z</time></trkpt><trkpt lat="45.86596751869451" lon="9.154208260317438"><ele>249.0</ele><time>2026-04-03T13:49:34.999Z</time></trkpt><trkpt lat="45.86591386275899" lon="9.154149465390613"><ele>249.0</ele><time>2026-04-03T13:49:35.999Z</time></trkpt><trkpt lat="45.865862152410486" lon="9.15408638403853"><ele>248.99999999999997</ele><time>2026-04-03T13:49:36.999Z</time></trkpt><trkpt lat="45.865804558574844" lon="9.154020255963024"><ele>249.0</ele><time>2026-04-03T13:49:37.999Z</time></trkpt><trkpt lat="45.865746748966885" lon="9.153944118467159"><ele>249.0</ele><time>2026-04-03T13:49:38.999Z</time></trkpt><trkpt lat="45.865689658279145" lon="9.15386421169026"><ele>250.0</ele><time>2026-04-03T13:49:39.999Z</time></trkpt><trkpt lat="45.865634855244224" lon="9.153789559381721"><ele>250.99999999999997</ele><time>2026-04-03T13:49:40.999Z</time></trkpt><trkpt lat="45.865581459321426" lon="9.153725587650435"><ele>251.99999999999997</ele><time>2026-04-03T13:49:41.999Z</time></trkpt><trkpt lat="45.865485599415656" lon="9.153619381139045"><ele>253.0</ele><time>2026-04-03T13:49:43.999Z</time></trkpt><trkpt lat="45.86537424042776" lon="9.153549404737873"><ele>254.0</ele><time>2026-04-03T13:49:45.999Z</time></trkpt><trkpt lat="45.86531093953286" lon="9.153515025791977"><ele>254.00000000000003</ele><time>2026-04-03T13:49:46.999Z</time></trkpt><trkpt lat="45.86524473414341" lon="9.153455323764799"><ele>254.0</ele><time>2026-04-03T13:49:47.999Z</time></trkpt><trkpt lat="45.865194249409484" lon="9.153366806402232"><ele>254.0</ele><time>2026-04-03T13:49:48.999Z</time></trkpt><trkpt lat="45.86514871748197" lon="9.153263100818418"><ele>254.0</ele><time>2026-04-03T13:49:49.999Z</time></trkpt><trkpt lat="45.86509905917839" lon="9.153162113794961"><ele>254.00000000000003</ele><time>2026-04-03T13:49:50.999Z</time></trkpt><trkpt lat="45.86503147674512" lon="9.153087308907708"><ele>254.0</ele><time>2026-04-03T13:49:51.999Z</time></trkpt><trkpt lat="45.864953231773626" lon="9.153025985638934"><ele>254.28571428571428</ele><time>2026-04-03T13:49:52.999Z</time></trkpt><trkpt lat="45.86487442222162" lon="9.152978059348905"><ele>254.57142857142856</ele><time>2026-04-03T13:49:53.999Z</time></trkpt><trkpt lat="45.86479673874524" lon="9.152936812219263"><ele>254.85714285714283</ele><time>2026-04-03T13:49:54.999Z</time></trkpt><trkpt lat="45.864729471461054" lon="9.15290063907148"><ele>255.14285714285714</ele><time>2026-04-03T13:49:55.999Z</time></trkpt><trkpt lat="45.86466582505369" lon="9.152866800290607"><ele>255.4285714285714</ele><time>2026-04-03T13:49:56.999Z</time></trkpt><trkpt lat="45.8646066883753" lon="9.15283363474438"><ele>255.7142857142857</ele><time>2026-04-03T13:49:57.999Z</time></trkpt><trkpt lat="45.86455008157751" lon="9.152793612426079"><ele>256.0</ele><time>2026-04-03T13:49:58.999Z</time></trkpt><trkpt lat="45.864491257145644" lon="9.152730873055763"><ele>256.0</ele><time>2026-04-03T13:49:59.999Z</time></trkpt><trkpt lat="45.864439593601254" lon="9.152659402447878"><ele>255.99999999999997</ele><time>2026-04-03T13:50:00.999Z</time></trkpt><trkpt lat="45.864393980684746" lon="9.152570579547527"><ele>256.0</ele><time>2026-04-03T13:50:01.999Z</time></trkpt><trkpt lat="45.86435895601039" lon="9.152475498126172"><ele>256.0</ele><time>2026-04-03T13:50:02.999Z</time></trkpt><trkpt lat="45.864338978452665" lon="9.15238333772945"><ele>255.99999999999997</ele><time>2026-04-03T13:50:03.999Z</time></trkpt><trkpt lat="45.86431948776846" lon="9.152292208869158"><ele>256.0</ele><time>2026-04-03T13:50:04.999Z</time></trkpt><trkpt lat="45.864296023208325" lon="9.152199086706636"><ele>256.0</ele><time>2026-04-03T13:50:05.999Z</time></trkpt><trkpt lat="45.86426799000414" lon="9.152106846068044"><ele>256.7142857142857</ele><time>2026-04-03T13:50:06.999Z</time></trkpt><trkpt lat="45.86422841013841" lon="9.152026655588754"><ele>257.4285714285714</ele><time>2026-04-03T13:50:07.999Z</time></trkpt><trkpt lat="45.86418028706559" lon="9.151951525406538"><ele>258.1428571428571</ele><time>2026-04-03T13:50:08.999Z</time></trkpt><trkpt lat="45.86412840406823" lon="9.151888565687265"><ele>258.85714285714283</ele><time>2026-04-03T13:50:09.999Z</time></trkpt><trkpt lat="45.86407501127497" lon="9.151823992212327"><ele>259.57142857142856</ele><time>2026-04-03T13:50:10.999Z</time></trkpt><trkpt lat="45.864025396682486" lon="9.151762481545642"><ele>260.2857142857143</ele><time>2026-04-03T13:50:11.999Z</time></trkpt><trkpt lat="45.863980176500604" lon="9.151691163224596"><ele>261.0</ele><time>2026-04-03T13:50:12.999Z</time></trkpt><trkpt lat="45.86392867602694" lon="9.151608627774044"><ele>255.60000000000002</ele><time>2026-04-03T13:50:13.999Z</time></trkpt><trkpt lat="45.863875707654174" lon="9.151539439891687"><ele>250.20000000000002</ele><time>2026-04-03T13:50:14.999Z</time></trkpt><trkpt lat="45.86380391780494" lon="9.15145430476994"><ele>244.79999999999998</ele><time>2026-04-03T13:50:15.999Z</time></trkpt><trkpt lat="45.86373679355105" lon="9.151356629931488"><ele>239.39999999999998</ele><time>2026-04-03T13:50:16.999Z</time></trkpt><trkpt lat="45.863658262294585" lon="9.151272643311907"><ele>234.0</ele><time>2026-04-03T13:50:17.999Z</time></trkpt><trkpt lat="45.863582677811664" lon="9.151186750389682"><ele>234.0</ele><time>2026-04-03T13:50:18.999Z</time></trkpt><trkpt lat="45.86351242630913" lon="9.151108743094564"><ele>234.0</ele><time>2026-04-03T13:50:19.999Z</time></trkpt><trkpt lat="45.863445719904476" lon="9.151033645474923"><ele>234.0</ele><time>2026-04-03T13:50:20.999Z</time></trkpt><trkpt lat="45.863385255657214" lon="9.15097373002481"><ele>234.0</ele><time>2026-04-03T13:50:21.999Z</time></trkpt><trkpt lat="45.863334062346986" lon="9.150916958879575"><ele>234.0</ele><time>2026-04-03T13:50:22.999Z</time></trkpt><trkpt lat="45.86327818006112" lon="9.15085121543495"><ele>234.0</ele><time>2026-04-03T13:50:23.999Z</time></trkpt><trkpt lat="45.86321659966045" lon="9.150783453801484"><ele>235.5</ele><time>2026-04-03T13:50:24.999Z</time></trkpt><trkpt lat="45.863149445987204" lon="9.150711946631839"><ele>237.0</ele><time>2026-04-03T13:50:25.998Z</time></trkpt><trkpt lat="45.863082054095045" lon="9.150635614547053"><ele>238.5</ele><time>2026-04-03T13:50:26.998Z</time></trkpt><trkpt lat="45.86301578430095" lon="9.150562956946395"><ele>240.0</ele><time>2026-04-03T13:50:27.998Z</time></trkpt><trkpt lat="45.86294762483588" lon="9.150469042658365"><ele>241.5</ele><time>2026-04-03T13:50:28.998Z</time></trkpt><trkpt lat="45.86288194783241" lon="9.150360979601853"><ele>243.0</ele><time>2026-04-03T13:50:29.998Z</time></trkpt><trkpt lat="45.8628145864423" lon="9.150242587280369"><ele>243.0</ele><time>2026-04-03T13:50:30.998Z</time></trkpt><trkpt lat="45.86275035773846" lon="9.150120900374413"><ele>243.0</ele><time>2026-04-03T13:50:31.998Z</time></trkpt><trkpt lat="45.862690530099094" lon="9.149997371211171"><ele>243.0</ele><time>2026-04-03T13:50:32.998Z</time></trkpt><trkpt lat="45.86261892826094" lon="9.14988939315004"><ele>243.0</ele><time>2026-04-03T13:50:33.998Z</time></trkpt><trkpt lat="45.86254269290313" lon="9.14978349866069"><ele>243.0</ele><time>2026-04-03T13:50:34.998Z</time></trkpt><trkpt lat="45.862469820324286" lon="9.149669636720564"><ele>243.4</ele><time>2026-04-03T13:50:35.998Z</time></trkpt><trkpt lat="45.86240855392502" lon="9.14954896218337"><ele>243.8</ele><time>2026-04-03T13:50:36.998Z</time></trkpt><trkpt lat="45.862371338686835" lon="9.149418440134381"><ele>244.2</ele><time>2026-04-03T13:50:37.998Z</time></trkpt><trkpt lat="45.86234042891638" lon="9.149280251771156"><ele>244.6</ele><time>2026-04-03T13:50:38.998Z</time></trkpt><trkpt lat="45.86230450841567" lon="9.149134030981928"><ele>245.0</ele><time>2026-04-03T13:50:39.998Z</time></trkpt><trkpt lat="45.86225074443284" lon="9.148997484582805"><ele>245.0</ele><time>2026-04-03T13:50:40.998Z</time></trkpt><trkpt lat="45.86217396834864" lon="9.148869957352188"><ele>245.0</ele><time>2026-04-03T13:50:41.998Z</time></trkpt><trkpt lat="45.86209798668006" lon="9.148767662222879"><ele>245.0</ele><time>2026-04-03T13:50:42.998Z</time></trkpt><trkpt lat="45.86202651694681" lon="9.148663793309852"><ele>245.0</ele><time>2026-04-03T13:50:43.998Z</time></trkpt><trkpt lat="45.86197004029696" lon="9.148534307905283"><ele>245.0</ele><time>2026-04-03T13:50:44.998Z</time></trkpt><trkpt lat="45.86194025205037" lon="9.148387231365291"><ele>245.0</ele><time>2026-04-03T13:50:45.998Z</time></trkpt><trkpt lat="45.86192404903981" lon="9.148233837448693"><ele>245.0</ele><time>2026-04-03T13:50:46.998Z</time></trkpt><trkpt lat="45.86190088615089" lon="9.148083867364646"><ele>245.0</ele><time>2026-04-03T13:50:47.998Z</time></trkpt><trkpt lat="45.86187559010482" lon="9.14793668888224"><ele>245.0</ele><time>2026-04-03T13:50:48.998Z</time></trkpt><trkpt lat="45.861851883920494" lon="9.147797706644269"><ele>245.0</ele><time>2026-04-03T13:50:49.998Z</time></trkpt><trkpt lat="45.86181884726451" lon="9.147661750521"><ele>245.2</ele><time>2026-04-03T13:50:50.998Z</time></trkpt><trkpt lat="45.86176520904199" lon="9.147539598070592"><ele>245.4</ele><time>2026-04-03T13:50:51.998Z</time></trkpt><trkpt lat="45.86169002118806" lon="9.147431547518034"><ele>245.60000000000002</ele><time>2026-04-03T13:50:52.998Z</time></trkpt><trkpt lat="45.86160806291868" lon="9.147325500395937"><ele>245.8</ele><time>2026-04-03T13:50:53.998Z</time></trkpt><trkpt lat="45.86153268180019" lon="9.147222066980982"><ele>246.0</ele><time>2026-04-03T13:50:54.998Z</time></trkpt><trkpt lat="45.86146017036566" lon="9.147125414391748"><ele>246.0</ele><time>2026-04-03T13:50:55.998Z</time></trkpt><trkpt lat="45.86138695278069" lon="9.147030812134478"><ele>246.00000000000003</ele><time>2026-04-03T13:50:56.998Z</time></trkpt><trkpt lat="45.861313171840116" lon="9.146934980559061"><ele>246.00000000000003</ele><time>2026-04-03T13:50:57.998Z</time></trkpt><trkpt lat="45.86124086397587" lon="9.146838297075531"><ele>246.0</ele><time>2026-04-03T13:50:58.998Z</time></trkpt><trkpt lat="45.86116913368039" lon="9.14673831833127"><ele>246.0</ele><time>2026-04-03T13:50:59.998Z</time></trkpt><trkpt lat="45.8610964180349" lon="9.146638655477425"><ele>249.20000000000002</ele><time>2026-04-03T13:51:00.998Z</time></trkpt><trkpt lat="45.861024116325055" lon="9.146539507872731"><ele>252.40000000000003</ele><time>2026-04-03T13:51:01.998Z</time></trkpt><trkpt lat="45.86095631641459" lon="9.146434058739278"><ele>255.6</ele><time>2026-04-03T13:51:02.998Z</time></trkpt><trkpt lat="45.86088699073102" lon="9.146330868448668"><ele>258.8</ele><time>2026-04-03T13:51:03.998Z</time></trkpt><trkpt lat="45.86080511908872" lon="9.146249826829552"><ele>262.0</ele><time>2026-04-03T13:51:04.998Z</time></trkpt><trkpt lat="45.86070879139516" lon="9.146186467513376"><ele>262.0</ele><time>2026-04-03T13:51:05.998Z</time></trkpt><trkpt lat="45.86061144716699" lon="9.146128928003145"><ele>262.0</ele><time>2026-04-03T13:51:06.998Z</time></trkpt><trkpt lat="45.86051858938264" lon="9.14607303364972"><ele>262.0</ele><time>2026-04-03T13:51:07.998Z</time></trkpt><trkpt lat="45.86043273189969" lon="9.14601286456107"><ele>262.0</ele><time>2026-04-03T13:51:08.998Z</time></trkpt><trkpt lat="45.86035199907261" lon="9.145927645231529"><ele>262.0</ele><time>2026-04-03T13:51:09.998Z</time></trkpt><trkpt lat="45.86027864712697" lon="9.145817869028656"><ele>264.6</ele><time>2026-04-03T13:51:10.998Z</time></trkpt><trkpt lat="45.86020846795767" lon="9.145708254596784"><ele>267.2</ele><time>2026-04-03T13:51:11.998Z</time></trkpt><trkpt lat="45.860137016607695" lon="9.145608692760538"><ele>269.8</ele><time>2026-04-03T13:51:12.998Z</time></trkpt><trkpt lat="45.860062976408884" lon="9.145517962102497"><ele>272.4</ele><time>2026-04-03T13:51:13.998Z</time></trkpt><trkpt lat="45.85999148880296" lon="9.14542507959681"><ele>275.0</ele><time>2026-04-03T13:51:14.998Z</time></trkpt><trkpt lat="45.85992185038879" lon="9.145328844215857"><ele>275.0</ele><time>2026-04-03T13:51:15.998Z</time></trkpt><trkpt lat="45.85985121969645" lon="9.145225995719526"><ele>275.0</ele><time>2026-04-03T13:51:16.998Z</time></trkpt><trkpt lat="45.8597816507195" lon="9.145117468044816"><ele>275.0</ele><time>2026-04-03T13:51:17.998Z</time></trkpt><trkpt lat="45.859709416176685" lon="9.145006063954707"><ele>275.0</ele><time>2026-04-03T13:51:18.998Z</time></trkpt><trkpt lat="45.859643482754755" lon="9.144887798231336"><ele>275.0</ele><time>2026-04-03T13:51:19.998Z</time></trkpt><trkpt lat="45.859581220819834" lon="9.144768893948537"><ele>271.4</ele><time>2026-04-03T13:51:20.998Z</time></trkpt><trkpt lat="45.85952321428689" lon="9.144647590492982"><ele>267.8</ele><time>2026-04-03T13:51:21.998Z</time></trkpt><trkpt lat="45.859464243191404" lon="9.144525356336748"><ele>264.2</ele><time>2026-04-03T13:51:22.998Z</time></trkpt><trkpt lat="45.859406150661556" lon="9.144404500399792"><ele>260.6</ele><time>2026-04-03T13:51:23.998Z</time></trkpt><trkpt lat="45.85934957179088" lon="9.144280626904402"><ele>257.0</ele><time>2026-04-03T13:51:24.998Z</time></trkpt><trkpt lat="45.85929558473071" lon="9.144150975590028"><ele>260.0</ele><time>2026-04-03T13:51:25.998Z</time></trkpt><trkpt lat="45.85923739169105" lon="9.144019852252814"><ele>263.0</ele><time>2026-04-03T13:51:26.998Z</time></trkpt><trkpt lat="45.85916805841941" lon="9.143894369826942"><ele>266.0</ele><time>2026-04-03T13:51:27.998Z</time></trkpt><trkpt lat="45.859092919213104" lon="9.14377325967272"><ele>269.0</ele><time>2026-04-03T13:51:28.999Z</time></trkpt><trkpt lat="45.859016696122104" lon="9.143654872061578"><ele>272.0</ele><time>2026-04-03T13:51:29.999Z</time></trkpt><trkpt lat="45.858942670639664" lon="9.143546426772952"><ele>272.0</ele><time>2026-04-03T13:51:30.999Z</time></trkpt><trkpt lat="45.85886881775638" lon="9.143441437688454"><ele>272.0</ele><time>2026-04-03T13:51:31.999Z</time></trkpt><trkpt lat="45.858794234048815" lon="9.1433346858168"><ele>272.0</ele><time>2026-04-03T13:51:32.999Z</time></trkpt><trkpt lat="45.85871845681255" lon="9.143227829636658"><ele>272.0</ele><time>2026-04-03T13:51:33.999Z</time></trkpt><trkpt lat="45.858640660290725" lon="9.143118802854321"><ele>272.0</ele><time>2026-04-03T13:51:34.999Z</time></trkpt><trkpt lat="45.85857230412699" lon="9.143012381307388"><ele>272.6</ele><time>2026-04-03T13:51:35.999Z</time></trkpt><trkpt lat="45.85850584325313" lon="9.142908410689078"><ele>273.2</ele><time>2026-04-03T13:51:36.999Z</time></trkpt><trkpt lat="45.858440222108754" lon="9.142792130387766"><ele>273.8</ele><time>2026-04-03T13:51:37.999Z</time></trkpt><trkpt lat="45.85838665186324" lon="9.142653328673092"><ele>274.4</ele><time>2026-04-03T13:51:38.999Z</time></trkpt><trkpt lat="45.8583472450623" lon="9.14249526055014"><ele>275.0</ele><time>2026-04-03T13:51:39.999Z</time></trkpt><trkpt lat="45.858311203231544" lon="9.142344196993667"><ele>275.0</ele><time>2026-04-03T13:51:40.999Z</time></trkpt><trkpt lat="45.85826204034691" lon="9.142197443165973"><ele>275.0</ele><time>2026-04-03T13:51:41.999Z</time></trkpt><trkpt lat="45.85820130686276" lon="9.142045053516359"><ele>275.0</ele><time>2026-04-03T13:51:42.999Z</time></trkpt><trkpt lat="45.858125594254474" lon="9.141905741296155"><ele>275.0</ele><time>2026-04-03T13:51:43.999Z</time></trkpt><trkpt lat="45.85803328938905" lon="9.14177380038745"><ele>275.0</ele><time>2026-04-03T13:51:44.999Z</time></trkpt><trkpt lat="45.85794418520089" lon="9.141651283746356"><ele>275.0</ele><time>2026-04-03T13:51:45.999Z</time></trkpt><trkpt lat="45.85786581301452" lon="9.141536870520003"><ele>275.0</ele><time>2026-04-03T13:51:46.999Z</time></trkpt><trkpt lat="45.857790432867695" lon="9.141428082826902"><ele>275.0</ele><time>2026-04-03T13:51:47.999Z</time></trkpt><trkpt lat="45.85771888550045" lon="9.141322820788954"><ele>275.0</ele><time>2026-04-03T13:51:48.999Z</time></trkpt><trkpt lat="45.85765096491838" lon="9.141224331138332"><ele>280.83333333333337</ele><time>2026-04-03T13:51:49.999Z</time></trkpt><trkpt lat="45.857584258334434" lon="9.141127980572548"><ele>286.6666666666667</ele><time>2026-04-03T13:51:50.999Z</time></trkpt><trkpt lat="45.857523741974504" lon="9.1410391866223"><ele>292.5</ele><time>2026-04-03T13:51:51.999Z</time></trkpt><trkpt lat="45.85746953696686" lon="9.140966455121264"><ele>298.3333333333333</ele><time>2026-04-03T13:51:52.999Z</time></trkpt><trkpt lat="45.857405029780736" lon="9.140913973624869"><ele>304.16666666666663</ele><time>2026-04-03T13:51:53.999Z</time></trkpt><trkpt lat="45.8573207466223" lon="9.140889836591576"><ele>310.0</ele><time>2026-04-03T13:51:54.999Z</time></trkpt><trkpt lat="45.857225599613464" lon="9.140888696553617"><ele>310.0</ele><time>2026-04-03T13:51:55.999Z</time></trkpt><trkpt lat="45.85713606114771" lon="9.140887054269797"><ele>310.0</ele><time>2026-04-03T13:51:56.999Z</time></trkpt><trkpt lat="45.857062012838426" lon="9.140888038609457"><ele>310.0</ele><time>2026-04-03T13:51:57.999Z</time></trkpt><trkpt lat="45.85699281135795" lon="9.140876460696191"><ele>310.0</ele><time>2026-04-03T13:51:58.999Z</time></trkpt><trkpt lat="45.856932007818905" lon="9.140824060567244"><ele>310.0</ele><time>2026-04-03T13:51:59.999Z</time></trkpt><trkpt lat="45.8568680755475" lon="9.140735665073873"><ele>310.0</ele><time>2026-04-03T13:52:00.999Z</time></trkpt><trkpt lat="45.856817212261994" lon="9.140621082818479"><ele>301.25</ele><time>2026-04-03T13:52:01.999Z</time></trkpt><trkpt lat="45.85679870074658" lon="9.140465207283215"><ele>292.5</ele><time>2026-04-03T13:52:02.999Z</time></trkpt><trkpt lat="45.8568345558921" lon="9.140299557732975"><ele>283.75</ele><time>2026-04-03T13:52:03.999Z</time></trkpt><trkpt lat="45.856859307208474" lon="9.140102907629757"><ele>275.0</ele><time>2026-04-03T13:52:04.999Z</time></trkpt><trkpt lat="45.856893752804126" lon="9.140212526542383"><ele>275.0</ele><time>2026-04-03T13:52:05.999Z</time></trkpt><trkpt lat="45.85691413085213" lon="9.140040069214335"><ele>275.0</ele><time>2026-04-03T13:52:06.999Z</time></trkpt><trkpt lat="45.85690869141213" lon="9.139890544459433"><ele>275.0</ele><time>2026-04-03T13:52:07.999Z</time></trkpt><trkpt lat="45.856903547607686" lon="9.139747227668593"><ele>275.0</ele><time>2026-04-03T13:52:08.999Z</time></trkpt><trkpt lat="45.856867951551145" lon="9.139578571970722"><ele>275.0</ele><time>2026-04-03T13:52:09.999Z</time></trkpt><trkpt lat="45.8568437728849" lon="9.139435507015655"><ele>274.33333333333337</ele><time>2026-04-03T13:52:10.999Z</time></trkpt><trkpt lat="45.8568385349423" lon="9.139300769209354"><ele>273.6666666666667</ele><time>2026-04-03T13:52:11.999Z</time></trkpt><trkpt lat="45.856848876589105" lon="9.139174256269401"><ele>273.0</ele><time>2026-04-03T13:52:12.999Z</time></trkpt><trkpt lat="45.856876249771226" lon="9.139066269928428"><ele>272.3333333333333</ele><time>2026-04-03T13:52:13.999Z</time></trkpt><trkpt lat="45.856887689098336" lon="9.138968519604642"><ele>271.66666666666663</ele><time>2026-04-03T13:52:14.999Z</time></trkpt><trkpt lat="45.85690137868842" lon="9.138853846793763"><ele>271.0</ele><time>2026-04-03T13:52:15.999Z</time></trkpt><trkpt lat="45.856912970331344" lon="9.138729354847495"><ele>270.8</ele><time>2026-04-03T13:52:16.999Z</time></trkpt><trkpt lat="45.85691662656635" lon="9.138598954795702"><ele>270.6</ele><time>2026-04-03T13:52:17.999Z</time></trkpt><trkpt lat="45.85691226089652" lon="9.138464471175817"><ele>270.4</ele><time>2026-04-03T13:52:18.999Z</time></trkpt><trkpt lat="45.85689561185474" lon="9.138325396076619"><ele>270.2</ele><time>2026-04-03T13:52:19.999Z</time></trkpt><trkpt lat="45.85686756982395" lon="9.138180973622699"><ele>270.0</ele><time>2026-04-03T13:52:20.999Z</time></trkpt><trkpt lat="45.856844873615366" lon="9.138028308923046"><ele>267.6</ele><time>2026-04-03T13:52:21.999Z</time></trkpt><trkpt lat="45.85682778138177" lon="9.137883214685772"><ele>265.2</ele><time>2026-04-03T13:52:22.999Z</time></trkpt><trkpt lat="45.856815181772504" lon="9.137751032956064"><ele>262.8</ele><time>2026-04-03T13:52:23.999Z</time></trkpt><trkpt lat="45.85679870733692" lon="9.137613165873173"><ele>260.4</ele><time>2026-04-03T13:52:24.999Z</time></trkpt><trkpt lat="45.85677190031512" lon="9.137464339806646"><ele>258.0</ele><time>2026-04-03T13:52:25.999Z</time></trkpt><trkpt lat="45.856734272107914" lon="9.137319686352384"><ele>270.8</ele><time>2026-04-03T13:52:26.999Z</time></trkpt><trkpt lat="45.85671368476047" lon="9.13716670722731"><ele>283.6</ele><time>2026-04-03T13:52:27.999Z</time></trkpt><trkpt lat="45.856695462543904" lon="9.13700514193256"><ele>296.40000000000003</ele><time>2026-04-03T13:52:28.999Z</time></trkpt><trkpt lat="45.85668491284978" lon="9.136851027386058"><ele>309.20000000000005</ele><time>2026-04-03T13:52:29.999Z</time></trkpt><trkpt lat="45.85667687205627" lon="9.136687841766799"><ele>322.0</ele><time>2026-04-03T13:52:30.999Z</time></trkpt><trkpt lat="45.85666149495182" lon="9.136521433876595"><ele>322.0</ele><time>2026-04-03T13:52:31.999Z</time></trkpt><trkpt lat="45.856646376151424" lon="9.136363104141271"><ele>322.0</ele><time>2026-04-03T13:52:32.999Z</time></trkpt><trkpt lat="45.85663362584478" lon="9.136196325105887"><ele>322.0</ele><time>2026-04-03T13:52:33.999Z</time></trkpt><trkpt lat="45.85661649672804" lon="9.1360233464741"><ele>322.0</ele><time>2026-04-03T13:52:34.999Z</time></trkpt><trkpt lat="45.856603011981086" lon="9.135846440593065"><ele>322.0</ele><time>2026-04-03T13:52:35.999Z</time></trkpt><trkpt lat="45.856591373530605" lon="9.135663562022337"><ele>322.0</ele><time>2026-04-03T13:52:36.999Z</time></trkpt><trkpt lat="45.856586472507345" lon="9.135476919601986"><ele>322.0</ele><time>2026-04-03T13:52:37.999Z</time></trkpt><trkpt lat="45.85660932164877" lon="9.135274169889122"><ele>322.0</ele><time>2026-04-03T13:52:38.999Z</time></trkpt><trkpt lat="45.85663091116406" lon="9.135092250320092"><ele>322.0</ele><time>2026-04-03T13:52:39.999Z</time></trkpt><trkpt lat="45.85665826774396" lon="9.134932759392978"><ele>322.0</ele><time>2026-04-03T13:52:40.999Z</time></trkpt><trkpt lat="45.85667588131564" lon="9.134762785826597"><ele>322.0</ele><time>2026-04-03T13:52:41.999Z</time></trkpt><trkpt lat="45.85667325473582" lon="9.13458935971631"><ele>322.0</ele><time>2026-04-03T13:52:42.999Z</time></trkpt><trkpt lat="45.856653397931076" lon="9.134399066593508"><ele>320.6</ele><time>2026-04-03T13:52:43.999Z</time></trkpt><trkpt lat="45.85662713136376" lon="9.134217588411891"><ele>319.20000000000005</ele><time>2026-04-03T13:52:44.999Z</time></trkpt><trkpt lat="45.856600278055076" lon="9.134048441027437"><ele>317.8</ele><time>2026-04-03T13:52:45.999Z</time></trkpt><trkpt lat="45.85658512270501" lon="9.133901911507392"><ele>316.4</ele><time>2026-04-03T13:52:46.999Z</time></trkpt><trkpt lat="45.85656412740501" lon="9.133769113761053"><ele>315.0</ele><time>2026-04-03T13:52:47.999Z</time></trkpt><trkpt lat="45.85654929704457" lon="9.133639169546596"><ele>314.2</ele><time>2026-04-03T13:52:48.999Z</time></trkpt><trkpt lat="45.85652682392488" lon="9.133510444778189"><ele>313.4</ele><time>2026-04-03T13:52:49.999Z</time></trkpt><trkpt lat="45.85650693722302" lon="9.133375464612774"><ele>312.6</ele><time>2026-04-03T13:52:50.999Z</time></trkpt><trkpt lat="45.85648546343919" lon="9.133226543434976"><ele>311.8</ele><time>2026-04-03T13:52:51.999Z</time></trkpt><trkpt lat="45.85646641447521" lon="9.133067533591653"><ele>311.0</ele><time>2026-04-03T13:52:52.999Z</time></trkpt><trkpt lat="45.85644613822507" lon="9.132907389507082"><ele>309.2</ele><time>2026-04-03T13:52:53.999Z</time></trkpt><trkpt lat="45.85642625179833" lon="9.132750412352973"><ele>307.40000000000003</ele><time>2026-04-03T13:52:54.999Z</time></trkpt><trkpt lat="45.85640797735209" lon="9.13260243749124"><ele>305.6</ele><time>2026-04-03T13:52:55.999Z</time></trkpt><trkpt lat="45.856394269949234" lon="9.13246995735634"><ele>303.8</ele><time>2026-04-03T13:52:56.999Z</time></trkpt><trkpt lat="45.856380488607684" lon="9.132352155513713"><ele>302.0</ele><time>2026-04-03T13:52:57.999Z</time></trkpt><trkpt lat="45.85636302992011" lon="9.132237145603463"><ele>302.0</ele><time>2026-04-03T13:52:58.999Z</time></trkpt><trkpt lat="45.8563578272" lon="9.132114801519887"><ele>302.0</ele><time>2026-04-03T13:52:59.999Z</time></trkpt><trkpt lat="45.856366347489995" lon="9.131982783032903"><ele>302.0</ele><time>2026-04-03T13:53:00.999Z</time></trkpt><trkpt lat="45.85640363694821" lon="9.131845203316223"><ele>302.0</ele><time>2026-04-03T13:53:01.999Z</time></trkpt><trkpt lat="45.85646922868057" lon="9.13171730341534"><ele>302.0</ele><time>2026-04-03T13:53:02.999Z</time></trkpt><trkpt lat="45.856562887867575" lon="9.131616254633926"><ele>302.0</ele><time>2026-04-03T13:53:03.999Z</time></trkpt><trkpt lat="45.856668212395654" lon="9.131567648250861"><ele>302.0</ele><time>2026-04-03T13:53:04.999Z</time></trkpt><trkpt lat="45.8567665338842" lon="9.131498586625685"><ele>302.0</ele><time>2026-04-03T13:53:05.999Z</time></trkpt><trkpt lat="45.8568369003671" lon="9.13134775687814"><ele>302.0</ele><time>2026-04-03T13:53:06.999Z</time></trkpt><trkpt lat="45.856880859689646" lon="9.131156815208627"><ele>299.2</ele><time>2026-04-03T13:53:07.999Z</time></trkpt><trkpt lat="45.85690733116529" lon="9.130999388245014"><ele>296.4</ele><time>2026-04-03T13:53:08.999Z</time></trkpt><trkpt lat="45.85693411414218" lon="9.1308687410165"><ele>293.6</ele><time>2026-04-03T13:53:09.998Z</time></trkpt><trkpt lat="45.85697129008796" lon="9.130747394337845"><ele>290.8</ele><time>2026-04-03T13:53:10.998Z</time></trkpt><trkpt lat="45.85701895276056" lon="9.130622664037654"><ele>288.0</ele><time>2026-04-03T13:53:11.998Z</time></trkpt><trkpt lat="45.85707016628866" lon="9.130488764671584"><ele>288.0</ele><time>2026-04-03T13:53:12.998Z</time></trkpt><trkpt lat="45.857126798299014" lon="9.130353357193183"><ele>288.0</ele><time>2026-04-03T13:53:13.998Z</time></trkpt><trkpt lat="45.85718445262352" lon="9.130220819695436"><ele>288.0</ele><time>2026-04-03T13:53:14.998Z</time></trkpt><trkpt lat="45.857236340357005" lon="9.130094815534717"><ele>288.0</ele><time>2026-04-03T13:53:15.998Z</time></trkpt><trkpt lat="45.85728543293517" lon="9.129973215092573"><ele>288.0</ele><time>2026-04-03T13:53:16.998Z</time></trkpt><trkpt lat="45.8573370058703" lon="9.129848286023048"><ele>291.6</ele><time>2026-04-03T13:53:17.998Z</time></trkpt><trkpt lat="45.85739035987493" lon="9.129720795157038"><ele>295.20000000000005</ele><time>2026-04-03T13:53:18.998Z</time></trkpt><trkpt lat="45.8574443454724" lon="9.129588867459837"><ele>298.8</ele><time>2026-04-03T13:53:19.998Z</time></trkpt><trkpt lat="45.85749675388959" lon="9.129458187525561"><ele>302.40000000000003</ele><time>2026-04-03T13:53:20.998Z</time></trkpt><trkpt lat="45.85754661892528" lon="9.129334032295814"><ele>306.0</ele><time>2026-04-03T13:53:21.998Z</time></trkpt><trkpt lat="45.85759909942276" lon="9.129216185973778"><ele>297.1666666666667</ele><time>2026-04-03T13:53:22.998Z</time></trkpt><trkpt lat="45.85764860014585" lon="9.12910398943491"><ele>288.3333333333333</ele><time>2026-04-03T13:53:23.998Z</time></trkpt><trkpt lat="45.857689451247104" lon="9.128999819328333"><ele>279.5</ele><time>2026-04-03T13:53:24.998Z</time></trkpt><trkpt lat="45.85771879350671" lon="9.128899475012242"><ele>270.66666666666663</ele><time>2026-04-03T13:53:25.998Z</time></trkpt><trkpt lat="45.85774580800677" lon="9.128786830496038"><ele>261.8333333333333</ele><time>2026-04-03T13:53:26.998Z</time></trkpt><trkpt lat="45.857776929966285" lon="9.128655004449042"><ele>253.0</ele><time>2026-04-03T13:53:27.998Z</time></trkpt><trkpt lat="45.85779810623526" lon="9.128501901913191"><ele>253.0</ele><time>2026-04-03T13:53:28.998Z</time></trkpt><trkpt lat="45.85780399791037" lon="9.128342908682454"><ele>253.0</ele><time>2026-04-03T13:53:29.998Z</time></trkpt><trkpt lat="45.857792902403574" lon="9.128173179646334"><ele>253.0</ele><time>2026-04-03T13:53:30.998Z</time></trkpt><trkpt lat="45.85776114003377" lon="9.128014861777269"><ele>253.0</ele><time>2026-04-03T13:53:31.998Z</time></trkpt><trkpt lat="45.85773481221253" lon="9.12786910772894"><ele>253.0</ele><time>2026-04-03T13:53:32.998Z</time></trkpt><trkpt lat="45.85770809373731" lon="9.12771441733272"><ele>251.5</ele><time>2026-04-03T13:53:33.998Z</time></trkpt><trkpt lat="45.85768683792445" lon="9.12754482198484"><ele>250.0</ele><time>2026-04-03T13:53:35Z</time></trkpt><trkpt lat="45.857660474025764" lon="9.127373283486797"><ele>248.5</ele><time>2026-04-03T13:53:36Z</time></trkpt><trkpt lat="45.8576329439552" lon="9.127201399159055"><ele>247.0</ele><time>2026-04-03T13:53:37Z</time></trkpt><trkpt lat="45.85760758709654" lon="9.127026377388576"><ele>256.25</ele><time>2026-04-03T13:53:38Z</time></trkpt><trkpt lat="45.85758639780039" lon="9.126847172083428"><ele>265.5</ele><time>2026-04-03T13:53:39Z</time></trkpt><trkpt lat="45.857577926376344" lon="9.126663227367953"><ele>274.75</ele><time>2026-04-03T13:53:40Z</time></trkpt><trkpt lat="45.857588873627996" lon="9.126473145360421"><ele>284.0</ele><time>2026-04-03T13:53:41Z</time></trkpt><trkpt lat="45.857617702578814" lon="9.12629309859625"><ele>272.4</ele><time>2026-04-03T13:53:42Z</time></trkpt><trkpt lat="45.857653210620946" lon="9.126130472046404"><ele>260.79999999999995</ele><time>2026-04-03T13:53:43Z</time></trkpt><trkpt lat="45.85768158548629" lon="9.125982968330064"><ele>249.20000000000002</ele><time>2026-04-03T13:53:44Z</time></trkpt><trkpt lat="45.857693027214864" lon="9.12584676540868"><ele>237.60000000000002</ele><time>2026-04-03T13:53:45Z</time></trkpt><trkpt lat="45.857696113718525" lon="9.12572099296659"><ele>226.0</ele><time>2026-04-03T13:53:46Z</time></trkpt><trkpt lat="45.8577014906004" lon="9.125592764398473"><ele>225.83333333333331</ele><time>2026-04-03T13:53:47Z</time></trkpt><trkpt lat="45.85769065562168" lon="9.125461861248075"><ele>225.66666666666666</ele><time>2026-04-03T13:53:48Z</time></trkpt><trkpt lat="45.85766802727158" lon="9.125332616826915"><ele>225.5</ele><time>2026-04-03T13:53:49Z</time></trkpt><trkpt lat="45.85764545608865" lon="9.125219829516519"><ele>225.33333333333331</ele><time>2026-04-03T13:53:50Z</time></trkpt><trkpt lat="45.85762982276675" lon="9.125119082696797"><ele>225.16666666666666</ele><time>2026-04-03T13:53:51Z</time></trkpt><trkpt lat="45.857615591990104" lon="9.125027425121722"><ele>225.0</ele><time>2026-04-03T13:53:52Z</time></trkpt><trkpt lat="45.857598098672625" lon="9.124933643877954"><ele>232.83333333333334</ele><time>2026-04-03T13:53:53Z</time></trkpt><trkpt lat="45.857579105054484" lon="9.124828904966533"><ele>240.66666666666669</ele><time>2026-04-03T13:53:54Z</time></trkpt><trkpt lat="45.85756307979127" lon="9.12471924103596"><ele>248.5</ele><time>2026-04-03T13:53:55Z</time></trkpt><trkpt lat="45.85754691587662" lon="9.124609100197944"><ele>256.33333333333337</ele><time>2026-04-03T13:53:56Z</time></trkpt><trkpt lat="45.85753603585961" lon="9.124500997026939"><ele>264.1666666666667</ele><time>2026-04-03T13:53:57Z</time></trkpt><trkpt lat="45.857545968291284" lon="9.124390923056165"><ele>272.0</ele><time>2026-04-03T13:53:58Z</time></trkpt><trkpt lat="45.85757181167763" lon="9.124282674844899"><ele>271.99999999999994</ele><time>2026-04-03T13:53:59Z</time></trkpt><trkpt lat="45.85760449561015" lon="9.124178923464532"><ele>272.0</ele><time>2026-04-03T13:54:00Z</time></trkpt><trkpt lat="45.857631171956" lon="9.124085185565333"><ele>272.0</ele><time>2026-04-03T13:54:01Z</time></trkpt><trkpt lat="45.85765502870571" lon="9.123998339151123"><ele>272.0</ele><time>2026-04-03T13:54:02Z</time></trkpt><trkpt lat="45.8576792651003" lon="9.123900511894522"><ele>272.0</ele><time>2026-04-03T13:54:03Z</time></trkpt><trkpt lat="45.857704457538034" lon="9.12379857318022"><ele>271.99999999999994</ele><time>2026-04-03T13:54:04Z</time></trkpt><trkpt lat="45.85772912086444" lon="9.123703121229077"><ele>272.0</ele><time>2026-04-03T13:54:05Z</time></trkpt><trkpt lat="45.8577659494419" lon="9.123535915702675"><ele>265.5</ele><time>2026-04-03T13:54:07Z</time></trkpt><trkpt lat="45.85779522226233" lon="9.123391824718071"><ele>259.0</ele><time>2026-04-03T13:54:08.999Z</time></trkpt><trkpt lat="45.8577972024704" lon="9.123283613744354"><ele>252.5</ele><time>2026-04-03T13:54:10.999Z</time></trkpt><trkpt lat="45.85778833268188" lon="9.123175764759203"><ele>246.0</ele><time>2026-04-03T13:54:14.999Z</time></trkpt><trkpt lat="45.85776582680245" lon="9.123058578561794"><ele>239.50000000000003</ele><time>2026-04-03T13:54:18.999Z</time></trkpt><trkpt lat="45.857749609096686" lon="9.122967293771877"><ele>233.0</ele><time>2026-04-03T13:54:20.999Z</time></trkpt><trkpt lat="45.857730728184656" lon="9.122860131734756"><ele>233.00000000000003</ele><time>2026-04-03T13:54:22.999Z</time></trkpt><trkpt lat="45.8577032250821" lon="9.12271956250748"><ele>233.0</ele><time>2026-04-03T13:54:24.999Z</time></trkpt><trkpt lat="45.85766632776704" lon="9.122552433714654"><ele>233.0</ele><time>2026-04-03T13:54:26.999Z</time></trkpt><trkpt lat="45.8576553029263" lon="9.122456668504077"><ele>233.0</ele><time>2026-04-03T13:54:27.999Z</time></trkpt><trkpt lat="45.85765993252414" lon="9.122352723848595"><ele>233.00000000000003</ele><time>2026-04-03T13:54:28.999Z</time></trkpt><trkpt lat="45.857678049836466" lon="9.122253953697728"><ele>233.0</ele><time>2026-04-03T13:54:29.999Z</time></trkpt><trkpt lat="45.857695074612295" lon="9.122161790602197"><ele>233.33333333333334</ele><time>2026-04-03T13:54:30.999Z</time></trkpt><trkpt lat="45.857724434596086" lon="9.122078922053618"><ele>233.66666666666669</ele><time>2026-04-03T13:54:31.999Z</time></trkpt><trkpt lat="45.857757523927816" lon="9.12196648302088"><ele>234.0</ele><time>2026-04-03T13:54:32.999Z</time></trkpt><trkpt lat="45.85779380075564" lon="9.121855690225425"><ele>234.33333333333331</ele><time>2026-04-03T13:54:33.999Z</time></trkpt><trkpt lat="45.85782978766481" lon="9.121749053599197"><ele>234.66666666666666</ele><time>2026-04-03T13:54:34.999Z</time></trkpt><trkpt lat="45.85785820002068" lon="9.121651108914122"><ele>235.0</ele><time>2026-04-03T13:54:35.999Z</time></trkpt><trkpt lat="45.8578736664279" lon="9.12155075498511"><ele>235.33333333333331</ele><time>2026-04-03T13:54:36.999Z</time></trkpt><trkpt lat="45.8578737138937" lon="9.121445245576684"><ele>235.66666666666666</ele><time>2026-04-03T13:54:37.999Z</time></trkpt><trkpt lat="45.85788074016735" lon="9.12132679245508"><ele>236.0</ele><time>2026-04-03T13:54:38.999Z</time></trkpt><trkpt lat="45.85787196836999" lon="9.121210318597655"><ele>236.33333333333331</ele><time>2026-04-03T13:54:39.999Z</time></trkpt><trkpt lat="45.857860919971465" lon="9.121106251398913"><ele>236.66666666666666</ele><time>2026-04-03T13:54:40.999Z</time></trkpt><trkpt lat="45.85785032282165" lon="9.121004284087638"><ele>237.0</ele><time>2026-04-03T13:54:41.999Z</time></trkpt><trkpt lat="45.85783641853101" lon="9.12089067996044"><ele>237.0</ele><time>2026-04-03T13:54:42.999Z</time></trkpt><trkpt lat="45.85781522151616" lon="9.12077502783542"><ele>237.0</ele><time>2026-04-03T13:54:43.999Z</time></trkpt><trkpt lat="45.85778762743275" lon="9.120658249520531"><ele>237.0</ele><time>2026-04-03T13:54:44.999Z</time></trkpt><trkpt lat="45.85776359010225" lon="9.120538067232946"><ele>237.0</ele><time>2026-04-03T13:54:45.999Z</time></trkpt><trkpt lat="45.857759277774356" lon="9.120409583188465"><ele>237.0</ele><time>2026-04-03T13:54:46.999Z</time></trkpt><trkpt lat="45.857771659840665" lon="9.12027992674116"><ele>237.0</ele><time>2026-04-03T13:54:47.999Z</time></trkpt><trkpt lat="45.857783697827294" lon="9.12016612888332"><ele>237.83333333333334</ele><time>2026-04-03T13:54:48.999Z</time></trkpt><trkpt lat="45.857811970952866" lon="9.120059026755944"><ele>238.66666666666669</ele><time>2026-04-03T13:54:49.999Z</time></trkpt><trkpt lat="45.857837516857806" lon="9.119966337810201"><ele>239.5</ele><time>2026-04-03T13:54:50.999Z</time></trkpt><trkpt lat="45.85785812230829" lon="9.119875634209894"><ele>240.33333333333334</ele><time>2026-04-03T13:54:51.999Z</time></trkpt><trkpt lat="45.85789429169794" lon="9.119702673048256"><ele>241.16666666666669</ele><time>2026-04-03T13:54:53.999Z</time></trkpt><trkpt lat="45.85791363721349" lon="9.119609940950136"><ele>242.0</ele><time>2026-04-03T13:54:54.999Z</time></trkpt><trkpt lat="45.85793530561464" lon="9.119512682558293"><ele>242.33333333333334</ele><time>2026-04-03T13:54:55.999Z</time></trkpt><trkpt lat="45.85795917797283" lon="9.119412405590758"><ele>242.66666666666669</ele><time>2026-04-03T13:54:56.999Z</time></trkpt><trkpt lat="45.85798493475322" lon="9.119305039580768"><ele>243.0</ele><time>2026-04-03T13:54:57.999Z</time></trkpt><trkpt lat="45.85800795849754" lon="9.119197928754897"><ele>243.33333333333331</ele><time>2026-04-03T13:54:58.999Z</time></trkpt><trkpt lat="45.858043007524806" lon="9.119086201022714"><ele>243.66666666666666</ele><time>2026-04-03T13:54:59.999Z</time></trkpt><trkpt lat="45.85808110975881" lon="9.118978107503928"><ele>244.0</ele><time>2026-04-03T13:55:00.999Z</time></trkpt><trkpt lat="45.85811595818642" lon="9.118873412327519"><ele>242.71428571428567</ele><time>2026-04-03T13:55:01.999Z</time></trkpt><trkpt lat="45.85812302934928" lon="9.118765559398058"><ele>241.42857142857142</ele><time>2026-04-03T13:55:02.999Z</time></trkpt><trkpt lat="45.85811066158278" lon="9.118648233812374"><ele>240.1428571428571</ele><time>2026-04-03T13:55:03.999Z</time></trkpt><trkpt lat="45.85808038968305" lon="9.118539997651498"><ele>238.85714285714283</ele><time>2026-04-03T13:55:04.999Z</time></trkpt><trkpt lat="45.858046585017" lon="9.118448739634761"><ele>237.57142857142856</ele><time>2026-04-03T13:55:05.999Z</time></trkpt><trkpt lat="45.85801199831034" lon="9.118366027392163"><ele>236.28571428571428</ele><time>2026-04-03T13:55:06.999Z</time></trkpt><trkpt lat="45.85799884948925" lon="9.118272530345852"><ele>235.0</ele><time>2026-04-03T13:55:07.999Z</time></trkpt><trkpt lat="45.857997177905396" lon="9.118174180337148"><ele>232.6</ele><time>2026-04-03T13:55:08.999Z</time></trkpt><trkpt lat="45.85801730395974" lon="9.118074941365633"><ele>230.2</ele><time>2026-04-03T13:55:09.999Z</time></trkpt><trkpt lat="45.858058759765484" lon="9.117983036828388"><ele>227.8</ele><time>2026-04-03T13:55:10.999Z</time></trkpt><trkpt lat="45.85812494129594" lon="9.117838117940249"><ele>225.4</ele><time>2026-04-03T13:55:12.999Z</time></trkpt><trkpt lat="45.858130715673134" lon="9.117666905548043"><ele>223.0</ele><time>2026-04-03T13:55:14.999Z</time></trkpt><trkpt lat="45.858112477889584" lon="9.117575111333824"><ele>222.99999999999997</ele><time>2026-04-03T13:55:15.999Z</time></trkpt><trkpt lat="45.8580944273121" lon="9.1174738690649"><ele>223.0</ele><time>2026-04-03T13:55:16.999Z</time></trkpt><trkpt lat="45.85807238447428" lon="9.117368328880014"><ele>223.0</ele><time>2026-04-03T13:55:17.999Z</time></trkpt><trkpt lat="45.85804912132156" lon="9.117263209099118"><ele>223.0</ele><time>2026-04-03T13:55:18.999Z</time></trkpt><trkpt lat="45.85803159446801" lon="9.117161243067432"><ele>222.99999999999997</ele><time>2026-04-03T13:55:19.999Z</time></trkpt><trkpt lat="45.858013010367074" lon="9.117070826612375"><ele>223.0</ele><time>2026-04-03T13:55:20.999Z</time></trkpt><trkpt lat="45.85796338761848" lon="9.11691479821995"><ele>221.8</ele><time>2026-04-03T13:55:22.999Z</time></trkpt><trkpt lat="45.857900640148216" lon="9.11677779912642"><ele>220.60000000000002</ele><time>2026-04-03T13:55:24.999Z</time></trkpt><trkpt lat="45.85783688426528" lon="9.116646504982512"><ele>219.39999999999998</ele><time>2026-04-03T13:55:26.999Z</time></trkpt><trkpt lat="45.857765269852024" lon="9.116500873241277"><ele>218.2</ele><time>2026-04-03T13:55:28.999Z</time></trkpt><trkpt lat="45.85772771145584" lon="9.116419727512715"><ele>217.0</ele><time>2026-04-03T13:55:29.999Z</time></trkpt><trkpt lat="45.857686899061086" lon="9.116327815122057"><ele>216.66666666666666</ele><time>2026-04-03T13:55:30.999Z</time></trkpt><trkpt lat="45.85764492423423" lon="9.116229467275812"><ele>216.33333333333331</ele><time>2026-04-03T13:55:31.999Z</time></trkpt><trkpt lat="45.85759894515396" lon="9.116131406877845"><ele>216.0</ele><time>2026-04-03T13:55:32.999Z</time></trkpt><trkpt lat="45.85754446522958" lon="9.116041190874347"><ele>215.66666666666669</ele><time>2026-04-03T13:55:33.999Z</time></trkpt><trkpt lat="45.85748078328175" lon="9.115961181478072"><ele>215.33333333333334</ele><time>2026-04-03T13:55:34.998Z</time></trkpt><trkpt lat="45.857412974529176" lon="9.115891288557025"><ele>215.0</ele><time>2026-04-03T13:55:35.998Z</time></trkpt><trkpt lat="45.857335632663705" lon="9.115838544085712"><ele>216.0</ele><time>2026-04-03T13:55:36.998Z</time></trkpt><trkpt lat="45.85725888410795" lon="9.115803727277385"><ele>217.0</ele><time>2026-04-03T13:55:37.998Z</time></trkpt><trkpt lat="45.857194738496204" lon="9.115776618330717"><ele>218.0</ele><time>2026-04-03T13:55:38.998Z</time></trkpt><trkpt lat="45.85713020200631" lon="9.115748336824115"><ele>219.0</ele><time>2026-04-03T13:55:39.998Z</time></trkpt><trkpt lat="45.85706064994904" lon="9.11571651318231"><ele>220.0</ele><time>2026-04-03T13:55:41Z</time></trkpt><trkpt lat="45.856996216896654" lon="9.115686829593018"><ele>221.0</ele><time>2026-04-03T13:55:42Z</time></trkpt><trkpt lat="45.856934832550735" lon="9.11566080844783"><ele>222.0</ele><time>2026-04-03T13:55:43Z</time></trkpt><trkpt lat="45.856873043478515" lon="9.11562464069459"><ele>222.0</ele><time>2026-04-03T13:55:44Z</time></trkpt><trkpt lat="45.85680912357042" lon="9.115575541781837"><ele>222.0</ele><time>2026-04-03T13:55:45Z</time></trkpt><trkpt lat="45.856742316028566" lon="9.115509604642417"><ele>222.0</ele><time>2026-04-03T13:55:46Z</time></trkpt><trkpt lat="45.85666970747813" lon="9.115444023246265"><ele>222.0</ele><time>2026-04-03T13:55:47Z</time></trkpt><trkpt lat="45.85659155549615" lon="9.11537581547522"><ele>222.0</ele><time>2026-04-03T13:55:48Z</time></trkpt><trkpt lat="45.85651734637948" lon="9.115301109920134"><ele>222.0</ele><time>2026-04-03T13:55:49Z</time></trkpt><trkpt lat="45.856444537079675" lon="9.115237464828859"><ele>222.8</ele><time>2026-04-03T13:55:50Z</time></trkpt><trkpt lat="45.856380279647475" lon="9.115190838059977"><ele>223.6</ele><time>2026-04-03T13:55:51Z</time></trkpt><trkpt lat="45.85629246998282" lon="9.115118953720645"><ele>224.40000000000003</ele><time>2026-04-03T13:55:53Z</time></trkpt><trkpt lat="45.856211060563695" lon="9.115075094585665"><ele>225.20000000000002</ele><time>2026-04-03T13:56:14Z</time></trkpt><trkpt lat="45.8561229515087" lon="9.115039183824235"><ele>226.0</ele><time>2026-04-03T13:56:16Z</time></trkpt><trkpt lat="45.85599529679286" lon="9.11501041974801"><ele>227.33333333333331</ele><time>2026-04-03T13:56:18Z</time></trkpt><trkpt lat="45.855922060115425" lon="9.115011944239587"><ele>228.66666666666666</ele><time>2026-04-03T13:56:19Z</time></trkpt><trkpt lat="45.855847271266505" lon="9.115027081288266"><ele>230.0</ele><time>2026-04-03T13:56:20Z</time></trkpt><trkpt lat="45.855768788411" lon="9.115038905936146"><ele>231.33333333333331</ele><time>2026-04-03T13:56:21Z</time></trkpt><trkpt lat="45.855683607505604" lon="9.115029467145652"><ele>232.66666666666666</ele><time>2026-04-03T13:56:22Z</time></trkpt><trkpt lat="45.855597859608075" lon="9.114992635211822"><ele>234.0</ele><time>2026-04-03T13:56:23Z</time></trkpt><trkpt lat="45.85551442731038" lon="9.114946915591732"><ele>231.6</ele><time>2026-04-03T13:56:24Z</time></trkpt><trkpt lat="45.855430801094045" lon="9.1148774488232"><ele>229.2</ele><time>2026-04-03T13:56:25Z</time></trkpt><trkpt lat="45.85533624282127" lon="9.114807096462245"><ele>226.79999999999998</ele><time>2026-04-03T13:56:26Z</time></trkpt><trkpt lat="45.855238561176115" lon="9.114737790407961"><ele>224.39999999999998</ele><time>2026-04-03T13:56:27Z</time></trkpt><trkpt lat="45.855146030691074" lon="9.114670034263739"><ele>222.0</ele><time>2026-04-03T13:56:28Z</time></trkpt><trkpt lat="45.85506391708438" lon="9.114610644599072"><ele>222.0</ele><time>2026-04-03T13:56:29Z</time></trkpt><trkpt lat="45.85497751570714" lon="9.11456444060859"><ele>222.0</ele><time>2026-04-03T13:56:30Z</time></trkpt><trkpt lat="45.854880801765404" lon="9.114527505812914"><ele>222.0</ele><time>2026-04-03T13:56:31Z</time></trkpt><trkpt lat="45.854779086370094" lon="9.114501499022785"><ele>222.0</ele><time>2026-04-03T13:56:32Z</time></trkpt><trkpt lat="45.85467229917704" lon="9.114487639584254"><ele>222.0</ele><time>2026-04-03T13:56:32.999Z</time></trkpt><trkpt lat="45.85455285141391" lon="9.114488049843814"><ele>222.0</ele><time>2026-04-03T13:56:33.999Z</time></trkpt><trkpt lat="45.85442447532061" lon="9.114506362330513"><ele>222.0</ele><time>2026-04-03T13:56:34.999Z</time></trkpt><trkpt lat="45.8542924036933" lon="9.114545654072764"><ele>222.0</ele><time>2026-04-03T13:56:35.999Z</time></trkpt><trkpt lat="45.85415282437148" lon="9.114593162475726"><ele>222.0</ele><time>2026-04-03T13:56:36.999Z</time></trkpt><trkpt lat="45.85400832746544" lon="9.114641908691912"><ele>233.0</ele><time>2026-04-03T13:56:37.999Z</time></trkpt><trkpt lat="45.85387167370463" lon="9.114686170149577"><ele>244.0</ele><time>2026-04-03T13:56:38.999Z</time></trkpt><trkpt lat="45.85374005876894" lon="9.114732018160767"><ele>255.0</ele><time>2026-04-03T13:56:39.999Z</time></trkpt><trkpt lat="45.85361239097713" lon="9.114780045681131"><ele>266.0</ele><time>2026-04-03T13:56:40.999Z</time></trkpt><trkpt lat="45.85347995191299" lon="9.114831743540021"><ele>275.25</ele><time>2026-04-03T13:56:42.064Z</time></trkpt><trkpt lat="45.853357653829384" lon="9.114884696015503"><ele>284.5</ele><time>2026-04-03T13:56:43.068Z</time></trkpt><trkpt lat="45.853235428017676" lon="9.114935793771004"><ele>293.75</ele><time>2026-04-03T13:56:44.067Z</time></trkpt><trkpt lat="45.85311186212715" lon="9.114983122753836"><ele>303.0</ele><time>2026-04-03T13:56:45.063Z</time></trkpt><trkpt lat="45.8529855737886" lon="9.115023764633024"><ele>321.0</ele><time>2026-04-03T13:56:46.057Z</time></trkpt><trkpt lat="45.85164130564127" lon="9.114776877391158"><ele>238.0</ele><time>2026-04-03T13:56:58.692Z</time></trkpt><trkpt lat="45.85016144578894" lon="9.111593691876456"><ele>240.16666666666666</ele><time>2026-04-03T13:57:17.999Z</time></trkpt><trkpt lat="45.85013244752805" lon="9.111503567691898"><ele>242.33333333333331</ele><time>2026-04-03T13:57:18.999Z</time></trkpt><trkpt lat="45.85010508746622" lon="9.111401938701574"><ele>244.5</ele><time>2026-04-03T13:57:19.999Z</time></trkpt><trkpt lat="45.85007737873965" lon="9.111282864083474"><ele>246.66666666666669</ele><time>2026-04-03T13:57:20.999Z</time></trkpt><trkpt lat="45.850043990610445" lon="9.111172372488378"><ele>248.83333333333334</ele><time>2026-04-03T13:57:21.999Z</time></trkpt><trkpt lat="45.85001213176273" lon="9.111067094158248"><ele>251.0</ele><time>2026-04-03T13:57:22.999Z</time></trkpt><trkpt lat="45.84996038142718" lon="9.110956680965849"><ele>251.00000000000003</ele><time>2026-04-03T13:57:23.999Z</time></trkpt><trkpt lat="45.84990414592932" lon="9.110854670403251"><ele>251.0</ele><time>2026-04-03T13:57:24.999Z</time></trkpt><trkpt lat="45.84984445093642" lon="9.110746332324569"><ele>251.0</ele><time>2026-04-03T13:57:25.999Z</time></trkpt><trkpt lat="45.84979079773488" lon="9.110648822376518"><ele>251.0</ele><time>2026-04-03T13:57:26.999Z</time></trkpt><trkpt lat="45.84973264948326" lon="9.11056589730546"><ele>251.00000000000003</ele><time>2026-04-03T13:57:27.999Z</time></trkpt><trkpt lat="45.84967475334198" lon="9.110490700891772"><ele>251.0</ele><time>2026-04-03T13:57:28.999Z</time></trkpt><trkpt lat="45.84961122053277" lon="9.110428724544466"><ele>252.85714285714283</ele><time>2026-04-03T13:57:29.999Z</time></trkpt><trkpt lat="45.849546766216726" lon="9.11037180659058"><ele>254.71428571428572</ele><time>2026-04-03T13:57:30.999Z</time></trkpt><trkpt lat="45.84948420092404" lon="9.110309749071444"><ele>256.57142857142856</ele><time>2026-04-03T13:57:31.999Z</time></trkpt><trkpt lat="45.84941793622513" lon="9.110244689805638"><ele>258.42857142857144</ele><time>2026-04-03T13:57:32.999Z</time></trkpt><trkpt lat="45.84935592443445" lon="9.110187980675313"><ele>260.2857142857143</ele><time>2026-04-03T13:57:33.999Z</time></trkpt><trkpt lat="45.84929820841239" lon="9.110134237195986"><ele>262.1428571428571</ele><time>2026-04-03T13:57:34.999Z</time></trkpt><trkpt lat="45.84924902369669" lon="9.110077086094895"><ele>264.0</ele><time>2026-04-03T13:57:35.999Z</time></trkpt><trkpt lat="45.84915495018643" lon="9.109955681658153"><ele>259.0</ele><time>2026-04-03T13:57:37.999Z</time></trkpt><trkpt lat="45.84910405598595" lon="9.10987804351903"><ele>254.0</ele><time>2026-04-03T13:57:38.999Z</time></trkpt><trkpt lat="45.849049021005904" lon="9.109792109705714"><ele>249.0</ele><time>2026-04-03T13:57:39.999Z</time></trkpt><trkpt lat="45.848992580975334" lon="9.109699420670642"><ele>244.0</ele><time>2026-04-03T13:57:40.999Z</time></trkpt><trkpt lat="45.848932697999736" lon="9.10960357152441"><ele>239.0</ele><time>2026-04-03T13:57:41.999Z</time></trkpt><trkpt lat="45.84887584535459" lon="9.109501110383539"><ele>234.0</ele><time>2026-04-03T13:57:42.999Z</time></trkpt><trkpt lat="45.84882023704824" lon="9.109392213346789"><ele>234.0</ele><time>2026-04-03T13:57:43.999Z</time></trkpt><trkpt lat="45.84876631209299" lon="9.10927261629197"><ele>233.99999999999997</ele><time>2026-04-03T13:57:44.999Z</time></trkpt><trkpt lat="45.84871676778858" lon="9.109146201664782"><ele>233.99999999999997</ele><time>2026-04-03T13:57:45.999Z</time></trkpt><trkpt lat="45.84866957315923" lon="9.10901173921498"><ele>234.0</ele><time>2026-04-03T13:57:47Z</time></trkpt><trkpt lat="45.848625442682604" lon="9.108871488191511"><ele>234.0</ele><time>2026-04-03T13:57:48Z</time></trkpt><trkpt lat="45.84858202223643" lon="9.108734550160683"><ele>235.6</ele><time>2026-04-03T13:57:49Z</time></trkpt><trkpt lat="45.848534816919795" lon="9.108607673897687"><ele>237.2</ele><time>2026-04-03T13:57:50Z</time></trkpt><trkpt lat="45.84849315490451" lon="9.108488305313795"><ele>238.79999999999998</ele><time>2026-04-03T13:57:51Z</time></trkpt><trkpt lat="45.84845332966514" lon="9.108368519353876"><ele>240.39999999999998</ele><time>2026-04-03T13:57:52Z</time></trkpt><trkpt lat="45.848417218096465" lon="9.108249422725727"><ele>242.0</ele><time>2026-04-03T13:57:53Z</time></trkpt><trkpt lat="45.848381668385926" lon="9.108130885654763"><ele>242.0</ele><time>2026-04-03T13:57:54Z</time></trkpt><trkpt lat="45.84834177726515" lon="9.108016966736868"><ele>242.0</ele><time>2026-04-03T13:57:55Z</time></trkpt><trkpt lat="45.848294024633965" lon="9.107909911640206"><ele>242.0</ele><time>2026-04-03T13:57:56Z</time></trkpt><trkpt lat="45.84823414925057" lon="9.107808688388547"><ele>242.0</ele><time>2026-04-03T13:57:57Z</time></trkpt><trkpt lat="45.84817140775514" lon="9.107715284681174"><ele>242.0</ele><time>2026-04-03T13:57:58Z</time></trkpt><trkpt lat="45.84810339628614" lon="9.107618217972439"><ele>242.0</ele><time>2026-04-03T13:57:59Z</time></trkpt><trkpt lat="45.84803414809324" lon="9.10751830187754"><ele>242.0</ele><time>2026-04-03T13:58:00Z</time></trkpt><trkpt lat="45.847963804207545" lon="9.107419204267167"><ele>242.0</ele><time>2026-04-03T13:58:01Z</time></trkpt><trkpt lat="45.84789852716198" lon="9.107329634547513"><ele>242.0</ele><time>2026-04-03T13:58:02Z</time></trkpt><trkpt lat="45.84782488342087" lon="9.107260902996378"><ele>242.0</ele><time>2026-04-03T13:58:03Z</time></trkpt><trkpt lat="45.847741061537974" lon="9.107219623889284"><ele>240.2</ele><time>2026-04-03T13:58:04Z</time></trkpt><trkpt lat="45.84764789875271" lon="9.107210774526937"><ele>238.39999999999998</ele><time>2026-04-03T13:58:05.001Z</time></trkpt><trkpt lat="45.847556382039805" lon="9.107209015741935"><ele>236.60000000000002</ele><time>2026-04-03T13:58:06.001Z</time></trkpt><trkpt lat="45.84746597304135" lon="9.107187462031664"><ele>234.8</ele><time>2026-04-03T13:58:07.001Z</time></trkpt><trkpt lat="45.84738283339581" lon="9.107133597265173"><ele>233.0</ele><time>2026-04-03T13:58:08.001Z</time></trkpt><trkpt lat="45.84730405291138" lon="9.107058906859132"><ele>233.00000000000003</ele><time>2026-04-03T13:58:09.001Z</time></trkpt><trkpt lat="45.8472261838163" lon="9.106984576580734"><ele>233.0</ele><time>2026-04-03T13:58:10.001Z</time></trkpt><trkpt lat="45.84714735612143" lon="9.106924530005132"><ele>233.0</ele><time>2026-04-03T13:58:11.001Z</time></trkpt><trkpt lat="45.84706247618168" lon="9.10688176057325"><ele>233.0</ele><time>2026-04-03T13:58:12.001Z</time></trkpt><trkpt lat="45.846979990140866" lon="9.106852979277692"><ele>233.00000000000003</ele><time>2026-04-03T13:58:13.001Z</time></trkpt><trkpt lat="45.84690043947806" lon="9.106844091251757"><ele>233.0</ele><time>2026-04-03T13:58:14.001Z</time></trkpt><trkpt lat="45.84682084822647" lon="9.106841941492759"><ele>235.16666666666669</ele><time>2026-04-03T13:58:15.001Z</time></trkpt><trkpt lat="45.84674105395581" lon="9.106839229770562"><ele>237.33333333333334</ele><time>2026-04-03T13:58:16.001Z</time></trkpt><trkpt lat="45.846663530632846" lon="9.106829237418486"><ele>239.5</ele><time>2026-04-03T13:58:17.001Z</time></trkpt><trkpt lat="45.84657853538977" lon="9.106794543784307"><ele>241.66666666666669</ele><time>2026-04-03T13:58:18.001Z</time></trkpt><trkpt lat="45.84650384539679" lon="9.106735677371846"><ele>243.83333333333334</ele><time>2026-04-03T13:58:19.001Z</time></trkpt><trkpt lat="45.846424974664515" lon="9.106671517868595"><ele>246.0</ele><time>2026-04-03T13:58:20.001Z</time></trkpt><trkpt lat="45.84634962008533" lon="9.106591230995749"><ele>241.0</ele><time>2026-04-03T13:58:21.001Z</time></trkpt><trkpt lat="45.84626967314082" lon="9.106513619402667"><ele>236.00000000000003</ele><time>2026-04-03T13:58:22.001Z</time></trkpt><trkpt lat="45.846187388064514" lon="9.1064562499402"><ele>231.00000000000003</ele><time>2026-04-03T13:58:23.001Z</time></trkpt><trkpt lat="45.846107060883426" lon="9.106433980090895"><ele>226.0</ele><time>2026-04-03T13:58:24.001Z</time></trkpt><trkpt lat="45.84601524569598" lon="9.10642625060329"><ele>221.0</ele><time>2026-04-03T13:58:25.001Z</time></trkpt><trkpt lat="45.84590851987894" lon="9.106437106515079"><ele>221.00000000000003</ele><time>2026-04-03T13:58:26.001Z</time></trkpt><trkpt lat="45.845818443676826" lon="9.10646773338411"><ele>221.0</ele><time>2026-04-03T13:58:27.001Z</time></trkpt><trkpt lat="45.845743695345945" lon="9.106483308050663"><ele>221.0</ele><time>2026-04-03T13:58:28.001Z</time></trkpt><trkpt lat="45.84566807765571" lon="9.106491467813298"><ele>221.0</ele><time>2026-04-03T13:58:29.001Z</time></trkpt><trkpt lat="45.84557987811178" lon="9.106487562920762"><ele>221.00000000000003</ele><time>2026-04-03T13:58:30.001Z</time></trkpt><trkpt lat="45.84548549338309" lon="9.106447708724804"><ele>221.0</ele><time>2026-04-03T13:58:31.001Z</time></trkpt><trkpt lat="45.84539867418271" lon="9.106379525771137"><ele>221.0</ele><time>2026-04-03T13:58:32.001Z</time></trkpt><trkpt lat="45.84531002134987" lon="9.106308414082415"><ele>221.00000000000003</ele><time>2026-04-03T13:58:33.001Z</time></trkpt><trkpt lat="45.84522366898932" lon="9.106253428080432"><ele>221.00000000000003</ele><time>2026-04-03T13:58:34.001Z</time></trkpt><trkpt lat="45.84513489456931" lon="9.10620044405375"><ele>221.0</ele><time>2026-04-03T13:58:35Z</time></trkpt><trkpt lat="45.84503645058485" lon="9.10617830662172"><ele>221.0</ele><time>2026-04-03T13:58:36Z</time></trkpt><trkpt lat="45.844936122862" lon="9.106176390076705"><ele>222.33333333333334</ele><time>2026-04-03T13:58:37Z</time></trkpt><trkpt lat="45.84484927870876" lon="9.106169666160591"><ele>223.66666666666669</ele><time>2026-04-03T13:58:38Z</time></trkpt><trkpt lat="45.84476557061495" lon="9.106168260578665"><ele>225.0</ele><time>2026-04-03T13:58:39Z</time></trkpt><trkpt lat="45.84468294801892" lon="9.106149974930046"><ele>226.33333333333331</ele><time>2026-04-03T13:58:40Z</time></trkpt><trkpt lat="45.844602994567445" lon="9.106125428695945"><ele>227.66666666666666</ele><time>2026-04-03T13:58:41Z</time></trkpt><trkpt lat="45.844520260705636" lon="9.106082005789789"><ele>229.0</ele><time>2026-04-03T13:58:42Z</time></trkpt><trkpt lat="45.84443907327491" lon="9.106024110132928"><ele>229.0</ele><time>2026-04-03T13:58:43Z</time></trkpt><trkpt lat="45.84435399428523" lon="9.105949039711534"><ele>228.99999999999997</ele><time>2026-04-03T13:58:44Z</time></trkpt><trkpt lat="45.84427393817862" lon="9.105878409534244"><ele>228.99999999999997</ele><time>2026-04-03T13:58:45Z</time></trkpt><trkpt lat="45.84419471196697" lon="9.105810248402204"><ele>229.0</ele><time>2026-04-03T13:58:46Z</time></trkpt><trkpt lat="45.844117831644716" lon="9.105742689261994"><ele>229.0</ele><time>2026-04-03T13:58:47Z</time></trkpt><trkpt lat="45.84404421313041" lon="9.105672255671465"><ele>227.2</ele><time>2026-04-03T13:58:48Z</time></trkpt><trkpt lat="45.84397058577687" lon="9.105601089717437"><ele>225.39999999999998</ele><time>2026-04-03T13:58:49Z</time></trkpt><trkpt lat="45.8438960022459" lon="9.10553087399098"><ele>223.6</ele><time>2026-04-03T13:58:50Z</time></trkpt><trkpt lat="45.84381562089575" lon="9.10546315680949"><ele>221.8</ele><time>2026-04-03T13:58:51Z</time></trkpt><trkpt lat="45.84373352005834" lon="9.105395878109631"><ele>220.0</ele><time>2026-04-03T13:58:52Z</time></trkpt><trkpt lat="45.843648900263645" lon="9.105331639085344"><ele>220.0</ele><time>2026-04-03T13:58:53Z</time></trkpt><trkpt lat="45.843563700669456" lon="9.105267021161"><ele>220.0</ele><time>2026-04-03T13:58:54Z</time></trkpt><trkpt lat="45.84347810716694" lon="9.105202697643998"><ele>220.0</ele><time>2026-04-03T13:58:55Z</time></trkpt><trkpt lat="45.84339388092183" lon="9.10513736506381"><ele>220.0</ele><time>2026-04-03T13:58:56Z</time></trkpt><trkpt lat="45.84330770592315" lon="9.1050707425565"><ele>220.0</ele><time>2026-04-03T13:58:57Z</time></trkpt><trkpt lat="45.84321896400049" lon="9.105009154987812"><ele>219.6</ele><time>2026-04-03T13:58:58Z</time></trkpt><trkpt lat="45.84313027563732" lon="9.104945754889567"><ele>219.2</ele><time>2026-04-03T13:58:59Z</time></trkpt><trkpt lat="45.84304727727122" lon="9.104879925528351"><ele>218.8</ele><time>2026-04-03T13:59:00Z</time></trkpt><trkpt lat="45.84296130224371" lon="9.10480809186158"><ele>218.4</ele><time>2026-04-03T13:59:01Z</time></trkpt><trkpt lat="45.84287861359577" lon="9.104722779595281"><ele>218.0</ele><time>2026-04-03T13:59:02Z</time></trkpt><trkpt lat="45.84280287507059" lon="9.10463321444176"><ele>218.0</ele><time>2026-04-03T13:59:03Z</time></trkpt><trkpt lat="45.84271684925397" lon="9.104562786003155"><ele>218.0</ele><time>2026-04-03T13:59:04Z</time></trkpt><trkpt lat="45.84259895480751" lon="9.104535088771101"><ele>218.0</ele><time>2026-04-03T13:59:05Z</time></trkpt><trkpt lat="45.84249090759977" lon="9.104543887461016"><ele>218.0</ele><time>2026-04-03T13:59:06Z</time></trkpt><trkpt lat="45.84240624752422" lon="9.104550009133089"><ele>218.0</ele><time>2026-04-03T13:59:07Z</time></trkpt><trkpt lat="45.84234112197842" lon="9.104549687696577"><ele>221.16666666666669</ele><time>2026-04-03T13:59:08Z</time></trkpt><trkpt lat="45.842272054762496" lon="9.104539463925066"><ele>224.33333333333334</ele><time>2026-04-03T13:59:09Z</time></trkpt><trkpt lat="45.842190293871354" lon="9.104530544404692"><ele>227.5</ele><time>2026-04-03T13:59:10Z</time></trkpt><trkpt lat="45.84210764539256" lon="9.1045191319099"><ele>230.66666666666669</ele><time>2026-04-03T13:59:11Z</time></trkpt><trkpt lat="45.84203028685864" lon="9.104502474329621"><ele>233.83333333333334</ele><time>2026-04-03T13:59:12Z</time></trkpt><trkpt lat="45.84195405912576" lon="9.104478656666913"><ele>237.0</ele><time>2026-04-03T13:59:13Z</time></trkpt><trkpt lat="45.84187936870627" lon="9.104451373688573"><ele>237.0</ele><time>2026-04-03T13:59:14Z</time></trkpt><trkpt lat="45.84180541213713" lon="9.104421749510196"><ele>237.0</ele><time>2026-04-03T13:59:15Z</time></trkpt><trkpt lat="45.841729714741646" lon="9.1044026016338"><ele>237.0</ele><time>2026-04-03T13:59:16Z</time></trkpt><trkpt lat="45.841662709886414" lon="9.104355203706664"><ele>237.0</ele><time>2026-04-03T13:59:17Z</time></trkpt><trkpt lat="45.84159416222847" lon="9.10429371590796"><ele>237.0</ele><time>2026-04-03T13:59:18Z</time></trkpt><trkpt lat="45.84151803187335" lon="9.104262778987232"><ele>237.0</ele><time>2026-04-03T13:59:19Z</time></trkpt><trkpt lat="45.8414464754035" lon="9.104258435806047"><ele>238.0</ele><time>2026-04-03T13:59:20Z</time></trkpt><trkpt lat="45.84136437425948" lon="9.104257188313785"><ele>239.0</ele><time>2026-04-03T13:59:21Z</time></trkpt><trkpt lat="45.84129763239256" lon="9.104277571998228"><ele>240.0</ele><time>2026-04-03T13:59:22Z</time></trkpt><trkpt lat="45.84119561643138" lon="9.104325753862733"><ele>241.0</ele><time>2026-04-03T13:59:24Z</time></trkpt><trkpt lat="45.84112196411121" lon="9.1043330199362"><ele>242.0</ele><time>2026-04-03T13:59:25Z</time></trkpt><trkpt lat="45.841052494199566" lon="9.104339815543902"><ele>243.0</ele><time>2026-04-03T13:59:26Z</time></trkpt><trkpt lat="45.840982334459824" lon="9.104337655668665"><ele>245.33333333333334</ele><time>2026-04-03T13:59:27Z</time></trkpt><trkpt lat="45.84091020554094" lon="9.10432815528209"><ele>247.66666666666669</ele><time>2026-04-03T13:59:28Z</time></trkpt><trkpt lat="45.840836466412135" lon="9.104314081439599"><ele>250.0</ele><time>2026-04-03T13:59:29Z</time></trkpt><trkpt lat="45.840775120400984" lon="9.104259319777926"><ele>252.33333333333334</ele><time>2026-04-03T13:59:30Z</time></trkpt><trkpt lat="45.84072017693034" lon="9.104189159378059"><ele>254.66666666666669</ele><time>2026-04-03T13:59:31Z</time></trkpt><trkpt lat="45.8406307473462" lon="9.104073234590988"><ele>257.0</ele><time>2026-04-03T13:59:33Z</time></trkpt><trkpt lat="45.840585871890575" lon="9.104009247086731"><ele>252.2</ele><time>2026-04-03T13:59:34Z</time></trkpt><trkpt lat="45.84047694954566" lon="9.103926808000148"><ele>247.39999999999998</ele><time>2026-04-03T13:59:36Z</time></trkpt><trkpt lat="45.84034893659593" lon="9.10390432000518"><ele>242.60000000000002</ele><time>2026-04-03T13:59:38Z</time></trkpt><trkpt lat="45.840278164794654" lon="9.103910938476188"><ele>237.8</ele><time>2026-04-03T13:59:39Z</time></trkpt><trkpt lat="45.84020267700594" lon="9.103932006618919"><ele>233.0</ele><time>2026-04-03T13:59:40Z</time></trkpt><trkpt lat="45.840123080178614" lon="9.103955943639017"><ele>233.00000000000003</ele><time>2026-04-03T13:59:41Z</time></trkpt><trkpt lat="45.840040552227805" lon="9.103966524549769"><ele>233.0</ele><time>2026-04-03T13:59:42Z</time></trkpt><trkpt lat="45.83996006709727" lon="9.1039727578715"><ele>233.0</ele><time>2026-04-03T13:59:43Z</time></trkpt><trkpt lat="45.83987808414919" lon="9.103974217954612"><ele>233.0</ele><time>2026-04-03T13:59:44Z</time></trkpt><trkpt lat="45.839796785610616" lon="9.10395463850581"><ele>233.00000000000003</ele><time>2026-04-03T13:59:45Z</time></trkpt><trkpt lat="45.8397173495311" lon="9.10389695581339"><ele>233.0</ele><time>2026-04-03T13:59:45.999Z</time></trkpt><trkpt lat="45.839633428586154" lon="9.103809319644883"><ele>233.0</ele><time>2026-04-03T13:59:46.999Z</time></trkpt><trkpt lat="45.83954916654565" lon="9.103693308473353"><ele>233.0</ele><time>2026-04-03T13:59:47.999Z</time></trkpt><trkpt lat="45.83947446810899" lon="9.103574548770764"><ele>233.0</ele><time>2026-04-03T13:59:48.999Z</time></trkpt><trkpt lat="45.839420424005525" lon="9.103479710940682"><ele>233.0</ele><time>2026-04-03T13:59:49.999Z</time></trkpt><trkpt lat="45.83935484894918" lon="9.103422926815437"><ele>233.0</ele><time>2026-04-03T13:59:50.999Z</time></trkpt><trkpt lat="45.83929284446477" lon="9.103387895758999"><ele>237.00000000000003</ele><time>2026-04-03T13:59:51.999Z</time></trkpt><trkpt lat="45.83921924494827" lon="9.103360882465259"><ele>241.0</ele><time>2026-04-03T13:59:53.001Z</time></trkpt><trkpt lat="45.839127192695734" lon="9.1033478760483"><ele>245.0</ele><time>2026-04-03T13:59:54.001Z</time></trkpt><trkpt lat="45.83904070948873" lon="9.103347497393175"><ele>249.0</ele><time>2026-04-03T13:59:55.001Z</time></trkpt><trkpt lat="45.83896397451861" lon="9.103344386934898"><ele>253.00000000000003</ele><time>2026-04-03T13:59:56.001Z</time></trkpt><trkpt lat="45.83889273509301" lon="9.103323907759973"><ele>257.0</ele><time>2026-04-03T13:59:57.001Z</time></trkpt><trkpt lat="45.83881655404418" lon="9.10328839931973"><ele>255.83333333333334</ele><time>2026-04-03T13:59:58.001Z</time></trkpt><trkpt lat="45.838744581696204" lon="9.103230554596465"><ele>254.66666666666669</ele><time>2026-04-03T13:59:59.001Z</time></trkpt><trkpt lat="45.838686530705566" lon="9.103157384147368"><ele>253.5</ele><time>2026-04-03T14:00:00.001Z</time></trkpt><trkpt lat="45.83863568997055" lon="9.103092470256232"><ele>252.33333333333331</ele><time>2026-04-03T14:00:01.001Z</time></trkpt><trkpt lat="45.83856216970218" lon="9.102999885625561"><ele>251.16666666666666</ele><time>2026-04-03T14:00:03.001Z</time></trkpt><trkpt lat="45.838487927491656" lon="9.102966103237677"><ele>250.0</ele><time>2026-04-03T14:00:05.001Z</time></trkpt><trkpt lat="45.838399358047724" lon="9.102938544077087"><ele>250.0</ele><time>2026-04-03T14:00:07.001Z</time></trkpt><trkpt lat="45.83832312210874" lon="9.102926658225178"><ele>250.0</ele><time>2026-04-03T14:00:09.001Z</time></trkpt><trkpt lat="45.838265333405914" lon="9.102880322220429"><ele>250.0</ele><time>2026-04-03T14:00:11.001Z</time></trkpt><trkpt lat="45.83817578920177" lon="9.102805221248119"><ele>250.0</ele><time>2026-04-03T14:00:14.001Z</time></trkpt><trkpt lat="45.838109087987156" lon="9.102738204542867"><ele>250.0</ele><time>2026-04-03T14:00:16.001Z</time></trkpt><trkpt lat="45.838125718468675" lon="9.10255147740867"><ele>250.0</ele><time>2026-04-03T14:00:17.001Z</time></trkpt><trkpt lat="45.83812045583662" lon="9.10245500710783"><ele>250.0</ele><time>2026-04-03T14:00:18.001Z</time></trkpt><trkpt lat="45.83810417226134" lon="9.102354205063438"><ele>250.0</ele><time>2026-04-03T14:00:19.001Z</time></trkpt><trkpt lat="45.83808349159842" lon="9.10226111131147"><ele>250.0</ele><time>2026-04-03T14:00:20.001Z</time></trkpt><trkpt lat="45.83805480502312" lon="9.102165780166898"><ele>250.0</ele><time>2026-04-03T14:00:21.001Z</time></trkpt><trkpt lat="45.83801415100096" lon="9.102078304463149"><ele>250.0</ele><time>2026-04-03T14:00:22.001Z</time></trkpt><trkpt lat="45.837953012640234" lon="9.102013615200406"><ele>250.0</ele><time>2026-04-03T14:00:23.001Z</time></trkpt><trkpt lat="45.8378716964222" lon="9.101969780427662"><ele>248.83333333333331</ele><time>2026-04-03T14:00:24.001Z</time></trkpt><trkpt lat="45.837785725204554" lon="9.101947151389098"><ele>247.66666666666666</ele><time>2026-04-03T14:00:25.001Z</time></trkpt><trkpt lat="45.837709666724955" lon="9.101950519497978"><ele>246.5</ele><time>2026-04-03T14:00:26Z</time></trkpt><trkpt lat="45.837635710149634" lon="9.1019665006218"><ele>245.33333333333331</ele><time>2026-04-03T14:00:27Z</time></trkpt><trkpt lat="45.83756598759603" lon="9.10197436953037"><ele>244.16666666666666</ele><time>2026-04-03T14:00:28Z</time></trkpt><trkpt lat="45.83748751538763" lon="9.10197912030333"><ele>243.0</ele><time>2026-04-03T14:00:29Z</time></trkpt><trkpt lat="45.83741556632181" lon="9.102001105826433"><ele>243.0</ele><time>2026-04-03T14:00:30Z</time></trkpt><trkpt lat="45.8373314665463" lon="9.102031889664648"><ele>243.0</ele><time>2026-04-03T14:00:31Z</time></trkpt><trkpt lat="45.837255784467516" lon="9.102055337705025"><ele>243.0</ele><time>2026-04-03T14:00:32Z</time></trkpt><trkpt lat="45.83717497969012" lon="9.102064365538215"><ele>243.0</ele><time>2026-04-03T14:00:33Z</time></trkpt><trkpt lat="45.8370653131352" lon="9.102033243090697"><ele>243.0</ele><time>2026-04-03T14:00:34Z</time></trkpt><trkpt lat="45.836952663109834" lon="9.101942700845527"><ele>243.0</ele><time>2026-04-03T14:00:35Z</time></trkpt><trkpt lat="45.83682490787424" lon="9.101838202803878"><ele>243.0</ele><time>2026-04-03T14:00:36Z</time></trkpt><trkpt lat="45.83670959304281" lon="9.101689109851607"><ele>243.0</ele><time>2026-04-03T14:00:37Z</time></trkpt><trkpt lat="45.83661116816445" lon="9.101582182089816"><ele>243.0</ele><time>2026-04-03T14:00:38Z</time></trkpt><trkpt lat="45.83651317996338" lon="9.10151335995103"><ele>240.2</ele><time>2026-04-03T14:00:39Z</time></trkpt><trkpt lat="45.83641667415847" lon="9.101465569877458"><ele>237.4</ele><time>2026-04-03T14:00:40Z</time></trkpt><trkpt lat="45.83631967561124" lon="9.101438148809358"><ele>234.59999999999997</ele><time>2026-04-03T14:00:41Z</time></trkpt><trkpt lat="45.836240233655666" lon="9.101415522401396"><ele>231.79999999999998</ele><time>2026-04-03T14:00:42Z</time></trkpt><trkpt lat="45.83615994274187" lon="9.101377095031543"><ele>229.0</ele><time>2026-04-03T14:00:43Z</time></trkpt><trkpt lat="45.83608087071106" lon="9.101307733048786"><ele>229.0</ele><time>2026-04-03T14:00:44Z</time></trkpt><trkpt lat="45.836010980754295" lon="9.101213890649309"><ele>228.99999999999997</ele><time>2026-04-03T14:00:45Z</time></trkpt><trkpt lat="45.83595599295094" lon="9.101108560332348"><ele>228.99999999999997</ele><time>2026-04-03T14:00:46Z</time></trkpt><trkpt lat="45.83591966990046" lon="9.100989179489057"><ele>229.0</ele><time>2026-04-03T14:00:47Z</time></trkpt><trkpt lat="45.835898124744965" lon="9.10085975598883"><ele>229.0</ele><time>2026-04-03T14:00:48Z</time></trkpt><trkpt lat="45.83590421885327" lon="9.100711917257158"><ele>235.2</ele><time>2026-04-03T14:00:49Z</time></trkpt><trkpt lat="45.835879775185184" lon="9.100562690973554"><ele>241.39999999999998</ele><time>2026-04-03T14:00:50Z</time></trkpt><trkpt lat="45.83584615118035" lon="9.100414709443251"><ele>247.6</ele><time>2026-04-03T14:00:51Z</time></trkpt><trkpt lat="45.83581244028587" lon="9.100272687761148"><ele>253.8</ele><time>2026-04-03T14:00:52Z</time></trkpt><trkpt lat="45.835770679668684" lon="9.10013528172115"><ele>260.0</ele><time>2026-04-03T14:00:53Z</time></trkpt><trkpt lat="45.83573412381006" lon="9.099988696789536"><ele>256.5</ele><time>2026-04-03T14:00:54Z</time></trkpt><trkpt lat="45.83570965200852" lon="9.099828017054852"><ele>253.0</ele><time>2026-04-03T14:00:55Z</time></trkpt><trkpt lat="45.83569104559977" lon="9.099655996042829"><ele>249.5</ele><time>2026-04-03T14:00:56Z</time></trkpt><trkpt lat="45.83565569659527" lon="9.099478119630996"><ele>246.0</ele><time>2026-04-03T14:00:57Z</time></trkpt><trkpt lat="45.835583345610246" lon="9.099293160678585"><ele>246.0</ele><time>2026-04-03T14:00:58Z</time></trkpt><trkpt lat="45.83548217689573" lon="9.09911566234555"><ele>246.0</ele><time>2026-04-03T14:00:59Z</time></trkpt><trkpt lat="45.83537436258593" lon="9.0989645101281"><ele>246.0</ele><time>2026-04-03T14:01:00Z</time></trkpt><trkpt lat="45.83528925633938" lon="9.098831068008604"><ele>246.0</ele><time>2026-04-03T14:01:01Z</time></trkpt><trkpt lat="45.83521662598424" lon="9.0987039957324"><ele>244.0</ele><time>2026-04-03T14:01:02Z</time></trkpt><trkpt lat="45.83516562526354" lon="9.098584599996036"><ele>242.00000000000003</ele><time>2026-04-03T14:01:03Z</time></trkpt><trkpt lat="45.835121678292836" lon="9.098465061763255"><ele>240.00000000000003</ele><time>2026-04-03T14:01:04Z</time></trkpt><trkpt lat="45.83508143165337" lon="9.09833288839546"><ele>238.0</ele><time>2026-04-03T14:01:05Z</time></trkpt><trkpt lat="45.8350382566963" lon="9.09820118393628"><ele>236.0</ele><time>2026-04-03T14:01:06Z</time></trkpt><trkpt lat="45.83500314530325" lon="9.098073521117842"><ele>235.83333333333334</ele><time>2026-04-03T14:01:07Z</time></trkpt><trkpt lat="45.83496585649504" lon="9.097947327050182"><ele>235.66666666666669</ele><time>2026-04-03T14:01:08Z</time></trkpt><trkpt lat="45.83493663589099" lon="9.097826321160143"><ele>235.5</ele><time>2026-04-03T14:01:09Z</time></trkpt><trkpt lat="45.83490746555697" lon="9.097715221530567"><ele>235.33333333333331</ele><time>2026-04-03T14:01:10Z</time></trkpt><trkpt lat="45.834874112635895" lon="9.09760841911078"><ele>235.16666666666666</ele><time>2026-04-03T14:01:11Z</time></trkpt><trkpt lat="45.83482780685251" lon="9.097509767443452"><ele>235.0</ele><time>2026-04-03T14:01:12Z</time></trkpt><trkpt lat="45.834773095534295" lon="9.097416515011782"><ele>234.99999999999997</ele><time>2026-04-03T14:01:13Z</time></trkpt><trkpt lat="45.83470651234164" lon="9.097336245622817"><ele>235.0</ele><time>2026-04-03T14:01:14Z</time></trkpt><trkpt lat="45.83464433634629" lon="9.097260186554188"><ele>235.0</ele><time>2026-04-03T14:01:15Z</time></trkpt><trkpt lat="45.834575085008446" lon="9.097183565382933"><ele>235.0</ele><time>2026-04-03T14:01:16Z</time></trkpt><trkpt lat="45.83450496900368" lon="9.097102522086441"><ele>234.99999999999997</ele><time>2026-04-03T14:01:17Z</time></trkpt><trkpt lat="45.83442963470907" lon="9.097023162524776"><ele>235.0</ele><time>2026-04-03T14:01:18Z</time></trkpt><trkpt lat="45.834345488465516" lon="9.0969419241519"><ele>235.5</ele><time>2026-04-03T14:01:19Z</time></trkpt><trkpt lat="45.83425722545485" lon="9.096863609889262"><ele>236.0</ele><time>2026-04-03T14:01:20Z</time></trkpt><trkpt lat="45.83416538197606" lon="9.096782067831523"><ele>236.5</ele><time>2026-04-03T14:01:21Z</time></trkpt><trkpt lat="45.83406381490849" lon="9.096684386865043"><ele>237.0</ele><time>2026-04-03T14:01:22Z</time></trkpt><trkpt lat="45.83396877872508" lon="9.09658156104479"><ele>237.0</ele><time>2026-04-03T14:01:23Z</time></trkpt><trkpt lat="45.83384907988875" lon="9.096487736122748"><ele>237.0</ele><time>2026-04-03T14:01:24Z</time></trkpt><trkpt lat="45.83374992590423" lon="9.096398445164594"><ele>237.0</ele><time>2026-04-03T14:01:25Z</time></trkpt><trkpt lat="45.833674887654404" lon="9.096347617402218"><ele>237.0</ele><time>2026-04-03T14:01:26Z</time></trkpt><trkpt lat="45.833518432952445" lon="9.096222844568981"><ele>242.66666666666669</ele><time>2026-04-03T14:01:27Z</time></trkpt><trkpt lat="45.833320851534964" lon="9.096087274478814"><ele>248.33333333333334</ele><time>2026-04-03T14:01:28Z</time></trkpt><trkpt lat="45.83316362991035" lon="9.09598003160276"><ele>254.0</ele><time>2026-04-03T14:01:29Z</time></trkpt><trkpt lat="45.83287418291046" lon="9.095803546253437"><ele>250.0</ele><time>2026-04-03T14:01:30Z</time></trkpt><trkpt lat="45.83257431181712" lon="9.095603578807212"><ele>246.0</ele><time>2026-04-03T14:01:30.999Z</time></trkpt><trkpt lat="45.832367740862935" lon="9.095437466157394"><ele>246.0</ele><time>2026-04-03T14:01:31.999Z</time></trkpt><trkpt lat="45.832174009563964" lon="9.095282590579897"><ele>246.0</ele><time>2026-04-03T14:01:32.999Z</time></trkpt><trkpt lat="45.831994777790015" lon="9.095135932507986"><ele>246.0</ele><time>2026-04-03T14:01:33.999Z</time></trkpt><trkpt lat="45.8318281076582" lon="9.094992699786276"><ele>245.33333333333331</ele><time>2026-04-03T14:01:34.999Z</time></trkpt><trkpt lat="45.83166264513667" lon="9.094881776763346"><ele>244.66666666666666</ele><time>2026-04-03T14:01:35.999Z</time></trkpt><trkpt lat="45.831497802283856" lon="9.094757338683143"><ele>244.0</ele><time>2026-04-03T14:01:36.999Z</time></trkpt><trkpt lat="45.83133182829536" lon="9.094640774309676"><ele>220.0</ele><time>2026-04-03T14:01:37.999Z</time></trkpt><trkpt lat="45.828048831642114" lon="9.089915010994444"><ele>220.0</ele><time>2026-04-03T14:02:07.999Z</time></trkpt><trkpt lat="45.8279487331256" lon="9.089754035051717"><ele>220.0</ele><time>2026-04-03T14:02:08.999Z</time></trkpt><trkpt lat="45.82788650105144" lon="9.089637976992003"><ele>220.0</ele><time>2026-04-03T14:02:09.999Z</time></trkpt><trkpt lat="45.82784521743781" lon="9.089461653555379"><ele>220.0</ele><time>2026-04-03T14:02:10.999Z</time></trkpt><trkpt lat="45.827791906576735" lon="9.089336021041943"><ele>220.0</ele><time>2026-04-03T14:02:11.999Z</time></trkpt><trkpt lat="45.82771712883502" lon="9.089207642048143"><ele>220.0</ele><time>2026-04-03T14:02:12.999Z</time></trkpt><trkpt lat="45.827634438834764" lon="9.089087015820088"><ele>220.0</ele><time>2026-04-03T14:02:14.001Z</time></trkpt><trkpt lat="45.82756050094228" lon="9.088986047988337"><ele>220.0</ele><time>2026-04-03T14:02:15.001Z</time></trkpt><trkpt lat="45.82747668639346" lon="9.088870681964101"><ele>225.75</ele><time>2026-04-03T14:02:16.001Z</time></trkpt><trkpt lat="45.827393714921264" lon="9.088750248860668"><ele>231.5</ele><time>2026-04-03T14:02:17.001Z</time></trkpt><trkpt lat="45.827316321277976" lon="9.088624999441"><ele>237.25</ele><time>2026-04-03T14:02:18.001Z</time></trkpt><trkpt lat="45.82723615772354" lon="9.088492925475107"><ele>243.0</ele><time>2026-04-03T14:02:19.001Z</time></trkpt><trkpt lat="45.827157082649116" lon="9.08835421547881"><ele>236.25</ele><time>2026-04-03T14:02:20.001Z</time></trkpt><trkpt lat="45.82708212555145" lon="9.088207461892575"><ele>229.5</ele><time>2026-04-03T14:02:21.001Z</time></trkpt><trkpt lat="45.82700765155047" lon="9.088069522059785"><ele>222.75</ele><time>2026-04-03T14:02:22.001Z</time></trkpt><trkpt lat="45.82694660576229" lon="9.087942083259271"><ele>216.0</ele><time>2026-04-03T14:02:23.001Z</time></trkpt><trkpt lat="45.82688367591996" lon="9.087814137657434"><ele>216.0</ele><time>2026-04-03T14:02:24.001Z</time></trkpt><trkpt lat="45.826811559516024" lon="9.087678732154577"><ele>216.0</ele><time>2026-04-03T14:02:25.001Z</time></trkpt><trkpt lat="45.826732102036445" lon="9.087542356882478"><ele>216.0</ele><time>2026-04-03T14:02:26.001Z</time></trkpt><trkpt lat="45.82666510475146" lon="9.08737996760761"><ele>216.0</ele><time>2026-04-03T14:02:27.001Z</time></trkpt><trkpt lat="45.826591535256235" lon="9.087209965812221"><ele>219.75</ele><time>2026-04-03T14:02:28.001Z</time></trkpt><trkpt lat="45.826520598473174" lon="9.087036115262185"><ele>223.5</ele><time>2026-04-03T14:02:29.001Z</time></trkpt><trkpt lat="45.82646524334525" lon="9.086870822934102"><ele>227.25</ele><time>2026-04-03T14:02:30.001Z</time></trkpt><trkpt lat="45.82640337060331" lon="9.086725271856512"><ele>231.0</ele><time>2026-04-03T14:02:31.001Z</time></trkpt><trkpt lat="45.82635056741996" lon="9.086591310431457"><ele>231.0</ele><time>2026-04-03T14:02:32.001Z</time></trkpt><trkpt lat="45.82629192412189" lon="9.086452262576465"><ele>231.00000000000003</ele><time>2026-04-03T14:02:33Z</time></trkpt><trkpt lat="45.82624267419284" lon="9.086300703777487"><ele>231.00000000000003</ele><time>2026-04-03T14:02:34Z</time></trkpt><trkpt lat="45.826190985758515" lon="9.086154326548062"><ele>231.0</ele><time>2026-04-03T14:02:35Z</time></trkpt><trkpt lat="45.82614559539826" lon="9.086020100404154"><ele>231.0</ele><time>2026-04-03T14:02:36Z</time></trkpt><trkpt lat="45.82610834353902" lon="9.085893909770421"><ele>230.20000000000002</ele><time>2026-04-03T14:02:37Z</time></trkpt><trkpt lat="45.82608662426506" lon="9.085758520659226"><ele>229.40000000000003</ele><time>2026-04-03T14:02:38Z</time></trkpt><trkpt lat="45.82608161981837" lon="9.085617170083006"><ele>228.6</ele><time>2026-04-03T14:02:39Z</time></trkpt><trkpt lat="45.82609565499955" lon="9.085474070044386"><ele>227.8</ele><time>2026-04-03T14:02:40Z</time></trkpt><trkpt lat="45.826123011887816" lon="9.085317457687957"><ele>227.0</ele><time>2026-04-03T14:02:41Z</time></trkpt><trkpt lat="45.82614710908431" lon="9.085158856426315"><ele>227.0</ele><time>2026-04-03T14:02:42Z</time></trkpt><trkpt lat="45.82616277912092" lon="9.085007055433758"><ele>227.0</ele><time>2026-04-03T14:02:43Z</time></trkpt><trkpt lat="45.82616861159834" lon="9.084857803620604"><ele>227.0</ele><time>2026-04-03T14:02:44Z</time></trkpt><trkpt lat="45.82617200827331" lon="9.08471684744395"><ele>227.0</ele><time>2026-04-03T14:02:45Z</time></trkpt><trkpt lat="45.826164625221615" lon="9.084574286429454"><ele>227.0</ele><time>2026-04-03T14:02:46Z</time></trkpt><trkpt lat="45.82613140300692" lon="9.084394742281475"><ele>225.33333333333334</ele><time>2026-04-03T14:02:47Z</time></trkpt><trkpt lat="45.82606834764643" lon="9.084177755611897"><ele>223.66666666666669</ele><time>2026-04-03T14:02:48Z</time></trkpt><trkpt lat="45.8260342854541" lon="9.083950049562562"><ele>222.0</ele><time>2026-04-03T14:02:49Z</time></trkpt><trkpt lat="45.82600500344413" lon="9.083775361485504"><ele>227.6</ele><time>2026-04-03T14:02:50Z</time></trkpt><trkpt lat="45.82595990788045" lon="9.083633805805894"><ele>233.2</ele><time>2026-04-03T14:02:51Z</time></trkpt><trkpt lat="45.82592514711672" lon="9.08350381789542"><ele>238.8</ele><time>2026-04-03T14:02:52Z</time></trkpt><trkpt lat="45.825900902366314" lon="9.08336789057836"><ele>244.4</ele><time>2026-04-03T14:02:53Z</time></trkpt><trkpt lat="45.82588060679201" lon="9.083220597471916"><ele>250.0</ele><time>2026-04-03T14:02:54Z</time></trkpt><trkpt lat="45.82587251673698" lon="9.08308248710856"><ele>250.0</ele><time>2026-04-03T14:02:55Z</time></trkpt><trkpt lat="45.82585964229788" lon="9.082929678711617"><ele>250.0</ele><time>2026-04-03T14:02:56Z</time></trkpt><trkpt lat="45.82582717176046" lon="9.082771313615469"><ele>250.0</ele><time>2026-04-03T14:02:57Z</time></trkpt><trkpt lat="45.82579190362198" lon="9.082612724366127"><ele>250.0</ele><time>2026-04-03T14:02:58Z</time></trkpt><trkpt lat="45.82575555921729" lon="9.082480016590669"><ele>250.0</ele><time>2026-04-03T14:02:59Z</time></trkpt><trkpt lat="45.82571959400492" lon="9.082364503612672"><ele>245.8</ele><time>2026-04-03T14:03:00Z</time></trkpt><trkpt lat="45.82568667998963" lon="9.082233647767982"><ele>241.6</ele><time>2026-04-03T14:03:01Z</time></trkpt><trkpt lat="45.82564481124238" lon="9.082100569457946"><ele>237.39999999999998</ele><time>2026-04-03T14:03:02Z</time></trkpt><trkpt lat="45.82560135952745" lon="9.081957662845086"><ele>233.2</ele><time>2026-04-03T14:03:03Z</time></trkpt><trkpt lat="45.82556263034873" lon="9.081834551725363"><ele>229.0</ele><time>2026-04-03T14:03:04Z</time></trkpt><trkpt lat="45.82551813385423" lon="9.081705625213042"><ele>226.0</ele><time>2026-04-03T14:03:05Z</time></trkpt><trkpt lat="45.82545998849873" lon="9.08157450551869"><ele>222.99999999999997</ele><time>2026-04-03T14:03:06Z</time></trkpt><trkpt lat="45.825397623668835" lon="9.081459428651442"><ele>219.99999999999997</ele><time>2026-04-03T14:03:07Z</time></trkpt><trkpt lat="45.82534077726085" lon="9.081361404541543"><ele>217.0</ele><time>2026-04-03T14:03:08Z</time></trkpt><trkpt lat="45.825277442425715" lon="9.081269447626507"><ele>214.0</ele><time>2026-04-03T14:03:09Z</time></trkpt><trkpt lat="45.82521494620488" lon="9.081177748128765"><ele>214.0</ele><time>2026-04-03T14:03:10Z</time></trkpt><trkpt lat="45.8251502383376" lon="9.08106908059741"><ele>213.99999999999997</ele><time>2026-04-03T14:03:11Z</time></trkpt><trkpt lat="45.82510572869681" lon="9.080945517745084"><ele>213.99999999999997</ele><time>2026-04-03T14:03:12Z</time></trkpt><trkpt lat="45.825073405340156" lon="9.080814259487788"><ele>214.0</ele><time>2026-04-03T14:03:13Z</time></trkpt><trkpt lat="45.825048315998814" lon="9.080693816929717"><ele>214.0</ele><time>2026-04-03T14:03:14Z</time></trkpt><trkpt lat="45.82501394895898" lon="9.080601315687742"><ele>216.39999999999998</ele><time>2026-04-03T14:03:15Z</time></trkpt><trkpt lat="45.8249735621625" lon="9.08052523528383"><ele>218.79999999999998</ele><time>2026-04-03T14:03:16Z</time></trkpt><trkpt lat="45.82492398765413" lon="9.080459690780524"><ele>221.20000000000002</ele><time>2026-04-03T14:03:18Z</time></trkpt><trkpt lat="45.824849059500984" lon="9.080383520333486"><ele>223.60000000000002</ele><time>2026-04-03T14:03:20Z</time></trkpt><trkpt lat="45.824760215005135" lon="9.08031578223631"><ele>226.0</ele><time>2026-04-03T14:03:21Z</time></trkpt><trkpt lat="45.82462961111206" lon="9.080238545292303"><ele>226.0</ele><time>2026-04-03T14:03:22Z</time></trkpt><trkpt lat="45.82448474892927" lon="9.080154862883045"><ele>226.0</ele><time>2026-04-03T14:03:23Z</time></trkpt><trkpt lat="45.82434152913563" lon="9.08006385375984"><ele>226.0</ele><time>2026-04-03T14:03:24Z</time></trkpt><trkpt lat="45.82419709051522" lon="9.07997386839033"><ele>226.66666666666666</ele><time>2026-04-03T14:03:25Z</time></trkpt><trkpt lat="45.82408215021918" lon="9.079877035891123"><ele>227.33333333333331</ele><time>2026-04-03T14:03:26Z</time></trkpt><trkpt lat="45.823967825810726" lon="9.079727024348783"><ele>228.0</ele><time>2026-04-03T14:03:27Z</time></trkpt><trkpt lat="45.82385814105299" lon="9.079529586732704"><ele>228.0</ele><time>2026-04-03T14:03:28Z</time></trkpt><trkpt lat="45.82374631935523" lon="9.079353858785517"><ele>228.0</ele><time>2026-04-03T14:03:29Z</time></trkpt><trkpt lat="45.82366548949921" lon="9.079203153912143"><ele>228.0</ele><time>2026-04-03T14:03:30Z</time></trkpt><trkpt lat="45.82359618483802" lon="9.079078267664089"><ele>228.0</ele><time>2026-04-03T14:03:31Z</time></trkpt><trkpt lat="45.82349820804829" lon="9.078986350480543"><ele>224.5</ele><time>2026-04-03T14:03:32Z</time></trkpt><trkpt lat="45.823356508488494" lon="9.07891939885381"><ele>221.0</ele><time>2026-04-03T14:03:33Z</time></trkpt><trkpt lat="45.82320528992742" lon="9.078882052472549"><ele>217.5</ele><time>2026-04-03T14:03:34Z</time></trkpt><trkpt lat="45.82306556633191" lon="9.078880222520597"><ele>214.0</ele><time>2026-04-03T14:03:35Z</time></trkpt><trkpt lat="45.822929649692796" lon="9.078870001564708"><ele>214.0</ele><time>2026-04-03T14:03:36Z</time></trkpt><trkpt lat="45.82278298517239" lon="9.078884476552414"><ele>214.0</ele><time>2026-04-03T14:03:37Z</time></trkpt><trkpt lat="45.82265189434838" lon="9.078904302479382"><ele>214.0</ele><time>2026-04-03T14:03:37.999Z</time></trkpt><trkpt lat="45.82253471089287" lon="9.07890785821565"><ele>214.0</ele><time>2026-04-03T14:03:38.999Z</time></trkpt><trkpt lat="45.82243853701361" lon="9.078908225030201"><ele>213.39999999999998</ele><time>2026-04-03T14:03:39.999Z</time></trkpt><trkpt lat="45.82235611467065" lon="9.07892815155593"><ele>212.79999999999998</ele><time>2026-04-03T14:03:40.999Z</time></trkpt><trkpt lat="45.822272291754324" lon="9.078963219938903"><ele>212.2</ele><time>2026-04-03T14:03:41.999Z</time></trkpt><trkpt lat="45.822207343803086" lon="9.079006391656028"><ele>211.60000000000002</ele><time>2026-04-03T14:03:42.999Z</time></trkpt><trkpt lat="45.822119590946166" lon="9.079119829561733"><ele>211.0</ele><time>2026-04-03T14:03:44.999Z</time></trkpt><trkpt lat="45.82206799835446" lon="9.07923142566783"><ele>212.33333333333331</ele><time>2026-04-03T14:03:45.999Z</time></trkpt><trkpt lat="45.82201643680356" lon="9.079323184774097"><ele>213.66666666666666</ele><time>2026-04-03T14:03:46.999Z</time></trkpt><trkpt lat="45.82197289660608" lon="9.079403306319962"><ele>215.0</ele><time>2026-04-03T14:03:47.999Z</time></trkpt><trkpt lat="45.82192507509119" lon="9.07947943274011"><ele>216.33333333333331</ele><time>2026-04-03T14:03:48.999Z</time></trkpt><trkpt lat="45.82186598099099" lon="9.079573132260672"><ele>217.66666666666666</ele><time>2026-04-03T14:03:49.999Z</time></trkpt><trkpt lat="45.82181646284603" lon="9.079648374198303"><ele>219.0</ele><time>2026-04-03T14:03:50.999Z</time></trkpt><trkpt lat="45.821705285015454" lon="9.079784482872475"><ele>219.0</ele><time>2026-04-03T14:03:52.999Z</time></trkpt><trkpt lat="45.821621689239834" lon="9.079859978722611"><ele>219.0</ele><time>2026-04-03T14:03:53.999Z</time></trkpt><trkpt lat="45.82155251319404" lon="9.079924654996194"><ele>219.0</ele><time>2026-04-03T14:03:54.999Z</time></trkpt><trkpt lat="45.821497034388464" lon="9.080004877239903"><ele>219.0</ele><time>2026-04-03T14:03:55.999Z</time></trkpt><trkpt lat="45.82144509192329" lon="9.08009878057251"><ele>219.0</ele><time>2026-04-03T14:03:56.999Z</time></trkpt><trkpt lat="45.82137664935747" lon="9.080186503861285"><ele>219.0</ele><time>2026-04-03T14:03:57.999Z</time></trkpt><trkpt lat="45.82131464840005" lon="9.080263116996058"><ele>222.42857142857144</ele><time>2026-04-03T14:03:58.999Z</time></trkpt><trkpt lat="45.82126242635907" lon="9.080342247785754"><ele>225.85714285714283</ele><time>2026-04-03T14:03:59.999Z</time></trkpt><trkpt lat="45.82120537457952" lon="9.080426051161954"><ele>229.28571428571428</ele><time>2026-04-03T14:04:00.999Z</time></trkpt><trkpt lat="45.82115378178656" lon="9.080490475197266"><ele>232.71428571428572</ele><time>2026-04-03T14:04:02.999Z</time></trkpt><trkpt lat="45.82110110006982" lon="9.080558930872131"><ele>236.14285714285717</ele><time>2026-04-03T14:04:06.999Z</time></trkpt><trkpt lat="45.82105679154331" lon="9.08062797810097"><ele>239.57142857142856</ele><time>2026-04-03T14:04:09.999Z</time></trkpt><trkpt lat="45.82101005349349" lon="9.080695806407974"><ele>243.0</ele><time>2026-04-03T14:04:12.999Z</time></trkpt><trkpt lat="45.8209347714852" lon="9.080776355962845"><ele>243.0</ele><time>2026-04-03T14:04:15.999Z</time></trkpt><trkpt lat="45.82087995191425" lon="9.080824068169646"><ele>243.0</ele><time>2026-04-03T14:04:17.999Z</time></trkpt><trkpt lat="45.82078690214233" lon="9.080902442278418"><ele>243.0</ele><time>2026-04-03T14:04:20.001Z</time></trkpt><trkpt lat="45.820691727092616" lon="9.080980498163278"><ele>243.0</ele><time>2026-04-03T14:04:22.001Z</time></trkpt><trkpt lat="45.82060849071174" lon="9.081048362790082"><ele>243.0</ele><time>2026-04-03T14:04:24.001Z</time></trkpt><trkpt lat="45.82052152514296" lon="9.081119035822999"><ele>243.0</ele><time>2026-04-03T14:04:26.001Z</time></trkpt><trkpt lat="45.82040644593672" lon="9.081206834984858"><ele>243.0</ele><time>2026-04-03T14:04:28.001Z</time></trkpt><trkpt lat="45.820347992388285" lon="9.081246992205902"><ele>243.0</ele><time>2026-04-03T14:04:29.001Z</time></trkpt><trkpt lat="45.82027945331956" lon="9.081291112615807"><ele>243.0</ele><time>2026-04-03T14:04:30.001Z</time></trkpt><trkpt lat="45.82021881513139" lon="9.081344687002305"><ele>243.0</ele><time>2026-04-03T14:04:31.001Z</time></trkpt><trkpt lat="45.8201188327845" lon="9.081407848100648"><ele>243.16666666666666</ele><time>2026-04-03T14:04:33.001Z</time></trkpt><trkpt lat="45.820035874134376" lon="9.081443022122897"><ele>243.33333333333331</ele><time>2026-04-03T14:04:35.001Z</time></trkpt><trkpt lat="45.819959080361926" lon="9.081455016232512"><ele>243.5</ele><time>2026-04-03T14:04:37.001Z</time></trkpt><trkpt lat="45.819898636159486" lon="9.081483167452156"><ele>243.66666666666666</ele><time>2026-04-03T14:04:44Z</time></trkpt><trkpt lat="45.819833849642755" lon="9.081535882234082"><ele>243.83333333333331</ele><time>2026-04-03T14:04:47Z</time></trkpt><trkpt lat="45.81976535508341" lon="9.081585044813785"><ele>244.0</ele><time>2026-04-03T14:04:49Z</time></trkpt><trkpt lat="45.81967926491828" lon="9.081658443693856"><ele>243.99999999999997</ele><time>2026-04-03T14:04:51Z</time></trkpt><trkpt lat="45.81961283160626" lon="9.081689632611507"><ele>244.0</ele><time>2026-04-03T14:04:52Z</time></trkpt><trkpt lat="45.819542600249044" lon="9.081712947578698"><ele>244.0</ele><time>2026-04-03T14:04:53Z</time></trkpt><trkpt lat="45.81946870741683" lon="9.081751014337296"><ele>244.0</ele><time>2026-04-03T14:04:54Z</time></trkpt><trkpt lat="45.81939717220442" lon="9.081789469590936"><ele>243.99999999999997</ele><time>2026-04-03T14:04:55Z</time></trkpt><trkpt lat="45.81932794169564" lon="9.08183442765263"><ele>244.0</ele><time>2026-04-03T14:04:56Z</time></trkpt><trkpt lat="45.81925810923806" lon="9.08189801300379"><ele>239.79999999999998</ele><time>2026-04-03T14:04:57Z</time></trkpt><trkpt lat="45.81920181085986" lon="9.081975871759507"><ele>235.59999999999997</ele><time>2026-04-03T14:04:58Z</time></trkpt><trkpt lat="45.81915448312232" lon="9.08204786182983"><ele>231.4</ele><time>2026-04-03T14:04:59Z</time></trkpt><trkpt lat="45.81907319418332" lon="9.082160803424006"><ele>227.2</ele><time>2026-04-03T14:05:01Z</time></trkpt><trkpt lat="45.81899695907132" lon="9.082263520038826"><ele>223.0</ele><time>2026-04-03T14:05:03Z</time></trkpt><trkpt lat="45.81893242857749" lon="9.082366206852425"><ele>226.33333333333331</ele><time>2026-04-03T14:05:05Z</time></trkpt><trkpt lat="45.81887607220538" lon="9.082492599420911"><ele>229.66666666666666</ele><time>2026-04-03T14:05:07Z</time></trkpt><trkpt lat="45.8188221772072" lon="9.082588125021989"><ele>233.0</ele><time>2026-04-03T14:05:08Z</time></trkpt><trkpt lat="45.81876064731905" lon="9.082682314888768"><ele>236.33333333333331</ele><time>2026-04-03T14:05:09Z</time></trkpt><trkpt lat="45.81870850895339" lon="9.082762807820574"><ele>239.66666666666666</ele><time>2026-04-03T14:05:10Z</time></trkpt><trkpt lat="45.818665144534904" lon="9.082835834408877"><ele>243.0</ele><time>2026-04-03T14:05:11Z</time></trkpt><trkpt lat="45.81861786778445" lon="9.082902928813608"><ele>243.0</ele><time>2026-04-03T14:05:12Z</time></trkpt><trkpt lat="45.81856504949647" lon="9.082983911670954"><ele>243.0</ele><time>2026-04-03T14:05:13Z</time></trkpt><trkpt lat="45.81849028403689" lon="9.08305461683505"><ele>243.0</ele><time>2026-04-03T14:05:14Z</time></trkpt><trkpt lat="45.81840797627153" lon="9.08313252334085"><ele>243.0</ele><time>2026-04-03T14:05:15Z</time></trkpt><trkpt lat="45.8183096985006" lon="9.08320588278021"><ele>243.0</ele><time>2026-04-03T14:05:16Z</time></trkpt><trkpt lat="45.81820947965262" lon="9.083284369830045"><ele>240.4</ele><time>2026-04-03T14:05:17Z</time></trkpt><trkpt lat="45.81810567460896" lon="9.083363091238935"><ele>237.8</ele><time>2026-04-03T14:05:18Z</time></trkpt><trkpt lat="45.81801874822285" lon="9.083458789518021"><ele>235.2</ele><time>2026-04-03T14:05:19Z</time></trkpt><trkpt lat="45.81793529460143" lon="9.08354413801562"><ele>232.6</ele><time>2026-04-03T14:05:20Z</time></trkpt><trkpt lat="45.81785064226101" lon="9.083633231154746"><ele>230.0</ele><time>2026-04-03T14:05:21Z</time></trkpt><trkpt lat="45.81776890019575" lon="9.083717281833156"><ele>230.00000000000003</ele><time>2026-04-03T14:05:22Z</time></trkpt><trkpt lat="45.81769234047798" lon="9.083780473463175"><ele>230.0</ele><time>2026-04-03T14:05:23Z</time></trkpt><trkpt lat="45.817620517129484" lon="9.083829241211829"><ele>230.0</ele><time>2026-04-03T14:05:24Z</time></trkpt><trkpt lat="45.817536163912195" lon="9.08389349424451"><ele>230.0</ele><time>2026-04-03T14:05:26Z</time></trkpt><trkpt lat="45.81745358759621" lon="9.083973496069571"><ele>230.00000000000003</ele><time>2026-04-03T14:05:28Z</time></trkpt><trkpt lat="45.8173882521171" lon="9.084033151608214"><ele>230.0</ele><time>2026-04-03T14:05:29Z</time></trkpt><trkpt lat="45.817318237313366" lon="9.084080479788446"><ele>229.0</ele><time>2026-04-03T14:05:30Z</time></trkpt><trkpt lat="45.817218965660004" lon="9.084135183578011"><ele>228.0</ele><time>2026-04-03T14:05:32Z</time></trkpt><trkpt lat="45.81715108990367" lon="9.084173090334614"><ele>227.0</ele><time>2026-04-03T14:05:34Z</time></trkpt><trkpt lat="45.81705294235898" lon="9.084216774829493"><ele>226.0</ele><time>2026-04-03T14:05:37Z</time></trkpt><trkpt lat="45.816953143506396" lon="9.084263943108368"><ele>225.0</ele><time>2026-04-03T14:05:39Z</time></trkpt><trkpt lat="45.816850017216815" lon="9.084309169405417"><ele>222.4</ele><time>2026-04-03T14:05:40.999Z</time></trkpt><trkpt lat="45.81674048155511" lon="9.084367328195867"><ele>219.8</ele><time>2026-04-03T14:05:42.999Z</time></trkpt><trkpt lat="45.81668001246172" lon="9.084402640084006"><ele>217.2</ele><time>2026-04-03T14:05:43.999Z</time></trkpt><trkpt lat="45.81657746125015" lon="9.084445682704173"><ele>214.6</ele><time>2026-04-03T14:05:45.999Z</time></trkpt><trkpt lat="45.81649401423116" lon="9.084482504389529"><ele>212.0</ele><time>2026-04-03T14:05:47.999Z</time></trkpt><trkpt lat="45.816406429158135" lon="9.084528941650937"><ele>212.0</ele><time>2026-04-03T14:05:49.999Z</time></trkpt><trkpt lat="45.81631744205672" lon="9.084585792985427"><ele>212.0</ele><time>2026-04-03T14:05:51.999Z</time></trkpt><trkpt lat="45.81620031028839" lon="9.084637614219771"><ele>212.0</ele><time>2026-04-03T14:05:53.999Z</time></trkpt><trkpt lat="45.81610498051143" lon="9.084673920629033"><ele>212.0</ele><time>2026-04-03T14:05:55.999Z</time></trkpt><trkpt lat="45.81598930725732" lon="9.084672032503386"><ele>212.0</ele><time>2026-04-03T14:05:57.999Z</time></trkpt><trkpt lat="45.81592252235827" lon="9.084645646206686"><ele>211.6</ele><time>2026-04-03T14:05:58.999Z</time></trkpt><trkpt lat="45.81582425283314" lon="9.084613996693054"><ele>211.2</ele><time>2026-04-03T14:06:00.999Z</time></trkpt><trkpt lat="45.81572673188709" lon="9.084583961385569"><ele>210.8</ele><time>2026-04-03T14:06:02.999Z</time></trkpt><trkpt lat="45.81564792244198" lon="9.084562261757513"><ele>210.4</ele><time>2026-04-03T14:06:06.999Z</time></trkpt><trkpt lat="45.81554512953078" lon="9.084551795087343"><ele>210.0</ele><time>2026-04-03T14:06:09.999Z</time></trkpt><trkpt lat="45.81544426661056" lon="9.084554098123505"><ele>210.0</ele><time>2026-04-03T14:06:11.999Z</time></trkpt><trkpt lat="45.81534259963437" lon="9.084493065501674"><ele>210.0</ele><time>2026-04-03T14:06:13.999Z</time></trkpt><trkpt lat="45.8152835695947" lon="9.084438791909626"><ele>210.0</ele><time>2026-04-03T14:06:14.999Z</time></trkpt><trkpt lat="45.81522678914743" lon="9.084378910041181"><ele>210.0</ele><time>2026-04-03T14:06:15.999Z</time></trkpt><trkpt lat="45.81515728801874" lon="9.084301181780575"><ele>210.0</ele><time>2026-04-03T14:06:16.999Z</time></trkpt><trkpt lat="45.81509347129374" lon="9.084220777588753"><ele>210.0</ele><time>2026-04-03T14:06:17.999Z</time></trkpt><trkpt lat="45.81503852099123" lon="9.084145660667314"><ele>208.6</ele><time>2026-04-03T14:06:18.999Z</time></trkpt><trkpt lat="45.81493871170742" lon="9.084037204745863"><ele>207.2</ele><time>2026-04-03T14:06:20.999Z</time></trkpt><trkpt lat="45.814841865815744" lon="9.083911917494374"><ele>205.8</ele><time>2026-04-03T14:06:22.999Z</time></trkpt><trkpt lat="45.814844209629236" lon="9.083788235316327"><ele>204.4</ele><time>2026-04-03T14:06:25Z</time></trkpt><trkpt lat="45.81486769318722" lon="9.08366847051176"><ele>203.0</ele><time>2026-04-03T14:06:27Z</time></trkpt><trkpt lat="45.814919301428255" lon="9.083554371174754"><ele>203.0</ele><time>2026-04-03T14:06:29Z</time></trkpt><trkpt lat="45.81497354106829" lon="9.083449877792411"><ele>203.0</ele><time>2026-04-03T14:06:31Z</time></trkpt><trkpt lat="45.814960618017395" lon="9.083322027262538"><ele>203.0</ele><time>2026-04-03T14:06:33Z</time></trkpt><trkpt lat="45.81489682903093" lon="9.083206388438413"><ele>203.0</ele><time>2026-04-03T14:06:35Z</time></trkpt><trkpt lat="45.81484404140693" lon="9.083121371823902"><ele>203.0</ele><time>2026-04-03T14:06:37Z</time></trkpt><trkpt lat="45.81478563928054" lon="9.083020588185255"><ele>202.2</ele><time>2026-04-03T14:06:39Z</time></trkpt><trkpt lat="45.8147071714182" lon="9.082882420660964"><ele>201.4</ele><time>2026-04-03T14:06:41Z</time></trkpt><trkpt lat="45.81464992324208" lon="9.082789535290027"><ele>200.6</ele><time>2026-04-03T14:06:42Z</time></trkpt><trkpt lat="45.81457981058759" lon="9.082687908610065"><ele>199.79999999999998</ele><time>2026-04-03T14:06:43Z</time></trkpt><trkpt lat="45.81450257436006" lon="9.08257634849857"><ele>199.0</ele><time>2026-04-03T14:06:44Z</time></trkpt><trkpt lat="45.814432566423044" lon="9.082474456844604"><ele>198.75</ele><time>2026-04-03T14:06:45Z</time></trkpt><trkpt lat="45.814304045524786" lon="9.082264337695928"><ele>198.5</ele><time>2026-04-03T14:06:47Z</time></trkpt><trkpt lat="45.81422603277884" lon="9.082148838532852"><ele>198.25</ele><time>2026-04-03T14:06:48Z</time></trkpt><trkpt lat="45.81415049624897" lon="9.082042599839182"><ele>198.0</ele><time>2026-04-03T14:06:49Z</time></trkpt><trkpt lat="45.81408092849283" lon="9.081939992451202"><ele>198.0</ele><time>2026-04-03T14:06:50Z</time></trkpt><trkpt lat="45.81401021169964" lon="9.081835321749125"><ele>198.0</ele><time>2026-04-03T14:06:51Z</time></trkpt><trkpt lat="45.813928241443605" lon="9.081723098584908"><ele>198.0</ele><time>2026-04-03T14:06:52Z</time></trkpt><trkpt lat="45.81385036687094" lon="9.081601928928485"><ele>198.0</ele><time>2026-04-03T14:06:53Z</time></trkpt><trkpt lat="45.813780944075745" lon="9.081477288704477"><ele>198.0</ele><time>2026-04-03T14:06:54Z</time></trkpt><trkpt lat="45.8137226855348" lon="9.081372969532831"><ele>198.0</ele><time>2026-04-03T14:06:55Z</time></trkpt><trkpt lat="45.81366809540408" lon="9.081289502483923"><ele>198.0</ele><time>2026-04-03T14:06:56Z</time></trkpt><trkpt lat="45.81361869360462" lon="9.08121352703664"><ele>198.0</ele><time>2026-04-03T14:06:57Z</time></trkpt><trkpt lat="45.8135792397039" lon="9.081142814753013"><ele>198.0</ele><time>2026-04-03T14:06:58Z</time></trkpt><trkpt lat="45.813537410569225" lon="9.081072758600781"><ele>198.0</ele><time>2026-04-03T14:06:59Z</time></trkpt><trkpt lat="45.813482077182044" lon="9.080988876516022"><ele>198.0</ele><time>2026-04-03T14:07:00Z</time></trkpt><trkpt lat="45.81343506128014" lon="9.080917509378148"><ele>198.0</ele><time>2026-04-03T14:07:01Z</time></trkpt><trkpt lat="45.813382533728976" lon="9.080830985257547"><ele>198.0</ele><time>2026-04-03T14:07:02Z</time></trkpt><trkpt lat="45.8133369581779" lon="9.08073766692736"><ele>198.0</ele><time>2026-04-03T14:07:03Z</time></trkpt><trkpt lat="45.81329359743115" lon="9.080631301395472"><ele>198.0</ele><time>2026-04-03T14:07:04Z</time></trkpt><trkpt lat="45.813253706135434" lon="9.08051727626167"><ele>198.0</ele><time>2026-04-03T14:07:05Z</time></trkpt><trkpt lat="45.81321707881025" lon="9.080401864910318"><ele>198.0</ele><time>2026-04-03T14:07:06Z</time></trkpt><trkpt lat="45.81318599425774" lon="9.080283057991302"><ele>198.0</ele><time>2026-04-03T14:07:07Z</time></trkpt><trkpt lat="45.81315966062406" lon="9.080163611828894"><ele>198.0</ele><time>2026-04-03T14:07:08Z</time></trkpt><trkpt lat="45.81313892173355" lon="9.080038966326429"><ele>198.0</ele><time>2026-04-03T14:07:09Z</time></trkpt><trkpt lat="45.8131228707061" lon="9.079913020764291"><ele>198.0</ele><time>2026-04-03T14:07:10Z</time></trkpt><trkpt lat="45.81310952358288" lon="9.079786264050634"><ele>198.0</ele><time>2026-04-03T14:07:11Z</time></trkpt><trkpt lat="45.81305525602661" lon="9.07960830308971"><ele>198.0</ele><time>2026-04-03T14:07:13Z</time></trkpt><trkpt lat="45.81304091731073" lon="9.079488958260184"><ele>197.83333333333334</ele><time>2026-04-03T14:07:14Z</time></trkpt><trkpt lat="45.81302874166264" lon="9.079369189530293"><ele>197.66666666666669</ele><time>2026-04-03T14:07:15Z</time></trkpt><trkpt lat="45.81302029381776" lon="9.079257836254593"><ele>197.5</ele><time>2026-04-03T14:07:16Z</time></trkpt><trkpt lat="45.81301227148349" lon="9.079149306017129"><ele>197.33333333333334</ele><time>2026-04-03T14:07:17Z</time></trkpt><trkpt lat="45.81300420193739" lon="9.079037619108075"><ele>197.16666666666669</ele><time>2026-04-03T14:07:18Z</time></trkpt><trkpt lat="45.81299791250195" lon="9.078936013483116"><ele>197.0</ele><time>2026-04-03T14:07:19Z</time></trkpt><trkpt lat="45.812989061642874" lon="9.078819899691196"><ele>197.0</ele><time>2026-04-03T14:07:20Z</time></trkpt><trkpt lat="45.81297968622656" lon="9.078694173056396"><ele>197.0</ele><time>2026-04-03T14:07:21Z</time></trkpt><trkpt lat="45.81296919730336" lon="9.078559468454829"><ele>197.0</ele><time>2026-04-03T14:07:22Z</time></trkpt><trkpt lat="45.81295633842555" lon="9.078425494687913"><ele>197.0</ele><time>2026-04-03T14:07:23Z</time></trkpt><trkpt lat="45.812942250698455" lon="9.078281211694886"><ele>197.0</ele><time>2026-04-03T14:07:24Z</time></trkpt><trkpt lat="45.812930645325096" lon="9.07813567975263"><ele>197.33333333333334</ele><time>2026-04-03T14:07:25Z</time></trkpt><trkpt lat="45.812918368315806" lon="9.077999824988177"><ele>197.66666666666669</ele><time>2026-04-03T14:07:26Z</time></trkpt><trkpt lat="45.81290715710604" lon="9.077868285450442"><ele>198.0</ele><time>2026-04-03T14:07:26.999Z</time></trkpt><trkpt lat="45.81289863849962" lon="9.07774944371644"><ele>198.33333333333331</ele><time>2026-04-03T14:07:27.999Z</time></trkpt><trkpt lat="45.8128903500021" lon="9.077625731559184"><ele>198.66666666666666</ele><time>2026-04-03T14:07:28.999Z</time></trkpt><trkpt lat="45.81288111359807" lon="9.077500045230346"><ele>199.0</ele><time>2026-04-03T14:07:29.999Z</time></trkpt><trkpt lat="45.812872230101206" lon="9.077380129182352"><ele>199.16666666666666</ele><time>2026-04-03T14:07:30.999Z</time></trkpt><trkpt lat="45.81286526605934" lon="9.077253259593823"><ele>199.33333333333331</ele><time>2026-04-03T14:07:31.999Z</time></trkpt><trkpt lat="45.812861743838724" lon="9.07713141069359"><ele>199.5</ele><time>2026-04-03T14:07:32.999Z</time></trkpt><trkpt lat="45.812853459131304" lon="9.077019533906281"><ele>199.66666666666669</ele><time>2026-04-03T14:07:33.999Z</time></trkpt><trkpt lat="45.812843871469" lon="9.07692448414415"><ele>199.83333333333334</ele><time>2026-04-03T14:07:34.999Z</time></trkpt><trkpt lat="45.812837172760865" lon="9.07683358382369"><ele>200.0</ele><time>2026-04-03T14:07:35.999Z</time></trkpt><trkpt lat="45.81283138797316" lon="9.076731780132594"><ele>200.00000000000003</ele><time>2026-04-03T14:07:36.999Z</time></trkpt><trkpt lat="45.812822590957296" lon="9.076622766720712"><ele>200.0</ele><time>2026-04-03T14:07:37.999Z</time></trkpt><trkpt lat="45.81281594625434" lon="9.076515456563383"><ele>200.0</ele><time>2026-04-03T14:07:38.999Z</time></trkpt><trkpt lat="45.81280695370988" lon="9.076424519252354"><ele>200.0</ele><time>2026-04-03T14:07:39.999Z</time></trkpt><trkpt lat="45.81279581775978" lon="9.076270066679339"><ele>200.00000000000003</ele><time>2026-04-03T14:07:41.999Z</time></trkpt><trkpt lat="45.81278640510252" lon="9.076179193821194"><ele>200.0</ele><time>2026-04-03T14:07:42.999Z</time></trkpt><trkpt lat="45.81277309025431" lon="9.076073894285843"><ele>200.83333333333334</ele><time>2026-04-03T14:07:43.999Z</time></trkpt><trkpt lat="45.812760441603174" lon="9.075976987648955"><ele>201.66666666666669</ele><time>2026-04-03T14:07:44.999Z</time></trkpt><trkpt lat="45.812752442606936" lon="9.07586829151406"><ele>202.5</ele><time>2026-04-03T14:07:45.999Z</time></trkpt><trkpt lat="45.81274348150591" lon="9.075747768665932"><ele>203.33333333333331</ele><time>2026-04-03T14:07:46.999Z</time></trkpt><trkpt lat="45.81273454427199" lon="9.075631007976556"><ele>204.16666666666666</ele><time>2026-04-03T14:07:47.999Z</time></trkpt><trkpt lat="45.812725230435" lon="9.075511188984345"><ele>205.0</ele><time>2026-04-03T14:07:48.999Z</time></trkpt><trkpt lat="45.81272348105466" lon="9.07538200172091"><ele>205.0</ele><time>2026-04-03T14:07:49.999Z</time></trkpt><trkpt lat="45.8127206426007" lon="9.075277137414904"><ele>205.0</ele><time>2026-04-03T14:07:50.999Z</time></trkpt><trkpt lat="45.81271605598503" lon="9.075153649795162"><ele>205.0</ele><time>2026-04-03T14:07:52.999Z</time></trkpt><trkpt lat="45.812707561888075" lon="9.07505497219903"><ele>205.0</ele><time>2026-04-03T14:07:54.999Z</time></trkpt><trkpt lat="45.81269249897245" lon="9.074967222312464"><ele>205.0</ele><time>2026-04-03T14:07:55.999Z</time></trkpt><trkpt lat="45.81268709854442" lon="9.074866865228072"><ele>205.0</ele><time>2026-04-03T14:07:56.999Z</time></trkpt><trkpt lat="45.81268047409368" lon="9.074764350239846"><ele>205.0</ele><time>2026-04-03T14:07:57.999Z</time></trkpt><trkpt lat="45.812674615556965" lon="9.074667412235154"><ele>204.83333333333331</ele><time>2026-04-03T14:07:58.999Z</time></trkpt><trkpt lat="45.81266174575158" lon="9.074531693632283"><ele>204.66666666666666</ele><time>2026-04-03T14:08:00.999Z</time></trkpt><trkpt lat="45.812659557842444" lon="9.074434663368358"><ele>204.5</ele><time>2026-04-03T14:08:03.999Z</time></trkpt><trkpt lat="45.81266330631804" lon="9.074335979560503"><ele>204.33333333333331</ele><time>2026-04-03T14:08:06.999Z</time></trkpt><trkpt lat="45.81265473306882" lon="9.074190460165918"><ele>204.16666666666666</ele><time>2026-04-03T14:08:08.999Z</time></trkpt><trkpt lat="45.81263727412253" lon="9.074086473075788"><ele>204.0</ele><time>2026-04-03T14:08:11.999Z</time></trkpt><trkpt lat="45.81261632699144" lon="9.073939087431134"><ele>204.71428571428572</ele><time>2026-04-03T14:08:13.999Z</time></trkpt><trkpt lat="45.81260234910115" lon="9.073835825176888"><ele>205.42857142857144</ele><time>2026-04-03T14:08:14.999Z</time></trkpt><trkpt lat="45.812590883604834" lon="9.073742211011512"><ele>206.14285714285714</ele><time>2026-04-03T14:08:15.999Z</time></trkpt><trkpt lat="45.812580744203515" lon="9.073640087872246"><ele>206.85714285714286</ele><time>2026-04-03T14:08:16.999Z</time></trkpt><trkpt lat="45.81257403231175" lon="9.073540867092742"><ele>207.57142857142856</ele><time>2026-04-03T14:08:17.999Z</time></trkpt><trkpt lat="45.812568568195964" lon="9.07344615099912"><ele>208.28571428571428</ele><time>2026-04-03T14:08:18.999Z</time></trkpt><trkpt lat="45.81255844195962" lon="9.073306073874637"><ele>209.0</ele><time>2026-04-03T14:08:20.999Z</time></trkpt><trkpt lat="45.812548318792146" lon="9.073206598946102"><ele>209.14285714285714</ele><time>2026-04-03T14:08:22.999Z</time></trkpt><trkpt lat="45.81254470305281" lon="9.073115377376448"><ele>209.28571428571428</ele><time>2026-04-03T14:08:24.999Z</time></trkpt><trkpt lat="45.81254091411771" lon="9.073022203903786"><ele>209.42857142857144</ele><time>2026-04-03T14:08:27.999Z</time></trkpt><trkpt lat="45.812530163047924" lon="9.07289026237839"><ele>209.57142857142856</ele><time>2026-04-03T14:08:45Z</time></trkpt><trkpt lat="45.81252130655596" lon="9.072772074049906"><ele>209.71428571428572</ele><time>2026-04-03T14:08:47Z</time></trkpt><trkpt lat="45.81251094699494" lon="9.072677960174834"><ele>209.85714285714286</ele><time>2026-04-03T14:08:49Z</time></trkpt><trkpt lat="45.81249964749534" lon="9.07257233214808"><ele>210.0</ele><time>2026-04-03T14:08:53Z</time></trkpt><trkpt lat="45.81248950151805" lon="9.07244707312013"><ele>209.5</ele><time>2026-04-03T14:09:10Z</time></trkpt><trkpt lat="45.81247930957141" lon="9.072335473324099"><ele>209.0</ele><time>2026-04-03T14:09:14Z</time></trkpt><trkpt lat="45.81246943249383" lon="9.072225638386639"><ele>208.5</ele><time>2026-04-03T14:09:17.999Z</time></trkpt><trkpt lat="45.81242364123271" lon="9.072138143293898"><ele>208.0</ele><time>2026-04-03T14:09:22.999Z</time></trkpt><trkpt lat="45.812352218983456" lon="9.072148263029728"><ele>207.5</ele><time>2026-04-03T14:09:25.999Z</time></trkpt><trkpt lat="45.81228184728744" lon="9.072215376751585"><ele>207.0</ele><time>2026-04-03T14:09:28.999Z</time></trkpt><trkpt lat="45.81217197081127" lon="9.07234254156134"><ele>207.0</ele><time>2026-04-03T14:09:31.999Z</time></trkpt><trkpt lat="45.812099748756644" lon="9.072424209757017"><ele>207.0</ele><time>2026-04-03T14:09:33.999Z</time></trkpt><trkpt lat="45.81204250629681" lon="9.072473437328378"><ele>207.0</ele><time>2026-04-03T14:09:35.999Z</time></trkpt><trkpt lat="45.81197035486726" lon="9.072526507511222"><ele>207.0</ele><time>2026-04-03T14:09:38.999Z</time></trkpt><trkpt lat="45.811887778167716" lon="9.07261055018404"><ele>207.0</ele><time>2026-04-03T14:09:40.999Z</time></trkpt><trkpt lat="45.81181881977549" lon="9.0726750255473"><ele>207.0</ele><time>2026-04-03T14:09:41.999Z</time></trkpt><trkpt lat="45.811753891118265" lon="9.072744927682495"><ele>206.83333333333334</ele><time>2026-04-03T14:09:42.999Z</time></trkpt><trkpt lat="45.81168525149494" lon="9.072825550313379"><ele>206.66666666666669</ele><time>2026-04-03T14:09:43.999Z</time></trkpt><trkpt lat="45.811613234966494" lon="9.072904034693927"><ele>206.5</ele><time>2026-04-03T14:09:44.999Z</time></trkpt><trkpt lat="45.81154159524549" lon="9.072975196218135"><ele>206.33333333333334</ele><time>2026-04-03T14:09:45.999Z</time></trkpt><trkpt lat="45.81146876182272" lon="9.073045054151919"><ele>206.16666666666669</ele><time>2026-04-03T14:09:46.999Z</time></trkpt><trkpt lat="45.81139128696166" lon="9.073110070153048"><ele>206.0</ele><time>2026-04-03T14:09:47.999Z</time></trkpt><trkpt lat="45.81133686570645" lon="9.07317853131857"><ele>206.0</ele><time>2026-04-03T14:09:48.999Z</time></trkpt><trkpt lat="45.811236940308014" lon="9.073270445022041"><ele>206.0</ele><time>2026-04-03T14:09:50.999Z</time></trkpt><trkpt lat="45.81116641270953" lon="9.073308433687291"><ele>206.0</ele><time>2026-04-03T14:09:52.999Z</time></trkpt><trkpt lat="45.81108291609522" lon="9.07336505112887"><ele>206.0</ele><time>2026-04-03T14:09:58.999Z</time></trkpt><trkpt lat="45.81101479436427" lon="9.073440789968009"><ele>206.0</ele><time>2026-04-03T14:10:01.999Z</time></trkpt><trkpt lat="45.81095232354243" lon="9.07352520112303"><ele>206.33333333333334</ele><time>2026-04-03T14:10:04.999Z</time></trkpt><trkpt lat="45.810879280815875" lon="9.073639113806866"><ele>206.66666666666669</ele><time>2026-04-03T14:10:06.999Z</time></trkpt><trkpt lat="45.810847096810534" lon="9.073728095548486"><ele>207.0</ele><time>2026-04-03T14:10:07.999Z</time></trkpt><trkpt lat="45.81082419991257" lon="9.073821597290427"><ele>207.33333333333331</ele><time>2026-04-03T14:10:08.999Z</time></trkpt><trkpt lat="45.81078953205501" lon="9.073904204708878"><ele>207.66666666666666</ele><time>2026-04-03T14:10:09.999Z</time></trkpt><trkpt lat="45.810718098121534" lon="9.074032870909898"><ele>208.0</ele><time>2026-04-03T14:10:11.999Z</time></trkpt><trkpt lat="45.81060209753652" lon="9.074125399715964"><ele>208.33333333333331</ele><time>2026-04-03T14:10:13.999Z</time></trkpt><trkpt lat="45.8105400938174" lon="9.074151261998887"><ele>208.66666666666666</ele><time>2026-04-03T14:10:14.999Z</time></trkpt><trkpt lat="45.81046386250104" lon="9.074165527042272"><ele>209.0</ele><time>2026-04-03T14:10:25.999Z</time></trkpt><trkpt lat="45.81037869516738" lon="9.07418242950408"><ele>209.33333333333331</ele><time>2026-04-03T14:10:37.999Z</time></trkpt><trkpt lat="45.810305021291235" lon="9.07423250784913"><ele>209.66666666666666</ele><time>2026-04-03T14:10:39.999Z</time></trkpt><trkpt lat="45.81020838564739" lon="9.07432028132589"><ele>210.0</ele><time>2026-04-03T14:10:41.999Z</time></trkpt><trkpt lat="45.810118716488944" lon="9.074400237763811"><ele>210.0</ele><time>2026-04-03T14:10:44Z</time></trkpt><trkpt lat="45.81003273110107" lon="9.074477691314335"><ele>210.0</ele><time>2026-04-03T14:10:46Z</time></trkpt><trkpt lat="45.809969528586414" lon="9.074544783921203"><ele>210.0</ele><time>2026-04-03T14:10:48Z</time></trkpt><trkpt lat="45.80992094352288" lon="9.074604255140697"><ele>210.0</ele><time>2026-04-03T14:10:50Z</time></trkpt><trkpt lat="45.80985473511946" lon="9.07467422811115"><ele>210.0</ele><time>2026-04-03T14:10:53Z</time></trkpt><trkpt lat="45.8097657514891" lon="9.074724480980853"><ele>210.0</ele><time>2026-04-03T14:11:32.999Z</time></trkpt><trkpt lat="45.809715306741126" lon="9.074785644611573"><ele>210.0</ele><time>2026-04-03T14:11:35.999Z</time></trkpt><trkpt lat="45.809662367655946" lon="9.07483968789791"><ele>210.0</ele><time>2026-04-03T14:11:40.999Z</time></trkpt><trkpt lat="45.809594072001545" lon="9.074923349782903"><ele>210.0</ele><time>2026-04-03T14:11:43.999Z</time></trkpt><trkpt lat="45.80952407870811" lon="9.074995052648646"><ele>210.0</ele><time>2026-04-03T14:11:45.999Z</time></trkpt><trkpt lat="45.809432759277904" lon="9.075092421905802"><ele>210.0</ele><time>2026-04-03T14:11:47.999Z</time></trkpt><trkpt lat="45.80935178637302" lon="9.075170870862891"><ele>209.28571428571428</ele><time>2026-04-03T14:11:49.999Z</time></trkpt><trkpt lat="45.80928475281566" lon="9.075227310480752"><ele>208.57142857142856</ele><time>2026-04-03T14:11:52.999Z</time></trkpt><trkpt lat="45.80922354049288" lon="9.07528193054313"><ele>207.85714285714286</ele><time>2026-04-03T14:11:57.999Z</time></trkpt><trkpt lat="45.80916746271866" lon="9.075335457776196"><ele>207.14285714285714</ele><time>2026-04-03T14:12:27.999Z</time></trkpt><trkpt lat="45.80909939860913" lon="9.075395612844007"><ele>206.42857142857142</ele><time>2026-04-03T14:12:29.999Z</time></trkpt><trkpt lat="45.80904091626588" lon="9.075449222595143"><ele>205.71428571428572</ele><time>2026-04-03T14:12:32.999Z</time></trkpt><trkpt lat="45.80897966768497" lon="9.075488073700303"><ele>205.0</ele><time>2026-04-03T14:12:38.999Z</time></trkpt><trkpt lat="45.80891599090839" lon="9.075535755923898"><ele>204.99999999999997</ele><time>2026-04-03T14:12:42Z</time></trkpt><trkpt lat="45.808849907217144" lon="9.075581964902815"><ele>205.0</ele><time>2026-04-03T14:12:44Z</time></trkpt><trkpt lat="45.80879262790443" lon="9.075635163357285"><ele>205.0</ele><time>2026-04-03T14:12:46Z</time></trkpt><trkpt lat="45.808737119406906" lon="9.075688153831393"><ele>205.0</ele><time>2026-04-03T14:12:48Z</time></trkpt><trkpt lat="45.808648772910686" lon="9.075767965619274"><ele>204.99999999999997</ele><time>2026-04-03T14:12:51Z</time></trkpt><trkpt lat="45.80858146148556" lon="9.07582874093898"><ele>205.0</ele><time>2026-04-03T14:12:53Z</time></trkpt><trkpt lat="45.80852901597745" lon="9.07588121426398"><ele>205.2</ele><time>2026-04-03T14:12:56Z</time></trkpt><trkpt lat="45.80846913565206" lon="9.075934918386686"><ele>205.4</ele><time>2026-04-03T14:13:00Z</time></trkpt><trkpt lat="45.80841146306921" lon="9.075994235762469"><ele>205.60000000000002</ele><time>2026-04-03T14:13:04Z</time></trkpt><trkpt lat="45.80833596701386" lon="9.076060271548984"><ele>205.8</ele><time>2026-04-03T14:13:07Z</time></trkpt><trkpt lat="45.808246124372076" lon="9.076145971129646"><ele>206.0</ele><time>2026-04-03T14:13:10Z</time></trkpt><trkpt lat="45.80814337830083" lon="9.076243717905273"><ele>206.00000000000003</ele><time>2026-04-03T14:13:12Z</time></trkpt><trkpt lat="45.80805638611753" lon="9.07632737886965"><ele>206.0</ele><time>2026-04-03T14:13:14Z</time></trkpt><trkpt lat="45.80799097036997" lon="9.076394038388367"><ele>206.0</ele><time>2026-04-03T14:13:16Z</time></trkpt><trkpt lat="45.807935092281014" lon="9.076450055192742"><ele>206.0</ele><time>2026-04-03T14:13:19Z</time></trkpt><trkpt lat="45.80786430834925" lon="9.076519606797401"><ele>206.00000000000003</ele><time>2026-04-03T14:13:22Z</time></trkpt><trkpt lat="45.80778687474676" lon="9.076584770318446"><ele>206.0</ele><time>2026-04-03T14:13:24Z</time></trkpt><trkpt lat="45.80768841907506" lon="9.07666862849566"><ele>206.4</ele><time>2026-04-03T14:13:26Z</time></trkpt><trkpt lat="45.80760150678414" lon="9.076756640396242"><ele>206.8</ele><time>2026-04-03T14:13:28Z</time></trkpt><trkpt lat="45.80753356581299" lon="9.076836193154023"><ele>207.20000000000002</ele><time>2026-04-03T14:13:30Z</time></trkpt><trkpt lat="45.8074387536855" lon="9.076925643903179"><ele>207.60000000000002</ele><time>2026-04-03T14:13:33Z</time></trkpt><trkpt lat="45.80736843608588" lon="9.07702015306627"><ele>208.0</ele><time>2026-04-03T14:13:35Z</time></trkpt><trkpt lat="45.80730672824219" lon="9.077103474387444"><ele>208.0</ele><time>2026-04-03T14:13:36.999Z</time></trkpt><trkpt lat="45.80720767063951" lon="9.077196303350314"><ele>208.0</ele><time>2026-04-03T14:13:38.999Z</time></trkpt><trkpt lat="45.807108656889675" lon="9.077287251043206"><ele>208.0</ele><time>2026-04-03T14:13:40.999Z</time></trkpt><trkpt lat="45.80705311155156" lon="9.077341800310538"><ele>208.0</ele><time>2026-04-03T14:13:41.999Z</time></trkpt><trkpt lat="45.806952748502084" lon="9.077420272728824"><ele>208.0</ele><time>2026-04-03T14:13:43.999Z</time></trkpt><trkpt lat="45.80687011636608" lon="9.07750297347818"><ele>207.83333333333331</ele><time>2026-04-03T14:13:45.999Z</time></trkpt><trkpt lat="45.806798584252824" lon="9.077577865940476"><ele>207.66666666666666</ele><time>2026-04-03T14:13:47.999Z</time></trkpt><trkpt lat="45.80671696760052" lon="9.077618175581707"><ele>207.5</ele><time>2026-04-03T14:13:49.999Z</time></trkpt><trkpt lat="45.80662772957472" lon="9.07767203147885"><ele>207.33333333333331</ele><time>2026-04-03T14:13:51.999Z</time></trkpt><trkpt lat="45.806581442038556" lon="9.07779497139569"><ele>207.16666666666666</ele><time>2026-04-03T14:13:53.999Z</time></trkpt><trkpt lat="45.806529009869344" lon="9.077849084425221"><ele>207.0</ele><time>2026-04-03T14:13:54.999Z</time></trkpt><trkpt lat="45.806437187937256" lon="9.077934340917459"><ele>207.0</ele><time>2026-04-03T14:13:56.999Z</time></trkpt><trkpt lat="45.80635222648023" lon="9.078012462614057"><ele>207.0</ele><time>2026-04-03T14:13:58.999Z</time></trkpt><trkpt lat="45.80628683646285" lon="9.078064566727923"><ele>207.0</ele><time>2026-04-03T14:14:00.999Z</time></trkpt><trkpt lat="45.8062152602388" lon="9.07816030992959"><ele>207.0</ele><time>2026-04-03T14:14:02.999Z</time></trkpt><trkpt lat="45.80617047816005" lon="9.07822581863325"><ele>207.0</ele><time>2026-04-03T14:14:03.999Z</time></trkpt><trkpt lat="45.806111330674" lon="9.07833522602899"><ele>207.0</ele><time>2026-04-03T14:14:05.999Z</time></trkpt><trkpt lat="45.80605394169867" lon="9.078431630821477"><ele>207.16666666666666</ele><time>2026-04-03T14:14:07.999Z</time></trkpt><trkpt lat="45.80599307443579" lon="9.078544741786436"><ele>207.33333333333331</ele><time>2026-04-03T14:14:09.999Z</time></trkpt><trkpt lat="45.80594048439849" lon="9.078638842187859"><ele>207.5</ele><time>2026-04-03T14:14:18.999Z</time></trkpt><trkpt lat="45.80588564125603" lon="9.078717285119332"><ele>207.66666666666666</ele><time>2026-04-03T14:14:20.999Z</time></trkpt><trkpt lat="45.80582999168663" lon="9.078806347405093"><ele>207.83333333333331</ele><time>2026-04-03T14:14:22.999Z</time></trkpt><trkpt lat="45.805766751717094" lon="9.078906804396928"><ele>208.0</ele><time>2026-04-03T14:14:24.999Z</time></trkpt><trkpt lat="45.80570803238966" lon="9.0790080549654"><ele>208.0</ele><time>2026-04-03T14:14:26.999Z</time></trkpt><trkpt lat="45.8056497997072" lon="9.079100007237663"><ele>208.0</ele><time>2026-04-03T14:14:28.999Z</time></trkpt><trkpt lat="45.805578947411256" lon="9.07921033191651"><ele>208.0</ele><time>2026-04-03T14:14:30.999Z</time></trkpt><trkpt lat="45.80553459238566" lon="9.079283436318597"><ele>208.0</ele><time>2026-04-03T14:14:31.999Z</time></trkpt><trkpt lat="45.80545357090625" lon="9.079416149085676"><ele>208.0</ele><time>2026-04-03T14:14:33.999Z</time></trkpt><trkpt lat="45.80539353798774" lon="9.079513629271654"><ele>208.2</ele><time>2026-04-03T14:14:35.999Z</time></trkpt><trkpt lat="45.80533768196284" lon="9.079599270630045"><ele>208.4</ele><time>2026-04-03T14:14:37.999Z</time></trkpt><trkpt lat="45.8052738526004" lon="9.079711466240159"><ele>208.6</ele><time>2026-04-03T14:14:40.999Z</time></trkpt><trkpt lat="45.80519973804756" lon="9.079839748251333"><ele>208.79999999999998</ele><time>2026-04-03T14:14:42.999Z</time></trkpt><trkpt lat="45.80512900243217" lon="9.079952126358995"><ele>209.0</ele><time>2026-04-03T14:14:44.999Z</time></trkpt><trkpt lat="45.80507278713905" lon="9.08004576040761"><ele>209.00000000000003</ele><time>2026-04-03T14:14:47.999Z</time></trkpt><trkpt lat="45.80502962412748" lon="9.080112238484247"><ele>209.0</ele><time>2026-04-03T14:14:50.999Z</time></trkpt><trkpt lat="45.804963857006236" lon="9.080201803355099"><ele>209.0</ele><time>2026-04-03T14:14:53.999Z</time></trkpt><trkpt lat="45.804922372945704" lon="9.080281394607443"><ele>209.0</ele><time>2026-04-03T14:14:54.999Z</time></trkpt><trkpt lat="45.804863134096486" lon="9.080382024884647"><ele>209.00000000000003</ele><time>2026-04-03T14:14:55.999Z</time></trkpt><trkpt lat="45.80480072636351" lon="9.080476202766256"><ele>209.0</ele><time>2026-04-03T14:14:56.999Z</time></trkpt><trkpt lat="45.804749543109224" lon="9.080558106207045"><ele>209.00000000000003</ele><time>2026-04-03T14:14:57.999Z</time></trkpt><trkpt lat="45.80469934389199" lon="9.080645950857038"><ele>209.0</ele><time>2026-04-03T14:14:58.999Z</time></trkpt><trkpt lat="45.80464766043033" lon="9.0807299234983"><ele>209.0</ele><time>2026-04-03T14:14:59.999Z</time></trkpt><trkpt lat="45.804595046753974" lon="9.080816346208888"><ele>209.0</ele><time>2026-04-03T14:15:00.999Z</time></trkpt><trkpt lat="45.80455216332511" lon="9.080899413538615"><ele>209.00000000000003</ele><time>2026-04-03T14:15:01.999Z</time></trkpt><trkpt lat="45.80450792052375" lon="9.080972361410554"><ele>209.0</ele><time>2026-04-03T14:15:03Z</time></trkpt><trkpt lat="45.804446603222836" lon="9.081076836263748"><ele>209.0</ele><time>2026-04-03T14:15:05Z</time></trkpt><trkpt lat="45.80440908275086" lon="9.08115373931027"><ele>209.0</ele><time>2026-04-03T14:15:16Z</time></trkpt><trkpt lat="45.804362231153526" lon="9.081232079450642"><ele>209.0</ele><time>2026-04-03T14:15:31.999Z</time></trkpt><trkpt lat="45.80426753491371" lon="9.081398169560872"><ele>209.0</ele><time>2026-04-03T14:15:33.999Z</time></trkpt><trkpt lat="45.804199289999914" lon="9.081505508136738"><ele>209.0</ele><time>2026-04-03T14:15:34.999Z</time></trkpt><trkpt lat="45.80412152983476" lon="9.081629925189079"><ele>209.50000000000003</ele><time>2026-04-03T14:15:35.999Z</time></trkpt><trkpt lat="45.80404962223104" lon="9.08174250124349"><ele>210.0</ele><time>2026-04-03T14:15:36.999Z</time></trkpt><trkpt lat="45.803981544737525" lon="9.081852279843082"><ele>210.5</ele><time>2026-04-03T14:15:37.999Z</time></trkpt><trkpt lat="45.803918679616906" lon="9.081948270151509"><ele>211.0</ele><time>2026-04-03T14:15:38.999Z</time></trkpt><trkpt lat="45.80386370606196" lon="9.08203651461899"><ele>211.50000000000003</ele><time>2026-04-03T14:15:39.999Z</time></trkpt><trkpt lat="45.80382125781616" lon="9.082107354633997"><ele>212.0</ele><time>2026-04-03T14:15:40.999Z</time></trkpt><trkpt lat="45.80374664937926" lon="9.082214923087637"><ele>212.00000000000003</ele><time>2026-04-03T14:15:42.999Z</time></trkpt><trkpt lat="45.80367972846534" lon="9.08231287629797"><ele>212.0</ele><time>2026-04-03T14:15:44.999Z</time></trkpt><trkpt lat="45.80362153798776" lon="9.082397931185424"><ele>212.0</ele><time>2026-04-03T14:15:46.999Z</time></trkpt><trkpt lat="45.80357794464049" lon="9.082464226580983"><ele>212.0</ele><time>2026-04-03T14:15:48.999Z</time></trkpt><trkpt lat="45.80351194691955" lon="9.08255731471255"><ele>212.00000000000003</ele><time>2026-04-03T14:15:50.999Z</time></trkpt><trkpt lat="45.803428334650526" lon="9.082663248338871"><ele>212.0</ele><time>2026-04-03T14:15:52.999Z</time></trkpt><trkpt lat="45.80334236677715" lon="9.082786854165029"><ele>212.0</ele><time>2026-04-03T14:15:54.999Z</time></trkpt><trkpt lat="45.80329758071381" lon="9.0828540617204"><ele>212.0</ele><time>2026-04-03T14:15:55.999Z</time></trkpt><trkpt lat="45.80324745916458" lon="9.082920235574502"><ele>212.0</ele><time>2026-04-03T14:15:56.999Z</time></trkpt><trkpt lat="45.80319761566086" lon="9.082988363234048"><ele>212.0</ele><time>2026-04-03T14:15:57.999Z</time></trkpt><trkpt lat="45.803145928127506" lon="9.083059527051482"><ele>212.0</ele><time>2026-04-03T14:15:58.999Z</time></trkpt><trkpt lat="45.80309876677889" lon="9.083133558437575"><ele>212.0</ele><time>2026-04-03T14:15:59.999Z</time></trkpt><trkpt lat="45.8030403995867" lon="9.083208969017656"><ele>212.0</ele><time>2026-04-03T14:16:00.999Z</time></trkpt><trkpt lat="45.80298493388715" lon="9.08328774359191"><ele>212.00000000000003</ele><time>2026-04-03T14:16:01.999Z</time></trkpt><trkpt lat="45.80292643786507" lon="9.083369621802142"><ele>212.0</ele><time>2026-04-03T14:16:02.999Z</time></trkpt><trkpt lat="45.80286901695509" lon="9.083451098680936"><ele>212.0</ele><time>2026-04-03T14:16:03.999Z</time></trkpt><trkpt lat="45.80281520128723" lon="9.083525596041058"><ele>212.0</ele><time>2026-04-03T14:16:04.999Z</time></trkpt><trkpt lat="45.8027573055755" lon="9.083609615117103"><ele>212.00000000000003</ele><time>2026-04-03T14:16:05.999Z</time></trkpt><trkpt lat="45.80269158582907" lon="9.08369647695236"><ele>212.0</ele><time>2026-04-03T14:16:06.999Z</time></trkpt><trkpt lat="45.80261939475395" lon="9.083784244639627"><ele>212.00000000000003</ele><time>2026-04-03T14:16:07.999Z</time></trkpt><trkpt lat="45.80254728410965" lon="9.083873564932647"><ele>212.0</ele><time>2026-04-03T14:16:08.999Z</time></trkpt><trkpt lat="45.80247629618904" lon="9.083955140053117"><ele>212.0</ele><time>2026-04-03T14:16:09.999Z</time></trkpt><trkpt lat="45.802413287449596" lon="9.084029820000945"><ele>212.0</ele><time>2026-04-03T14:16:10.999Z</time></trkpt><trkpt lat="45.802357608379445" lon="9.084093134987379"><ele>212.00000000000003</ele><time>2026-04-03T14:16:11.999Z</time></trkpt><trkpt lat="45.80230616077817" lon="9.084145890867045"><ele>212.0</ele><time>2026-04-03T14:16:12.999Z</time></trkpt><trkpt lat="45.80225525739299" lon="9.084209847680759"><ele>212.33333333333334</ele><time>2026-04-03T14:16:13.999Z</time></trkpt><trkpt lat="45.80220041940141" lon="9.08429131098178"><ele>212.66666666666669</ele><time>2026-04-03T14:16:15.999Z</time></trkpt><trkpt lat="45.802167363267394" lon="9.084370820286606"><ele>213.0</ele><time>2026-04-03T14:16:39.999Z</time></trkpt><trkpt lat="45.80209257952324" lon="9.084470851223655"><ele>213.33333333333331</ele><time>2026-04-03T14:16:41.999Z</time></trkpt><trkpt lat="45.8020387706912" lon="9.08454585459526"><ele>213.66666666666666</ele><time>2026-04-03T14:16:42.999Z</time></trkpt><trkpt lat="45.801982307066396" lon="9.084625625926124"><ele>214.0</ele><time>2026-04-03T14:16:43.999Z</time></trkpt><trkpt lat="45.80191883615564" lon="9.084717828733826"><ele>214.0</ele><time>2026-04-03T14:16:44.999Z</time></trkpt><trkpt lat="45.80185606683729" lon="9.084814771042169"><ele>213.99999999999997</ele><time>2026-04-03T14:16:45.999Z</time></trkpt><trkpt lat="45.80178633254601" lon="9.084915925681075"><ele>213.99999999999997</ele><time>2026-04-03T14:16:46.999Z</time></trkpt><trkpt lat="45.801700837518325" lon="9.085019004658065"><ele>214.0</ele><time>2026-04-03T14:16:47.999Z</time></trkpt><trkpt lat="45.80160807406445" lon="9.085109242557179"><ele>214.0</ele><time>2026-04-03T14:16:48.999Z</time></trkpt><trkpt lat="45.80149126741753" lon="9.085193292989427"><ele>214.25</ele><time>2026-04-03T14:16:49.999Z</time></trkpt><trkpt lat="45.80136164763208" lon="9.085287342980896"><ele>214.5</ele><time>2026-04-03T14:16:50.999Z</time></trkpt><trkpt lat="45.801240934010124" lon="9.085378455247556"><ele>214.75</ele><time>2026-04-03T14:16:51.999Z</time></trkpt><trkpt lat="45.80112484436688" lon="9.085459713785179"><ele>215.0</ele><time>2026-04-03T14:16:52.999Z</time></trkpt><trkpt lat="45.801007900053314" lon="9.085529461905768"><ele>215.0</ele><time>2026-04-03T14:16:53.999Z</time></trkpt><trkpt lat="45.80088146938693" lon="9.085576100373741"><ele>215.0</ele><time>2026-04-03T14:16:54.999Z</time></trkpt><trkpt lat="45.800758656393164" lon="9.08560232919814"><ele>215.0</ele><time>2026-04-03T14:16:55.999Z</time></trkpt><trkpt lat="45.80064033203479" lon="9.085614870781304"><ele>215.0</ele><time>2026-04-03T14:16:56.999Z</time></trkpt><trkpt lat="45.800519046375065" lon="9.085635547102061"><ele>215.0</ele><time>2026-04-03T14:16:57.999Z</time></trkpt><trkpt lat="45.80038833781917" lon="9.085667371567975"><ele>215.0</ele><time>2026-04-03T14:16:58.999Z</time></trkpt><trkpt lat="45.80025164589281" lon="9.085694306034835"><ele>215.0</ele><time>2026-04-03T14:16:59.999Z</time></trkpt><trkpt lat="45.80011083612183" lon="9.085721705449652"><ele>215.0</ele><time>2026-04-03T14:17:00.999Z</time></trkpt><trkpt lat="45.79997697502664" lon="9.085758270011972"><ele>215.75</ele><time>2026-04-03T14:17:01.999Z</time></trkpt><trkpt lat="45.79985075397233" lon="9.085799990377694"><ele>216.5</ele><time>2026-04-03T14:17:02.999Z</time></trkpt><trkpt lat="45.79972213950338" lon="9.08585066986411"><ele>217.25</ele><time>2026-04-03T14:17:03.999Z</time></trkpt><trkpt lat="45.799598206612586" lon="9.08590532853019"><ele>218.0</ele><time>2026-04-03T14:17:04.999Z</time></trkpt><trkpt lat="45.799480828264784" lon="9.085959414724043"><ele>218.0</ele><time>2026-04-03T14:17:05.999Z</time></trkpt><trkpt lat="45.799366661903534" lon="9.086004491564884"><ele>218.0</ele><time>2026-04-03T14:17:06.999Z</time></trkpt><trkpt lat="45.799270997441916" lon="9.086041057024053"><ele>218.0</ele><time>2026-04-03T14:17:07.999Z</time></trkpt><trkpt lat="45.79919657474161" lon="9.086085082665468"><ele>218.0</ele><time>2026-04-03T14:17:08.999Z</time></trkpt><trkpt lat="45.799119253921816" lon="9.086133386258393"><ele>218.0</ele><time>2026-04-03T14:17:09.999Z</time></trkpt><trkpt lat="45.79905543033356" lon="9.086179675515783"><ele>218.60000000000002</ele><time>2026-04-03T14:17:10.999Z</time></trkpt><trkpt lat="45.79898791172021" lon="9.086255845444338"><ele>219.20000000000002</ele><time>2026-04-03T14:17:12.999Z</time></trkpt><trkpt lat="45.7989439959571" lon="9.086334820623092"><ele>219.8</ele><time>2026-04-03T14:17:16.999Z</time></trkpt><trkpt lat="45.7988987103495" lon="9.086455791548195"><ele>220.4</ele><time>2026-04-03T14:17:20.999Z</time></trkpt><trkpt lat="45.79887919559346" lon="9.086573114403247"><ele>221.0</ele><time>2026-04-03T14:17:22.999Z</time></trkpt><trkpt lat="45.798839036818016" lon="9.086729782051215"><ele>221.4</ele><time>2026-04-03T14:17:24.999Z</time></trkpt><trkpt lat="45.79874180524671" lon="9.086844538685394"><ele>221.8</ele><time>2026-04-03T14:17:26.999Z</time></trkpt><trkpt lat="45.79865666698017" lon="9.086890159765186"><ele>222.20000000000002</ele><time>2026-04-03T14:17:27.999Z</time></trkpt><trkpt lat="45.79856442245042" lon="9.086952337964416"><ele>222.60000000000002</ele><time>2026-04-03T14:17:28.999Z</time></trkpt><trkpt lat="45.798469035951676" lon="9.087034043168316"><ele>223.0</ele><time>2026-04-03T14:17:29.999Z</time></trkpt><trkpt lat="45.79834084081922" lon="9.087157553632784"><ele>223.25</ele><time>2026-04-03T14:17:30.999Z</time></trkpt><trkpt lat="45.7982413702269" lon="9.087294914211938"><ele>223.5</ele><time>2026-04-03T14:17:31.999Z</time></trkpt><trkpt lat="45.79814523881773" lon="9.087444450367876"><ele>223.75</ele><time>2026-04-03T14:17:32.999Z</time></trkpt><trkpt lat="45.79804352176788" lon="9.087604868426732"><ele>224.0</ele><time>2026-04-03T14:17:33.999Z</time></trkpt><trkpt lat="45.797932264763155" lon="9.087766133843063"><ele>224.0</ele><time>2026-04-03T14:17:34.999Z</time></trkpt><trkpt lat="45.79781959099578" lon="9.087938694113808"><ele>224.0</ele><time>2026-04-03T14:17:35.999Z</time></trkpt><trkpt lat="45.79769886973071" lon="9.088125630679139"><ele>224.0</ele><time>2026-04-03T14:17:36.999Z</time></trkpt><trkpt lat="45.79756883505115" lon="9.088324318734866"><ele>224.66666666666669</ele><time>2026-04-03T14:17:37.999Z</time></trkpt><trkpt lat="45.79743463943578" lon="9.088536542271548"><ele>225.33333333333331</ele><time>2026-04-03T14:17:38.999Z</time></trkpt><trkpt lat="45.79728461049675" lon="9.088766134895002"><ele>226.0</ele><time>2026-04-03T14:17:39.999Z</time></trkpt><trkpt lat="45.79712433153914" lon="9.08901207779281"><ele>226.5</ele><time>2026-04-03T14:17:40.999Z</time></trkpt><trkpt lat="45.79695797840319" lon="9.089260452029365"><ele>227.0</ele><time>2026-04-03T14:17:41.999Z</time></trkpt><trkpt lat="45.79679007962927" lon="9.08950642243046"><ele>228.5</ele><time>2026-04-03T14:17:42.999Z</time></trkpt><trkpt lat="45.79663137804167" lon="9.08976164440168"><ele>230.0</ele><time>2026-04-03T14:17:43.999Z</time></trkpt><trkpt lat="45.79646840139369" lon="9.090013009203524"><ele>230.0</ele><time>2026-04-03T14:17:44.999Z</time></trkpt><trkpt lat="45.79632399013741" lon="9.090247188322325"><ele>230.0</ele><time>2026-04-03T14:17:45.999Z</time></trkpt><trkpt lat="45.796193456372066" lon="9.090455051393104"><ele>230.0</ele><time>2026-04-03T14:17:46.999Z</time></trkpt><trkpt lat="45.796082196415874" lon="9.090644392488686"><ele>233.0</ele><time>2026-04-03T14:17:47.999Z</time></trkpt><trkpt lat="45.79598497653193" lon="9.090820594155984"><ele>236.0</ele><time>2026-04-03T14:17:48.999Z</time></trkpt><trkpt lat="45.7958879730808" lon="9.090984628169418"><ele>239.0</ele><time>2026-04-03T14:17:49.999Z</time></trkpt><trkpt lat="45.79578088793406" lon="9.091143467798554"><ele>239.0</ele><time>2026-04-03T14:17:50.999Z</time></trkpt><trkpt lat="45.79567523161785" lon="9.091313930285507"><ele>239.0</ele><time>2026-04-03T14:17:51.999Z</time></trkpt><trkpt lat="45.795564632555255" lon="9.09149302981486"><ele>239.0</ele><time>2026-04-03T14:17:52.999Z</time></trkpt><trkpt lat="45.79543844050179" lon="9.091690660170233"><ele>238.0</ele><time>2026-04-03T14:17:53.999Z</time></trkpt><trkpt lat="45.79530674869559" lon="9.091896346134181"><ele>237.0</ele><time>2026-04-03T14:17:54.999Z</time></trkpt><trkpt lat="45.795185788874186" lon="9.092098473361165"><ele>236.0</ele><time>2026-04-03T14:17:55.999Z</time></trkpt><trkpt lat="45.79507859374131" lon="9.09226129291692"><ele>237.25</ele><time>2026-04-03T14:17:56.999Z</time></trkpt><trkpt lat="45.794973492271424" lon="9.092416460631416"><ele>238.5</ele><time>2026-04-03T14:17:57.999Z</time></trkpt><trkpt lat="45.79487244108956" lon="9.092564319459292"><ele>239.75</ele><time>2026-04-03T14:17:58.999Z</time></trkpt><trkpt lat="45.79477223107293" lon="9.09269231636789"><ele>241.0</ele><time>2026-04-03T14:17:59.999Z</time></trkpt><trkpt lat="45.79465769500696" lon="9.092799509603754"><ele>241.0</ele><time>2026-04-03T14:18:00.999Z</time></trkpt><trkpt lat="45.794521874671965" lon="9.09287841549027"><ele>241.0</ele><time>2026-04-03T14:18:01.999Z</time></trkpt><trkpt lat="45.794372700096915" lon="9.092925971902389"><ele>241.0</ele><time>2026-04-03T14:18:02.999Z</time></trkpt><trkpt lat="45.79421400461625" lon="9.092937113665231"><ele>245.0</ele><time>2026-04-03T14:18:03.999Z</time></trkpt><trkpt lat="45.79405362941458" lon="9.092907164205752"><ele>249.0</ele><time>2026-04-03T14:18:04.999Z</time></trkpt><trkpt lat="45.79390178011299" lon="9.092842542308768"><ele>253.0</ele><time>2026-04-03T14:18:05.999Z</time></trkpt><trkpt lat="45.793746808863624" lon="9.09274068224922"><ele>253.0</ele><time>2026-04-03T14:18:06.999Z</time></trkpt><trkpt lat="45.79357213789041" lon="9.092632706146995"><ele>253.0</ele><time>2026-04-03T14:18:07.999Z</time></trkpt><trkpt lat="45.79337475254556" lon="9.09252732734381"><ele>253.0</ele><time>2026-04-03T14:18:08.999Z</time></trkpt><trkpt lat="45.79317266559301" lon="9.092420763973726"><ele>258.66666666666663</ele><time>2026-04-03T14:18:09.999Z</time></trkpt><trkpt lat="45.792975481707316" lon="9.092308570611108"><ele>264.3333333333333</ele><time>2026-04-03T14:18:10.999Z</time></trkpt><trkpt lat="45.79279682792535" lon="9.092212338064824"><ele>270.0</ele><time>2026-04-03T14:18:11.999Z</time></trkpt><trkpt lat="45.792625499854395" lon="9.09211850878717"><ele>270.0</ele><time>2026-04-03T14:18:12.999Z</time></trkpt><trkpt lat="45.79245799262706" lon="9.092024073098962"><ele>270.0</ele><time>2026-04-03T14:18:13.999Z</time></trkpt><trkpt lat="45.79229948896831" lon="9.091940742046601"><ele>270.0</ele><time>2026-04-03T14:18:14.999Z</time></trkpt><trkpt lat="45.79214265882542" lon="9.091853928562907"><ele>270.0</ele><time>2026-04-03T14:18:15.999Z</time></trkpt><trkpt lat="45.7919864084707" lon="9.091766097509478"><ele>270.0</ele><time>2026-04-03T14:18:16.999Z</time></trkpt><trkpt lat="45.79180995224762" lon="9.091676699618885"><ele>270.0</ele><time>2026-04-03T14:18:17.999Z</time></trkpt><trkpt lat="45.79161108744863" lon="9.091579901696287"><ele>273.6666666666667</ele><time>2026-04-03T14:18:18.999Z</time></trkpt><trkpt lat="45.79141322519173" lon="9.091461741216056"><ele>277.33333333333337</ele><time>2026-04-03T14:18:19.999Z</time></trkpt><trkpt lat="45.79124289985266" lon="9.091354922671972"><ele>281.0</ele><time>2026-04-03T14:18:20.999Z</time></trkpt><trkpt lat="45.79109511280403" lon="9.091268915101375"><ele>279.25</ele><time>2026-04-03T14:18:21.999Z</time></trkpt><trkpt lat="45.79096382545397" lon="9.091194025490209"><ele>277.5</ele><time>2026-04-03T14:18:22.999Z</time></trkpt><trkpt lat="45.79083231093058" lon="9.09110577537535"><ele>275.75</ele><time>2026-04-03T14:18:23.999Z</time></trkpt><trkpt lat="45.7907010111748" lon="9.091003862712743"><ele>274.0</ele><time>2026-04-03T14:18:24.999Z</time></trkpt><trkpt lat="45.79057795950442" lon="9.090884239974887"><ele>274.0</ele><time>2026-04-03T14:18:25.999Z</time></trkpt><trkpt lat="45.79047608345446" lon="9.090767272490439"><ele>274.0</ele><time>2026-04-03T14:18:26.999Z</time></trkpt><trkpt lat="45.790392955213576" lon="9.09066147157711"><ele>274.0</ele><time>2026-04-03T14:18:27.999Z</time></trkpt><trkpt lat="45.790327352927775" lon="9.090568238590528"><ele>274.0</ele><time>2026-04-03T14:18:28.999Z</time></trkpt><trkpt lat="45.79026998778845" lon="9.09048162101749"><ele>274.0</ele><time>2026-04-03T14:18:29.999Z</time></trkpt><trkpt lat="45.79022290864023" lon="9.09040632880328"><ele>273.8333333333333</ele><time>2026-04-03T14:18:30.999Z</time></trkpt><trkpt lat="45.79017577175425" lon="9.090313394787799"><ele>273.66666666666663</ele><time>2026-04-03T14:18:32.999Z</time></trkpt><trkpt lat="45.79013702397548" lon="9.090230658316733"><ele>273.5</ele><time>2026-04-03T14:18:58.999Z</time></trkpt><trkpt lat="45.7900947814317" lon="9.090142873290093"><ele>273.3333333333333</ele><time>2026-04-03T14:18:59.999Z</time></trkpt><trkpt lat="45.79004790071201" lon="9.090047275943329"><ele>273.1666666666667</ele><time>2026-04-03T14:19:00.999Z</time></trkpt><trkpt lat="45.79000480790765" lon="9.089948746311315"><ele>273.0</ele><time>2026-04-03T14:19:01.999Z</time></trkpt><trkpt lat="45.78997399884717" lon="9.089860372665074"><ele>273.6666666666667</ele><time>2026-04-03T14:19:02.999Z</time></trkpt><trkpt lat="45.78994430191509" lon="9.089779089644978"><ele>274.3333333333333</ele><time>2026-04-03T14:19:03.999Z</time></trkpt><trkpt lat="45.789913377490784" lon="9.089690494069652"><ele>275.0</ele><time>2026-04-03T14:19:04.999Z</time></trkpt><trkpt lat="45.789843532451194" lon="9.089544963197612"><ele>275.66666666666663</ele><time>2026-04-03T14:19:06.999Z</time></trkpt><trkpt lat="45.789787750328955" lon="9.089474209668163"><ele>276.3333333333333</ele><time>2026-04-03T14:19:08.999Z</time></trkpt><trkpt lat="45.78973078171154" lon="9.089410336866"><ele>277.0</ele><time>2026-04-03T14:19:10.999Z</time></trkpt><trkpt lat="45.78968172999544" lon="9.08932644639916"><ele>277.0</ele><time>2026-04-03T14:19:13Z</time></trkpt><trkpt lat="45.78965567371314" lon="9.08923861544139"><ele>277.0</ele><time>2026-04-03T14:19:15Z</time></trkpt><trkpt lat="45.7896380549714" lon="9.08912337875232"><ele>277.0</ele><time>2026-04-03T14:19:17Z</time></trkpt><trkpt lat="45.78961513892139" lon="9.08901346824467"><ele>277.0</ele><time>2026-04-03T14:19:19Z</time></trkpt><trkpt lat="45.789585926187854" lon="9.088906294252824"><ele>277.0</ele><time>2026-04-03T14:19:21Z</time></trkpt><trkpt lat="45.789557658301554" lon="9.088815901843368"><ele>277.0</ele><time>2026-04-03T14:19:23Z</time></trkpt><trkpt lat="45.78950374310238" lon="9.088719496618292"><ele>277.5</ele><time>2026-04-03T14:19:31Z</time></trkpt><trkpt lat="45.78943634681329" lon="9.088699161251922"><ele>278.0</ele><time>2026-04-03T14:19:33Z</time></trkpt><trkpt lat="45.78932968358985" lon="9.08879152378432"><ele>278.5</ele><time>2026-04-03T14:19:35Z</time></trkpt><trkpt lat="45.78927852539469" lon="9.088853264176368"><ele>279.0</ele><time>2026-04-03T14:19:36Z</time></trkpt><trkpt lat="45.78922211061404" lon="9.088917887647952"><ele>279.5</ele><time>2026-04-03T14:19:37Z</time></trkpt><trkpt lat="45.78915699477461" lon="9.088975347935008"><ele>280.0</ele><time>2026-04-03T14:19:38Z</time></trkpt><trkpt lat="45.78907655146767" lon="9.089031980574205"><ele>277.5</ele><time>2026-04-03T14:19:39Z</time></trkpt><trkpt lat="45.788986858012294" lon="9.089097284605923"><ele>275.0</ele><time>2026-04-03T14:19:40Z</time></trkpt><trkpt lat="45.78890664296593" lon="9.089154317682665"><ele>272.5</ele><time>2026-04-03T14:19:41Z</time></trkpt><trkpt lat="45.788829075788406" lon="9.089200195214136"><ele>270.0</ele><time>2026-04-03T14:19:42Z</time></trkpt><trkpt lat="45.78875718818985" lon="9.089236982867558"><ele>267.5</ele><time>2026-04-03T14:19:43Z</time></trkpt><trkpt lat="45.788688172659604" lon="9.089273206518227"><ele>265.0</ele><time>2026-04-03T14:19:44Z</time></trkpt><trkpt lat="45.78862649241431" lon="9.089308239353427"><ele>264.99999999999994</ele><time>2026-04-03T14:19:45Z</time></trkpt><trkpt lat="45.788565664827175" lon="9.089355464933043"><ele>265.0</ele><time>2026-04-03T14:19:46Z</time></trkpt><trkpt lat="45.788510330964165" lon="9.089408839270485"><ele>265.0</ele><time>2026-04-03T14:19:47Z</time></trkpt><trkpt lat="45.788452827939174" lon="9.08947091089187"><ele>265.0</ele><time>2026-04-03T14:19:48Z</time></trkpt><trkpt lat="45.78841228318392" lon="9.089543001751426"><ele>265.0</ele><time>2026-04-03T14:19:49Z</time></trkpt><trkpt lat="45.78835370116988" lon="9.089581601208064"><ele>264.99999999999994</ele><time>2026-04-03T14:19:50Z</time></trkpt><trkpt lat="45.7882956325385" lon="9.089616634747031"><ele>265.0</ele><time>2026-04-03T14:19:53Z</time></trkpt><trkpt lat="45.7882190416018" lon="9.089735031833314"><ele>264.5</ele><time>2026-04-03T14:20:04.999Z</time></trkpt><trkpt lat="45.78815057067961" lon="9.089778084502472"><ele>264.0</ele><time>2026-04-03T14:20:05.999Z</time></trkpt><trkpt lat="45.78809595059541" lon="9.089896136041833"><ele>263.5</ele><time>2026-04-03T14:20:07.999Z</time></trkpt><trkpt lat="45.78804913386741" lon="9.089959194816151"><ele>263.0</ele><time>2026-04-03T14:20:08.999Z</time></trkpt><trkpt lat="45.78800621530082" lon="9.090030336169278"><ele>262.5</ele><time>2026-04-03T14:20:09.999Z</time></trkpt><trkpt lat="45.78796689290844" lon="9.09010584182935"><ele>262.0</ele><time>2026-04-03T14:20:10.999Z</time></trkpt><trkpt lat="45.78791323434976" lon="9.090198550071932"><ele>262.0</ele><time>2026-04-03T14:20:12.999Z</time></trkpt><trkpt lat="45.78784087225987" lon="9.090285316948211"><ele>262.0</ele><time>2026-04-03T14:20:14.999Z</time></trkpt><trkpt lat="45.78777133665623" lon="9.090383578611705"><ele>262.0</ele><time>2026-04-03T14:20:15.999Z</time></trkpt><trkpt lat="45.78769907501955" lon="9.090533034647748"><ele>262.0</ele><time>2026-04-03T14:20:16.999Z</time></trkpt><trkpt lat="45.78759890006897" lon="9.090694966060479"><ele>264.3333333333333</ele><time>2026-04-03T14:20:17.999Z</time></trkpt><trkpt lat="45.787491149552636" lon="9.090867155318351"><ele>266.6666666666667</ele><time>2026-04-03T14:20:18.999Z</time></trkpt><trkpt lat="45.78737915407763" lon="9.091042552747403"><ele>269.0</ele><time>2026-04-03T14:20:19.999Z</time></trkpt><trkpt lat="45.787271765892456" lon="9.091196131435279"><ele>269.0</ele><time>2026-04-03T14:20:20.999Z</time></trkpt><trkpt lat="45.78715784715417" lon="9.091302638155168"><ele>269.0</ele><time>2026-04-03T14:20:21.999Z</time></trkpt><trkpt lat="45.787037179117014" lon="9.091366737239321"><ele>269.0</ele><time>2026-04-03T14:20:22.999Z</time></trkpt><trkpt lat="45.786901653688616" lon="9.091405586229445"><ele>269.0</ele><time>2026-04-03T14:20:23.999Z</time></trkpt><trkpt lat="45.78675888951864" lon="9.091407815229541"><ele>271.6666666666667</ele><time>2026-04-03T14:20:24.999Z</time></trkpt><trkpt lat="45.78660585227242" lon="9.091375445009117"><ele>274.3333333333333</ele><time>2026-04-03T14:20:25.999Z</time></trkpt><trkpt lat="45.786447352707846" lon="9.091321117524163"><ele>277.0</ele><time>2026-04-03T14:20:26.999Z</time></trkpt><trkpt lat="45.7862996390513" lon="9.091280609810736"><ele>277.0</ele><time>2026-04-03T14:20:27.999Z</time></trkpt><trkpt lat="45.786156121074455" lon="9.09124989833587"><ele>277.0</ele><time>2026-04-03T14:20:28.999Z</time></trkpt><trkpt lat="45.786010668462595" lon="9.091203637891317"><ele>277.0</ele><time>2026-04-03T14:20:29.999Z</time></trkpt><trkpt lat="45.78588007258802" lon="9.091176143818751"><ele>277.0</ele><time>2026-04-03T14:20:30.999Z</time></trkpt><trkpt lat="45.7857429869027" lon="9.091186845091535"><ele>278.25</ele><time>2026-04-03T14:20:31.999Z</time></trkpt><trkpt lat="45.785591880224366" lon="9.09123992391198"><ele>279.5</ele><time>2026-04-03T14:20:32.999Z</time></trkpt><trkpt lat="45.785444777891655" lon="9.091309295934249"><ele>280.75</ele><time>2026-04-03T14:20:33.999Z</time></trkpt><trkpt lat="45.7853163166651" lon="9.091367542965457"><ele>282.0</ele><time>2026-04-03T14:20:34.999Z</time></trkpt><trkpt lat="45.78519141291763" lon="9.091417176591257"><ele>283.75</ele><time>2026-04-03T14:20:35.999Z</time></trkpt><trkpt lat="45.7850651040165" lon="9.091468039766077"><ele>285.5</ele><time>2026-04-03T14:20:36.999Z</time></trkpt><trkpt lat="45.784949287457096" lon="9.091514298296469"><ele>287.25</ele><time>2026-04-03T14:20:37.999Z</time></trkpt><trkpt lat="45.784845735223556" lon="9.091550885299464"><ele>289.0</ele><time>2026-04-03T14:20:38.999Z</time></trkpt><trkpt lat="45.78474780209248" lon="9.091592949278722"><ele>289.0</ele><time>2026-04-03T14:20:39.999Z</time></trkpt><trkpt lat="45.78466331378133" lon="9.091625317709717"><ele>289.0</ele><time>2026-04-03T14:20:40.999Z</time></trkpt><trkpt lat="45.78459593354156" lon="9.091646701924692"><ele>289.0</ele><time>2026-04-03T14:20:41.999Z</time></trkpt><trkpt lat="45.78449045495303" lon="9.091689975087041"><ele>289.0</ele><time>2026-04-03T14:20:43.999Z</time></trkpt><trkpt lat="45.78439971693478" lon="9.091707431159447"><ele>289.0</ele><time>2026-04-03T14:20:45.999Z</time></trkpt><trkpt lat="45.78433635208492" lon="9.091721103458296"><ele>289.0</ele><time>2026-04-03T14:20:47.999Z</time></trkpt><trkpt lat="45.78424062425621" lon="9.091770695145094"><ele>289.4</ele><time>2026-04-03T14:20:55.999Z</time></trkpt><trkpt lat="45.78416018080315" lon="9.091799040752429"><ele>289.79999999999995</ele><time>2026-04-03T14:20:56.999Z</time></trkpt><trkpt lat="45.784062600828335" lon="9.09183347429967"><ele>290.20000000000005</ele><time>2026-04-03T14:20:57.999Z</time></trkpt><trkpt lat="45.78394702802999" lon="9.091868164065767"><ele>290.6</ele><time>2026-04-03T14:20:58.999Z</time></trkpt><trkpt lat="45.783812838754415" lon="9.091926761390491"><ele>291.0</ele><time>2026-04-03T14:20:59.999Z</time></trkpt><trkpt lat="45.78367145182258" lon="9.091973557988124"><ele>291.0</ele><time>2026-04-03T14:21:00.999Z</time></trkpt><trkpt lat="45.78351655306618" lon="9.09202484196337"><ele>291.0</ele><time>2026-04-03T14:21:01.999Z</time></trkpt><trkpt lat="45.78336167910258" lon="9.092055817968394"><ele>291.0</ele><time>2026-04-03T14:21:02.999Z</time></trkpt><trkpt lat="45.783212456761" lon="9.092057272163371"><ele>291.0</ele><time>2026-04-03T14:21:03.999Z</time></trkpt><trkpt lat="45.78305356387937" lon="9.092022008804749"><ele>291.0</ele><time>2026-04-03T14:21:04.999Z</time></trkpt><trkpt lat="45.78289050600934" lon="9.091980010177064"><ele>291.0</ele><time>2026-04-03T14:21:06Z</time></trkpt><trkpt lat="45.782710037469265" lon="9.09197799337307"><ele>293.3333333333333</ele><time>2026-04-03T14:21:07Z</time></trkpt><trkpt lat="45.78252131179172" lon="9.092030609122038"><ele>295.66666666666663</ele><time>2026-04-03T14:21:08Z</time></trkpt><trkpt lat="45.78232860712469" lon="9.092123539796061"><ele>298.0</ele><time>2026-04-03T14:21:09Z</time></trkpt><trkpt lat="45.78213583835547" lon="9.092245044617849"><ele>298.0</ele><time>2026-04-03T14:21:10Z</time></trkpt><trkpt lat="45.78193711765173" lon="9.09239443518475"><ele>298.0</ele><time>2026-04-03T14:21:11Z</time></trkpt><trkpt lat="45.78173268796612" lon="9.092532778186335"><ele>301.66666666666663</ele><time>2026-04-03T14:21:12Z</time></trkpt><trkpt lat="45.78153149581157" lon="9.092654947688748"><ele>305.3333333333333</ele><time>2026-04-03T14:21:13Z</time></trkpt><trkpt lat="45.78134843677065" lon="9.092771072027718"><ele>309.0</ele><time>2026-04-03T14:21:14Z</time></trkpt><trkpt lat="45.78118570641386" lon="9.092867884918494"><ele>309.0</ele><time>2026-04-03T14:21:15Z</time></trkpt><trkpt lat="45.781020210953336" lon="9.092961952510253"><ele>309.0</ele><time>2026-04-03T14:21:16Z</time></trkpt><trkpt lat="45.78086281145563" lon="9.093041074313245"><ele>309.0</ele><time>2026-04-03T14:21:17Z</time></trkpt><trkpt lat="45.78073194582398" lon="9.093092633442035"><ele>308.4</ele><time>2026-04-03T14:21:18Z</time></trkpt><trkpt lat="45.780623994878894" lon="9.093140112638519"><ele>307.79999999999995</ele><time>2026-04-03T14:21:19Z</time></trkpt><trkpt lat="45.780541279516356" lon="9.093177271363942"><ele>307.20000000000005</ele><time>2026-04-03T14:21:20Z</time></trkpt><trkpt lat="45.78047584437281" lon="9.093212022424918"><ele>306.6</ele><time>2026-04-03T14:21:21Z</time></trkpt><trkpt lat="45.78036504212957" lon="9.093237310604152"><ele>306.0</ele><time>2026-04-03T14:21:23Z</time></trkpt><trkpt lat="45.78026605995026" lon="9.093198659881908"><ele>306.0</ele><time>2026-04-03T14:21:25Z</time></trkpt><trkpt lat="45.780186418625796" lon="9.09306884493966"><ele>306.0</ele><time>2026-04-03T14:21:27Z</time></trkpt><trkpt lat="45.78016738727947" lon="9.092976958435129"><ele>306.0</ele><time>2026-04-03T14:21:28Z</time></trkpt><trkpt lat="45.78014431009308" lon="9.092875097075677"><ele>306.0</ele><time>2026-04-03T14:21:29Z</time></trkpt><trkpt lat="45.78009454869923" lon="9.09274504722541"><ele>306.0</ele><time>2026-04-03T14:21:31Z</time></trkpt><trkpt lat="45.78002667877253" lon="9.09268586833722"><ele>306.0</ele><time>2026-04-03T14:22:27Z</time></trkpt><trkpt lat="45.77995874961024" lon="9.092698223334093"><ele>305.6</ele><time>2026-04-03T14:22:28Z</time></trkpt><trkpt lat="45.77989387535899" lon="9.092748945782814"><ele>305.20000000000005</ele><time>2026-04-03T14:22:29Z</time></trkpt><trkpt lat="45.77983037681015" lon="9.092837036537368"><ele>304.79999999999995</ele><time>2026-04-03T14:22:30Z</time></trkpt><trkpt lat="45.77976474209489" lon="9.092928312212406"><ele>304.4</ele><time>2026-04-03T14:22:31Z</time></trkpt><trkpt lat="45.77969059971007" lon="9.093031724929691"><ele>304.0</ele><time>2026-04-03T14:22:32Z</time></trkpt><trkpt lat="45.77962076900195" lon="9.093135979098838"><ele>304.0</ele><time>2026-04-03T14:22:33Z</time></trkpt><trkpt lat="45.779567722371105" lon="9.093207530416203"><ele>304.0</ele><time>2026-04-03T14:22:34Z</time></trkpt><trkpt lat="45.77949247363514" lon="9.09329706871778"><ele>304.0</ele><time>2026-04-03T14:22:36Z</time></trkpt><trkpt lat="45.779442739936904" lon="9.09338499001288"><ele>304.0</ele><time>2026-04-03T14:22:51.999Z</time></trkpt><trkpt lat="45.77934213192366" lon="9.09350722767775"><ele>304.0</ele><time>2026-04-03T14:22:53.999Z</time></trkpt><trkpt lat="45.779272625717" lon="9.093600353206474"><ele>305.0</ele><time>2026-04-03T14:22:54.999Z</time></trkpt><trkpt lat="45.779200842110214" lon="9.093701299659866"><ele>306.0</ele><time>2026-04-03T14:22:55.999Z</time></trkpt><trkpt lat="45.7791455315246" lon="9.093802378121909"><ele>307.0</ele><time>2026-04-03T14:22:56.999Z</time></trkpt><trkpt lat="45.77910220132695" lon="9.093936356401453"><ele>308.0</ele><time>2026-04-03T14:22:57.999Z</time></trkpt><trkpt lat="45.7790664811353" lon="9.094101099063373"><ele>309.0</ele><time>2026-04-03T14:22:58.999Z</time></trkpt><trkpt lat="45.7790414024298" lon="9.094265588512764"><ele>309.25</ele><time>2026-04-03T14:22:59.999Z</time></trkpt><trkpt lat="45.77903179197544" lon="9.094439212059688"><ele>309.5</ele><time>2026-04-03T14:23:00.999Z</time></trkpt><trkpt lat="45.77901621940582" lon="9.094637875147683"><ele>309.75</ele><time>2026-04-03T14:23:01.999Z</time></trkpt><trkpt lat="45.77901098572204" lon="9.094812809801013"><ele>310.0</ele><time>2026-04-03T14:23:02.999Z</time></trkpt><trkpt lat="45.77900298188226" lon="9.094984800144204"><ele>310.0</ele><time>2026-04-03T14:23:03.999Z</time></trkpt><trkpt lat="45.778993880004705" lon="9.095156410638602"><ele>310.0</ele><time>2026-04-03T14:23:04.999Z</time></trkpt><trkpt lat="45.77898995802316" lon="9.09531656234372"><ele>310.0</ele><time>2026-04-03T14:23:05.999Z</time></trkpt><trkpt lat="45.778985093523495" lon="9.095467052821748"><ele>310.0</ele><time>2026-04-03T14:23:06.999Z</time></trkpt><trkpt lat="45.77897293959888" lon="9.095628856943804"><ele>309.75</ele><time>2026-04-03T14:23:07.999Z</time></trkpt><trkpt lat="45.778960128883256" lon="9.095789371113945"><ele>309.5</ele><time>2026-04-03T14:23:08.999Z</time></trkpt><trkpt lat="45.7789513285705" lon="9.095975292566775"><ele>309.25</ele><time>2026-04-03T14:23:09.999Z</time></trkpt><trkpt lat="45.778942695964545" lon="9.096177302218843"><ele>309.0</ele><time>2026-04-03T14:23:10.999Z</time></trkpt><trkpt lat="45.77893262837694" lon="9.096388518159266"><ele>309.0</ele><time>2026-04-03T14:23:12Z</time></trkpt><trkpt lat="45.77891376443157" lon="9.096595640778318"><ele>309.0</ele><time>2026-04-03T14:23:13Z</time></trkpt><trkpt lat="45.778895895146825" lon="9.096799279122258"><ele>309.0</ele><time>2026-04-03T14:23:14Z</time></trkpt><trkpt lat="45.77888204262205" lon="9.09700260255394"><ele>309.0</ele><time>2026-04-03T14:23:15Z</time></trkpt><trkpt lat="45.778878704808804" lon="9.097223838790972"><ele>309.0</ele><time>2026-04-03T14:23:16Z</time></trkpt><trkpt lat="45.77886628156147" lon="9.097453483775846"><ele>309.0</ele><time>2026-04-03T14:23:17Z</time></trkpt><trkpt lat="45.77885707292062" lon="9.097683263896723"><ele>309.0</ele><time>2026-04-03T14:23:18Z</time></trkpt><trkpt lat="45.778858001209656" lon="9.097903789723858"><ele>309.0</ele><time>2026-04-03T14:23:19Z</time></trkpt><trkpt lat="45.77884942883372" lon="9.098108688730662"><ele>309.0</ele><time>2026-04-03T14:23:20Z</time></trkpt><trkpt lat="45.7788412414637" lon="9.098273156105197"><ele>309.0</ele><time>2026-04-03T14:23:21Z</time></trkpt><trkpt lat="45.77883595094928" lon="9.098423795572977"><ele>309.0</ele><time>2026-04-03T14:23:22Z</time></trkpt><trkpt lat="45.77883478555006" lon="9.098563817624326"><ele>309.0</ele><time>2026-04-03T14:23:23Z</time></trkpt><trkpt lat="45.77882329073484" lon="9.098724740828663"><ele>309.0</ele><time>2026-04-03T14:23:24Z</time></trkpt><trkpt lat="45.778809747574385" lon="9.098900552932166"><ele>309.0</ele><time>2026-04-03T14:23:25Z</time></trkpt><trkpt lat="45.778791299080744" lon="9.099069157569232"><ele>309.0</ele><time>2026-04-03T14:23:26Z</time></trkpt><trkpt lat="45.77877917911831" lon="9.099232533919956"><ele>309.4</ele><time>2026-04-03T14:23:27Z</time></trkpt><trkpt lat="45.778775631580174" lon="9.099397399154437"><ele>309.79999999999995</ele><time>2026-04-03T14:23:28Z</time></trkpt><trkpt lat="45.77876725810189" lon="9.09955479165157"><ele>310.20000000000005</ele><time>2026-04-03T14:23:29Z</time></trkpt><trkpt lat="45.77875988486056" lon="9.099705561528646"><ele>310.6</ele><time>2026-04-03T14:23:30Z</time></trkpt><trkpt lat="45.77875169744834" lon="9.099858789414874"><ele>311.0</ele><time>2026-04-03T14:23:31Z</time></trkpt><trkpt lat="45.77874276344005" lon="9.100001519972476"><ele>311.0</ele><time>2026-04-03T14:23:32Z</time></trkpt><trkpt lat="45.77873643160977" lon="9.100124209344004"><ele>311.0</ele><time>2026-04-03T14:23:33Z</time></trkpt><trkpt lat="45.7787316266929" lon="9.100238373345963"><ele>311.0</ele><time>2026-04-03T14:23:34Z</time></trkpt><trkpt lat="45.77872544009176" lon="9.100340531939585"><ele>311.0</ele><time>2026-04-03T14:23:35Z</time></trkpt><trkpt lat="45.77872199115587" lon="9.100445071375107"><ele>311.0</ele><time>2026-04-03T14:23:36Z</time></trkpt><trkpt lat="45.77871600312502" lon="9.100570654923713"><ele>311.0</ele><time>2026-04-03T14:23:37Z</time></trkpt><trkpt lat="45.778708332872284" lon="9.100689800025465"><ele>310.8</ele><time>2026-04-03T14:23:38Z</time></trkpt><trkpt lat="45.77870927079708" lon="9.100780431659913"><ele>310.6</ele><time>2026-04-03T14:23:39Z</time></trkpt><trkpt lat="45.77867588172767" lon="9.10086060933638"><ele>310.4</ele><time>2026-04-03T14:23:41Z</time></trkpt><trkpt lat="45.778591388784335" lon="9.100835866826678"><ele>310.2</ele><time>2026-04-03T14:23:43Z</time></trkpt><trkpt lat="45.778471798683064" lon="9.100806343696789"><ele>310.0</ele><time>2026-04-03T14:23:44Z</time></trkpt><trkpt lat="45.77835233141037" lon="9.100786238276555"><ele>309.75</ele><time>2026-04-03T14:23:45Z</time></trkpt><trkpt lat="45.77822230556478" lon="9.100768937242691"><ele>309.5</ele><time>2026-04-03T14:23:46Z</time></trkpt><trkpt lat="45.77808502027854" lon="9.100734714396067"><ele>309.25</ele><time>2026-04-03T14:23:47Z</time></trkpt><trkpt lat="45.77796683861768" lon="9.100674319933583"><ele>309.0</ele><time>2026-04-03T14:23:48Z</time></trkpt><trkpt lat="45.77782662782651" lon="9.100588155800885"><ele>308.5</ele><time>2026-04-03T14:23:49Z</time></trkpt><trkpt lat="45.77768481530271" lon="9.100487622913898"><ele>308.0</ele><time>2026-04-03T14:23:50Z</time></trkpt><trkpt lat="45.777556735274736" lon="9.100397714716566"><ele>307.5</ele><time>2026-04-03T14:23:51Z</time></trkpt><trkpt lat="45.77743133175541" lon="9.100314118417113"><ele>307.0</ele><time>2026-04-03T14:23:52Z</time></trkpt><trkpt lat="45.77729403493197" lon="9.100222616779284"><ele>307.0</ele><time>2026-04-03T14:23:53Z</time></trkpt><trkpt lat="45.77715749167337" lon="9.100132942988312"><ele>307.0</ele><time>2026-04-03T14:23:54Z</time></trkpt><trkpt lat="45.77703133258826" lon="9.10005198764696"><ele>307.0</ele><time>2026-04-03T14:23:55Z</time></trkpt><trkpt lat="45.77692380204687" lon="9.099975841242836"><ele>307.0</ele><time>2026-04-03T14:23:56Z</time></trkpt><trkpt lat="45.77681641325092" lon="9.099907742903124"><ele>307.25</ele><time>2026-04-03T14:23:57Z</time></trkpt><trkpt lat="45.77669257444179" lon="9.099852823451002"><ele>307.5</ele><time>2026-04-03T14:23:58Z</time></trkpt><trkpt lat="45.77655700503673" lon="9.099825620537372"><ele>307.75</ele><time>2026-04-03T14:23:59Z</time></trkpt><trkpt lat="45.77643036652328" lon="9.099807529289034"><ele>308.0</ele><time>2026-04-03T14:24:00Z</time></trkpt><trkpt lat="45.776310900588875" lon="9.099790383743596"><ele>308.0</ele><time>2026-04-03T14:24:01Z</time></trkpt><trkpt lat="45.77621512161706" lon="9.09977624678871"><ele>308.0</ele><time>2026-04-03T14:24:02Z</time></trkpt><trkpt lat="45.77612873068173" lon="9.099764705081395"><ele>308.0</ele><time>2026-04-03T14:24:03Z</time></trkpt><trkpt lat="45.776053975798426" lon="9.099749816133013"><ele>308.0</ele><time>2026-04-03T14:24:04Z</time></trkpt><trkpt lat="45.77598616235867" lon="9.09973564260305"><ele>308.0</ele><time>2026-04-03T14:24:05Z</time></trkpt><trkpt lat="45.775918777933" lon="9.09972054271208"><ele>308.0</ele><time>2026-04-03T14:24:06Z</time></trkpt><trkpt lat="45.77584157847156" lon="9.099708638097983"><ele>307.1666666666667</ele><time>2026-04-03T14:24:07Z</time></trkpt><trkpt lat="45.77575806908532" lon="9.099701231899958"><ele>306.33333333333337</ele><time>2026-04-03T14:24:08Z</time></trkpt><trkpt lat="45.77567977037118" lon="9.099679366957707"><ele>305.5</ele><time>2026-04-03T14:24:09Z</time></trkpt><trkpt lat="45.77561400179711" lon="9.09962326419336"><ele>304.6666666666667</ele><time>2026-04-03T14:24:10Z</time></trkpt><trkpt lat="45.77555582217218" lon="9.099552671403785"><ele>303.8333333333333</ele><time>2026-04-03T14:24:11Z</time></trkpt><trkpt lat="45.77552292766599" lon="9.099440952958997"><ele>303.0</ele><time>2026-04-03T14:24:12Z</time></trkpt><trkpt lat="45.7755040441987" lon="9.09925764256813"><ele>303.25</ele><time>2026-04-03T14:24:13Z</time></trkpt><trkpt lat="45.77548538645568" lon="9.099050530022241"><ele>303.5</ele><time>2026-04-03T14:24:14Z</time></trkpt><trkpt lat="45.77545544344959" lon="9.098868121786058"><ele>303.75</ele><time>2026-04-03T14:24:15Z</time></trkpt><trkpt lat="45.775406924853996" lon="9.09871159627323"><ele>304.0</ele><time>2026-04-03T14:24:16Z</time></trkpt><trkpt lat="45.77535557577293" lon="9.09858237176575"><ele>304.0</ele><time>2026-04-03T14:24:17Z</time></trkpt><trkpt lat="45.77528489022502" lon="9.09847054333126"><ele>304.0</ele><time>2026-04-03T14:24:18Z</time></trkpt><trkpt lat="45.775182001628544" lon="9.09838553966848"><ele>304.0</ele><time>2026-04-03T14:24:19Z</time></trkpt><trkpt lat="45.77505063821775" lon="9.09830622893897"><ele>304.0</ele><time>2026-04-03T14:24:20Z</time></trkpt><trkpt lat="45.774914705739945" lon="9.098237433172443"><ele>303.0</ele><time>2026-04-03T14:24:21Z</time></trkpt><trkpt lat="45.774792503748074" lon="9.098174412059103"><ele>302.0</ele><time>2026-04-03T14:24:22Z</time></trkpt><trkpt lat="45.77467816013398" lon="9.098093984304208"><ele>301.0</ele><time>2026-04-03T14:24:23Z</time></trkpt><trkpt lat="45.77456204651922" lon="9.098009035109719"><ele>300.0</ele><time>2026-04-03T14:24:24Z</time></trkpt><trkpt lat="45.774447108445294" lon="9.097929787990061"><ele>296.75</ele><time>2026-04-03T14:24:25Z</time></trkpt><trkpt lat="45.774338008728755" lon="9.097853022067854"><ele>293.5</ele><time>2026-04-03T14:24:26Z</time></trkpt><trkpt lat="45.77422883962063" lon="9.097793176238573"><ele>290.25</ele><time>2026-04-03T14:24:27Z</time></trkpt><trkpt lat="45.774101039252265" lon="9.097756319463706"><ele>287.0</ele><time>2026-04-03T14:24:28Z</time></trkpt><trkpt lat="45.77396049116565" lon="9.09776170645096"><ele>287.0</ele><time>2026-04-03T14:24:29Z</time></trkpt><trkpt lat="45.77380578721589" lon="9.097812645944062"><ele>287.0</ele><time>2026-04-03T14:24:30Z</time></trkpt><trkpt lat="45.77364787081816" lon="9.097879708243918"><ele>287.0</ele><time>2026-04-03T14:24:31Z</time></trkpt><trkpt lat="45.77349459047352" lon="9.097931878870567"><ele>285.0</ele><time>2026-04-03T14:24:32Z</time></trkpt><trkpt lat="45.773362952211656" lon="9.097967133741406"><ele>283.0</ele><time>2026-04-03T14:24:33Z</time></trkpt><trkpt lat="45.77324437289452" lon="9.098004265829713"><ele>281.0</ele><time>2026-04-03T14:24:34Z</time></trkpt><trkpt lat="45.77313856533471" lon="9.098048880604816"><ele>279.0</ele><time>2026-04-03T14:24:35Z</time></trkpt><trkpt lat="45.773041367390185" lon="9.098096560443285"><ele>279.0</ele><time>2026-04-03T14:24:36Z</time></trkpt><trkpt lat="45.77294916891719" lon="9.0981467496257"><ele>279.0</ele><time>2026-04-03T14:24:37Z</time></trkpt><trkpt lat="45.77285399600823" lon="9.098212634868919"><ele>279.0</ele><time>2026-04-03T14:24:38Z</time></trkpt><trkpt lat="45.77276450698275" lon="9.098289691193719"><ele>279.0</ele><time>2026-04-03T14:24:39Z</time></trkpt><trkpt lat="45.77267670963023" lon="9.098371302056886"><ele>279.0</ele><time>2026-04-03T14:24:40Z</time></trkpt><trkpt lat="45.772581939989884" lon="9.098460547352088"><ele>277.5</ele><time>2026-04-03T14:24:41Z</time></trkpt><trkpt lat="45.77247772087821" lon="9.098559923718748"><ele>276.0</ele><time>2026-04-03T14:24:42Z</time></trkpt><trkpt lat="45.77238166968714" lon="9.09865216492522"><ele>274.5</ele><time>2026-04-03T14:24:43Z</time></trkpt><trkpt lat="45.77229127928473" lon="9.098735653000247"><ele>273.0</ele><time>2026-04-03T14:24:44Z</time></trkpt><trkpt lat="45.772194075093886" lon="9.098819359425232"><ele>273.0</ele><time>2026-04-03T14:24:45Z</time></trkpt><trkpt lat="45.77208923718265" lon="9.098914468367488"><ele>273.0</ele><time>2026-04-03T14:24:46Z</time></trkpt><trkpt lat="45.77199062748631" lon="9.09900767640799"><ele>273.0</ele><time>2026-04-03T14:24:47Z</time></trkpt><trkpt lat="45.771904766679484" lon="9.099090712555517"><ele>273.0</ele><time>2026-04-03T14:24:48Z</time></trkpt><trkpt lat="45.7718257351858" lon="9.099166743504984"><ele>273.0</ele><time>2026-04-03T14:24:49Z</time></trkpt><trkpt lat="45.771752759197625" lon="9.09924258462548"><ele>272.8</ele><time>2026-04-03T14:24:50Z</time></trkpt><trkpt lat="45.77167727245198" lon="9.099318197442727"><ele>272.6</ele><time>2026-04-03T14:24:51Z</time></trkpt><trkpt lat="45.77159271754096" lon="9.099406065202542"><ele>272.4</ele><time>2026-04-03T14:24:52Z</time></trkpt><trkpt lat="45.771502554669084" lon="9.099497216613292"><ele>272.2</ele><time>2026-04-03T14:24:53Z</time></trkpt><trkpt lat="45.771412472396605" lon="9.099592291632009"><ele>272.0</ele><time>2026-04-03T14:24:54Z</time></trkpt><trkpt lat="45.77132661454887" lon="9.09968430737084"><ele>272.0</ele><time>2026-04-03T14:24:55Z</time></trkpt><trkpt lat="45.771237800276474" lon="9.099776462069306"><ele>272.0</ele><time>2026-04-03T14:24:56Z</time></trkpt><trkpt lat="45.7711504184611" lon="9.099866928705179"><ele>272.0</ele><time>2026-04-03T14:24:57Z</time></trkpt><trkpt lat="45.771063758236316" lon="9.099957972623299"><ele>272.0</ele><time>2026-04-03T14:24:58Z</time></trkpt><trkpt lat="45.77097649521676" lon="9.100051928534603"><ele>272.0</ele><time>2026-04-03T14:24:59Z</time></trkpt><trkpt lat="45.77088846098353" lon="9.10014920305964"><ele>272.75</ele><time>2026-04-03T14:25:00Z</time></trkpt><trkpt lat="45.7707958613107" lon="9.100241563753503"><ele>273.5</ele><time>2026-04-03T14:25:01Z</time></trkpt><trkpt lat="45.77070270751335" lon="9.100335216703222"><ele>274.25</ele><time>2026-04-03T14:25:02Z</time></trkpt><trkpt lat="45.77061052614447" lon="9.100430268115277"><ele>275.0</ele><time>2026-04-03T14:25:03Z</time></trkpt><trkpt lat="45.770515361184984" lon="9.100512909552448"><ele>275.0</ele><time>2026-04-03T14:25:04Z</time></trkpt><trkpt lat="45.77041496390919" lon="9.100578594960599"><ele>275.0</ele><time>2026-04-03T14:25:05Z</time></trkpt><trkpt lat="45.77030265971139" lon="9.100619981036767"><ele>275.0</ele><time>2026-04-03T14:25:06Z</time></trkpt><trkpt lat="45.770191459980346" lon="9.100645294579497"><ele>275.0</ele><time>2026-04-03T14:25:07Z</time></trkpt><trkpt lat="45.77007174264715" lon="9.100639703502395"><ele>275.5</ele><time>2026-04-03T14:25:08Z</time></trkpt><trkpt lat="45.7699530152965" lon="9.100613553210891"><ele>276.0</ele><time>2026-04-03T14:25:09Z</time></trkpt><trkpt lat="45.769837689172284" lon="9.100585212356087"><ele>276.5</ele><time>2026-04-03T14:25:10Z</time></trkpt><trkpt lat="45.769717143544774" lon="9.10056778398377"><ele>277.0</ele><time>2026-04-03T14:25:11Z</time></trkpt><trkpt lat="45.76960176720198" lon="9.100561174655853"><ele>277.0</ele><time>2026-04-03T14:25:12Z</time></trkpt><trkpt lat="45.76949547823874" lon="9.100564285044298"><ele>277.0</ele><time>2026-04-03T14:25:13Z</time></trkpt><trkpt lat="45.76938691626469" lon="9.100570044085874"><ele>277.0</ele><time>2026-04-03T14:25:14Z</time></trkpt><trkpt lat="45.76926815148176" lon="9.100587607934216"><ele>277.0</ele><time>2026-04-03T14:25:15Z</time></trkpt><trkpt lat="45.76914673271737" lon="9.100605758954908"><ele>277.2</ele><time>2026-04-03T14:25:16Z</time></trkpt><trkpt lat="45.76902839929073" lon="9.10061421503798"><ele>277.4</ele><time>2026-04-03T14:25:17Z</time></trkpt><trkpt lat="45.76891319900573" lon="9.100604844535132"><ele>277.6</ele><time>2026-04-03T14:25:18Z</time></trkpt><trkpt lat="45.76880964453793" lon="9.100583160393239"><ele>277.8</ele><time>2026-04-03T14:25:19Z</time></trkpt><trkpt lat="45.76871935548099" lon="9.1005586221921"><ele>278.0</ele><time>2026-04-03T14:25:20Z</time></trkpt><trkpt lat="45.76864459466321" lon="9.100533121642998"><ele>278.0</ele><time>2026-04-03T14:25:21Z</time></trkpt><trkpt lat="45.76857191608845" lon="9.100513250692893"><ele>278.0</ele><time>2026-04-03T14:25:22Z</time></trkpt><trkpt lat="45.76850296865733" lon="9.100500364519409"><ele>278.0</ele><time>2026-04-03T14:25:23Z</time></trkpt><trkpt lat="45.76843552653301" lon="9.10048148934383"><ele>278.0</ele><time>2026-04-03T14:25:24Z</time></trkpt><trkpt lat="45.768360159905264" lon="9.100460856764768"><ele>278.0</ele><time>2026-04-03T14:25:25Z</time></trkpt><trkpt lat="45.76827999775096" lon="9.100440941006386"><ele>278.0</ele><time>2026-04-03T14:25:26Z</time></trkpt><trkpt lat="45.768196067665606" lon="9.100418383624048"><ele>277.6</ele><time>2026-04-03T14:25:27Z</time></trkpt><trkpt lat="45.76810843902278" lon="9.100393578866065"><ele>277.20000000000005</ele><time>2026-04-03T14:25:28Z</time></trkpt><trkpt lat="45.76801596415753" lon="9.1003746456514"><ele>276.8</ele><time>2026-04-03T14:25:29Z</time></trkpt><trkpt lat="45.76792690588098" lon="9.10035170368465"><ele>276.40000000000003</ele><time>2026-04-03T14:25:30Z</time></trkpt><trkpt lat="45.767834619118844" lon="9.100327206151162"><ele>276.0</ele><time>2026-04-03T14:25:31Z</time></trkpt><trkpt lat="45.76774419240528" lon="9.100304867768068"><ele>275.8</ele><time>2026-04-03T14:25:32Z</time></trkpt><trkpt lat="45.76765018283821" lon="9.100283076994684"><ele>275.6</ele><time>2026-04-03T14:25:33Z</time></trkpt><trkpt lat="45.76755172423271" lon="9.100256982640225"><ele>275.4</ele><time>2026-04-03T14:25:34Z</time></trkpt><trkpt lat="45.76745098848399" lon="9.10023250578078"><ele>275.2</ele><time>2026-04-03T14:25:35Z</time></trkpt><trkpt lat="45.767345775764255" lon="9.100203230677012"><ele>275.0</ele><time>2026-04-03T14:25:36Z</time></trkpt><trkpt lat="45.76724477216331" lon="9.10016651186238"><ele>275.0</ele><time>2026-04-03T14:25:37Z</time></trkpt><trkpt lat="45.76714360726924" lon="9.100138143832723"><ele>275.0</ele><time>2026-04-03T14:25:38Z</time></trkpt><trkpt lat="45.76704863948834" lon="9.100108138823591"><ele>275.0</ele><time>2026-04-03T14:25:39Z</time></trkpt><trkpt lat="45.76695346802395" lon="9.100077850186782"><ele>275.0</ele><time>2026-04-03T14:25:40Z</time></trkpt><trkpt lat="45.766856515899605" lon="9.100045935420653"><ele>275.0</ele><time>2026-04-03T14:25:41Z</time></trkpt><trkpt lat="45.7667606372233" lon="9.100012766998157"><ele>275.4</ele><time>2026-04-03T14:25:42Z</time></trkpt><trkpt lat="45.76666344635511" lon="9.09997901631642"><ele>275.8</ele><time>2026-04-03T14:25:43Z</time></trkpt><trkpt lat="45.76656250305774" lon="9.099944822892445"><ele>276.2</ele><time>2026-04-03T14:25:44Z</time></trkpt><trkpt lat="45.76646334728335" lon="9.099913343549616"><ele>276.6</ele><time>2026-04-03T14:25:45Z</time></trkpt><trkpt lat="45.76636358824188" lon="9.0998804563486"><ele>277.0</ele><time>2026-04-03T14:25:46Z</time></trkpt><trkpt lat="45.766264500886656" lon="9.09984387122557"><ele>277.0</ele><time>2026-04-03T14:25:47Z</time></trkpt><trkpt lat="45.76617526708906" lon="9.099812801483951"><ele>277.0</ele><time>2026-04-03T14:25:48Z</time></trkpt><trkpt lat="45.76609078348037" lon="9.099783751730108"><ele>277.0</ele><time>2026-04-03T14:25:49Z</time></trkpt><trkpt lat="45.766015312469925" lon="9.099749464097453"><ele>277.0</ele><time>2026-04-03T14:25:50Z</time></trkpt><trkpt lat="45.76594689453807" lon="9.099717623742894"><ele>277.0</ele><time>2026-04-03T14:25:51Z</time></trkpt><trkpt lat="45.76587536310781" lon="9.099688725153522"><ele>277.0</ele><time>2026-04-03T14:25:52Z</time></trkpt><trkpt lat="45.7657883543245" lon="9.099660440231736"><ele>276.5</ele><time>2026-04-03T14:25:53Z</time></trkpt><trkpt lat="45.76571010311899" lon="9.099625929273083"><ele>276.0</ele><time>2026-04-03T14:25:54Z</time></trkpt><trkpt lat="45.76563760552499" lon="9.099593508339641"><ele>275.5</ele><time>2026-04-03T14:25:55Z</time></trkpt><trkpt lat="45.76556246446919" lon="9.099555814662256"><ele>275.0</ele><time>2026-04-03T14:25:56Z</time></trkpt><trkpt lat="45.765478462819225" lon="9.099520745168263"><ele>274.5</ele><time>2026-04-03T14:25:57Z</time></trkpt><trkpt lat="45.76539564839845" lon="9.099490828419656"><ele>274.0</ele><time>2026-04-03T14:25:58Z</time></trkpt><trkpt lat="45.76531474424288" lon="9.099467288284869"><ele>274.0</ele><time>2026-04-03T14:25:59Z</time></trkpt><trkpt lat="45.765236814299655" lon="9.099458933091585"><ele>274.0</ele><time>2026-04-03T14:26:00Z</time></trkpt><trkpt lat="45.76516265861651" lon="9.099466128450405"><ele>274.0</ele><time>2026-04-03T14:26:01Z</time></trkpt><trkpt lat="45.765092783797606" lon="9.099483339140649"><ele>274.0</ele><time>2026-04-03T14:26:02Z</time></trkpt><trkpt lat="45.765027122123655" lon="9.099532478467932"><ele>274.0</ele><time>2026-04-03T14:26:03Z</time></trkpt><trkpt lat="45.76496494131645" lon="9.099601935002811"><ele>274.0</ele><time>2026-04-03T14:26:04Z</time></trkpt><trkpt lat="45.76491591332649" lon="9.099684180886783"><ele>273.4</ele><time>2026-04-03T14:26:05Z</time></trkpt><trkpt lat="45.76487260356088" lon="9.099770132948874"><ele>272.79999999999995</ele><time>2026-04-03T14:26:06Z</time></trkpt><trkpt lat="45.76483449209725" lon="9.09985864791567"><ele>272.20000000000005</ele><time>2026-04-03T14:26:07Z</time></trkpt><trkpt lat="45.764800052879146" lon="9.099943692568786"><ele>271.6</ele><time>2026-04-03T14:26:08Z</time></trkpt><trkpt lat="45.76474562887662" lon="9.100093594817126"><ele>271.0</ele><time>2026-04-03T14:26:10Z</time></trkpt><trkpt lat="45.76468621862591" lon="9.100240025053028"><ele>271.0</ele><time>2026-04-03T14:26:12Z</time></trkpt><trkpt lat="45.76456566577806" lon="9.100326350145922"><ele>271.0</ele><time>2026-04-03T14:26:14Z</time></trkpt><trkpt lat="45.764490332244705" lon="9.100390367290471"><ele>271.0</ele><time>2026-04-03T14:26:15Z</time></trkpt><trkpt lat="45.76441687612409" lon="9.100515813470551"><ele>271.0</ele><time>2026-04-03T14:26:16Z</time></trkpt><trkpt lat="45.76434206807865" lon="9.100678479291703"><ele>271.25</ele><time>2026-04-03T14:26:17Z</time></trkpt><trkpt lat="45.76424644635714" lon="9.100820812070781"><ele>271.5</ele><time>2026-04-03T14:26:18Z</time></trkpt><trkpt lat="45.76411719687985" lon="9.100933512609464"><ele>271.75</ele><time>2026-04-03T14:26:19Z</time></trkpt><trkpt lat="45.76398020038302" lon="9.101026242006391"><ele>272.0</ele><time>2026-04-03T14:26:20Z</time></trkpt><trkpt lat="45.76383297985991" lon="9.10111013194912"><ele>272.0</ele><time>2026-04-03T14:26:21Z</time></trkpt><trkpt lat="45.76368431581076" lon="9.101184301059943"><ele>272.0</ele><time>2026-04-03T14:26:22Z</time></trkpt><trkpt lat="45.763538499089265" lon="9.101228318469099"><ele>272.0</ele><time>2026-04-03T14:26:23Z</time></trkpt><trkpt lat="45.763390972825526" lon="9.101240222915651"><ele>272.0</ele><time>2026-04-03T14:26:24Z</time></trkpt><trkpt lat="45.763232979585695" lon="9.101220355039395"><ele>272.0</ele><time>2026-04-03T14:26:25Z</time></trkpt><trkpt lat="45.76307068477355" lon="9.1011683807976"><ele>272.0</ele><time>2026-04-03T14:26:26Z</time></trkpt><trkpt lat="45.76292040301259" lon="9.101084608895999"><ele>272.0</ele><time>2026-04-03T14:26:27Z</time></trkpt><trkpt lat="45.762798656412514" lon="9.100978989607189"><ele>272.0</ele><time>2026-04-03T14:26:28Z</time></trkpt><trkpt lat="45.762698754866186" lon="9.100860245601838"><ele>272.0</ele><time>2026-04-03T14:26:29Z</time></trkpt><trkpt lat="45.76260386717853" lon="9.100720401520931"><ele>272.0</ele><time>2026-04-03T14:26:30Z</time></trkpt><trkpt lat="45.76251495540455" lon="9.100563843909026"><ele>272.5</ele><time>2026-04-03T14:26:31Z</time></trkpt><trkpt lat="45.76244082362164" lon="9.100416883172029"><ele>273.0</ele><time>2026-04-03T14:26:32Z</time></trkpt><trkpt lat="45.76237484346668" lon="9.100270720645158"><ele>273.5</ele><time>2026-04-03T14:26:33Z</time></trkpt><trkpt lat="45.76230019769716" lon="9.100112116224427"><ele>274.0</ele><time>2026-04-03T14:26:34Z</time></trkpt><trkpt lat="45.76222225754255" lon="9.099944135039763"><ele>272.75</ele><time>2026-04-03T14:26:35Z</time></trkpt><trkpt lat="45.76214471129331" lon="9.099768212407014"><ele>271.5</ele><time>2026-04-03T14:26:36Z</time></trkpt><trkpt lat="45.76206681488677" lon="9.099588221643229"><ele>270.25</ele><time>2026-04-03T14:26:37Z</time></trkpt><trkpt lat="45.76198719568793" lon="9.099407553897036"><ele>269.0</ele><time>2026-04-03T14:26:38Z</time></trkpt><trkpt lat="45.76190489670623" lon="9.099232873162421"><ele>269.75</ele><time>2026-04-03T14:26:39Z</time></trkpt><trkpt lat="45.76181668708342" lon="9.099069976020754"><ele>270.5</ele><time>2026-04-03T14:26:40Z</time></trkpt><trkpt lat="45.76172717130473" lon="9.098911580843739"><ele>271.25</ele><time>2026-04-03T14:26:41Z</time></trkpt><trkpt lat="45.761640248961086" lon="9.098761522475145"><ele>272.0</ele><time>2026-04-03T14:26:42Z</time></trkpt><trkpt lat="45.7615569729372" lon="9.098614114330843"><ele>272.0</ele><time>2026-04-03T14:26:43Z</time></trkpt><trkpt lat="45.76147261589035" lon="9.098470469043022"><ele>272.0</ele><time>2026-04-03T14:26:44Z</time></trkpt><trkpt lat="45.761388270008126" lon="9.098331333332567"><ele>272.0</ele><time>2026-04-03T14:26:45Z</time></trkpt><trkpt lat="45.76130371552428" lon="9.098196161354089"><ele>272.0</ele><time>2026-04-03T14:26:46Z</time></trkpt><trkpt lat="45.761218622129945" lon="9.09806351583627"><ele>272.75</ele><time>2026-04-03T14:26:47Z</time></trkpt><trkpt lat="45.76113178134309" lon="9.097929223221714"><ele>273.5</ele><time>2026-04-03T14:26:48Z</time></trkpt><trkpt lat="45.76104625562382" lon="9.097792482689957"><ele>274.25</ele><time>2026-04-03T14:26:49Z</time></trkpt><trkpt lat="45.7609595026061" lon="9.097649999946213"><ele>275.0</ele><time>2026-04-03T14:26:50Z</time></trkpt><trkpt lat="45.76086838149832" lon="9.097494579604495"><ele>273.33333333333337</ele><time>2026-04-03T14:26:51Z</time></trkpt><trkpt lat="45.76077677075919" lon="9.097332412673435"><ele>271.6666666666667</ele><time>2026-04-03T14:26:52Z</time></trkpt><trkpt lat="45.76068079183001" lon="9.097161029817677"><ele>270.0</ele><time>2026-04-03T14:26:53Z</time></trkpt><trkpt lat="45.76058067050883" lon="9.096982057168571"><ele>270.0</ele><time>2026-04-03T14:26:54Z</time></trkpt><trkpt lat="45.76048322809497" lon="9.096799752726797"><ele>270.0</ele><time>2026-04-03T14:26:55Z</time></trkpt><trkpt lat="45.76039107247458" lon="9.096624765334143"><ele>270.0</ele><time>2026-04-03T14:26:56Z</time></trkpt><trkpt lat="45.76030446883716" lon="9.09645305038924"><ele>269.75</ele><time>2026-04-03T14:26:57Z</time></trkpt><trkpt lat="45.76022153549272" lon="9.096288238062176"><ele>269.5</ele><time>2026-04-03T14:26:58Z</time></trkpt><trkpt lat="45.76014311283332" lon="9.096122051098373"><ele>269.25</ele><time>2026-04-03T14:26:59Z</time></trkpt><trkpt lat="45.7600666072735" lon="9.095962054045588"><ele>269.0</ele><time>2026-04-03T14:27:00Z</time></trkpt><trkpt lat="45.75998717366494" lon="9.095804850783223"><ele>268.5</ele><time>2026-04-03T14:27:01Z</time></trkpt><trkpt lat="45.75990533577548" lon="9.09565499602163"><ele>268.0</ele><time>2026-04-03T14:27:02Z</time></trkpt><trkpt lat="45.75981238152054" lon="9.09551758976776"><ele>267.5</ele><time>2026-04-03T14:27:03Z</time></trkpt><trkpt lat="45.759710222363466" lon="9.095385852203368"><ele>267.0</ele><time>2026-04-03T14:27:04Z</time></trkpt><trkpt lat="45.75959410596627" lon="9.095284404023568"><ele>267.0</ele><time>2026-04-03T14:27:05Z</time></trkpt><trkpt lat="45.75946463309318" lon="9.095226526570485"><ele>267.0</ele><time>2026-04-03T14:27:06Z</time></trkpt><trkpt lat="45.759328594092075" lon="9.09521220229082"><ele>267.0</ele><time>2026-04-03T14:27:07Z</time></trkpt><trkpt lat="45.759186749017665" lon="9.09524271183941"><ele>267.0</ele><time>2026-04-03T14:27:08Z</time></trkpt><trkpt lat="45.75905005219288" lon="9.095309990469199"><ele>269.5</ele><time>2026-04-03T14:27:09Z</time></trkpt><trkpt lat="45.75893010026205" lon="9.09541310489887"><ele>272.0</ele><time>2026-04-03T14:27:10Z</time></trkpt><trkpt lat="45.7588193323778" lon="9.095523840836622"><ele>274.5</ele><time>2026-04-03T14:27:11Z</time></trkpt><trkpt lat="45.75871304242791" lon="9.095631562196525"><ele>277.0</ele><time>2026-04-03T14:27:12Z</time></trkpt><trkpt lat="45.75860430684831" lon="9.095731225398229"><ele>276.25</ele><time>2026-04-03T14:27:13Z</time></trkpt><trkpt lat="45.758494648001445" lon="9.095832766347543"><ele>275.5</ele><time>2026-04-03T14:27:14Z</time></trkpt><trkpt lat="45.758387561245875" lon="9.095931772814165"><ele>274.75</ele><time>2026-04-03T14:27:15Z</time></trkpt><trkpt lat="45.75828182553979" lon="9.096027992930843"><ele>274.0</ele><time>2026-04-03T14:27:16Z</time></trkpt><trkpt lat="45.75817835627856" lon="9.096115709473656"><ele>274.0</ele><time>2026-04-03T14:27:16.999Z</time></trkpt><trkpt lat="45.75808208156969" lon="9.096187456286902"><ele>274.0</ele><time>2026-04-03T14:27:17.999Z</time></trkpt><trkpt lat="45.75799016528732" lon="9.096237425311989"><ele>274.0</ele><time>2026-04-03T14:27:18.999Z</time></trkpt><trkpt lat="45.75790922252237" lon="9.096270090932997"><ele>274.0</ele><time>2026-04-03T14:27:19.999Z</time></trkpt><trkpt lat="45.75783299995517" lon="9.096286963148765"><ele>274.0</ele><time>2026-04-03T14:27:20.999Z</time></trkpt><trkpt lat="45.75775855680025" lon="9.096300923805329"><ele>274.0</ele><time>2026-04-03T14:27:21.999Z</time></trkpt><trkpt lat="45.757678925308724" lon="9.096305694251717"><ele>273.66666666666663</ele><time>2026-04-03T14:27:22.999Z</time></trkpt><trkpt lat="45.75760239217221" lon="9.096294367603845"><ele>273.3333333333333</ele><time>2026-04-03T14:27:24Z</time></trkpt><trkpt lat="45.75753058602831" lon="9.096278941122785"><ele>273.0</ele><time>2026-04-03T14:27:25Z</time></trkpt><trkpt lat="45.75742038596644" lon="9.09632924180537"><ele>272.6666666666667</ele><time>2026-04-03T14:27:27Z</time></trkpt><trkpt lat="45.757378372334244" lon="9.09640999189613"><ele>272.33333333333337</ele><time>2026-04-03T14:27:28.001Z</time></trkpt><trkpt lat="45.75736369097" lon="9.096513571777525"><ele>272.0</ele><time>2026-04-03T14:27:29Z</time></trkpt><trkpt lat="45.75739413311871" lon="9.096630896997688"><ele>273.0</ele><time>2026-04-03T14:27:30Z</time></trkpt><trkpt lat="45.75742679765988" lon="9.096747926369698"><ele>274.0</ele><time>2026-04-03T14:27:31.001Z</time></trkpt><trkpt lat="45.75743014856895" lon="9.096886757338549"><ele>275.0</ele><time>2026-04-03T14:27:32Z</time></trkpt><trkpt lat="45.75740355997998" lon="9.097040679243092"><ele>276.0</ele><time>2026-04-03T14:27:33Z</time></trkpt><trkpt lat="45.757351084994134" lon="9.097193963993965"><ele>277.0</ele><time>2026-04-03T14:27:34Z</time></trkpt><trkpt lat="45.757275897593054" lon="9.097339869966602"><ele>279.0</ele><time>2026-04-03T14:27:35Z</time></trkpt><trkpt lat="45.75718286547133" lon="9.09746869471255"><ele>281.0</ele><time>2026-04-03T14:27:36Z</time></trkpt><trkpt lat="45.75708779284817" lon="9.097579766132798"><ele>283.0</ele><time>2026-04-03T14:27:37Z</time></trkpt><trkpt lat="45.75699405066816" lon="9.097681139054432"><ele>285.0</ele><time>2026-04-03T14:27:38Z</time></trkpt><trkpt lat="45.75689577515533" lon="9.097774803624896"><ele>284.5</ele><time>2026-04-03T14:27:39Z</time></trkpt><trkpt lat="45.75678937190882" lon="9.097857395009147"><ele>284.0</ele><time>2026-04-03T14:27:40Z</time></trkpt><trkpt lat="45.756677188547485" lon="9.097932848089874"><ele>283.5</ele><time>2026-04-03T14:27:41Z</time></trkpt><trkpt lat="45.756553664829106" lon="9.098002013876968"><ele>283.0</ele><time>2026-04-03T14:27:42Z</time></trkpt><trkpt lat="45.75642529638892" lon="9.09805771454276"><ele>283.0</ele><time>2026-04-03T14:27:43Z</time></trkpt><trkpt lat="45.75628338241357" lon="9.098075117802075"><ele>283.0</ele><time>2026-04-03T14:27:44Z</time></trkpt><trkpt lat="45.75613053487766" lon="9.098065111573524"><ele>283.0</ele><time>2026-04-03T14:27:45Z</time></trkpt><trkpt lat="45.755974354075484" lon="9.098025152940618"><ele>281.66666666666663</ele><time>2026-04-03T14:27:46Z</time></trkpt><trkpt lat="45.75582406760887" lon="9.097971367265492"><ele>280.3333333333333</ele><time>2026-04-03T14:27:47Z</time></trkpt><trkpt lat="45.75568205482162" lon="9.097911211326558"><ele>279.0</ele><time>2026-04-03T14:27:48Z</time></trkpt><trkpt lat="45.755539038886965" lon="9.097851717927492"><ele>279.0</ele><time>2026-04-03T14:27:49Z</time></trkpt><trkpt lat="45.75538564080335" lon="9.097823054316665"><ele>279.0</ele><time>2026-04-03T14:27:50Z</time></trkpt><trkpt lat="45.75521782703487" lon="9.097835246455155"><ele>279.0</ele><time>2026-04-03T14:27:51Z</time></trkpt><trkpt lat="45.75505717001055" lon="9.097897661134805"><ele>281.6666666666667</ele><time>2026-04-03T14:27:52Z</time></trkpt><trkpt lat="45.754904648357574" lon="9.097994112530943"><ele>284.33333333333337</ele><time>2026-04-03T14:27:53Z</time></trkpt><trkpt lat="45.75476039877009" lon="9.098109058192732"><ele>287.0</ele><time>2026-04-03T14:27:54Z</time></trkpt><trkpt lat="45.754633487598674" lon="9.098229990419965"><ele>287.75</ele><time>2026-04-03T14:27:55Z</time></trkpt><trkpt lat="45.75451593827327" lon="9.098330766189573"><ele>288.5</ele><time>2026-04-03T14:27:56Z</time></trkpt><trkpt lat="45.754401570664335" lon="9.098416509871125"><ele>289.25</ele><time>2026-04-03T14:27:57Z</time></trkpt><trkpt lat="45.754272694215956" lon="9.098495406189238"><ele>290.0</ele><time>2026-04-03T14:27:58Z</time></trkpt><trkpt lat="45.75415203988907" lon="9.098554670430977"><ele>290.75</ele><time>2026-04-03T14:27:59Z</time></trkpt><trkpt lat="45.75401601833852" lon="9.098596561224413"><ele>291.5</ele><time>2026-04-03T14:28:00Z</time></trkpt><trkpt lat="45.75388118982788" lon="9.09861261521448"><ele>292.25</ele><time>2026-04-03T14:28:01Z</time></trkpt><trkpt lat="45.75374538515163" lon="9.098592661358374"><ele>293.0</ele><time>2026-04-03T14:28:02Z</time></trkpt><trkpt lat="45.75360878008508" lon="9.098589528230345"><ele>293.25</ele><time>2026-04-03T14:28:03Z</time></trkpt><trkpt lat="45.75347226738134" lon="9.09856970691247"><ele>293.5</ele><time>2026-04-03T14:28:04Z</time></trkpt><trkpt lat="45.75333698111468" lon="9.098543476768711"><ele>293.75</ele><time>2026-04-03T14:28:05Z</time></trkpt><trkpt lat="45.753205390449224" lon="9.098508846947253"><ele>294.0</ele><time>2026-04-03T14:28:06Z</time></trkpt><trkpt lat="45.75307609729199" lon="9.098456678006594"><ele>294.0</ele><time>2026-04-03T14:28:07Z</time></trkpt><trkpt lat="45.75295170684776" lon="9.098393535684115"><ele>294.0</ele><time>2026-04-03T14:28:08Z</time></trkpt><trkpt lat="45.75283215597287" lon="9.098324873511807"><ele>294.0</ele><time>2026-04-03T14:28:09Z</time></trkpt><trkpt lat="45.75271972924969" lon="9.09826108050222"><ele>294.0</ele><time>2026-04-03T14:28:10Z</time></trkpt><trkpt lat="45.752614809482495" lon="9.098205465754097"><ele>294.25</ele><time>2026-04-03T14:28:11Z</time></trkpt><trkpt lat="45.75251065287218" lon="9.098152098435166"><ele>294.5</ele><time>2026-04-03T14:28:12Z</time></trkpt><trkpt lat="45.752401557041196" lon="9.098091600891852"><ele>294.75</ele><time>2026-04-03T14:28:13Z</time></trkpt><trkpt lat="45.75228977718345" lon="9.098025139175483"><ele>295.0</ele><time>2026-04-03T14:28:14Z</time></trkpt><trkpt lat="45.75217157231019" lon="9.097958470651216"><ele>295.0</ele><time>2026-04-03T14:28:15Z</time></trkpt><trkpt lat="45.75203750723976" lon="9.097904987533768"><ele>295.0</ele><time>2026-04-03T14:28:16Z</time></trkpt><trkpt lat="45.75189655103499" lon="9.097881301638228"><ele>295.0</ele><time>2026-04-03T14:28:17Z</time></trkpt><trkpt lat="45.75174692117192" lon="9.097883943011828"><ele>295.0</ele><time>2026-04-03T14:28:18Z</time></trkpt><trkpt lat="45.75159493951636" lon="9.097921906653722"><ele>295.25</ele><time>2026-04-03T14:28:19Z</time></trkpt><trkpt lat="45.75145859247927" lon="9.0979853227296"><ele>295.5</ele><time>2026-04-03T14:28:20Z</time></trkpt><trkpt lat="45.751328163261356" lon="9.098068216643803"><ele>295.75</ele><time>2026-04-03T14:28:21Z</time></trkpt><trkpt lat="45.751203052494745" lon="9.098173401847305"><ele>296.0</ele><time>2026-04-03T14:28:22Z</time></trkpt><trkpt lat="45.751092665527274" lon="9.098301895899189"><ele>297.0</ele><time>2026-04-03T14:28:23Z</time></trkpt><trkpt lat="45.75099144138034" lon="9.098438971417195"><ele>298.0</ele><time>2026-04-03T14:28:24Z</time></trkpt><trkpt lat="45.75088857505421" lon="9.098573745514226"><ele>299.0</ele><time>2026-04-03T14:28:25Z</time></trkpt><trkpt lat="45.750780329879085" lon="9.09870879942301"><ele>300.0</ele><time>2026-04-03T14:28:26Z</time></trkpt><trkpt lat="45.75066720250603" lon="9.09884144332393"><ele>300.0</ele><time>2026-04-03T14:28:27Z</time></trkpt><trkpt lat="45.75054757556157" lon="9.098971231856662"><ele>300.0</ele><time>2026-04-03T14:28:28Z</time></trkpt><trkpt lat="45.75042202793196" lon="9.099101712217642"><ele>300.0</ele><time>2026-04-03T14:28:29Z</time></trkpt><trkpt lat="45.75029188400313" lon="9.099223906773794"><ele>300.75</ele><time>2026-04-03T14:28:30Z</time></trkpt><trkpt lat="45.75016579941226" lon="9.09932677769886"><ele>301.5</ele><time>2026-04-03T14:28:31Z</time></trkpt><trkpt lat="45.75003554648763" lon="9.099410564749599"><ele>302.25</ele><time>2026-04-03T14:28:32Z</time></trkpt><trkpt lat="45.749897693825076" lon="9.099470261216473"><ele>303.0</ele><time>2026-04-03T14:28:33Z</time></trkpt><trkpt lat="45.74975896277999" lon="9.099505575480134"><ele>303.0</ele><time>2026-04-03T14:28:34Z</time></trkpt><trkpt lat="45.74961011808251" lon="9.099512987965811"><ele>303.0</ele><time>2026-04-03T14:28:35Z</time></trkpt><trkpt lat="45.749453122472254" lon="9.099494524667271"><ele>303.0</ele><time>2026-04-03T14:28:36Z</time></trkpt><trkpt lat="45.749289990307375" lon="9.099468236039952"><ele>304.6666666666667</ele><time>2026-04-03T14:28:37Z</time></trkpt><trkpt lat="45.7491189799971" lon="9.099437778938766"><ele>306.33333333333337</ele><time>2026-04-03T14:28:38Z</time></trkpt><trkpt lat="45.748949691049475" lon="9.099416340173537"><ele>308.0</ele><time>2026-04-03T14:28:39Z</time></trkpt><trkpt lat="45.74878133430759" lon="9.099394174995695"><ele>308.0</ele><time>2026-04-03T14:28:40Z</time></trkpt><trkpt lat="45.74859801985114" lon="9.099371456682341"><ele>308.0</ele><time>2026-04-03T14:28:41Z</time></trkpt><trkpt lat="45.74840741624478" lon="9.099347865833046"><ele>308.0</ele><time>2026-04-03T14:28:42Z</time></trkpt><trkpt lat="45.74821389148965" lon="9.099322213310577"><ele>310.33333333333337</ele><time>2026-04-03T14:28:43Z</time></trkpt><trkpt lat="45.74801190457002" lon="9.099294429900539"><ele>312.6666666666667</ele><time>2026-04-03T14:28:44Z</time></trkpt><trkpt lat="45.74779572640835" lon="9.099265509592563"><ele>315.0</ele><time>2026-04-03T14:28:45Z</time></trkpt><trkpt lat="45.74756334759432" lon="9.099243976812875"><ele>319.0</ele><time>2026-04-03T14:28:46Z</time></trkpt><trkpt lat="45.7473249270641" lon="9.099207737821805"><ele>323.0</ele><time>2026-04-03T14:28:47Z</time></trkpt><trkpt lat="45.74708468600741" lon="9.099168330521398"><ele>322.6666666666667</ele><time>2026-04-03T14:28:48Z</time></trkpt><trkpt lat="45.746866739509045" lon="9.099148443346579"><ele>322.3333333333333</ele><time>2026-04-03T14:28:49Z</time></trkpt><trkpt lat="45.74667602993006" lon="9.09914207023373"><ele>322.0</ele><time>2026-04-03T14:28:50Z</time></trkpt><trkpt lat="45.74651552062439" lon="9.099151031272049"><ele>322.0</ele><time>2026-04-03T14:28:51Z</time></trkpt><trkpt lat="45.746368298623835" lon="9.099169659742744"><ele>322.0</ele><time>2026-04-03T14:28:52Z</time></trkpt><trkpt lat="45.74624426093902" lon="9.099207541793783"><ele>322.0</ele><time>2026-04-03T14:28:53Z</time></trkpt><trkpt lat="45.746137196502914" lon="9.099254978335738"><ele>322.0</ele><time>2026-04-03T14:28:54Z</time></trkpt><trkpt lat="45.746033561816056" lon="9.099306554743244"><ele>323.16666666666663</ele><time>2026-04-03T14:28:55Z</time></trkpt><trkpt lat="45.74593988887311" lon="9.099340677532824"><ele>324.3333333333333</ele><time>2026-04-03T14:28:56Z</time></trkpt><trkpt lat="45.74585961967306" lon="9.09934722746622"><ele>325.5</ele><time>2026-04-03T14:28:57Z</time></trkpt><trkpt lat="45.74577926560176" lon="9.099332368998496"><ele>326.6666666666667</ele><time>2026-04-03T14:28:58Z</time></trkpt><trkpt lat="45.745702038661776" lon="9.09931909588966"><ele>327.83333333333337</ele><time>2026-04-03T14:28:59Z</time></trkpt><trkpt lat="45.745619746061834" lon="9.099361005709284"><ele>329.0</ele><time>2026-04-03T14:29:00Z</time></trkpt><trkpt lat="45.74555863915174" lon="9.099454981241317"><ele>329.0</ele><time>2026-04-03T14:29:01Z</time></trkpt><trkpt lat="45.745519573699006" lon="9.099564145112096"><ele>329.0</ele><time>2026-04-03T14:29:02Z</time></trkpt><trkpt lat="45.74551551857161" lon="9.09971993765164"><ele>329.0</ele><time>2026-04-03T14:29:03Z</time></trkpt><trkpt lat="45.745503979745685" lon="9.099878952833462"><ele>329.0</ele><time>2026-04-03T14:29:04Z</time></trkpt><trkpt lat="45.745454570677374" lon="9.100014219877295"><ele>329.0</ele><time>2026-04-03T14:29:05Z</time></trkpt><trkpt lat="45.74539294722583" lon="9.100140160715265"><ele>328.5</ele><time>2026-04-03T14:29:06Z</time></trkpt><trkpt lat="45.74535351874883" lon="9.100276659181242"><ele>328.0</ele><time>2026-04-03T14:29:07Z</time></trkpt><trkpt lat="45.74533917695816" lon="9.100450152934078"><ele>327.5</ele><time>2026-04-03T14:29:08Z</time></trkpt><trkpt lat="45.74535102301082" lon="9.100654864315784"><ele>327.0</ele><time>2026-04-03T14:29:09Z</time></trkpt><trkpt lat="45.745388087999025" lon="9.100875665832442"><ele>326.6666666666667</ele><time>2026-04-03T14:29:10Z</time></trkpt><trkpt lat="45.74545711831827" lon="9.101126989044253"><ele>326.33333333333337</ele><time>2026-04-03T14:29:11Z</time></trkpt><trkpt lat="45.74551195339083" lon="9.101366787965873"><ele>326.0</ele><time>2026-04-03T14:29:12Z</time></trkpt><trkpt lat="45.74556368550308" lon="9.101600665812654"><ele>327.0</ele><time>2026-04-03T14:29:13Z</time></trkpt><trkpt lat="45.745612246501665" lon="9.101880246100329"><ele>328.0</ele><time>2026-04-03T14:29:14Z</time></trkpt><trkpt lat="45.745650027099394" lon="9.102178291664266"><ele>329.0</ele><time>2026-04-03T14:29:15Z</time></trkpt><trkpt lat="45.74567625591675" lon="9.102445161384265"><ele>329.0</ele><time>2026-04-03T14:29:16Z</time></trkpt><trkpt lat="45.74570295944493" lon="9.10268742442478"><ele>329.0</ele><time>2026-04-03T14:29:17Z</time></trkpt><trkpt lat="45.74573590059143" lon="9.102930342898247"><ele>329.0</ele><time>2026-04-03T14:29:18Z</time></trkpt><trkpt lat="45.74576236967177" lon="9.103188159568349"><ele>329.6666666666667</ele><time>2026-04-03T14:29:19Z</time></trkpt><trkpt lat="45.74578155437899" lon="9.10342326088389"><ele>330.3333333333333</ele><time>2026-04-03T14:29:20Z</time></trkpt><trkpt lat="45.74580584525786" lon="9.10364906724758"><ele>331.0</ele><time>2026-04-03T14:29:21Z</time></trkpt><trkpt lat="45.745843268272594" lon="9.10387188123925"><ele>331.3333333333333</ele><time>2026-04-03T14:29:22Z</time></trkpt><trkpt lat="45.74588761668734" lon="9.104081129263328"><ele>331.6666666666667</ele><time>2026-04-03T14:29:23Z</time></trkpt><trkpt lat="45.745943271248706" lon="9.104298130366393"><ele>332.0</ele><time>2026-04-03T14:29:24Z</time></trkpt><trkpt lat="45.745998297365745" lon="9.104501363175666"><ele>331.0</ele><time>2026-04-03T14:29:25Z</time></trkpt><trkpt lat="45.746048003985194" lon="9.104681671655836"><ele>330.0</ele><time>2026-04-03T14:29:25.999Z</time></trkpt><trkpt lat="45.746098923706256" lon="9.104866090947269"><ele>329.0</ele><time>2026-04-03T14:29:26.999Z</time></trkpt><trkpt lat="45.74614332987125" lon="9.105060313089082"><ele>328.0</ele><time>2026-04-03T14:29:27.999Z</time></trkpt><trkpt lat="45.74616891026824" lon="9.105250279745473"><ele>327.25</ele><time>2026-04-03T14:29:28.999Z</time></trkpt><trkpt lat="45.74616643068494" lon="9.10544020148823"><ele>326.5</ele><time>2026-04-03T14:29:30.001Z</time></trkpt><trkpt lat="45.746140676768285" lon="9.105642069352081"><ele>325.75</ele><time>2026-04-03T14:29:31.001Z</time></trkpt><trkpt lat="45.74609068646903" lon="9.105838206321211"><ele>325.0</ele><time>2026-04-03T14:29:32.001Z</time></trkpt><trkpt lat="45.74602465316485" lon="9.10602654259549"><ele>325.0</ele><time>2026-04-03T14:29:33.001Z</time></trkpt><trkpt lat="45.74593605336213" lon="9.106190421587144"><ele>325.0</ele><time>2026-04-03T14:29:34.001Z</time></trkpt><trkpt lat="45.745827826163904" lon="9.106346546706495"><ele>325.0</ele><time>2026-04-03T14:29:35.001Z</time></trkpt><trkpt lat="45.74570844678809" lon="9.106480781787594"><ele>324.0</ele><time>2026-04-03T14:29:36.001Z</time></trkpt><trkpt lat="45.7455761823202" lon="9.106605764938273"><ele>323.0</ele><time>2026-04-03T14:29:37.001Z</time></trkpt><trkpt lat="45.745442326865216" lon="9.106715437003693"><ele>322.0</ele><time>2026-04-03T14:29:38.001Z</time></trkpt><trkpt lat="45.745316317438935" lon="9.106813155513935"><ele>321.5</ele><time>2026-04-03T14:29:39.001Z</time></trkpt><trkpt lat="45.74519834143571" lon="9.106902322594793"><ele>321.0</ele><time>2026-04-03T14:29:40.001Z</time></trkpt><trkpt lat="45.74507866346014" lon="9.106980814144402"><ele>320.5</ele><time>2026-04-03T14:29:41.001Z</time></trkpt><trkpt lat="45.74495579646228" lon="9.10707615343758"><ele>320.0</ele><time>2026-04-03T14:29:42.001Z</time></trkpt><trkpt lat="45.74482641428997" lon="9.107223833219173"><ele>321.0</ele><time>2026-04-03T14:29:43.001Z</time></trkpt><trkpt lat="45.74468174725018" lon="9.107431427697831"><ele>322.0</ele><time>2026-04-03T14:29:44.001Z</time></trkpt><trkpt lat="45.74450922966286" lon="9.107649499695773"><ele>323.0</ele><time>2026-04-03T14:29:45.001Z</time></trkpt><trkpt lat="45.74432164545572" lon="9.107866559693685"><ele>318.5</ele><time>2026-04-03T14:29:46.001Z</time></trkpt><trkpt lat="45.74413988103248" lon="9.108091662237895"><ele>314.0</ele><time>2026-04-03T14:29:47.001Z</time></trkpt><trkpt lat="45.74396067981681" lon="9.108316162698998"><ele>313.5</ele><time>2026-04-03T14:29:48Z</time></trkpt><trkpt lat="45.7437882338666" lon="9.108530180155839"><ele>313.0</ele><time>2026-04-03T14:29:49Z</time></trkpt><trkpt lat="45.74361511118975" lon="9.108748120835294"><ele>313.0</ele><time>2026-04-03T14:29:50Z</time></trkpt><trkpt lat="45.743443214866474" lon="9.10896271047085"><ele>313.0</ele><time>2026-04-03T14:29:51Z</time></trkpt><trkpt lat="45.743286442025024" lon="9.10915860455585"><ele>313.0</ele><time>2026-04-03T14:29:52Z</time></trkpt><trkpt lat="45.743134185579" lon="9.109344450768395"><ele>313.0</ele><time>2026-04-03T14:29:53Z</time></trkpt><trkpt lat="45.74298458864994" lon="9.10951781982128"><ele>313.0</ele><time>2026-04-03T14:29:54Z</time></trkpt><trkpt lat="45.7428597536658" lon="9.109664085592552"><ele>313.0</ele><time>2026-04-03T14:29:55Z</time></trkpt><trkpt lat="45.74275021235303" lon="9.109801150832046"><ele>312.8</ele><time>2026-04-03T14:29:56Z</time></trkpt><trkpt lat="45.742656517824" lon="9.10992560080597"><ele>312.6</ele><time>2026-04-03T14:29:57Z</time></trkpt><trkpt lat="45.742575772931595" lon="9.110031891090523"><ele>312.4</ele><time>2026-04-03T14:29:58Z</time></trkpt><trkpt lat="45.74251453663432" lon="9.110114072561627"><ele>312.2</ele><time>2026-04-03T14:29:59Z</time></trkpt><trkpt lat="45.74244504603382" lon="9.11020048596872"><ele>312.0</ele><time>2026-04-03T14:30:01Z</time></trkpt><trkpt lat="45.742347133940456" lon="9.110280081635105"><ele>312.0</ele><time>2026-04-03T14:30:06Z</time></trkpt><trkpt lat="45.7422878111671" lon="9.110338276287015"><ele>312.0</ele><time>2026-04-03T14:30:07Z</time></trkpt><trkpt lat="45.74223822840639" lon="9.110449203947935"><ele>312.0</ele><time>2026-04-03T14:30:08Z</time></trkpt><trkpt lat="45.74221260746094" lon="9.110591359524376"><ele>312.0</ele><time>2026-04-03T14:30:09Z</time></trkpt><trkpt lat="45.74219465975491" lon="9.110724615834451"><ele>312.0</ele><time>2026-04-03T14:30:10Z</time></trkpt><trkpt lat="45.74213466500621" lon="9.110816324422226"><ele>312.0</ele><time>2026-04-03T14:30:11Z</time></trkpt><trkpt lat="45.74210565274789" lon="9.110916259176745"><ele>311.75</ele><time>2026-04-03T14:30:12Z</time></trkpt><trkpt lat="45.74209340380159" lon="9.11105059037968"><ele>311.5</ele><time>2026-04-03T14:30:13Z</time></trkpt><trkpt lat="45.742127629938565" lon="9.111205053592817"><ele>311.25</ele><time>2026-04-03T14:30:14Z</time></trkpt><trkpt lat="45.74215348606303" lon="9.11137528514543"><ele>311.0</ele><time>2026-04-03T14:30:15Z</time></trkpt><trkpt lat="45.74214828311156" lon="9.111575340093614"><ele>311.0</ele><time>2026-04-03T14:30:16Z</time></trkpt><trkpt lat="45.74212322209069" lon="9.11179886611838"><ele>311.0</ele><time>2026-04-03T14:30:17Z</time></trkpt><trkpt lat="45.7420966196057" lon="9.112042642313188"><ele>311.0</ele><time>2026-04-03T14:30:18Z</time></trkpt><trkpt lat="45.742076679965884" lon="9.112297589904802"><ele>311.33333333333337</ele><time>2026-04-03T14:30:19Z</time></trkpt><trkpt lat="45.74204985792765" lon="9.112557284227034"><ele>311.6666666666667</ele><time>2026-04-03T14:30:20Z</time></trkpt><trkpt lat="45.742022244399564" lon="9.112826040287057"><ele>312.0</ele><time>2026-04-03T14:30:21Z</time></trkpt><trkpt lat="45.74199924281408" lon="9.113095922163218"><ele>312.6666666666667</ele><time>2026-04-03T14:30:22Z</time></trkpt><trkpt lat="45.74196532976663" lon="9.1133602496977"><ele>313.33333333333337</ele><time>2026-04-03T14:30:23Z</time></trkpt><trkpt lat="45.7419359259912" lon="9.113615246114502"><ele>314.0</ele><time>2026-04-03T14:30:24Z</time></trkpt><trkpt lat="45.7419075471556" lon="9.113861121277349"><ele>312.33333333333337</ele><time>2026-04-03T14:30:25Z</time></trkpt><trkpt lat="45.74186206271853" lon="9.114112111013617"><ele>310.6666666666667</ele><time>2026-04-03T14:30:26Z</time></trkpt><trkpt lat="45.7418085821752" lon="9.114356290622432"><ele>309.0</ele><time>2026-04-03T14:30:27Z</time></trkpt><trkpt lat="45.741741348809114" lon="9.114580618061925"><ele>309.0</ele><time>2026-04-03T14:30:28Z</time></trkpt><trkpt lat="45.74167704622156" lon="9.11476924326786"><ele>309.0</ele><time>2026-04-03T14:30:29Z</time></trkpt><trkpt lat="45.74162792585711" lon="9.114928057101125"><ele>309.0</ele><time>2026-04-03T14:30:30Z</time></trkpt><trkpt lat="45.74158592594283" lon="9.115082678443944"><ele>309.0</ele><time>2026-04-03T14:30:31Z</time></trkpt><trkpt lat="45.74154829146061" lon="9.115220513330915"><ele>309.2</ele><time>2026-04-03T14:30:32Z</time></trkpt><trkpt lat="45.74152016107952" lon="9.11534794881804"><ele>309.4</ele><time>2026-04-03T14:30:33Z</time></trkpt><trkpt lat="45.74149445866077" lon="9.11546412333103"><ele>309.6</ele><time>2026-04-03T14:30:34Z</time></trkpt><trkpt lat="45.74146442032753" lon="9.115563955649181"><ele>309.8</ele><time>2026-04-03T14:30:35Z</time></trkpt><trkpt lat="45.74142750599191" lon="9.115685628648986"><ele>310.0</ele><time>2026-04-03T14:30:37Z</time></trkpt><trkpt lat="45.741372006555544" lon="9.11583020720121"><ele>310.0</ele><time>2026-04-03T14:30:43Z</time></trkpt><trkpt lat="45.741339701995514" lon="9.115940318020574"><ele>310.0</ele><time>2026-04-03T14:30:44Z</time></trkpt><trkpt lat="45.74130551405201" lon="9.11607769316615"><ele>310.0</ele><time>2026-04-03T14:30:45Z</time></trkpt><trkpt lat="45.7412772304551" lon="9.116224035176643"><ele>310.0</ele><time>2026-04-03T14:30:46Z</time></trkpt><trkpt lat="45.74125764593699" lon="9.116397417193962"><ele>310.0</ele><time>2026-04-03T14:30:47Z</time></trkpt><trkpt lat="45.74124545439635" lon="9.116588208237507"><ele>310.0</ele><time>2026-04-03T14:30:48Z</time></trkpt><trkpt lat="45.741229736414574" lon="9.11676287312859"><ele>310.0</ele><time>2026-04-03T14:30:49Z</time></trkpt><trkpt lat="45.74121561945815" lon="9.116916959622205"><ele>310.0</ele><time>2026-04-03T14:30:50Z</time></trkpt><trkpt lat="45.74120717283149" lon="9.117057325655031"><ele>310.0</ele><time>2026-04-03T14:30:51Z</time></trkpt><trkpt lat="45.74119750843864" lon="9.117181714515315"><ele>310.0</ele><time>2026-04-03T14:30:52Z</time></trkpt><trkpt lat="45.7411939621246" lon="9.117288483845943"><ele>310.0</ele><time>2026-04-03T14:30:53Z</time></trkpt><trkpt lat="45.74118763208423" lon="9.117416604502125"><ele>310.0</ele><time>2026-04-03T14:30:55Z</time></trkpt><trkpt lat="45.741218725144584" lon="9.117520496789727"><ele>310.0</ele><time>2026-04-03T14:30:58Z</time></trkpt><trkpt lat="45.74128939485155" lon="9.117518411514107"><ele>310.0</ele><time>2026-04-03T14:31:00Z</time></trkpt><trkpt lat="45.741350112772956" lon="9.117441349172124"><ele>310.0</ele><time>2026-04-03T14:31:02Z</time></trkpt><trkpt lat="45.74137237459206" lon="9.117337325277875"><ele>310.0</ele><time>2026-04-03T14:31:04Z</time></trkpt><trkpt lat="45.741369217949966" lon="9.117232982248034"><ele>310.0</ele><time>2026-04-03T14:31:06Z</time></trkpt><trkpt lat="45.741392429384" lon="9.117133825267016"><ele>310.0</ele><time>2026-04-03T14:31:08Z</time></trkpt><trkpt lat="45.74139341129755" lon="9.117043312454294"><ele>310.0</ele><time>2026-04-03T14:31:10Z</time></trkpt><trkpt lat="45.741339107320535" lon="9.116966602849045"><ele>310.0</ele><time>2026-04-03T14:36:48Z</time></trkpt><trkpt lat="45.741279907701504" lon="9.116917586253305"><ele>310.0</ele><time>2026-04-03T14:36:52Z</time></trkpt><trkpt lat="45.74120131872789" lon="9.116984926329346"><ele>310.0</ele><time>2026-04-03T14:36:58Z</time></trkpt><trkpt lat="45.74118742475171" lon="9.117086738584316"><ele>310.0</ele><time>2026-04-03T14:36:59Z</time></trkpt><trkpt lat="45.74118856902958" lon="9.117196286635377"><ele>310.0</ele><time>2026-04-03T14:37:00Z</time></trkpt><trkpt lat="45.741182742872255" lon="9.117314445369848"><ele>310.0</ele><time>2026-04-03T14:37:01Z</time></trkpt><trkpt lat="45.7411711950925" lon="9.117449225210995"><ele>310.0</ele><time>2026-04-03T14:37:02Z</time></trkpt><trkpt lat="45.74116167774669" lon="9.117590129258692"><ele>310.0</ele><time>2026-04-03T14:37:03Z</time></trkpt><trkpt lat="45.74114749170269" lon="9.117736411322808"><ele>310.0</ele><time>2026-04-03T14:37:04Z</time></trkpt><trkpt lat="45.74113588539274" lon="9.117889224799567"><ele>310.0</ele><time>2026-04-03T14:37:05Z</time></trkpt><trkpt lat="45.741128853784254" lon="9.118049945223378"><ele>310.0</ele><time>2026-04-03T14:37:06Z</time></trkpt><trkpt lat="45.741117809863866" lon="9.118211622085886"><ele>310.0</ele><time>2026-04-03T14:37:07Z</time></trkpt><trkpt lat="45.74110266080909" lon="9.118364516896694"><ele>310.0</ele><time>2026-04-03T14:37:08Z</time></trkpt><trkpt lat="45.741085171280254" lon="9.118503095367222"><ele>310.0</ele><time>2026-04-03T14:37:08.999Z</time></trkpt><trkpt lat="45.74106639721874" lon="9.118620573911953"><ele>309.8</ele><time>2026-04-03T14:37:09.999Z</time></trkpt><trkpt lat="45.74104221586114" lon="9.118714974313429"><ele>309.6</ele><time>2026-04-03T14:37:10.999Z</time></trkpt><trkpt lat="45.741013463566105" lon="9.11881564692056"><ele>309.4</ele><time>2026-04-03T14:37:11.999Z</time></trkpt><trkpt lat="45.74097678262148" lon="9.11893191439585"><ele>309.2</ele><time>2026-04-03T14:37:12.999Z</time></trkpt><trkpt lat="45.740962447531096" lon="9.11907507051884"><ele>309.0</ele><time>2026-04-03T14:37:13.999Z</time></trkpt><trkpt lat="45.74096646117705" lon="9.119248059208681"><ele>309.0</ele><time>2026-04-03T14:37:14.999Z</time></trkpt><trkpt lat="45.74097220730268" lon="9.11941296142424"><ele>309.0</ele><time>2026-04-03T14:37:15.999Z</time></trkpt><trkpt lat="45.74096384518563" lon="9.119547154428712"><ele>309.0</ele><time>2026-04-03T14:37:16.999Z</time></trkpt><trkpt lat="45.740944474038" lon="9.119678433464781"><ele>309.0</ele><time>2026-04-03T14:37:17.999Z</time></trkpt><trkpt lat="45.74092224436136" lon="9.11982186859796"><ele>309.0</ele><time>2026-04-03T14:37:18.999Z</time></trkpt><trkpt lat="45.74089973232955" lon="9.119954860679655"><ele>309.0</ele><time>2026-04-03T14:37:19.999Z</time></trkpt><trkpt lat="45.740881588838334" lon="9.12007435439671"><ele>309.0</ele><time>2026-04-03T14:37:20.999Z</time></trkpt><trkpt lat="45.74086620446453" lon="9.120168581332406"><ele>309.0</ele><time>2026-04-03T14:37:21.999Z</time></trkpt><trkpt lat="45.740841494196076" lon="9.12029914476117"><ele>309.0</ele><time>2026-04-03T14:37:23.999Z</time></trkpt><trkpt lat="45.740824641071725" lon="9.120405971813877"><ele>309.0</ele><time>2026-04-03T14:37:25.999Z</time></trkpt><trkpt lat="45.74080201694709" lon="9.12055667568554"><ele>309.0</ele><time>2026-04-03T14:37:27.999Z</time></trkpt><trkpt lat="45.7407910181667" lon="9.12064594694851"><ele>309.1666666666667</ele><time>2026-04-03T14:37:28.999Z</time></trkpt><trkpt lat="45.74076170610711" lon="9.120817417092756"><ele>309.3333333333333</ele><time>2026-04-03T14:37:30.999Z</time></trkpt><trkpt lat="45.74075313687841" lon="9.120909197642044"><ele>309.5</ele><time>2026-04-03T14:37:31.999Z</time></trkpt><trkpt lat="45.74073206614037" lon="9.121071011568528"><ele>309.66666666666663</ele><time>2026-04-03T14:37:33.999Z</time></trkpt><trkpt lat="45.74071413221456" lon="9.121165080486406"><ele>309.8333333333333</ele><time>2026-04-03T14:37:35.999Z</time></trkpt><trkpt lat="45.740690474338486" lon="9.121261594421766"><ele>310.0</ele><time>2026-04-03T14:37:43.999Z</time></trkpt><trkpt lat="45.74067269914481" lon="9.121350102634121"><ele>310.0</ele><time>2026-04-03T14:37:44.999Z</time></trkpt><trkpt lat="45.7406495357942" lon="9.121467662204903"><ele>310.0</ele><time>2026-04-03T14:37:45.999Z</time></trkpt><trkpt lat="45.740632277436184" lon="9.12159324459103"><ele>310.0</ele><time>2026-04-03T14:37:46.999Z</time></trkpt><trkpt lat="45.74060856609286" lon="9.121731934191574"><ele>310.0</ele><time>2026-04-03T14:37:47.999Z</time></trkpt><trkpt lat="45.740583334276174" lon="9.12189001410677"><ele>310.0</ele><time>2026-04-03T14:37:48.999Z</time></trkpt><trkpt lat="45.740552594698194" lon="9.122067154049903"><ele>310.3333333333333</ele><time>2026-04-03T14:37:50Z</time></trkpt><trkpt lat="45.740514979270834" lon="9.1222695127381"><ele>310.6666666666667</ele><time>2026-04-03T14:37:51Z</time></trkpt><trkpt lat="45.74048140534466" lon="9.122491723571489"><ele>311.0</ele><time>2026-04-03T14:37:52Z</time></trkpt><trkpt lat="45.7404431494399" lon="9.122724296894821"><ele>311.33333333333337</ele><time>2026-04-03T14:37:53Z</time></trkpt><trkpt lat="45.74039997926584" lon="9.122963573786285"><ele>311.6666666666667</ele><time>2026-04-03T14:37:54Z</time></trkpt><trkpt lat="45.740360176042664" lon="9.12321667998453"><ele>312.0</ele><time>2026-04-03T14:37:55Z</time></trkpt><trkpt lat="45.74032107105714" lon="9.123464619262759"><ele>314.0</ele><time>2026-04-03T14:37:56Z</time></trkpt><trkpt lat="45.74028494600631" lon="9.12368689622624"><ele>316.0</ele><time>2026-04-03T14:37:57Z</time></trkpt><trkpt lat="45.740244609654525" lon="9.123906799440512"><ele>318.0</ele><time>2026-04-03T14:37:58Z</time></trkpt><trkpt lat="45.74020567853955" lon="9.124126191985315"><ele>319.5</ele><time>2026-04-03T14:37:59Z</time></trkpt><trkpt lat="45.74017097153771" lon="9.124334287452857"><ele>321.0</ele><time>2026-04-03T14:38:00Z</time></trkpt><trkpt lat="45.74014554106747" lon="9.124513973769659"><ele>322.5</ele><time>2026-04-03T14:38:01Z</time></trkpt><trkpt lat="45.74012369086252" lon="9.124662214970899"><ele>324.0</ele><time>2026-04-03T14:38:02Z</time></trkpt><trkpt lat="45.74009954116055" lon="9.124778257185765"><ele>324.0</ele><time>2026-04-03T14:38:03Z</time></trkpt><trkpt lat="45.740081737961034" lon="9.124874816193596"><ele>324.0</ele><time>2026-04-03T14:38:04Z</time></trkpt><trkpt lat="45.740065546389665" lon="9.125008437696609"><ele>324.0</ele><time>2026-04-03T14:38:06Z</time></trkpt><trkpt lat="45.74004774742555" lon="9.125127310516453"><ele>324.0</ele><time>2026-04-03T14:38:10Z</time></trkpt><trkpt lat="45.74003300202879" lon="9.125250934000096"><ele>324.0</ele><time>2026-04-03T14:38:46.999Z</time></trkpt><trkpt lat="45.740008255520934" lon="9.125357234557589"><ele>324.0</ele><time>2026-04-03T14:38:47.999Z</time></trkpt><trkpt lat="45.73997930484351" lon="9.125494045466553"><ele>325.25</ele><time>2026-04-03T14:38:48.999Z</time></trkpt><trkpt lat="45.73995160708629" lon="9.125626434458194"><ele>326.5</ele><time>2026-04-03T14:38:49.999Z</time></trkpt><trkpt lat="45.73992088802666" lon="9.125790266889021"><ele>327.75</ele><time>2026-04-03T14:38:50.999Z</time></trkpt><trkpt lat="45.73989336256972" lon="9.125969464928268"><ele>329.0</ele><time>2026-04-03T14:38:51.999Z</time></trkpt><trkpt lat="45.739865990108804" lon="9.126153273635953"><ele>330.1666666666667</ele><time>2026-04-03T14:38:52.999Z</time></trkpt><trkpt lat="45.739854165674515" lon="9.126269831177526"><ele>331.33333333333337</ele><time>2026-04-03T14:38:53.999Z</time></trkpt><trkpt lat="45.73984222928818" lon="9.126380783637263"><ele>332.5</ele><time>2026-04-03T14:38:55.999Z</time></trkpt><trkpt lat="45.73982684829157" lon="9.126469358116605"><ele>333.6666666666667</ele><time>2026-04-03T14:38:56.999Z</time></trkpt><trkpt lat="45.739813134591024" lon="9.12658512761074"><ele>334.8333333333333</ele><time>2026-04-03T14:38:57.999Z</time></trkpt><trkpt lat="45.73979667644819" lon="9.126707950107457"><ele>336.0</ele><time>2026-04-03T14:38:58.999Z</time></trkpt><trkpt lat="45.739778192522905" lon="9.12682492194558"><ele>337.3333333333333</ele><time>2026-04-03T14:38:59.999Z</time></trkpt><trkpt lat="45.739754749392425" lon="9.126939682860975"><ele>338.6666666666667</ele><time>2026-04-03T14:39:00.999Z</time></trkpt><trkpt lat="45.739731881270394" lon="9.127051781226891"><ele>340.0</ele><time>2026-04-03T14:39:01.999Z</time></trkpt><trkpt lat="45.73970692937678" lon="9.127142307347983"><ele>341.33333333333337</ele><time>2026-04-03T14:39:02.999Z</time></trkpt><trkpt lat="45.739635862014815" lon="9.127268284290077"><ele>342.6666666666667</ele><time>2026-04-03T14:39:04.999Z</time></trkpt><trkpt lat="45.73954605699244" lon="9.1272759594878"><ele>344.0</ele><time>2026-04-03T14:39:05.999Z</time></trkpt><trkpt lat="45.73944971910026" lon="9.12723219176894"><ele>344.25</ele><time>2026-04-03T14:39:06.999Z</time></trkpt><trkpt lat="45.739320572249014" lon="9.127167730630962"><ele>344.5</ele><time>2026-04-03T14:39:07.999Z</time></trkpt><trkpt lat="45.7391905950923" lon="9.127107558875842"><ele>344.75</ele><time>2026-04-03T14:39:08.999Z</time></trkpt><trkpt lat="45.739058789937424" lon="9.127077390427987"><ele>345.0</ele><time>2026-04-03T14:39:09.999Z</time></trkpt><trkpt lat="45.738931424765596" lon="9.127036182616346"><ele>345.0</ele><time>2026-04-03T14:39:10.999Z</time></trkpt><trkpt lat="45.7388106640087" lon="9.126981758309016"><ele>345.0</ele><time>2026-04-03T14:39:11.999Z</time></trkpt><trkpt lat="45.7386942745066" lon="9.126895350907063"><ele>345.0</ele><time>2026-04-03T14:39:12.999Z</time></trkpt><trkpt lat="45.73856389493594" lon="9.126820211156474"><ele>345.0</ele><time>2026-04-03T14:39:13.999Z</time></trkpt><trkpt lat="45.738431887595816" lon="9.126766799849802"><ele>345.4</ele><time>2026-04-03T14:39:14.999Z</time></trkpt><trkpt lat="45.738320581205656" lon="9.126751240078724"><ele>345.8</ele><time>2026-04-03T14:39:15.999Z</time></trkpt><trkpt lat="45.73823333830885" lon="9.12673899170604"><ele>346.20000000000005</ele><time>2026-04-03T14:39:16.999Z</time></trkpt><trkpt lat="45.738146346179725" lon="9.126754473717376"><ele>346.6</ele><time>2026-04-03T14:39:17.999Z</time></trkpt><trkpt lat="45.738055301397175" lon="9.126813306771629"><ele>347.0</ele><time>2026-04-03T14:39:18.999Z</time></trkpt><trkpt lat="45.737964569839356" lon="9.126928931378592"><ele>347.0</ele><time>2026-04-03T14:39:19.999Z</time></trkpt><trkpt lat="45.737876205806494" lon="9.127067041948546"><ele>347.0</ele><time>2026-04-03T14:39:20.999Z</time></trkpt><trkpt lat="45.73780057802317" lon="9.127155153862219"><ele>347.0</ele><time>2026-04-03T14:39:21.999Z</time></trkpt><trkpt lat="45.737735296930516" lon="9.127225271866987"><ele>347.0</ele><time>2026-04-03T14:39:22.999Z</time></trkpt><trkpt lat="45.73767948797428" lon="9.12729628028365"><ele>347.0</ele><time>2026-04-03T14:39:23.999Z</time></trkpt><trkpt lat="45.73758872792513" lon="9.127364636907147"><ele>347.40000000000003</ele><time>2026-04-03T14:39:25.999Z</time></trkpt><trkpt lat="45.73752986231344" lon="9.127328125416314"><ele>347.8</ele><time>2026-04-03T14:39:26.999Z</time></trkpt><trkpt lat="45.73747285156047" lon="9.12723837895423"><ele>348.2</ele><time>2026-04-03T14:39:27.999Z</time></trkpt><trkpt lat="45.737402844446585" lon="9.127108719063726"><ele>348.6</ele><time>2026-04-03T14:39:28.999Z</time></trkpt><trkpt lat="45.737326159661976" lon="9.126973681655773"><ele>349.0</ele><time>2026-04-03T14:39:29.999Z</time></trkpt><trkpt lat="45.737250381978335" lon="9.126843120498851"><ele>349.0</ele><time>2026-04-03T14:39:30.999Z</time></trkpt><trkpt lat="45.7371757195219" lon="9.126703699433149"><ele>349.0</ele><time>2026-04-03T14:39:31.999Z</time></trkpt><trkpt lat="45.737104227262044" lon="9.126558388479667"><ele>349.0</ele><time>2026-04-03T14:39:32.999Z</time></trkpt><trkpt lat="45.73703537223225" lon="9.12642906378817"><ele>349.0</ele><time>2026-04-03T14:39:33.999Z</time></trkpt><trkpt lat="45.736961604250745" lon="9.126311353902036"><ele>349.16666666666663</ele><time>2026-04-03T14:39:34.999Z</time></trkpt><trkpt lat="45.736890897722176" lon="9.126205067004815"><ele>349.3333333333333</ele><time>2026-04-03T14:39:35.999Z</time></trkpt><trkpt lat="45.73682920328614" lon="9.126104536853731"><ele>349.5</ele><time>2026-04-03T14:39:36.999Z</time></trkpt><trkpt lat="45.73677637270746" lon="9.126016316247032"><ele>349.6666666666667</ele><time>2026-04-03T14:39:37.999Z</time></trkpt><trkpt lat="45.73673255115379" lon="9.125937424820563"><ele>349.83333333333337</ele><time>2026-04-03T14:39:38.999Z</time></trkpt><trkpt lat="45.73666103291496" lon="9.125833775847976"><ele>350.0</ele><time>2026-04-03T14:39:40.999Z</time></trkpt><trkpt lat="45.73658936991976" lon="9.125800996834176"><ele>350.0</ele><time>2026-04-03T14:39:42.999Z</time></trkpt><trkpt lat="45.736496315640856" lon="9.125920367135038"><ele>350.0</ele><time>2026-04-03T14:39:44.999Z</time></trkpt><trkpt lat="45.73644479515969" lon="9.126006146199579"><ele>350.0</ele><time>2026-04-03T14:39:45.999Z</time></trkpt><trkpt lat="45.73638593171121" lon="9.126086745439114"><ele>350.0</ele><time>2026-04-03T14:39:46.999Z</time></trkpt><trkpt lat="45.73634048041953" lon="9.12615593636253"><ele>350.0</ele><time>2026-04-03T14:39:47.999Z</time></trkpt><trkpt lat="45.73625558388541" lon="9.1262939169635"><ele>350.0</ele><time>2026-04-03T14:39:49.999Z</time></trkpt><trkpt lat="45.73620977179019" lon="9.12636420668962"><ele>350.0</ele><time>2026-04-03T14:39:50.999Z</time></trkpt><trkpt lat="45.736151645737706" lon="9.126427740805681"><ele>350.0</ele><time>2026-04-03T14:39:51.999Z</time></trkpt><trkpt lat="45.736105974572425" lon="9.126494154375655"><ele>350.0</ele><time>2026-04-03T14:39:52.999Z</time></trkpt><trkpt lat="45.73606667381934" lon="9.126566328284943"><ele>350.0</ele><time>2026-04-03T14:39:53.999Z</time></trkpt><trkpt lat="45.736014344043625" lon="9.12667602547945"><ele>350.0</ele><time>2026-04-03T14:39:55.999Z</time></trkpt><trkpt lat="45.736041344414055" lon="9.126805456201952"><ele>350.6</ele><time>2026-04-03T14:39:57.999Z</time></trkpt><trkpt lat="45.73608044201324" lon="9.126937676049236"><ele>351.2</ele><time>2026-04-03T14:39:59.999Z</time></trkpt><trkpt lat="45.73610890092507" lon="9.12706173241951"><ele>351.79999999999995</ele><time>2026-04-03T14:40:01.999Z</time></trkpt><trkpt lat="45.73613801623254" lon="9.127155783208966"><ele>352.4</ele><time>2026-04-03T14:40:03.999Z</time></trkpt><trkpt lat="45.73617358620772" lon="9.12726383623331"><ele>353.0</ele><time>2026-04-03T14:40:25.999Z</time></trkpt><trkpt lat="45.736219159767366" lon="9.127432982013508"><ele>353.59999999999997</ele><time>2026-04-03T14:40:27.999Z</time></trkpt><trkpt lat="45.73628471214985" lon="9.127582252191168"><ele>354.2</ele><time>2026-04-03T14:40:29.999Z</time></trkpt><trkpt lat="45.736329714312454" lon="9.127719642874043"><ele>354.8</ele><time>2026-04-03T14:40:31.999Z</time></trkpt><trkpt lat="45.736349926860434" lon="9.12784509463442"><ele>355.4</ele><time>2026-04-03T14:40:33.999Z</time></trkpt><trkpt lat="45.73632576596578" lon="9.127981141534795"><ele>356.0</ele><time>2026-04-03T14:40:35.999Z</time></trkpt><trkpt lat="45.73624931964758" lon="9.128098861385745"><ele>356.0</ele><time>2026-04-03T14:40:37.999Z</time></trkpt><trkpt lat="45.736153135638595" lon="9.128210661454318"><ele>356.0</ele><time>2026-04-03T14:40:39.999Z</time></trkpt><trkpt lat="45.736093654723" lon="9.12826578373145"><ele>356.0</ele><time>2026-04-03T14:40:40.999Z</time></trkpt><trkpt lat="45.73603462563321" lon="9.12833096353546"><ele>356.0</ele><time>2026-04-03T14:40:41.999Z</time></trkpt><trkpt lat="45.73596698963523" lon="9.128401662221485"><ele>356.0</ele><time>2026-04-03T14:40:42.999Z</time></trkpt><trkpt lat="45.73590259041921" lon="9.128463411103745"><ele>356.0</ele><time>2026-04-03T14:40:43.999Z</time></trkpt><trkpt lat="45.73584532967512" lon="9.128523043355582"><ele>356.1666666666667</ele><time>2026-04-03T14:40:44.999Z</time></trkpt><trkpt lat="45.73579207791554" lon="9.128574948398366"><ele>356.33333333333337</ele><time>2026-04-03T14:40:45.999Z</time></trkpt><trkpt lat="45.735697689279164" lon="9.128668467547078"><ele>356.5</ele><time>2026-04-03T14:40:47.999Z</time></trkpt><trkpt lat="45.735639792603976" lon="9.128735427297475"><ele>356.6666666666667</ele><time>2026-04-03T14:40:50.999Z</time></trkpt><trkpt lat="45.73556525362974" lon="9.12880340034257"><ele>356.8333333333333</ele><time>2026-04-03T14:40:56.999Z</time></trkpt><trkpt lat="45.73551485771236" lon="9.128863655083997"><ele>357.0</ele><time>2026-04-03T14:40:57.999Z</time></trkpt><trkpt lat="45.73544654670877" lon="9.128927671734408"><ele>357.0</ele><time>2026-04-03T14:40:58.999Z</time></trkpt><trkpt lat="45.73537915858491" lon="9.128991424135986"><ele>357.0</ele><time>2026-04-03T14:40:59.999Z</time></trkpt><trkpt lat="45.73529067012505" lon="9.12907535243614"><ele>357.0</ele><time>2026-04-03T14:41:00.999Z</time></trkpt><trkpt lat="45.73519583705565" lon="9.129159177860126"><ele>357.0</ele><time>2026-04-03T14:41:01.999Z</time></trkpt><trkpt lat="45.73509642160397" lon="9.129243051323842"><ele>357.0</ele><time>2026-04-03T14:41:02.999Z</time></trkpt><trkpt lat="45.73499885016064" lon="9.12929996621197"><ele>355.20000000000005</ele><time>2026-04-03T14:41:03.999Z</time></trkpt><trkpt lat="45.734911596470646" lon="9.12934770146229"><ele>353.4</ele><time>2026-04-03T14:41:04.999Z</time></trkpt><trkpt lat="45.734824280954626" lon="9.129389583294156"><ele>351.6</ele><time>2026-04-03T14:41:05.999Z</time></trkpt><trkpt lat="45.73475373479083" lon="9.129438651308583"><ele>349.79999999999995</ele><time>2026-04-03T14:41:06.999Z</time></trkpt><trkpt lat="45.73467700154556" lon="9.12951663063037"><ele>348.0</ele><time>2026-04-03T14:41:07.999Z</time></trkpt><trkpt lat="45.734606623169334" lon="9.129621396029018"><ele>348.0</ele><time>2026-04-03T14:41:08.999Z</time></trkpt><trkpt lat="45.73455236849803" lon="9.129727541224034"><ele>348.0</ele><time>2026-04-03T14:41:09.999Z</time></trkpt><trkpt lat="45.734508345865784" lon="9.12982236764454"><ele>348.0</ele><time>2026-04-03T14:41:10.999Z</time></trkpt><trkpt lat="45.73443918765485" lon="9.129928947477776"><ele>348.0</ele><time>2026-04-03T14:41:12.999Z</time></trkpt><trkpt lat="45.73436004286323" lon="9.13000073885379"><ele>348.0</ele><time>2026-04-03T14:41:50.998Z</time></trkpt><trkpt lat="45.73431139843678" lon="9.130077296264087"><ele>348.0</ele><time>2026-04-03T14:41:51.998Z</time></trkpt><trkpt lat="45.734260402980205" lon="9.130169295753703"><ele>346.5</ele><time>2026-04-03T14:41:52.998Z</time></trkpt><trkpt lat="45.73419532992077" lon="9.130283200129414"><ele>345.0</ele><time>2026-04-03T14:41:53.998Z</time></trkpt><trkpt lat="45.73412398452833" lon="9.130398581352264"><ele>343.5</ele><time>2026-04-03T14:41:54.998Z</time></trkpt><trkpt lat="45.73403302326417" lon="9.130515457561938"><ele>342.0</ele><time>2026-04-03T14:41:55.998Z</time></trkpt><trkpt lat="45.73392518956024" lon="9.130625725624272"><ele>341.0</ele><time>2026-04-03T14:41:56.998Z</time></trkpt><trkpt lat="45.733818919825" lon="9.130735276186188"><ele>340.0</ele><time>2026-04-03T14:41:57.998Z</time></trkpt><trkpt lat="45.73371498887671" lon="9.130851597257228"><ele>339.0</ele><time>2026-04-03T14:41:58.998Z</time></trkpt><trkpt lat="45.73360601874834" lon="9.130972645016994"><ele>338.0</ele><time>2026-04-03T14:41:59.998Z</time></trkpt><trkpt lat="45.733491715755775" lon="9.131099214427408"><ele>337.6666666666667</ele><time>2026-04-03T14:42:00.998Z</time></trkpt><trkpt lat="45.73337124849665" lon="9.131235902657306"><ele>337.3333333333333</ele><time>2026-04-03T14:42:01.999Z</time></trkpt><trkpt lat="45.73324432919325" lon="9.131375020115446"><ele>337.0</ele><time>2026-04-03T14:42:02.999Z</time></trkpt><trkpt lat="45.7331092063274" lon="9.131523489041932"><ele>336.5</ele><time>2026-04-03T14:42:03.999Z</time></trkpt><trkpt lat="45.73297969667609" lon="9.131665379730583"><ele>336.0</ele><time>2026-04-03T14:42:04.999Z</time></trkpt><trkpt lat="45.732864646847624" lon="9.131798274875688"><ele>335.5</ele><time>2026-04-03T14:42:05.999Z</time></trkpt><trkpt lat="45.732760359217906" lon="9.131919196733252"><ele>335.0</ele><time>2026-04-03T14:42:06.999Z</time></trkpt><trkpt lat="45.73266293453331" lon="9.132026367105953"><ele>334.4</ele><time>2026-04-03T14:42:07.999Z</time></trkpt><trkpt lat="45.732572610362936" lon="9.13212479696257"><ele>333.8</ele><time>2026-04-03T14:42:08.999Z</time></trkpt><trkpt lat="45.73248711775949" lon="9.132216696538832"><ele>333.20000000000005</ele><time>2026-04-03T14:42:09.999Z</time></trkpt><trkpt lat="45.73240364056696" lon="9.132303355535225"><ele>332.6</ele><time>2026-04-03T14:42:10.999Z</time></trkpt><trkpt lat="45.73231429138548" lon="9.132396716043688"><ele>332.0</ele><time>2026-04-03T14:42:11.999Z</time></trkpt><trkpt lat="45.732216406486266" lon="9.132510095642104"><ele>331.75</ele><time>2026-04-03T14:42:12.999Z</time></trkpt><trkpt lat="45.732108416756795" lon="9.132632405835112"><ele>331.5</ele><time>2026-04-03T14:42:13.999Z</time></trkpt><trkpt lat="45.731988210004474" lon="9.132763513767085"><ele>331.25</ele><time>2026-04-03T14:42:14.999Z</time></trkpt><trkpt lat="45.73186489261674" lon="9.132896047186437"><ele>331.0</ele><time>2026-04-03T14:42:15.999Z</time></trkpt><trkpt lat="45.73173493047145" lon="9.133036043415363"><ele>330.3333333333333</ele><time>2026-04-03T14:42:16.999Z</time></trkpt><trkpt lat="45.73159678140316" lon="9.13318901439056"><ele>329.6666666666667</ele><time>2026-04-03T14:42:17.999Z</time></trkpt><trkpt lat="45.73145129946075" lon="9.133353226702766"><ele>329.0</ele><time>2026-04-03T14:42:18.999Z</time></trkpt><trkpt lat="45.73130071479182" lon="9.133529857910139"><ele>329.0</ele><time>2026-04-03T14:42:19.999Z</time></trkpt><trkpt lat="45.73114930972792" lon="9.133696652055061"><ele>329.0</ele><time>2026-04-03T14:42:20.999Z</time></trkpt><trkpt lat="45.73101742098568" lon="9.13384393333663"><ele>329.0</ele><time>2026-04-03T14:42:21.999Z</time></trkpt><trkpt lat="45.73089949773221" lon="9.133978081693689"><ele>328.6</ele><time>2026-04-03T14:42:22.999Z</time></trkpt><trkpt lat="45.73078872431158" lon="9.134098630321175"><ele>328.2</ele><time>2026-04-03T14:42:23.999Z</time></trkpt><trkpt lat="45.730693494894375" lon="9.134196099711328"><ele>327.8</ele><time>2026-04-03T14:42:24.999Z</time></trkpt><trkpt lat="45.73062202724129" lon="9.134276220808701"><ele>327.40000000000003</ele><time>2026-04-03T14:42:25.999Z</time></trkpt><trkpt lat="45.730564993951006" lon="9.13432922434925"><ele>327.0</ele><time>2026-04-03T14:42:26.999Z</time></trkpt><trkpt lat="45.7304780896161" lon="9.134382826597115"><ele>327.0</ele><time>2026-04-03T14:42:28.999Z</time></trkpt><trkpt lat="45.730390671319995" lon="9.13444608465846"><ele>327.0</ele><time>2026-04-03T14:42:30.999Z</time></trkpt><trkpt lat="45.73034630164882" lon="9.134517630745172"><ele>327.0</ele><time>2026-04-03T14:42:31.999Z</time></trkpt><trkpt lat="45.73030364364722" lon="9.134595989676162"><ele>327.0</ele><time>2026-04-03T14:42:32.999Z</time></trkpt><trkpt lat="45.73021410102227" lon="9.134707968544113"><ele>327.0</ele><time>2026-04-03T14:42:34.999Z</time></trkpt><trkpt lat="45.73015739879921" lon="9.13476900830909"><ele>327.0</ele><time>2026-04-03T14:42:36.999Z</time></trkpt><trkpt lat="45.7300644227582" lon="9.134857467384872"><ele>326.0</ele><time>2026-04-03T14:42:38.999Z</time></trkpt><trkpt lat="45.72998873515835" lon="9.134938891417725"><ele>325.0</ele><time>2026-04-03T14:42:40.999Z</time></trkpt></trkseg></trk></gpx>